<?xml version="1.0" encoding="UTF-8" standalone="no" ?>
<gpx xmlns="http://www.topografix.com/GPX/1/1" xmlns:xsi="http://www.w3.org/2001/XMLSchema-instance" xsi:schemaLocation="http://www.topografix.com/GPX/1/1 http://www.topografix.com/GPX/1/1/gpx.xsd" version="1.1" creator="VisuGPX - https://www.visugpx.com">
  <metadata>
    <name>Pornichet 06/02/2020</name>
    <desc><![CDATA[Sortie VTT du jeudi 06 février 2020
]]></desc>
  </metadata>
  <trk>
    <name><![CDATA[Pornichet Cyclisme]]></name>
    <trkseg>
      <trkpt lat="47.26407" lon="-2.31563">
        <ele>9.7</ele>
        <time>2020-02-06T08:27:54.000Z</time>
      </trkpt>
      <trkpt lat="47.26407" lon="-2.3158">
        <ele>9.7</ele>
        <time>2020-02-06T08:27:58.000Z</time>
      </trkpt>
      <trkpt lat="47.26407" lon="-2.31585">
        <ele>-0.20000000298023</ele>
        <time>2020-02-06T08:27:59.000Z</time>
      </trkpt>
      <trkpt lat="47.26407" lon="-2.3159">
        <ele>-0.20000000298023</ele>
        <time>2020-02-06T08:28:00.000Z</time>
      </trkpt>
      <trkpt lat="47.26407" lon="-2.31609">
        <ele>-0.20000000298023</ele>
        <time>2020-02-06T08:28:05.000Z</time>
      </trkpt>
      <trkpt lat="47.26407" lon="-2.31609">
        <ele>-0.20000000298023</ele>
        <time>2020-02-06T08:28:06.000Z</time>
      </trkpt>
      <trkpt lat="47.26407" lon="-2.31612">
        <ele>-0.20000000298023</ele>
        <time>2020-02-06T08:28:10.000Z</time>
      </trkpt>
      <trkpt lat="47.26407" lon="-2.31616">
        <ele>-0.20000000298023</ele>
        <time>2020-02-06T08:28:12.000Z</time>
      </trkpt>
      <trkpt lat="47.26408" lon="-2.31641">
        <ele>-0.20000000298023</ele>
        <time>2020-02-06T08:28:19.000Z</time>
      </trkpt>
      <trkpt lat="47.26406" lon="-2.31661">
        <ele>-0.20000000298023</ele>
        <time>2020-02-06T08:28:23.000Z</time>
      </trkpt>
      <trkpt lat="47.26397" lon="-2.31666">
        <ele>-0.20000000298023</ele>
        <time>2020-02-06T08:28:26.000Z</time>
      </trkpt>
      <trkpt lat="47.26373" lon="-2.31679">
        <ele>-0.20000000298023</ele>
        <time>2020-02-06T08:28:32.000Z</time>
      </trkpt>
      <trkpt lat="47.26365" lon="-2.31683">
        <ele>-0.20000000298023</ele>
        <time>2020-02-06T08:28:34.000Z</time>
      </trkpt>
      <trkpt lat="47.26356" lon="-2.31688">
        <ele>-0.20000000298023</ele>
        <time>2020-02-06T08:28:36.000Z</time>
      </trkpt>
      <trkpt lat="47.26344" lon="-2.3169">
        <ele>-0.60000002384186</ele>
        <time>2020-02-06T08:28:39.000Z</time>
      </trkpt>
      <trkpt lat="47.26339" lon="-2.31692">
        <ele>-1</ele>
        <time>2020-02-06T08:28:40.000Z</time>
      </trkpt>
      <trkpt lat="47.26335" lon="-2.31694">
        <ele>-1.3999999761581</ele>
        <time>2020-02-06T08:28:41.000Z</time>
      </trkpt>
      <trkpt lat="47.26331" lon="-2.31697">
        <ele>-2</ele>
        <time>2020-02-06T08:28:42.000Z</time>
      </trkpt>
      <trkpt lat="47.26327" lon="-2.31699">
        <ele>-2.4000000953674</ele>
        <time>2020-02-06T08:28:43.000Z</time>
      </trkpt>
      <trkpt lat="47.26314" lon="-2.31707">
        <ele>-2.4000000953674</ele>
        <time>2020-02-06T08:28:47.000Z</time>
      </trkpt>
      <trkpt lat="47.26307" lon="-2.31708">
        <ele>-2.7999999523163</ele>
        <time>2020-02-06T08:28:49.000Z</time>
      </trkpt>
      <trkpt lat="47.26303" lon="-2.31707">
        <ele>-3.2000000476837</ele>
        <time>2020-02-06T08:28:50.000Z</time>
      </trkpt>
      <trkpt lat="47.263" lon="-2.31705">
        <ele>-3.5999999046326</ele>
        <time>2020-02-06T08:28:51.000Z</time>
      </trkpt>
      <trkpt lat="47.26298" lon="-2.31702">
        <ele>-4</ele>
        <time>2020-02-06T08:28:52.000Z</time>
      </trkpt>
      <trkpt lat="47.26295" lon="-2.31698">
        <ele>-4.4000000953674</ele>
        <time>2020-02-06T08:28:53.000Z</time>
      </trkpt>
      <trkpt lat="47.26289" lon="-2.3169">
        <ele>-4.4000000953674</ele>
        <time>2020-02-06T08:28:55.000Z</time>
      </trkpt>
      <trkpt lat="47.26282" lon="-2.31671">
        <ele>-4.4000000953674</ele>
        <time>2020-02-06T08:28:59.000Z</time>
      </trkpt>
      <trkpt lat="47.26277" lon="-2.31662">
        <ele>-4.4000000953674</ele>
        <time>2020-02-06T08:29:01.000Z</time>
      </trkpt>
      <trkpt lat="47.26271" lon="-2.31652">
        <ele>-4.4000000953674</ele>
        <time>2020-02-06T08:29:03.000Z</time>
      </trkpt>
      <trkpt lat="47.26266" lon="-2.31642">
        <ele>-4.4000000953674</ele>
        <time>2020-02-06T08:29:05.000Z</time>
      </trkpt>
      <trkpt lat="47.26264" lon="-2.31637">
        <ele>-4.4000000953674</ele>
        <time>2020-02-06T08:29:06.000Z</time>
      </trkpt>
      <trkpt lat="47.2626" lon="-2.31632">
        <ele>-4.4000000953674</ele>
        <time>2020-02-06T08:29:07.000Z</time>
      </trkpt>
      <trkpt lat="47.26246" lon="-2.31611">
        <ele>-4.4000000953674</ele>
        <time>2020-02-06T08:29:11.000Z</time>
      </trkpt>
      <trkpt lat="47.26238" lon="-2.31604">
        <ele>-4.4000000953674</ele>
        <time>2020-02-06T08:29:13.000Z</time>
      </trkpt>
      <trkpt lat="47.26229" lon="-2.31597">
        <ele>-4.4000000953674</ele>
        <time>2020-02-06T08:29:15.000Z</time>
      </trkpt>
      <trkpt lat="47.26215" lon="-2.31592">
        <ele>-4.4000000953674</ele>
        <time>2020-02-06T08:29:18.000Z</time>
      </trkpt>
      <trkpt lat="47.26189" lon="-2.31595">
        <ele>-4.4000000953674</ele>
        <time>2020-02-06T08:29:23.000Z</time>
      </trkpt>
      <trkpt lat="47.26184" lon="-2.31596">
        <ele>-4.4000000953674</ele>
        <time>2020-02-06T08:29:24.000Z</time>
      </trkpt>
      <trkpt lat="47.26179" lon="-2.31598">
        <ele>-4.4000000953674</ele>
        <time>2020-02-06T08:29:25.000Z</time>
      </trkpt>
      <trkpt lat="47.26159" lon="-2.31603">
        <ele>-4.4000000953674</ele>
        <time>2020-02-06T08:29:29.000Z</time>
      </trkpt>
      <trkpt lat="47.26145" lon="-2.31608">
        <ele>-4.4000000953674</ele>
        <time>2020-02-06T08:29:32.000Z</time>
      </trkpt>
      <trkpt lat="47.26136" lon="-2.3161">
        <ele>-4.4000000953674</ele>
        <time>2020-02-06T08:29:34.000Z</time>
      </trkpt>
      <trkpt lat="47.26117" lon="-2.31612">
        <ele>-4.4000000953674</ele>
        <time>2020-02-06T08:29:38.000Z</time>
      </trkpt>
      <trkpt lat="47.26111" lon="-2.31611">
        <ele>-4.4000000953674</ele>
        <time>2020-02-06T08:29:39.000Z</time>
      </trkpt>
      <trkpt lat="47.26096" lon="-2.31596">
        <ele>-4.4000000953674</ele>
        <time>2020-02-06T08:29:43.000Z</time>
      </trkpt>
      <trkpt lat="47.2608" lon="-2.31581">
        <ele>-4.4000000953674</ele>
        <time>2020-02-06T08:29:48.000Z</time>
      </trkpt>
      <trkpt lat="47.26067" lon="-2.31598">
        <ele>-4.4000000953674</ele>
        <time>2020-02-06T08:29:52.000Z</time>
      </trkpt>
      <trkpt lat="47.26042" lon="-2.31632">
        <ele>-4.4000000953674</ele>
        <time>2020-02-06T08:29:59.000Z</time>
      </trkpt>
      <trkpt lat="47.26025" lon="-2.31651">
        <ele>-4.4000000953674</ele>
        <time>2020-02-06T08:30:03.000Z</time>
      </trkpt>
      <trkpt lat="47.26013" lon="-2.31662">
        <ele>-4.4000000953674</ele>
        <time>2020-02-06T08:30:06.000Z</time>
      </trkpt>
      <trkpt lat="47.25985" lon="-2.31678">
        <ele>-4.4000000953674</ele>
        <time>2020-02-06T08:30:12.000Z</time>
      </trkpt>
      <trkpt lat="47.25971" lon="-2.31686">
        <ele>-3.7999999523163</ele>
        <time>2020-02-06T08:30:15.000Z</time>
      </trkpt>
      <trkpt lat="47.25967" lon="-2.31689">
        <ele>-3.4000000953674</ele>
        <time>2020-02-06T08:30:16.000Z</time>
      </trkpt>
      <trkpt lat="47.25963" lon="-2.31692">
        <ele>-3</ele>
        <time>2020-02-06T08:30:17.000Z</time>
      </trkpt>
      <trkpt lat="47.25959" lon="-2.31695">
        <ele>-2.4000000953674</ele>
        <time>2020-02-06T08:30:18.000Z</time>
      </trkpt>
      <trkpt lat="47.25955" lon="-2.31699">
        <ele>-2</ele>
        <time>2020-02-06T08:30:19.000Z</time>
      </trkpt>
      <trkpt lat="47.2595" lon="-2.31703">
        <ele>-2</ele>
        <time>2020-02-06T08:30:20.000Z</time>
      </trkpt>
      <trkpt lat="47.25942" lon="-2.31713">
        <ele>-2</ele>
        <time>2020-02-06T08:30:22.000Z</time>
      </trkpt>
      <trkpt lat="47.25931" lon="-2.31731">
        <ele>-2</ele>
        <time>2020-02-06T08:30:25.000Z</time>
      </trkpt>
      <trkpt lat="47.25911" lon="-2.31776">
        <ele>-2</ele>
        <time>2020-02-06T08:30:31.000Z</time>
      </trkpt>
      <trkpt lat="47.25886" lon="-2.31833">
        <ele>-2</ele>
        <time>2020-02-06T08:30:39.000Z</time>
      </trkpt>
      <trkpt lat="47.25865" lon="-2.3187">
        <ele>-2</ele>
        <time>2020-02-06T08:30:45.000Z</time>
      </trkpt>
      <trkpt lat="47.25838" lon="-2.31898">
        <ele>-2</ele>
        <time>2020-02-06T08:30:51.000Z</time>
      </trkpt>
      <trkpt lat="47.2581" lon="-2.31918">
        <ele>-2</ele>
        <time>2020-02-06T08:30:57.000Z</time>
      </trkpt>
      <trkpt lat="47.25806" lon="-2.3192">
        <ele>-2</ele>
        <time>2020-02-06T08:30:58.000Z</time>
      </trkpt>
      <trkpt lat="47.25794" lon="-2.3193">
        <ele>-2</ele>
        <time>2020-02-06T08:31:01.000Z</time>
      </trkpt>
      <trkpt lat="47.25787" lon="-2.31937">
        <ele>-2</ele>
        <time>2020-02-06T08:31:03.000Z</time>
      </trkpt>
      <trkpt lat="47.2576" lon="-2.31959">
        <ele>-1.6000000238419</ele>
        <time>2020-02-06T08:31:10.000Z</time>
      </trkpt>
      <trkpt lat="47.25756" lon="-2.31962">
        <ele>-1.2000000476837</ele>
        <time>2020-02-06T08:31:11.000Z</time>
      </trkpt>
      <trkpt lat="47.25753" lon="-2.31965">
        <ele>-0.80000001192093</ele>
        <time>2020-02-06T08:31:12.000Z</time>
      </trkpt>
      <trkpt lat="47.25749" lon="-2.31968">
        <ele>-0.40000000596046</ele>
        <time>2020-02-06T08:31:13.000Z</time>
      </trkpt>
      <trkpt lat="47.25745" lon="-2.3197">
        <ele>0.20000000298023</ele>
        <time>2020-02-06T08:31:14.000Z</time>
      </trkpt>
      <trkpt lat="47.25733" lon="-2.31977">
        <ele>0.20000000298023</ele>
        <time>2020-02-06T08:31:17.000Z</time>
      </trkpt>
      <trkpt lat="47.25712" lon="-2.3199">
        <ele>0.60000002384186</ele>
        <time>2020-02-06T08:31:23.000Z</time>
      </trkpt>
      <trkpt lat="47.25709" lon="-2.31992">
        <ele>1</ele>
        <time>2020-02-06T08:31:24.000Z</time>
      </trkpt>
      <trkpt lat="47.25706" lon="-2.31993">
        <ele>2</ele>
        <time>2020-02-06T08:31:25.000Z</time>
      </trkpt>
      <trkpt lat="47.25703" lon="-2.31994">
        <ele>2.4000000953674</ele>
        <time>2020-02-06T08:31:26.000Z</time>
      </trkpt>
      <trkpt lat="47.25701" lon="-2.31993">
        <ele>2.4000000953674</ele>
        <time>2020-02-06T08:31:28.000Z</time>
      </trkpt>
      <trkpt lat="47.25697" lon="-2.31987">
        <ele>2.4000000953674</ele>
        <time>2020-02-06T08:31:31.000Z</time>
      </trkpt>
      <trkpt lat="47.25696" lon="-2.31984">
        <ele>2.7999999523163</ele>
        <time>2020-02-06T08:31:32.000Z</time>
      </trkpt>
      <trkpt lat="47.25695" lon="-2.3198">
        <ele>3.2000000476837</ele>
        <time>2020-02-06T08:31:33.000Z</time>
      </trkpt>
      <trkpt lat="47.25693" lon="-2.31976">
        <ele>3.5999999046326</ele>
        <time>2020-02-06T08:31:34.000Z</time>
      </trkpt>
      <trkpt lat="47.25692" lon="-2.3197">
        <ele>4</ele>
        <time>2020-02-06T08:31:35.000Z</time>
      </trkpt>
      <trkpt lat="47.25691" lon="-2.31965">
        <ele>4.5999999046326</ele>
        <time>2020-02-06T08:31:36.000Z</time>
      </trkpt>
      <trkpt lat="47.2569" lon="-2.31959">
        <ele>4.5999999046326</ele>
        <time>2020-02-06T08:31:37.000Z</time>
      </trkpt>
      <trkpt lat="47.25689" lon="-2.31953">
        <ele>4.5999999046326</ele>
        <time>2020-02-06T08:31:38.000Z</time>
      </trkpt>
      <trkpt lat="47.25677" lon="-2.31913">
        <ele>4.5999999046326</ele>
        <time>2020-02-06T08:31:45.000Z</time>
      </trkpt>
      <trkpt lat="47.25665" lon="-2.31868">
        <ele>4.5999999046326</ele>
        <time>2020-02-06T08:31:53.000Z</time>
      </trkpt>
      <trkpt lat="47.25653" lon="-2.31828">
        <ele>4.5999999046326</ele>
        <time>2020-02-06T08:32:00.000Z</time>
      </trkpt>
      <trkpt lat="47.25645" lon="-2.31806">
        <ele>5</ele>
        <time>2020-02-06T08:32:04.000Z</time>
      </trkpt>
      <trkpt lat="47.25643" lon="-2.31801">
        <ele>5.4000000953674</ele>
        <time>2020-02-06T08:32:05.000Z</time>
      </trkpt>
      <trkpt lat="47.25642" lon="-2.31797">
        <ele>5.8000001907349</ele>
        <time>2020-02-06T08:32:06.000Z</time>
      </trkpt>
      <trkpt lat="47.2564" lon="-2.31791">
        <ele>6.1999998092651</ele>
        <time>2020-02-06T08:32:07.000Z</time>
      </trkpt>
      <trkpt lat="47.25638" lon="-2.31786">
        <ele>6.5999999046326</ele>
        <time>2020-02-06T08:32:08.000Z</time>
      </trkpt>
      <trkpt lat="47.25635" lon="-2.31781">
        <ele>6.5999999046326</ele>
        <time>2020-02-06T08:32:09.000Z</time>
      </trkpt>
      <trkpt lat="47.25625" lon="-2.31775">
        <ele>6.5999999046326</ele>
        <time>2020-02-06T08:32:12.000Z</time>
      </trkpt>
      <trkpt lat="47.25622" lon="-2.31779">
        <ele>6.5999999046326</ele>
        <time>2020-02-06T08:32:15.000Z</time>
      </trkpt>
      <trkpt lat="47.25619" lon="-2.31782">
        <ele>6.5999999046326</ele>
        <time>2020-02-06T08:32:18.000Z</time>
      </trkpt>
      <trkpt lat="47.25617" lon="-2.31782">
        <ele>6.5999999046326</ele>
        <time>2020-02-06T08:32:19.000Z</time>
      </trkpt>
      <trkpt lat="47.25607" lon="-2.31772">
        <ele>6.5999999046326</ele>
        <time>2020-02-06T08:32:23.000Z</time>
      </trkpt>
      <trkpt lat="47.25599" lon="-2.3177">
        <ele>6.5999999046326</ele>
        <time>2020-02-06T08:32:25.000Z</time>
      </trkpt>
      <trkpt lat="47.25587" lon="-2.31771">
        <ele>6.5999999046326</ele>
        <time>2020-02-06T08:32:28.000Z</time>
      </trkpt>
      <trkpt lat="47.25567" lon="-2.31786">
        <ele>6.5999999046326</ele>
        <time>2020-02-06T08:32:34.000Z</time>
      </trkpt>
      <trkpt lat="47.25557" lon="-2.31803">
        <ele>6.5999999046326</ele>
        <time>2020-02-06T08:32:38.000Z</time>
      </trkpt>
      <trkpt lat="47.25553" lon="-2.31804">
        <ele>6.5999999046326</ele>
        <time>2020-02-06T08:32:39.000Z</time>
      </trkpt>
      <trkpt lat="47.25534" lon="-2.31809">
        <ele>6.5999999046326</ele>
        <time>2020-02-06T08:32:44.000Z</time>
      </trkpt>
      <trkpt lat="47.2553" lon="-2.3181">
        <ele>7</ele>
        <time>2020-02-06T08:32:45.000Z</time>
      </trkpt>
      <trkpt lat="47.25527" lon="-2.31811">
        <ele>7.4000000953674</ele>
        <time>2020-02-06T08:32:46.000Z</time>
      </trkpt>
      <trkpt lat="47.25523" lon="-2.31812">
        <ele>7.8000001907349</ele>
        <time>2020-02-06T08:32:47.000Z</time>
      </trkpt>
      <trkpt lat="47.25519" lon="-2.31813">
        <ele>8.1999998092651</ele>
        <time>2020-02-06T08:32:48.000Z</time>
      </trkpt>
      <trkpt lat="47.25515" lon="-2.31815">
        <ele>8.6000003814697</ele>
        <time>2020-02-06T08:32:49.000Z</time>
      </trkpt>
      <trkpt lat="47.25508" lon="-2.31818">
        <ele>8.6000003814697</ele>
        <time>2020-02-06T08:32:51.000Z</time>
      </trkpt>
      <trkpt lat="47.25506" lon="-2.31821">
        <ele>8.6000003814697</ele>
        <time>2020-02-06T08:32:52.000Z</time>
      </trkpt>
      <trkpt lat="47.25508" lon="-2.31826">
        <ele>8.6000003814697</ele>
        <time>2020-02-06T08:32:54.000Z</time>
      </trkpt>
      <trkpt lat="47.25513" lon="-2.31829">
        <ele>8.6000003814697</ele>
        <time>2020-02-06T08:32:58.000Z</time>
      </trkpt>
      <trkpt lat="47.2552" lon="-2.31827">
        <ele>8.6000003814697</ele>
        <time>2020-02-06T08:39:37.000Z</time>
      </trkpt>
      <trkpt lat="47.25519" lon="-2.31826">
        <ele>8.6000003814697</ele>
        <time>2020-02-06T08:39:38.000Z</time>
      </trkpt>
      <trkpt lat="47.25513" lon="-2.31831">
        <ele>8.6000003814697</ele>
        <time>2020-02-06T08:41:40.000Z</time>
      </trkpt>
      <trkpt lat="47.25512" lon="-2.31832">
        <ele>8.6000003814697</ele>
        <time>2020-02-06T08:41:41.000Z</time>
      </trkpt>
      <trkpt lat="47.25512" lon="-2.3184">
        <ele>8.6000003814697</ele>
        <time>2020-02-06T08:41:46.000Z</time>
      </trkpt>
      <trkpt lat="47.25512" lon="-2.31841">
        <ele>8.6000003814697</ele>
        <time>2020-02-06T08:41:48.000Z</time>
      </trkpt>
      <trkpt lat="47.25513" lon="-2.31844">
        <ele>8.6000003814697</ele>
        <time>2020-02-06T08:42:14.000Z</time>
      </trkpt>
      <trkpt lat="47.25513" lon="-2.31847">
        <ele>8.6000003814697</ele>
        <time>2020-02-06T08:42:15.000Z</time>
      </trkpt>
      <trkpt lat="47.25512" lon="-2.31849">
        <ele>8.6000003814697</ele>
        <time>2020-02-06T08:42:16.000Z</time>
      </trkpt>
      <trkpt lat="47.25514" lon="-2.31871">
        <ele>8.6000003814697</ele>
        <time>2020-02-06T08:42:22.000Z</time>
      </trkpt>
      <trkpt lat="47.25519" lon="-2.31911">
        <ele>8.6000003814697</ele>
        <time>2020-02-06T08:42:30.000Z</time>
      </trkpt>
      <trkpt lat="47.25528" lon="-2.3192">
        <ele>8.6000003814697</ele>
        <time>2020-02-06T08:42:33.000Z</time>
      </trkpt>
      <trkpt lat="47.25537" lon="-2.31919">
        <ele>8.6000003814697</ele>
        <time>2020-02-06T08:42:36.000Z</time>
      </trkpt>
      <trkpt lat="47.25549" lon="-2.31918">
        <ele>8.6000003814697</ele>
        <time>2020-02-06T08:42:40.000Z</time>
      </trkpt>
      <trkpt lat="47.25553" lon="-2.31917">
        <ele>8.6000003814697</ele>
        <time>2020-02-06T08:42:41.000Z</time>
      </trkpt>
      <trkpt lat="47.25561" lon="-2.31917">
        <ele>8.6000003814697</ele>
        <time>2020-02-06T08:42:44.000Z</time>
      </trkpt>
      <trkpt lat="47.25562" lon="-2.31918">
        <ele>8.1999998092651</ele>
        <time>2020-02-06T08:42:45.000Z</time>
      </trkpt>
      <trkpt lat="47.25564" lon="-2.31918">
        <ele>7.8000001907349</ele>
        <time>2020-02-06T08:42:46.000Z</time>
      </trkpt>
      <trkpt lat="47.25565" lon="-2.3192">
        <ele>7.4000000953674</ele>
        <time>2020-02-06T08:42:47.000Z</time>
      </trkpt>
      <trkpt lat="47.25566" lon="-2.31924">
        <ele>6.8000001907349</ele>
        <time>2020-02-06T08:42:48.000Z</time>
      </trkpt>
      <trkpt lat="47.25567" lon="-2.31928">
        <ele>6.4000000953674</ele>
        <time>2020-02-06T08:42:49.000Z</time>
      </trkpt>
      <trkpt lat="47.25571" lon="-2.31958">
        <ele>6.4000000953674</ele>
        <time>2020-02-06T08:42:54.000Z</time>
      </trkpt>
      <trkpt lat="47.25572" lon="-2.31965">
        <ele>6.4000000953674</ele>
        <time>2020-02-06T08:42:55.000Z</time>
      </trkpt>
      <trkpt lat="47.25585" lon="-2.32018">
        <ele>6.4000000953674</ele>
        <time>2020-02-06T08:43:03.000Z</time>
      </trkpt>
      <trkpt lat="47.25602" lon="-2.32063">
        <ele>6.4000000953674</ele>
        <time>2020-02-06T08:43:11.000Z</time>
      </trkpt>
      <trkpt lat="47.25613" lon="-2.32089">
        <ele>6</ele>
        <time>2020-02-06T08:43:16.000Z</time>
      </trkpt>
      <trkpt lat="47.25615" lon="-2.32093">
        <ele>5.5999999046326</ele>
        <time>2020-02-06T08:43:17.000Z</time>
      </trkpt>
      <trkpt lat="47.25616" lon="-2.32097">
        <ele>5.1999998092651</ele>
        <time>2020-02-06T08:43:18.000Z</time>
      </trkpt>
      <trkpt lat="47.25618" lon="-2.32101">
        <ele>4.8000001907349</ele>
        <time>2020-02-06T08:43:19.000Z</time>
      </trkpt>
      <trkpt lat="47.25619" lon="-2.32105">
        <ele>4.4000000953674</ele>
        <time>2020-02-06T08:43:20.000Z</time>
      </trkpt>
      <trkpt lat="47.25626" lon="-2.32123">
        <ele>4.4000000953674</ele>
        <time>2020-02-06T08:43:24.000Z</time>
      </trkpt>
      <trkpt lat="47.25633" lon="-2.3214">
        <ele>4.4000000953674</ele>
        <time>2020-02-06T08:43:29.000Z</time>
      </trkpt>
      <trkpt lat="47.25635" lon="-2.32143">
        <ele>4.4000000953674</ele>
        <time>2020-02-06T08:43:33.000Z</time>
      </trkpt>
      <trkpt lat="47.25635" lon="-2.32147">
        <ele>4.4000000953674</ele>
        <time>2020-02-06T08:43:51.000Z</time>
      </trkpt>
      <trkpt lat="47.25636" lon="-2.32154">
        <ele>4.4000000953674</ele>
        <time>2020-02-06T08:43:53.000Z</time>
      </trkpt>
      <trkpt lat="47.25642" lon="-2.32181">
        <ele>4.4000000953674</ele>
        <time>2020-02-06T08:43:58.000Z</time>
      </trkpt>
      <trkpt lat="47.25645" lon="-2.32193">
        <ele>4.4000000953674</ele>
        <time>2020-02-06T08:44:00.000Z</time>
      </trkpt>
      <trkpt lat="47.2565" lon="-2.3222">
        <ele>4.4000000953674</ele>
        <time>2020-02-06T08:44:04.000Z</time>
      </trkpt>
      <trkpt lat="47.25651" lon="-2.32228">
        <ele>4.4000000953674</ele>
        <time>2020-02-06T08:44:05.000Z</time>
      </trkpt>
      <trkpt lat="47.25652" lon="-2.32256">
        <ele>4.4000000953674</ele>
        <time>2020-02-06T08:44:08.000Z</time>
      </trkpt>
      <trkpt lat="47.25653" lon="-2.32277">
        <ele>3.7999999523163</ele>
        <time>2020-02-06T08:44:10.000Z</time>
      </trkpt>
      <trkpt lat="47.25654" lon="-2.32289">
        <ele>3</ele>
        <time>2020-02-06T08:44:11.000Z</time>
      </trkpt>
      <trkpt lat="47.25654" lon="-2.32301">
        <ele>2.4000000953674</ele>
        <time>2020-02-06T08:44:12.000Z</time>
      </trkpt>
      <trkpt lat="47.25655" lon="-2.32313">
        <ele>2</ele>
        <time>2020-02-06T08:44:13.000Z</time>
      </trkpt>
      <trkpt lat="47.25658" lon="-2.32364">
        <ele>1.6000000238419</ele>
        <time>2020-02-06T08:44:17.000Z</time>
      </trkpt>
      <trkpt lat="47.25658" lon="-2.32375">
        <ele>1.2000000476837</ele>
        <time>2020-02-06T08:44:18.000Z</time>
      </trkpt>
      <trkpt lat="47.25658" lon="-2.32385">
        <ele>0.80000001192093</ele>
        <time>2020-02-06T08:44:19.000Z</time>
      </trkpt>
      <trkpt lat="47.25659" lon="-2.32396">
        <ele>5.8</ele>
        <time>2020-02-06T08:44:20.000Z</time>
      </trkpt>
      <trkpt lat="47.25662" lon="-2.32404">
        <ele>-0.80000001192093</ele>
        <time>2020-02-06T08:44:21.000Z</time>
      </trkpt>
      <trkpt lat="47.25665" lon="-2.32411">
        <ele>-1.3999999761581</ele>
        <time>2020-02-06T08:44:22.000Z</time>
      </trkpt>
      <trkpt lat="47.2567" lon="-2.32417">
        <ele>-2.2000000476837</ele>
        <time>2020-02-06T08:44:23.000Z</time>
      </trkpt>
      <trkpt lat="47.25676" lon="-2.32421">
        <ele>-3</ele>
        <time>2020-02-06T08:44:24.000Z</time>
      </trkpt>
      <trkpt lat="47.25689" lon="-2.32425">
        <ele>-3</ele>
        <time>2020-02-06T08:44:26.000Z</time>
      </trkpt>
      <trkpt lat="47.25695" lon="-2.32425">
        <ele>-3.4000000953674</ele>
        <time>2020-02-06T08:44:27.000Z</time>
      </trkpt>
      <trkpt lat="47.25702" lon="-2.32426">
        <ele>-3.7999999523163</ele>
        <time>2020-02-06T08:44:28.000Z</time>
      </trkpt>
      <trkpt lat="47.25708" lon="-2.32426">
        <ele>-4.1999998092651</ele>
        <time>2020-02-06T08:44:29.000Z</time>
      </trkpt>
      <trkpt lat="47.25714" lon="-2.32426">
        <ele>-4.8000001907349</ele>
        <time>2020-02-06T08:44:30.000Z</time>
      </trkpt>
      <trkpt lat="47.2572" lon="-2.32426">
        <ele>-5.1999998092651</ele>
        <time>2020-02-06T08:44:31.000Z</time>
      </trkpt>
      <trkpt lat="47.25726" lon="-2.32426">
        <ele>-5.1999998092651</ele>
        <time>2020-02-06T08:44:32.000Z</time>
      </trkpt>
      <trkpt lat="47.25761" lon="-2.32425">
        <ele>-5.1999998092651</ele>
        <time>2020-02-06T08:44:38.000Z</time>
      </trkpt>
      <trkpt lat="47.25777" lon="-2.32416">
        <ele>-5.1999998092651</ele>
        <time>2020-02-06T08:44:42.000Z</time>
      </trkpt>
      <trkpt lat="47.25788" lon="-2.32426">
        <ele>-5.1999998092651</ele>
        <time>2020-02-06T08:44:45.000Z</time>
      </trkpt>
      <trkpt lat="47.25795" lon="-2.32437">
        <ele>-5.1999998092651</ele>
        <time>2020-02-06T08:44:47.000Z</time>
      </trkpt>
      <trkpt lat="47.25806" lon="-2.32457">
        <ele>-5.1999998092651</ele>
        <time>2020-02-06T08:44:50.000Z</time>
      </trkpt>
      <trkpt lat="47.25809" lon="-2.32464">
        <ele>-5.1999998092651</ele>
        <time>2020-02-06T08:44:51.000Z</time>
      </trkpt>
      <trkpt lat="47.2582" lon="-2.32485">
        <ele>-5.1999998092651</ele>
        <time>2020-02-06T08:44:54.000Z</time>
      </trkpt>
      <trkpt lat="47.25841" lon="-2.32516">
        <ele>-5.1999998092651</ele>
        <time>2020-02-06T08:44:59.000Z</time>
      </trkpt>
      <trkpt lat="47.25876" lon="-2.32566">
        <ele>-5.1999998092651</ele>
        <time>2020-02-06T08:45:07.000Z</time>
      </trkpt>
      <trkpt lat="47.25881" lon="-2.32572">
        <ele>-5.1999998092651</ele>
        <time>2020-02-06T08:45:08.000Z</time>
      </trkpt>
      <trkpt lat="47.259" lon="-2.32591">
        <ele>-5.1999998092651</ele>
        <time>2020-02-06T08:45:12.000Z</time>
      </trkpt>
      <trkpt lat="47.25919" lon="-2.32616">
        <ele>-5.1999998092651</ele>
        <time>2020-02-06T08:45:16.000Z</time>
      </trkpt>
      <trkpt lat="47.25946" lon="-2.32651">
        <ele>-5.1999998092651</ele>
        <time>2020-02-06T08:45:22.000Z</time>
      </trkpt>
      <trkpt lat="47.25951" lon="-2.32655">
        <ele>-5.1999998092651</ele>
        <time>2020-02-06T08:45:23.000Z</time>
      </trkpt>
      <trkpt lat="47.25962" lon="-2.32666">
        <ele>-5.5999999046326</ele>
        <time>2020-02-06T08:45:26.000Z</time>
      </trkpt>
      <trkpt lat="47.25965" lon="-2.32668">
        <ele>-6</ele>
        <time>2020-02-06T08:45:27.000Z</time>
      </trkpt>
      <trkpt lat="47.25967" lon="-2.32667">
        <ele>-6.4000000953674</ele>
        <time>2020-02-06T08:45:28.000Z</time>
      </trkpt>
      <trkpt lat="47.2597" lon="-2.32666">
        <ele>-6.8000001907349</ele>
        <time>2020-02-06T08:45:29.000Z</time>
      </trkpt>
      <trkpt lat="47.25973" lon="-2.32664">
        <ele>-7.1999998092651</ele>
        <time>2020-02-06T08:45:30.000Z</time>
      </trkpt>
      <trkpt lat="47.25989" lon="-2.3266">
        <ele>-7.1999998092651</ele>
        <time>2020-02-06T08:45:34.000Z</time>
      </trkpt>
      <trkpt lat="47.26018" lon="-2.32656">
        <ele>-7.1999998092651</ele>
        <time>2020-02-06T08:45:40.000Z</time>
      </trkpt>
      <trkpt lat="47.26059" lon="-2.32649">
        <ele>-7.1999998092651</ele>
        <time>2020-02-06T08:45:48.000Z</time>
      </trkpt>
      <trkpt lat="47.2607" lon="-2.32646">
        <ele>-6.4000000953674</ele>
        <time>2020-02-06T08:45:50.000Z</time>
      </trkpt>
      <trkpt lat="47.26075" lon="-2.32645">
        <ele>-6</ele>
        <time>2020-02-06T08:45:51.000Z</time>
      </trkpt>
      <trkpt lat="47.2608" lon="-2.32644">
        <ele>-5.5999999046326</ele>
        <time>2020-02-06T08:45:52.000Z</time>
      </trkpt>
      <trkpt lat="47.26085" lon="-2.32643">
        <ele>-5.1999998092651</ele>
        <time>2020-02-06T08:45:53.000Z</time>
      </trkpt>
      <trkpt lat="47.26102" lon="-2.32641">
        <ele>-5.1999998092651</ele>
        <time>2020-02-06T08:45:56.000Z</time>
      </trkpt>
      <trkpt lat="47.26144" lon="-2.32642">
        <ele>-5.1999998092651</ele>
        <time>2020-02-06T08:46:04.000Z</time>
      </trkpt>
      <trkpt lat="47.26181" lon="-2.32661">
        <ele>-5.1999998092651</ele>
        <time>2020-02-06T08:46:11.000Z</time>
      </trkpt>
      <trkpt lat="47.26191" lon="-2.32669">
        <ele>-5.1999998092651</ele>
        <time>2020-02-06T08:46:13.000Z</time>
      </trkpt>
      <trkpt lat="47.26209" lon="-2.3269">
        <ele>-5.1999998092651</ele>
        <time>2020-02-06T08:46:17.000Z</time>
      </trkpt>
      <trkpt lat="47.26227" lon="-2.32711">
        <ele>-5.1999998092651</ele>
        <time>2020-02-06T08:46:21.000Z</time>
      </trkpt>
      <trkpt lat="47.26235" lon="-2.32724">
        <ele>-5.1999998092651</ele>
        <time>2020-02-06T08:46:23.000Z</time>
      </trkpt>
      <trkpt lat="47.26272" lon="-2.32783">
        <ele>-5.1999998092651</ele>
        <time>2020-02-06T08:46:32.000Z</time>
      </trkpt>
      <trkpt lat="47.26279" lon="-2.32798">
        <ele>-5.1999998092651</ele>
        <time>2020-02-06T08:46:34.000Z</time>
      </trkpt>
      <trkpt lat="47.26281" lon="-2.32806">
        <ele>-5.5999999046326</ele>
        <time>2020-02-06T08:46:35.000Z</time>
      </trkpt>
      <trkpt lat="47.26284" lon="-2.32814">
        <ele>-6</ele>
        <time>2020-02-06T08:46:36.000Z</time>
      </trkpt>
      <trkpt lat="47.26286" lon="-2.32822">
        <ele>-6.5999999046326</ele>
        <time>2020-02-06T08:46:37.000Z</time>
      </trkpt>
      <trkpt lat="47.26287" lon="-2.3283">
        <ele>-7</ele>
        <time>2020-02-06T08:46:38.000Z</time>
      </trkpt>
      <trkpt lat="47.26288" lon="-2.32838">
        <ele>-7.4000000953674</ele>
        <time>2020-02-06T08:46:39.000Z</time>
      </trkpt>
      <trkpt lat="47.26291" lon="-2.32854">
        <ele>-7.4000000953674</ele>
        <time>2020-02-06T08:46:41.000Z</time>
      </trkpt>
      <trkpt lat="47.26306" lon="-2.32864">
        <ele>-7.4000000953674</ele>
        <time>2020-02-06T08:46:44.000Z</time>
      </trkpt>
      <trkpt lat="47.2632" lon="-2.32878">
        <ele>-7.4000000953674</ele>
        <time>2020-02-06T08:46:47.000Z</time>
      </trkpt>
      <trkpt lat="47.26327" lon="-2.32903">
        <ele>-7.4000000953674</ele>
        <time>2020-02-06T08:46:50.000Z</time>
      </trkpt>
      <trkpt lat="47.26329" lon="-2.32911">
        <ele>-7.4000000953674</ele>
        <time>2020-02-06T08:46:51.000Z</time>
      </trkpt>
      <trkpt lat="47.26348" lon="-2.32971">
        <ele>-7.4000000953674</ele>
        <time>2020-02-06T08:46:58.000Z</time>
      </trkpt>
      <trkpt lat="47.26353" lon="-2.32977">
        <ele>-7.4000000953674</ele>
        <time>2020-02-06T08:46:59.000Z</time>
      </trkpt>
      <trkpt lat="47.26365" lon="-2.3299">
        <ele>-7.4000000953674</ele>
        <time>2020-02-06T08:47:02.000Z</time>
      </trkpt>
      <trkpt lat="47.26366" lon="-2.33013">
        <ele>-7.4000000953674</ele>
        <time>2020-02-06T08:47:05.000Z</time>
      </trkpt>
      <trkpt lat="47.26368" lon="-2.33074">
        <ele>-7.4000000953674</ele>
        <time>2020-02-06T08:47:12.000Z</time>
      </trkpt>
      <trkpt lat="47.2637" lon="-2.33158">
        <ele>-7.4000000953674</ele>
        <time>2020-02-06T08:47:21.000Z</time>
      </trkpt>
      <trkpt lat="47.26373" lon="-2.33221">
        <ele>-7.4000000953674</ele>
        <time>2020-02-06T08:47:28.000Z</time>
      </trkpt>
      <trkpt lat="47.26375" lon="-2.33249">
        <ele>-7.4000000953674</ele>
        <time>2020-02-06T08:47:31.000Z</time>
      </trkpt>
      <trkpt lat="47.26381" lon="-2.33263">
        <ele>-7.4000000953674</ele>
        <time>2020-02-06T08:47:33.000Z</time>
      </trkpt>
      <trkpt lat="47.26397" lon="-2.33272">
        <ele>-7.4000000953674</ele>
        <time>2020-02-06T08:47:36.000Z</time>
      </trkpt>
      <trkpt lat="47.2641" lon="-2.33273">
        <ele>-7.4000000953674</ele>
        <time>2020-02-06T08:47:38.000Z</time>
      </trkpt>
      <trkpt lat="47.26433" lon="-2.33275">
        <ele>-7.4000000953674</ele>
        <time>2020-02-06T08:47:42.000Z</time>
      </trkpt>
      <trkpt lat="47.26464" lon="-2.33277">
        <ele>-7.4000000953674</ele>
        <time>2020-02-06T08:47:48.000Z</time>
      </trkpt>
      <trkpt lat="47.26469" lon="-2.33277">
        <ele>-7.4000000953674</ele>
        <time>2020-02-06T08:47:49.000Z</time>
      </trkpt>
      <trkpt lat="47.26479" lon="-2.33275">
        <ele>-7.4000000953674</ele>
        <time>2020-02-06T08:47:51.000Z</time>
      </trkpt>
      <trkpt lat="47.26486" lon="-2.33266">
        <ele>-7.4000000953674</ele>
        <time>2020-02-06T08:47:53.000Z</time>
      </trkpt>
      <trkpt lat="47.26492" lon="-2.33256">
        <ele>-7.4000000953674</ele>
        <time>2020-02-06T08:47:55.000Z</time>
      </trkpt>
      <trkpt lat="47.26495" lon="-2.33252">
        <ele>-7.4000000953674</ele>
        <time>2020-02-06T08:47:57.000Z</time>
      </trkpt>
      <trkpt lat="47.26506" lon="-2.33236">
        <ele>-7.4000000953674</ele>
        <time>2020-02-06T08:48:02.000Z</time>
      </trkpt>
      <trkpt lat="47.26531" lon="-2.33218">
        <ele>-7.4000000953674</ele>
        <time>2020-02-06T08:48:08.000Z</time>
      </trkpt>
      <trkpt lat="47.26565" lon="-2.33198">
        <ele>-7.4000000953674</ele>
        <time>2020-02-06T08:48:15.000Z</time>
      </trkpt>
      <trkpt lat="47.26579" lon="-2.33185">
        <ele>-7.4000000953674</ele>
        <time>2020-02-06T08:48:18.000Z</time>
      </trkpt>
      <trkpt lat="47.26585" lon="-2.33171">
        <ele>-7.4000000953674</ele>
        <time>2020-02-06T08:48:20.000Z</time>
      </trkpt>
      <trkpt lat="47.26587" lon="-2.33156">
        <ele>-7.4000000953674</ele>
        <time>2020-02-06T08:48:22.000Z</time>
      </trkpt>
      <trkpt lat="47.26589" lon="-2.3315">
        <ele>-7.4000000953674</ele>
        <time>2020-02-06T08:48:23.000Z</time>
      </trkpt>
      <trkpt lat="47.26593" lon="-2.33145">
        <ele>-7.4000000953674</ele>
        <time>2020-02-06T08:48:24.000Z</time>
      </trkpt>
      <trkpt lat="47.26607" lon="-2.33142">
        <ele>-7.4000000953674</ele>
        <time>2020-02-06T08:48:27.000Z</time>
      </trkpt>
      <trkpt lat="47.26618" lon="-2.33147">
        <ele>-7.4000000953674</ele>
        <time>2020-02-06T08:48:29.000Z</time>
      </trkpt>
      <trkpt lat="47.26628" lon="-2.33149">
        <ele>-7.4000000953674</ele>
        <time>2020-02-06T08:48:31.000Z</time>
      </trkpt>
      <trkpt lat="47.26644" lon="-2.33142">
        <ele>-7.4000000953674</ele>
        <time>2020-02-06T08:48:34.000Z</time>
      </trkpt>
      <trkpt lat="47.26649" lon="-2.33138">
        <ele>-7.4000000953674</ele>
        <time>2020-02-06T08:48:35.000Z</time>
      </trkpt>
      <trkpt lat="47.26674" lon="-2.33119">
        <ele>-7.4000000953674</ele>
        <time>2020-02-06T08:48:40.000Z</time>
      </trkpt>
      <trkpt lat="47.26678" lon="-2.33114">
        <ele>-7.4000000953674</ele>
        <time>2020-02-06T08:48:41.000Z</time>
      </trkpt>
      <trkpt lat="47.26696" lon="-2.33096">
        <ele>-7.4000000953674</ele>
        <time>2020-02-06T08:48:45.000Z</time>
      </trkpt>
      <trkpt lat="47.26724" lon="-2.33064">
        <ele>-7.4000000953674</ele>
        <time>2020-02-06T08:48:52.000Z</time>
      </trkpt>
      <trkpt lat="47.26733" lon="-2.33037">
        <ele>-7.4000000953674</ele>
        <time>2020-02-06T08:48:56.000Z</time>
      </trkpt>
      <trkpt lat="47.26734" lon="-2.3303">
        <ele>-7.4000000953674</ele>
        <time>2020-02-06T08:48:57.000Z</time>
      </trkpt>
      <trkpt lat="47.26738" lon="-2.33016">
        <ele>-7.4000000953674</ele>
        <time>2020-02-06T08:49:00.000Z</time>
      </trkpt>
      <trkpt lat="47.26743" lon="-2.32999">
        <ele>-7.4000000953674</ele>
        <time>2020-02-06T08:49:03.000Z</time>
      </trkpt>
      <trkpt lat="47.26745" lon="-2.32992">
        <ele>-7.4000000953674</ele>
        <time>2020-02-06T08:49:04.000Z</time>
      </trkpt>
      <trkpt lat="47.26749" lon="-2.3298">
        <ele>-7.4000000953674</ele>
        <time>2020-02-06T08:49:06.000Z</time>
      </trkpt>
      <trkpt lat="47.2676" lon="-2.32965">
        <ele>-7.4000000953674</ele>
        <time>2020-02-06T08:49:09.000Z</time>
      </trkpt>
      <trkpt lat="47.26764" lon="-2.3296">
        <ele>-7.4000000953674</ele>
        <time>2020-02-06T08:49:10.000Z</time>
      </trkpt>
      <trkpt lat="47.26787" lon="-2.32932">
        <ele>-7.4000000953674</ele>
        <time>2020-02-06T08:49:16.000Z</time>
      </trkpt>
      <trkpt lat="47.26795" lon="-2.32924">
        <ele>-7.4000000953674</ele>
        <time>2020-02-06T08:49:18.000Z</time>
      </trkpt>
      <trkpt lat="47.26804" lon="-2.32919">
        <ele>-7.4000000953674</ele>
        <time>2020-02-06T08:49:20.000Z</time>
      </trkpt>
      <trkpt lat="47.26815" lon="-2.3291">
        <ele>-7.4000000953674</ele>
        <time>2020-02-06T08:49:23.000Z</time>
      </trkpt>
      <trkpt lat="47.26819" lon="-2.32905">
        <ele>-7.4000000953674</ele>
        <time>2020-02-06T08:49:24.000Z</time>
      </trkpt>
      <trkpt lat="47.26838" lon="-2.32887">
        <ele>-7.4000000953674</ele>
        <time>2020-02-06T08:49:29.000Z</time>
      </trkpt>
      <trkpt lat="47.26857" lon="-2.3288">
        <ele>-7.4000000953674</ele>
        <time>2020-02-06T08:49:33.000Z</time>
      </trkpt>
      <trkpt lat="47.2686" lon="-2.32876">
        <ele>-7.4000000953674</ele>
        <time>2020-02-06T08:49:34.000Z</time>
      </trkpt>
      <trkpt lat="47.26861" lon="-2.32859">
        <ele>-7.4000000953674</ele>
        <time>2020-02-06T08:49:37.000Z</time>
      </trkpt>
      <trkpt lat="47.26854" lon="-2.32844">
        <ele>-7</ele>
        <time>2020-02-06T08:49:40.000Z</time>
      </trkpt>
      <trkpt lat="47.26852" lon="-2.3284">
        <ele>-6.5999999046326</ele>
        <time>2020-02-06T08:49:41.000Z</time>
      </trkpt>
      <trkpt lat="47.26851" lon="-2.32836">
        <ele>-6.1999998092651</ele>
        <time>2020-02-06T08:49:42.000Z</time>
      </trkpt>
      <trkpt lat="47.26849" lon="-2.32831">
        <ele>-5.8000001907349</ele>
        <time>2020-02-06T08:49:43.000Z</time>
      </trkpt>
      <trkpt lat="47.26848" lon="-2.32827">
        <ele>-5.4000000953674</ele>
        <time>2020-02-06T08:49:44.000Z</time>
      </trkpt>
      <trkpt lat="47.26846" lon="-2.32818">
        <ele>-5</ele>
        <time>2020-02-06T08:49:46.000Z</time>
      </trkpt>
      <trkpt lat="47.26845" lon="-2.32814">
        <ele>-4.4000000953674</ele>
        <time>2020-02-06T08:49:47.000Z</time>
      </trkpt>
      <trkpt lat="47.26843" lon="-2.32811">
        <ele>-4</ele>
        <time>2020-02-06T08:49:48.000Z</time>
      </trkpt>
      <trkpt lat="47.26843" lon="-2.32807">
        <ele>-3.5999999046326</ele>
        <time>2020-02-06T08:49:49.000Z</time>
      </trkpt>
      <trkpt lat="47.26842" lon="-2.32804">
        <ele>-3.2000000476837</ele>
        <time>2020-02-06T08:49:50.000Z</time>
      </trkpt>
      <trkpt lat="47.2684" lon="-2.32795">
        <ele>-2.5999999046326</ele>
        <time>2020-02-06T08:49:52.000Z</time>
      </trkpt>
      <trkpt lat="47.2684" lon="-2.32791">
        <ele>-2.2000000476837</ele>
        <time>2020-02-06T08:49:53.000Z</time>
      </trkpt>
      <trkpt lat="47.26839" lon="-2.32787">
        <ele>-1.7999999523163</ele>
        <time>2020-02-06T08:49:54.000Z</time>
      </trkpt>
      <trkpt lat="47.26838" lon="-2.32782">
        <ele>-1.3999999761581</ele>
        <time>2020-02-06T08:49:55.000Z</time>
      </trkpt>
      <trkpt lat="47.26837" lon="-2.32778">
        <ele>-0.80000001192093</ele>
        <time>2020-02-06T08:49:56.000Z</time>
      </trkpt>
      <trkpt lat="47.26835" lon="-2.32773">
        <ele>13.2</ele>
        <time>2020-02-06T08:49:57.000Z</time>
      </trkpt>
      <trkpt lat="47.26834" lon="-2.32769">
        <ele>0.40000000596046</ele>
        <time>2020-02-06T08:49:58.000Z</time>
      </trkpt>
      <trkpt lat="47.26834" lon="-2.32765">
        <ele>0.80000001192093</ele>
        <time>2020-02-06T08:49:59.000Z</time>
      </trkpt>
      <trkpt lat="47.26832" lon="-2.32761">
        <ele>1.2000000476837</ele>
        <time>2020-02-06T08:50:00.000Z</time>
      </trkpt>
      <trkpt lat="47.26829" lon="-2.32752">
        <ele>1.6000000238419</ele>
        <time>2020-02-06T08:50:02.000Z</time>
      </trkpt>
      <trkpt lat="47.26826" lon="-2.32748">
        <ele>2</ele>
        <time>2020-02-06T08:50:03.000Z</time>
      </trkpt>
      <trkpt lat="47.26825" lon="-2.32745">
        <ele>2.4000000953674</ele>
        <time>2020-02-06T08:50:04.000Z</time>
      </trkpt>
      <trkpt lat="47.26823" lon="-2.32741">
        <ele>2.7999999523163</ele>
        <time>2020-02-06T08:50:05.000Z</time>
      </trkpt>
      <trkpt lat="47.26821" lon="-2.32738">
        <ele>3.2000000476837</ele>
        <time>2020-02-06T08:50:06.000Z</time>
      </trkpt>
      <trkpt lat="47.26818" lon="-2.32731">
        <ele>3.5999999046326</ele>
        <time>2020-02-06T08:50:08.000Z</time>
      </trkpt>
      <trkpt lat="47.26816" lon="-2.32728">
        <ele>4</ele>
        <time>2020-02-06T08:50:09.000Z</time>
      </trkpt>
      <trkpt lat="47.26814" lon="-2.32724">
        <ele>4.4000000953674</ele>
        <time>2020-02-06T08:50:10.000Z</time>
      </trkpt>
      <trkpt lat="47.26812" lon="-2.3272">
        <ele>4.8000001907349</ele>
        <time>2020-02-06T08:50:11.000Z</time>
      </trkpt>
      <trkpt lat="47.2681" lon="-2.32717">
        <ele>5.1999998092651</ele>
        <time>2020-02-06T08:50:12.000Z</time>
      </trkpt>
      <trkpt lat="47.26805" lon="-2.32704">
        <ele>5.1999998092651</ele>
        <time>2020-02-06T08:50:15.000Z</time>
      </trkpt>
      <trkpt lat="47.26799" lon="-2.32673">
        <ele>5.1999998092651</ele>
        <time>2020-02-06T08:50:21.000Z</time>
      </trkpt>
      <trkpt lat="47.26802" lon="-2.32663">
        <ele>5.1999998092651</ele>
        <time>2020-02-06T08:50:23.000Z</time>
      </trkpt>
      <trkpt lat="47.26804" lon="-2.32658">
        <ele>5.1999998092651</ele>
        <time>2020-02-06T08:50:24.000Z</time>
      </trkpt>
      <trkpt lat="47.26805" lon="-2.32636">
        <ele>5.5999999046326</ele>
        <time>2020-02-06T08:50:27.000Z</time>
      </trkpt>
      <trkpt lat="47.26804" lon="-2.32629">
        <ele>6</ele>
        <time>2020-02-06T08:50:28.000Z</time>
      </trkpt>
      <trkpt lat="47.26803" lon="-2.32623">
        <ele>6.5999999046326</ele>
        <time>2020-02-06T08:50:29.000Z</time>
      </trkpt>
      <trkpt lat="47.26802" lon="-2.32616">
        <ele>7</ele>
        <time>2020-02-06T08:50:30.000Z</time>
      </trkpt>
      <trkpt lat="47.26801" lon="-2.32608">
        <ele>7.4000000953674</ele>
        <time>2020-02-06T08:50:31.000Z</time>
      </trkpt>
      <trkpt lat="47.26801" lon="-2.32601">
        <ele>7.4000000953674</ele>
        <time>2020-02-06T08:50:32.000Z</time>
      </trkpt>
      <trkpt lat="47.268" lon="-2.32593">
        <ele>7.4000000953674</ele>
        <time>2020-02-06T08:50:33.000Z</time>
      </trkpt>
      <trkpt lat="47.26797" lon="-2.32565">
        <ele>7.4000000953674</ele>
        <time>2020-02-06T08:50:37.000Z</time>
      </trkpt>
      <trkpt lat="47.26797" lon="-2.32554">
        <ele>7.4000000953674</ele>
        <time>2020-02-06T08:50:39.000Z</time>
      </trkpt>
      <trkpt lat="47.26796" lon="-2.32536">
        <ele>7.4000000953674</ele>
        <time>2020-02-06T08:50:42.000Z</time>
      </trkpt>
      <trkpt lat="47.26796" lon="-2.32529">
        <ele>7.4000000953674</ele>
        <time>2020-02-06T08:50:43.000Z</time>
      </trkpt>
      <trkpt lat="47.26795" lon="-2.32516">
        <ele>7.4000000953674</ele>
        <time>2020-02-06T08:50:45.000Z</time>
      </trkpt>
      <trkpt lat="47.2679" lon="-2.32464">
        <ele>7.4000000953674</ele>
        <time>2020-02-06T08:50:53.000Z</time>
      </trkpt>
      <trkpt lat="47.26785" lon="-2.32425">
        <ele>7.4000000953674</ele>
        <time>2020-02-06T08:50:59.000Z</time>
      </trkpt>
      <trkpt lat="47.2678" lon="-2.3239">
        <ele>7.4000000953674</ele>
        <time>2020-02-06T08:51:05.000Z</time>
      </trkpt>
      <trkpt lat="47.26772" lon="-2.32371">
        <ele>7.4000000953674</ele>
        <time>2020-02-06T08:51:09.000Z</time>
      </trkpt>
      <trkpt lat="47.2676" lon="-2.32373">
        <ele>7.4000000953674</ele>
        <time>2020-02-06T08:51:12.000Z</time>
      </trkpt>
      <trkpt lat="47.26756" lon="-2.32375">
        <ele>7.4000000953674</ele>
        <time>2020-02-06T08:51:13.000Z</time>
      </trkpt>
      <trkpt lat="47.26738" lon="-2.32383">
        <ele>7.4000000953674</ele>
        <time>2020-02-06T08:51:19.000Z</time>
      </trkpt>
      <trkpt lat="47.26726" lon="-2.32381">
        <ele>7.4000000953674</ele>
        <time>2020-02-06T08:51:25.000Z</time>
      </trkpt>
      <trkpt lat="47.26717" lon="-2.32365">
        <ele>7.4000000953674</ele>
        <time>2020-02-06T08:51:30.000Z</time>
      </trkpt>
      <trkpt lat="47.26712" lon="-2.32349">
        <ele>7.8000001907349</ele>
        <time>2020-02-06T08:51:34.000Z</time>
      </trkpt>
      <trkpt lat="47.26711" lon="-2.32344">
        <ele>8.1999998092651</ele>
        <time>2020-02-06T08:51:35.000Z</time>
      </trkpt>
      <trkpt lat="47.26709" lon="-2.3234">
        <ele>9</ele>
        <time>2020-02-06T08:51:36.000Z</time>
      </trkpt>
      <trkpt lat="47.26707" lon="-2.32335">
        <ele>9.3999996185303</ele>
        <time>2020-02-06T08:51:37.000Z</time>
      </trkpt>
      <trkpt lat="47.267" lon="-2.3231">
        <ele>9.3999996185303</ele>
        <time>2020-02-06T08:51:43.000Z</time>
      </trkpt>
      <trkpt lat="47.26693" lon="-2.32284">
        <ele>9.3999996185303</ele>
        <time>2020-02-06T08:51:49.000Z</time>
      </trkpt>
      <trkpt lat="47.26687" lon="-2.32258">
        <ele>9.3999996185303</ele>
        <time>2020-02-06T08:51:56.000Z</time>
      </trkpt>
      <trkpt lat="47.26688" lon="-2.32239">
        <ele>9.3999996185303</ele>
        <time>2020-02-06T08:52:01.000Z</time>
      </trkpt>
      <trkpt lat="47.26689" lon="-2.32234">
        <ele>9.8000001907349</ele>
        <time>2020-02-06T08:52:02.000Z</time>
      </trkpt>
      <trkpt lat="47.2669" lon="-2.32228">
        <ele>10.199999809265</ele>
        <time>2020-02-06T08:52:03.000Z</time>
      </trkpt>
      <trkpt lat="47.26691" lon="-2.32222">
        <ele>10.800000190735</ele>
        <time>2020-02-06T08:52:04.000Z</time>
      </trkpt>
      <trkpt lat="47.26692" lon="-2.32216">
        <ele>11.199999809265</ele>
        <time>2020-02-06T08:52:05.000Z</time>
      </trkpt>
      <trkpt lat="47.26693" lon="-2.32211">
        <ele>11.60000038147</ele>
        <time>2020-02-06T08:52:06.000Z</time>
      </trkpt>
      <trkpt lat="47.26692" lon="-2.32205">
        <ele>11.60000038147</ele>
        <time>2020-02-06T08:52:07.000Z</time>
      </trkpt>
      <trkpt lat="47.26691" lon="-2.32193">
        <ele>11.60000038147</ele>
        <time>2020-02-06T08:52:09.000Z</time>
      </trkpt>
      <trkpt lat="47.26686" lon="-2.32168">
        <ele>11.60000038147</ele>
        <time>2020-02-06T08:52:13.000Z</time>
      </trkpt>
      <trkpt lat="47.2668" lon="-2.32135">
        <ele>11.60000038147</ele>
        <time>2020-02-06T08:52:19.000Z</time>
      </trkpt>
      <trkpt lat="47.26681" lon="-2.32115">
        <ele>11.60000038147</ele>
        <time>2020-02-06T08:52:24.000Z</time>
      </trkpt>
      <trkpt lat="47.26682" lon="-2.32092">
        <ele>11.60000038147</ele>
        <time>2020-02-06T08:52:29.000Z</time>
      </trkpt>
      <trkpt lat="47.26683" lon="-2.32072">
        <ele>11.60000038147</ele>
        <time>2020-02-06T08:52:34.000Z</time>
      </trkpt>
      <trkpt lat="47.26684" lon="-2.32055">
        <ele>11.60000038147</ele>
        <time>2020-02-06T08:52:40.000Z</time>
      </trkpt>
      <trkpt lat="47.26685" lon="-2.32037">
        <ele>11.60000038147</ele>
        <time>2020-02-06T08:52:45.000Z</time>
      </trkpt>
      <trkpt lat="47.26689" lon="-2.32026">
        <ele>11.60000038147</ele>
        <time>2020-02-06T08:52:50.000Z</time>
      </trkpt>
      <trkpt lat="47.26691" lon="-2.32021">
        <ele>11.60000038147</ele>
        <time>2020-02-06T08:52:55.000Z</time>
      </trkpt>
      <trkpt lat="47.26691" lon="-2.32021">
        <ele>11.60000038147</ele>
        <time>2020-02-06T08:52:56.000Z</time>
      </trkpt>
      <trkpt lat="47.26693" lon="-2.32019">
        <ele>11.60000038147</ele>
        <time>2020-02-06T08:53:07.000Z</time>
      </trkpt>
      <trkpt lat="47.267" lon="-2.32005">
        <ele>11.60000038147</ele>
        <time>2020-02-06T08:53:12.000Z</time>
      </trkpt>
      <trkpt lat="47.26712" lon="-2.32001">
        <ele>11.60000038147</ele>
        <time>2020-02-06T08:53:16.000Z</time>
      </trkpt>
      <trkpt lat="47.26724" lon="-2.31994">
        <ele>11.199999809265</ele>
        <time>2020-02-06T08:53:20.000Z</time>
      </trkpt>
      <trkpt lat="47.26727" lon="-2.31991">
        <ele>10.800000190735</ele>
        <time>2020-02-06T08:53:21.000Z</time>
      </trkpt>
      <trkpt lat="47.26731" lon="-2.31987">
        <ele>10.39999961853</ele>
        <time>2020-02-06T08:53:22.000Z</time>
      </trkpt>
      <trkpt lat="47.26734" lon="-2.31985">
        <ele>10</ele>
        <time>2020-02-06T08:53:23.000Z</time>
      </trkpt>
      <trkpt lat="47.26738" lon="-2.31982">
        <ele>9.6000003814697</ele>
        <time>2020-02-06T08:53:24.000Z</time>
      </trkpt>
      <trkpt lat="47.26742" lon="-2.31979">
        <ele>9.6000003814697</ele>
        <time>2020-02-06T08:53:25.000Z</time>
      </trkpt>
      <trkpt lat="47.26746" lon="-2.31974">
        <ele>9.6000003814697</ele>
        <time>2020-02-06T08:53:26.000Z</time>
      </trkpt>
      <trkpt lat="47.26754" lon="-2.31959">
        <ele>9.6000003814697</ele>
        <time>2020-02-06T08:53:29.000Z</time>
      </trkpt>
      <trkpt lat="47.26765" lon="-2.31949">
        <ele>9.6000003814697</ele>
        <time>2020-02-06T08:53:33.000Z</time>
      </trkpt>
      <trkpt lat="47.26775" lon="-2.31962">
        <ele>9.6000003814697</ele>
        <time>2020-02-06T08:53:36.000Z</time>
      </trkpt>
      <trkpt lat="47.26778" lon="-2.31968">
        <ele>9.6000003814697</ele>
        <time>2020-02-06T08:53:37.000Z</time>
      </trkpt>
      <trkpt lat="47.26785" lon="-2.31981">
        <ele>9</ele>
        <time>2020-02-06T08:53:39.000Z</time>
      </trkpt>
      <trkpt lat="47.26789" lon="-2.31987">
        <ele>8.1999998092651</ele>
        <time>2020-02-06T08:53:40.000Z</time>
      </trkpt>
      <trkpt lat="47.26794" lon="-2.31994">
        <ele>7.8000001907349</ele>
        <time>2020-02-06T08:53:41.000Z</time>
      </trkpt>
      <trkpt lat="47.26798" lon="-2.32001">
        <ele>7.4000000953674</ele>
        <time>2020-02-06T08:53:42.000Z</time>
      </trkpt>
      <trkpt lat="47.26816" lon="-2.32041">
        <ele>6.8000001907349</ele>
        <time>2020-02-06T08:53:47.000Z</time>
      </trkpt>
      <trkpt lat="47.26818" lon="-2.3205">
        <ele>6.4000000953674</ele>
        <time>2020-02-06T08:53:48.000Z</time>
      </trkpt>
      <trkpt lat="47.2682" lon="-2.32058">
        <ele>6</ele>
        <time>2020-02-06T08:53:49.000Z</time>
      </trkpt>
      <trkpt lat="47.26824" lon="-2.32067">
        <ele>5.5999999046326</ele>
        <time>2020-02-06T08:53:50.000Z</time>
      </trkpt>
      <trkpt lat="47.26826" lon="-2.32074">
        <ele>5.1999998092651</ele>
        <time>2020-02-06T08:53:51.000Z</time>
      </trkpt>
      <trkpt lat="47.26827" lon="-2.32082">
        <ele>5.1999998092651</ele>
        <time>2020-02-06T08:53:52.000Z</time>
      </trkpt>
      <trkpt lat="47.26832" lon="-2.32102">
        <ele>5.1999998092651</ele>
        <time>2020-02-06T08:53:55.000Z</time>
      </trkpt>
      <trkpt lat="47.26835" lon="-2.32116">
        <ele>5.1999998092651</ele>
        <time>2020-02-06T08:53:57.000Z</time>
      </trkpt>
      <trkpt lat="47.26848" lon="-2.3216">
        <ele>5.1999998092651</ele>
        <time>2020-02-06T08:54:03.000Z</time>
      </trkpt>
      <trkpt lat="47.2685" lon="-2.32167">
        <ele>4.1999998092651</ele>
        <time>2020-02-06T08:54:04.000Z</time>
      </trkpt>
      <trkpt lat="47.26852" lon="-2.32175">
        <ele>3.7999999523163</ele>
        <time>2020-02-06T08:54:05.000Z</time>
      </trkpt>
      <trkpt lat="47.26855" lon="-2.32182">
        <ele>3.4000000953674</ele>
        <time>2020-02-06T08:54:06.000Z</time>
      </trkpt>
      <trkpt lat="47.26858" lon="-2.3219">
        <ele>3</ele>
        <time>2020-02-06T08:54:07.000Z</time>
      </trkpt>
      <trkpt lat="47.26862" lon="-2.32198">
        <ele>3</ele>
        <time>2020-02-06T08:54:08.000Z</time>
      </trkpt>
      <trkpt lat="47.26872" lon="-2.3222">
        <ele>3</ele>
        <time>2020-02-06T08:54:11.000Z</time>
      </trkpt>
      <trkpt lat="47.2688" lon="-2.32232">
        <ele>3</ele>
        <time>2020-02-06T08:54:13.000Z</time>
      </trkpt>
      <trkpt lat="47.26889" lon="-2.32246">
        <ele>2.5999999046326</ele>
        <time>2020-02-06T08:54:15.000Z</time>
      </trkpt>
      <trkpt lat="47.26894" lon="-2.32251">
        <ele>2</ele>
        <time>2020-02-06T08:54:16.000Z</time>
      </trkpt>
      <trkpt lat="47.26897" lon="-2.32257">
        <ele>1.6000000238419</ele>
        <time>2020-02-06T08:54:17.000Z</time>
      </trkpt>
      <trkpt lat="47.26901" lon="-2.32264">
        <ele>1</ele>
        <time>2020-02-06T08:54:18.000Z</time>
      </trkpt>
      <trkpt lat="47.26905" lon="-2.32272">
        <ele>0.60000002384186</ele>
        <time>2020-02-06T08:54:19.000Z</time>
      </trkpt>
      <trkpt lat="47.26919" lon="-2.32305">
        <ele>0.60000002384186</ele>
        <time>2020-02-06T08:54:23.000Z</time>
      </trkpt>
      <trkpt lat="47.26921" lon="-2.32313">
        <ele>0.20000000298023</ele>
        <time>2020-02-06T08:54:24.000Z</time>
      </trkpt>
      <trkpt lat="47.26923" lon="-2.3232">
        <ele>-0.20000000298023</ele>
        <time>2020-02-06T08:54:25.000Z</time>
      </trkpt>
      <trkpt lat="47.26924" lon="-2.32326">
        <ele>-0.60000002384186</ele>
        <time>2020-02-06T08:54:26.000Z</time>
      </trkpt>
      <trkpt lat="47.26925" lon="-2.32333">
        <ele>-1</ele>
        <time>2020-02-06T08:54:27.000Z</time>
      </trkpt>
      <trkpt lat="47.26926" lon="-2.32339">
        <ele>-1.3999999761581</ele>
        <time>2020-02-06T08:54:28.000Z</time>
      </trkpt>
      <trkpt lat="47.26932" lon="-2.32351">
        <ele>-1.3999999761581</ele>
        <time>2020-02-06T08:54:31.000Z</time>
      </trkpt>
      <trkpt lat="47.2694" lon="-2.32367">
        <ele>-1.3999999761581</ele>
        <time>2020-02-06T08:54:34.000Z</time>
      </trkpt>
      <trkpt lat="47.26942" lon="-2.32373">
        <ele>-1.3999999761581</ele>
        <time>2020-02-06T08:54:35.000Z</time>
      </trkpt>
      <trkpt lat="47.2695" lon="-2.32403">
        <ele>-1.7999999523163</ele>
        <time>2020-02-06T08:54:40.000Z</time>
      </trkpt>
      <trkpt lat="47.26952" lon="-2.32409">
        <ele>-2.4000000953674</ele>
        <time>2020-02-06T08:54:41.000Z</time>
      </trkpt>
      <trkpt lat="47.26955" lon="-2.32415">
        <ele>-2.7999999523163</ele>
        <time>2020-02-06T08:54:42.000Z</time>
      </trkpt>
      <trkpt lat="47.26958" lon="-2.32422">
        <ele>-3.2000000476837</ele>
        <time>2020-02-06T08:54:43.000Z</time>
      </trkpt>
      <trkpt lat="47.26961" lon="-2.32429">
        <ele>-3.5999999046326</ele>
        <time>2020-02-06T08:54:44.000Z</time>
      </trkpt>
      <trkpt lat="47.26969" lon="-2.3244">
        <ele>-3.5999999046326</ele>
        <time>2020-02-06T08:54:46.000Z</time>
      </trkpt>
      <trkpt lat="47.2699" lon="-2.32475">
        <ele>-3.5999999046326</ele>
        <time>2020-02-06T08:54:52.000Z</time>
      </trkpt>
      <trkpt lat="47.27007" lon="-2.32506">
        <ele>-3.5999999046326</ele>
        <time>2020-02-06T08:54:57.000Z</time>
      </trkpt>
      <trkpt lat="47.27011" lon="-2.32508">
        <ele>-3.5999999046326</ele>
        <time>2020-02-06T08:54:58.000Z</time>
      </trkpt>
      <trkpt lat="47.27024" lon="-2.32501">
        <ele>-3.5999999046326</ele>
        <time>2020-02-06T08:55:01.000Z</time>
      </trkpt>
      <trkpt lat="47.2703" lon="-2.32492">
        <ele>-4</ele>
        <time>2020-02-06T08:55:03.000Z</time>
      </trkpt>
      <trkpt lat="47.27031" lon="-2.32485">
        <ele>-4.4000000953674</ele>
        <time>2020-02-06T08:55:04.000Z</time>
      </trkpt>
      <trkpt lat="47.27031" lon="-2.32477">
        <ele>-4.8000001907349</ele>
        <time>2020-02-06T08:55:05.000Z</time>
      </trkpt>
      <trkpt lat="47.27031" lon="-2.3247">
        <ele>-5.1999998092651</ele>
        <time>2020-02-06T08:55:06.000Z</time>
      </trkpt>
      <trkpt lat="47.27032" lon="-2.32463">
        <ele>-5.5999999046326</ele>
        <time>2020-02-06T08:55:07.000Z</time>
      </trkpt>
      <trkpt lat="47.27034" lon="-2.32456">
        <ele>-5.5999999046326</ele>
        <time>2020-02-06T08:55:08.000Z</time>
      </trkpt>
      <trkpt lat="47.27033" lon="-2.3244">
        <ele>-5.5999999046326</ele>
        <time>2020-02-06T08:55:10.000Z</time>
      </trkpt>
      <trkpt lat="47.2703" lon="-2.32404">
        <ele>-5.5999999046326</ele>
        <time>2020-02-06T08:55:14.000Z</time>
      </trkpt>
      <trkpt lat="47.2703" lon="-2.32396">
        <ele>-5.5999999046326</ele>
        <time>2020-02-06T08:55:15.000Z</time>
      </trkpt>
      <trkpt lat="47.27029" lon="-2.32379">
        <ele>-5.5999999046326</ele>
        <time>2020-02-06T08:55:17.000Z</time>
      </trkpt>
      <trkpt lat="47.2703" lon="-2.32363">
        <ele>-5.5999999046326</ele>
        <time>2020-02-06T08:55:19.000Z</time>
      </trkpt>
      <trkpt lat="47.27028" lon="-2.32347">
        <ele>-5.5999999046326</ele>
        <time>2020-02-06T08:55:21.000Z</time>
      </trkpt>
      <trkpt lat="47.27028" lon="-2.32338">
        <ele>-5.5999999046326</ele>
        <time>2020-02-06T08:55:22.000Z</time>
      </trkpt>
      <trkpt lat="47.27029" lon="-2.32329">
        <ele>-5.5999999046326</ele>
        <time>2020-02-06T08:55:23.000Z</time>
      </trkpt>
      <trkpt lat="47.27027" lon="-2.32296">
        <ele>-5.5999999046326</ele>
        <time>2020-02-06T08:55:27.000Z</time>
      </trkpt>
      <trkpt lat="47.27026" lon="-2.32287">
        <ele>-5.5999999046326</ele>
        <time>2020-02-06T08:55:28.000Z</time>
      </trkpt>
      <trkpt lat="47.27026" lon="-2.32279">
        <ele>-5.5999999046326</ele>
        <time>2020-02-06T08:55:29.000Z</time>
      </trkpt>
      <trkpt lat="47.27024" lon="-2.32264">
        <ele>-5.5999999046326</ele>
        <time>2020-02-06T08:55:31.000Z</time>
      </trkpt>
      <trkpt lat="47.27025" lon="-2.32258">
        <ele>-5.5999999046326</ele>
        <time>2020-02-06T08:55:32.000Z</time>
      </trkpt>
      <trkpt lat="47.27025" lon="-2.32235">
        <ele>-5.5999999046326</ele>
        <time>2020-02-06T08:55:35.000Z</time>
      </trkpt>
      <trkpt lat="47.2702" lon="-2.3222">
        <ele>-5.5999999046326</ele>
        <time>2020-02-06T08:55:37.000Z</time>
      </trkpt>
      <trkpt lat="47.27012" lon="-2.32199">
        <ele>-5.5999999046326</ele>
        <time>2020-02-06T08:55:41.000Z</time>
      </trkpt>
      <trkpt lat="47.27001" lon="-2.32177">
        <ele>-5.5999999046326</ele>
        <time>2020-02-06T08:55:45.000Z</time>
      </trkpt>
      <trkpt lat="47.26991" lon="-2.32154">
        <ele>-5.5999999046326</ele>
        <time>2020-02-06T08:55:50.000Z</time>
      </trkpt>
      <trkpt lat="47.2699" lon="-2.32141">
        <ele>-5.5999999046326</ele>
        <time>2020-02-06T08:55:53.000Z</time>
      </trkpt>
      <trkpt lat="47.26992" lon="-2.32137">
        <ele>-5.5999999046326</ele>
        <time>2020-02-06T08:55:54.000Z</time>
      </trkpt>
      <trkpt lat="47.27004" lon="-2.32126">
        <ele>-5.5999999046326</ele>
        <time>2020-02-06T08:55:59.000Z</time>
      </trkpt>
      <trkpt lat="47.27006" lon="-2.32113">
        <ele>-5.5999999046326</ele>
        <time>2020-02-06T08:56:02.000Z</time>
      </trkpt>
      <trkpt lat="47.27011" lon="-2.32097">
        <ele>-5.5999999046326</ele>
        <time>2020-02-06T08:56:05.000Z</time>
      </trkpt>
      <trkpt lat="47.27011" lon="-2.32092">
        <ele>-5.5999999046326</ele>
        <time>2020-02-06T08:56:06.000Z</time>
      </trkpt>
      <trkpt lat="47.27012" lon="-2.32087">
        <ele>-5.5999999046326</ele>
        <time>2020-02-06T08:56:07.000Z</time>
      </trkpt>
      <trkpt lat="47.27016" lon="-2.32053">
        <ele>-5.5999999046326</ele>
        <time>2020-02-06T08:56:13.000Z</time>
      </trkpt>
      <trkpt lat="47.27015" lon="-2.32039">
        <ele>-5.5999999046326</ele>
        <time>2020-02-06T08:56:16.000Z</time>
      </trkpt>
      <trkpt lat="47.27012" lon="-2.32028">
        <ele>-5.1999998092651</ele>
        <time>2020-02-06T08:56:18.000Z</time>
      </trkpt>
      <trkpt lat="47.27011" lon="-2.32023">
        <ele>-4.8000001907349</ele>
        <time>2020-02-06T08:56:19.000Z</time>
      </trkpt>
      <trkpt lat="47.2701" lon="-2.32017">
        <ele>-4.4000000953674</ele>
        <time>2020-02-06T08:56:20.000Z</time>
      </trkpt>
      <trkpt lat="47.27009" lon="-2.32012">
        <ele>-4</ele>
        <time>2020-02-06T08:56:21.000Z</time>
      </trkpt>
      <trkpt lat="47.27007" lon="-2.32007">
        <ele>-3.5999999046326</ele>
        <time>2020-02-06T08:56:22.000Z</time>
      </trkpt>
      <trkpt lat="47.27005" lon="-2.31995">
        <ele>-3.5999999046326</ele>
        <time>2020-02-06T08:56:25.000Z</time>
      </trkpt>
      <trkpt lat="47.27" lon="-2.31993">
        <ele>-3.5999999046326</ele>
        <time>2020-02-06T08:56:27.000Z</time>
      </trkpt>
      <trkpt lat="47.26995" lon="-2.31993">
        <ele>-3.5999999046326</ele>
        <time>2020-02-06T08:56:29.000Z</time>
      </trkpt>
      <trkpt lat="47.26984" lon="-2.31996">
        <ele>-3.5999999046326</ele>
        <time>2020-02-06T08:56:33.000Z</time>
      </trkpt>
      <trkpt lat="47.26981" lon="-2.31998">
        <ele>-3.5999999046326</ele>
        <time>2020-02-06T08:56:34.000Z</time>
      </trkpt>
      <trkpt lat="47.26969" lon="-2.32001">
        <ele>-3.5999999046326</ele>
        <time>2020-02-06T08:56:37.000Z</time>
      </trkpt>
      <trkpt lat="47.26962" lon="-2.32002">
        <ele>-3.5999999046326</ele>
        <time>2020-02-06T08:56:39.000Z</time>
      </trkpt>
      <trkpt lat="47.26954" lon="-2.32">
        <ele>-3.5999999046326</ele>
        <time>2020-02-06T08:56:41.000Z</time>
      </trkpt>
      <trkpt lat="47.26949" lon="-2.31993">
        <ele>-3.5999999046326</ele>
        <time>2020-02-06T08:56:43.000Z</time>
      </trkpt>
      <trkpt lat="47.26948" lon="-2.31991">
        <ele>-3.2000000476837</ele>
        <time>2020-02-06T08:56:44.000Z</time>
      </trkpt>
      <trkpt lat="47.26946" lon="-2.31987">
        <ele>-2.7999999523163</ele>
        <time>2020-02-06T08:56:45.000Z</time>
      </trkpt>
      <trkpt lat="47.26944" lon="-2.31985">
        <ele>-2.2000000476837</ele>
        <time>2020-02-06T08:56:46.000Z</time>
      </trkpt>
      <trkpt lat="47.26943" lon="-2.31982">
        <ele>-1.7999999523163</ele>
        <time>2020-02-06T08:56:47.000Z</time>
      </trkpt>
      <trkpt lat="47.26941" lon="-2.31979">
        <ele>-1.3999999761581</ele>
        <time>2020-02-06T08:56:48.000Z</time>
      </trkpt>
      <trkpt lat="47.26932" lon="-2.31964">
        <ele>-1</ele>
        <time>2020-02-06T08:56:52.000Z</time>
      </trkpt>
      <trkpt lat="47.2693" lon="-2.31961">
        <ele>-0.60000002384186</ele>
        <time>2020-02-06T08:56:53.000Z</time>
      </trkpt>
      <trkpt lat="47.26926" lon="-2.31957">
        <ele>-0.20000000298023</ele>
        <time>2020-02-06T08:56:54.000Z</time>
      </trkpt>
      <trkpt lat="47.26922" lon="-2.31953">
        <ele>0.20000000298023</ele>
        <time>2020-02-06T08:56:55.000Z</time>
      </trkpt>
      <trkpt lat="47.26919" lon="-2.31948">
        <ele>0.60000002384186</ele>
        <time>2020-02-06T08:56:56.000Z</time>
      </trkpt>
      <trkpt lat="47.26914" lon="-2.31945">
        <ele>0.60000002384186</ele>
        <time>2020-02-06T08:56:57.000Z</time>
      </trkpt>
      <trkpt lat="47.26903" lon="-2.31929">
        <ele>0.60000002384186</ele>
        <time>2020-02-06T08:57:01.000Z</time>
      </trkpt>
      <trkpt lat="47.26901" lon="-2.31924">
        <ele>1</ele>
        <time>2020-02-06T08:57:02.000Z</time>
      </trkpt>
      <trkpt lat="47.26899" lon="-2.31921">
        <ele>1.3999999761581</ele>
        <time>2020-02-06T08:57:03.000Z</time>
      </trkpt>
      <trkpt lat="47.26897" lon="-2.31918">
        <ele>1.7999999523163</ele>
        <time>2020-02-06T08:57:04.000Z</time>
      </trkpt>
      <trkpt lat="47.26896" lon="-2.31916">
        <ele>2.2000000476837</ele>
        <time>2020-02-06T08:57:05.000Z</time>
      </trkpt>
      <trkpt lat="47.26894" lon="-2.31913">
        <ele>2.5999999046326</ele>
        <time>2020-02-06T08:57:06.000Z</time>
      </trkpt>
      <trkpt lat="47.26888" lon="-2.31904">
        <ele>2.5999999046326</ele>
        <time>2020-02-06T08:57:10.000Z</time>
      </trkpt>
      <trkpt lat="47.26884" lon="-2.31901">
        <ele>2.5999999046326</ele>
        <time>2020-02-06T08:57:11.000Z</time>
      </trkpt>
      <trkpt lat="47.26876" lon="-2.31897">
        <ele>2.5999999046326</ele>
        <time>2020-02-06T08:57:13.000Z</time>
      </trkpt>
      <trkpt lat="47.26872" lon="-2.31895">
        <ele>3.2000000476837</ele>
        <time>2020-02-06T08:57:14.000Z</time>
      </trkpt>
      <trkpt lat="47.26867" lon="-2.31894">
        <ele>3.5999999046326</ele>
        <time>2020-02-06T08:57:15.000Z</time>
      </trkpt>
      <trkpt lat="47.26863" lon="-2.31892">
        <ele>4</ele>
        <time>2020-02-06T08:57:16.000Z</time>
      </trkpt>
      <trkpt lat="47.2686" lon="-2.31891">
        <ele>4.4000000953674</ele>
        <time>2020-02-06T08:57:17.000Z</time>
      </trkpt>
      <trkpt lat="47.26856" lon="-2.3189">
        <ele>4.8000001907349</ele>
        <time>2020-02-06T08:57:18.000Z</time>
      </trkpt>
      <trkpt lat="47.26845" lon="-2.3188">
        <ele>5.5999999046326</ele>
        <time>2020-02-06T08:57:22.000Z</time>
      </trkpt>
      <trkpt lat="47.26843" lon="-2.31876">
        <ele>6</ele>
        <time>2020-02-06T08:57:23.000Z</time>
      </trkpt>
      <trkpt lat="47.26841" lon="-2.31873">
        <ele>6.4000000953674</ele>
        <time>2020-02-06T08:57:24.000Z</time>
      </trkpt>
      <trkpt lat="47.2684" lon="-2.31869">
        <ele>6.8000001907349</ele>
        <time>2020-02-06T08:57:25.000Z</time>
      </trkpt>
      <trkpt lat="47.26837" lon="-2.31861">
        <ele>6.8000001907349</ele>
        <time>2020-02-06T08:57:27.000Z</time>
      </trkpt>
      <trkpt lat="47.26828" lon="-2.31837">
        <ele>6.8000001907349</ele>
        <time>2020-02-06T08:57:33.000Z</time>
      </trkpt>
      <trkpt lat="47.26824" lon="-2.31827">
        <ele>7.1999998092651</ele>
        <time>2020-02-06T08:57:36.000Z</time>
      </trkpt>
      <trkpt lat="47.26822" lon="-2.31825">
        <ele>7.5999999046326</ele>
        <time>2020-02-06T08:57:37.000Z</time>
      </trkpt>
      <trkpt lat="47.26821" lon="-2.31822">
        <ele>8.1999998092651</ele>
        <time>2020-02-06T08:57:38.000Z</time>
      </trkpt>
      <trkpt lat="47.26821" lon="-2.31821">
        <ele>8.6000003814697</ele>
        <time>2020-02-06T08:57:39.000Z</time>
      </trkpt>
      <trkpt lat="47.26821" lon="-2.3182">
        <ele>9</ele>
        <time>2020-02-06T08:57:40.000Z</time>
      </trkpt>
      <trkpt lat="47.2682" lon="-2.31819">
        <ele>9</ele>
        <time>2020-02-06T08:57:41.000Z</time>
      </trkpt>
      <trkpt lat="47.2682" lon="-2.31818">
        <ele>9</ele>
        <time>2020-02-06T08:57:42.000Z</time>
      </trkpt>
      <trkpt lat="47.2682" lon="-2.31816">
        <ele>9</ele>
        <time>2020-02-06T08:57:43.000Z</time>
      </trkpt>
      <trkpt lat="47.26822" lon="-2.31812">
        <ele>9</ele>
        <time>2020-02-06T08:57:46.000Z</time>
      </trkpt>
      <trkpt lat="47.26823" lon="-2.31811">
        <ele>9</ele>
        <time>2020-02-06T08:57:47.000Z</time>
      </trkpt>
      <trkpt lat="47.26833" lon="-2.318">
        <ele>9</ele>
        <time>2020-02-06T08:57:51.000Z</time>
      </trkpt>
      <trkpt lat="47.26855" lon="-2.31784">
        <ele>9</ele>
        <time>2020-02-06T08:57:57.000Z</time>
      </trkpt>
      <trkpt lat="47.26872" lon="-2.31774">
        <ele>9</ele>
        <time>2020-02-06T08:58:01.000Z</time>
      </trkpt>
      <trkpt lat="47.26878" lon="-2.31763">
        <ele>9</ele>
        <time>2020-02-06T08:58:03.000Z</time>
      </trkpt>
      <trkpt lat="47.26884" lon="-2.31752">
        <ele>9</ele>
        <time>2020-02-06T08:58:05.000Z</time>
      </trkpt>
      <trkpt lat="47.26889" lon="-2.31731">
        <ele>9</ele>
        <time>2020-02-06T08:58:08.000Z</time>
      </trkpt>
      <trkpt lat="47.2689" lon="-2.31705">
        <ele>9</ele>
        <time>2020-02-06T08:58:12.000Z</time>
      </trkpt>
      <trkpt lat="47.2689" lon="-2.317">
        <ele>9</ele>
        <time>2020-02-06T08:58:13.000Z</time>
      </trkpt>
      <trkpt lat="47.26889" lon="-2.31695">
        <ele>9.3999996185303</ele>
        <time>2020-02-06T08:58:14.000Z</time>
      </trkpt>
      <trkpt lat="47.26888" lon="-2.3169">
        <ele>9.8000001907349</ele>
        <time>2020-02-06T08:58:15.000Z</time>
      </trkpt>
      <trkpt lat="47.26887" lon="-2.31686">
        <ele>10.199999809265</ele>
        <time>2020-02-06T08:58:16.000Z</time>
      </trkpt>
      <trkpt lat="47.26886" lon="-2.31681">
        <ele>10.800000190735</ele>
        <time>2020-02-06T08:58:17.000Z</time>
      </trkpt>
      <trkpt lat="47.26885" lon="-2.31676">
        <ele>11.199999809265</ele>
        <time>2020-02-06T08:58:18.000Z</time>
      </trkpt>
      <trkpt lat="47.26883" lon="-2.31657">
        <ele>11.199999809265</ele>
        <time>2020-02-06T08:58:23.000Z</time>
      </trkpt>
      <trkpt lat="47.26881" lon="-2.31634">
        <ele>11.199999809265</ele>
        <time>2020-02-06T08:58:30.000Z</time>
      </trkpt>
      <trkpt lat="47.26891" lon="-2.31632">
        <ele>11.199999809265</ele>
        <time>2020-02-06T08:58:34.000Z</time>
      </trkpt>
      <trkpt lat="47.26896" lon="-2.3163">
        <ele>11.199999809265</ele>
        <time>2020-02-06T08:58:36.000Z</time>
      </trkpt>
      <trkpt lat="47.26908" lon="-2.31632">
        <ele>11.199999809265</ele>
        <time>2020-02-06T08:58:39.000Z</time>
      </trkpt>
      <trkpt lat="47.26934" lon="-2.31645">
        <ele>11.199999809265</ele>
        <time>2020-02-06T08:58:44.000Z</time>
      </trkpt>
      <trkpt lat="47.26952" lon="-2.31656">
        <ele>10.60000038147</ele>
        <time>2020-02-06T08:58:47.000Z</time>
      </trkpt>
      <trkpt lat="47.26958" lon="-2.3166">
        <ele>10.199999809265</ele>
        <time>2020-02-06T08:58:48.000Z</time>
      </trkpt>
      <trkpt lat="47.26964" lon="-2.31663">
        <ele>9.8000001907349</ele>
        <time>2020-02-06T08:58:49.000Z</time>
      </trkpt>
      <trkpt lat="47.2697" lon="-2.31667">
        <ele>9.1999998092651</ele>
        <time>2020-02-06T08:58:50.000Z</time>
      </trkpt>
      <trkpt lat="47.26976" lon="-2.31672">
        <ele>8.8000001907349</ele>
        <time>2020-02-06T08:58:51.000Z</time>
      </trkpt>
      <trkpt lat="47.26995" lon="-2.31684">
        <ele>8.3999996185303</ele>
        <time>2020-02-06T08:58:54.000Z</time>
      </trkpt>
      <trkpt lat="47.27" lon="-2.31688">
        <ele>7.8000001907349</ele>
        <time>2020-02-06T08:58:55.000Z</time>
      </trkpt>
      <trkpt lat="47.27005" lon="-2.31692">
        <ele>7.4000000953674</ele>
        <time>2020-02-06T08:58:56.000Z</time>
      </trkpt>
      <trkpt lat="47.2701" lon="-2.31697">
        <ele>7</ele>
        <time>2020-02-06T08:58:57.000Z</time>
      </trkpt>
      <trkpt lat="47.27014" lon="-2.31701">
        <ele>6.4000000953674</ele>
        <time>2020-02-06T08:58:58.000Z</time>
      </trkpt>
      <trkpt lat="47.27017" lon="-2.31703">
        <ele>6</ele>
        <time>2020-02-06T08:58:59.000Z</time>
      </trkpt>
      <trkpt lat="47.27019" lon="-2.31706">
        <ele>5.5999999046326</ele>
        <time>2020-02-06T08:59:00.000Z</time>
      </trkpt>
      <trkpt lat="47.27021" lon="-2.31708">
        <ele>4.5999999046326</ele>
        <time>2020-02-06T08:59:01.000Z</time>
      </trkpt>
      <trkpt lat="47.27023" lon="-2.31709">
        <ele>4.1999998092651</ele>
        <time>2020-02-06T08:59:02.000Z</time>
      </trkpt>
      <trkpt lat="47.27026" lon="-2.31709">
        <ele>4.1999998092651</ele>
        <time>2020-02-06T08:59:04.000Z</time>
      </trkpt>
      <trkpt lat="47.27027" lon="-2.31695">
        <ele>4.1999998092651</ele>
        <time>2020-02-06T08:59:08.000Z</time>
      </trkpt>
      <trkpt lat="47.2703" lon="-2.31677">
        <ele>4.1999998092651</ele>
        <time>2020-02-06T08:59:13.000Z</time>
      </trkpt>
      <trkpt lat="47.27031" lon="-2.31659">
        <ele>4.1999998092651</ele>
        <time>2020-02-06T08:59:17.000Z</time>
      </trkpt>
      <trkpt lat="47.2703" lon="-2.31642">
        <ele>4.1999998092651</ele>
        <time>2020-02-06T08:59:22.000Z</time>
      </trkpt>
      <trkpt lat="47.27031" lon="-2.31638">
        <ele>4.1999998092651</ele>
        <time>2020-02-06T08:59:23.000Z</time>
      </trkpt>
      <trkpt lat="47.2703" lon="-2.31627">
        <ele>4.1999998092651</ele>
        <time>2020-02-06T08:59:26.000Z</time>
      </trkpt>
      <trkpt lat="47.2703" lon="-2.31618">
        <ele>4.5999999046326</ele>
        <time>2020-02-06T08:59:29.000Z</time>
      </trkpt>
      <trkpt lat="47.27029" lon="-2.31614">
        <ele>5</ele>
        <time>2020-02-06T08:59:30.000Z</time>
      </trkpt>
      <trkpt lat="47.27028" lon="-2.3161">
        <ele>5.4000000953674</ele>
        <time>2020-02-06T08:59:31.000Z</time>
      </trkpt>
      <trkpt lat="47.27028" lon="-2.31607">
        <ele>5.8000001907349</ele>
        <time>2020-02-06T08:59:32.000Z</time>
      </trkpt>
      <trkpt lat="47.27027" lon="-2.31604">
        <ele>6.1999998092651</ele>
        <time>2020-02-06T08:59:33.000Z</time>
      </trkpt>
      <trkpt lat="47.27025" lon="-2.31593">
        <ele>6.5999999046326</ele>
        <time>2020-02-06T08:59:37.000Z</time>
      </trkpt>
      <trkpt lat="47.27023" lon="-2.3159">
        <ele>7.1999998092651</ele>
        <time>2020-02-06T08:59:38.000Z</time>
      </trkpt>
      <trkpt lat="47.27022" lon="-2.31587">
        <ele>7.5999999046326</ele>
        <time>2020-02-06T08:59:39.000Z</time>
      </trkpt>
      <trkpt lat="47.2702" lon="-2.31586">
        <ele>8</ele>
        <time>2020-02-06T08:59:40.000Z</time>
      </trkpt>
      <trkpt lat="47.27019" lon="-2.31583">
        <ele>8.3999996185303</ele>
        <time>2020-02-06T08:59:41.000Z</time>
      </trkpt>
      <trkpt lat="47.27018" lon="-2.3158">
        <ele>8.3999996185303</ele>
        <time>2020-02-06T08:59:42.000Z</time>
      </trkpt>
      <trkpt lat="47.27012" lon="-2.31561">
        <ele>8.3999996185303</ele>
        <time>2020-02-06T08:59:47.000Z</time>
      </trkpt>
      <trkpt lat="47.27009" lon="-2.31552">
        <ele>8.8000001907349</ele>
        <time>2020-02-06T08:59:49.000Z</time>
      </trkpt>
      <trkpt lat="47.27007" lon="-2.31548">
        <ele>9.6000003814697</ele>
        <time>2020-02-06T08:59:50.000Z</time>
      </trkpt>
      <trkpt lat="47.27006" lon="-2.31544">
        <ele>10.199999809265</ele>
        <time>2020-02-06T08:59:51.000Z</time>
      </trkpt>
      <trkpt lat="47.27004" lon="-2.3154">
        <ele>10.60000038147</ele>
        <time>2020-02-06T08:59:52.000Z</time>
      </trkpt>
      <trkpt lat="47.27002" lon="-2.31536">
        <ele>10.60000038147</ele>
        <time>2020-02-06T08:59:53.000Z</time>
      </trkpt>
      <trkpt lat="47.27003" lon="-2.31532">
        <ele>10.60000038147</ele>
        <time>2020-02-06T08:59:54.000Z</time>
      </trkpt>
      <trkpt lat="47.27004" lon="-2.31519">
        <ele>10.60000038147</ele>
        <time>2020-02-06T08:59:57.000Z</time>
      </trkpt>
      <trkpt lat="47.27005" lon="-2.31509">
        <ele>11</ele>
        <time>2020-02-06T08:59:59.000Z</time>
      </trkpt>
      <trkpt lat="47.27005" lon="-2.31505">
        <ele>11.39999961853</ele>
        <time>2020-02-06T09:00:00.000Z</time>
      </trkpt>
      <trkpt lat="47.27006" lon="-2.315">
        <ele>11.800000190735</ele>
        <time>2020-02-06T09:00:01.000Z</time>
      </trkpt>
      <trkpt lat="47.27003" lon="-2.31496">
        <ele>12.199999809265</ele>
        <time>2020-02-06T09:00:02.000Z</time>
      </trkpt>
      <trkpt lat="47.27003" lon="-2.31494">
        <ele>12.60000038147</ele>
        <time>2020-02-06T09:00:03.000Z</time>
      </trkpt>
      <trkpt lat="47.27002" lon="-2.31472">
        <ele>12.60000038147</ele>
        <time>2020-02-06T09:00:08.000Z</time>
      </trkpt>
      <trkpt lat="47.26995" lon="-2.31443">
        <ele>12.60000038147</ele>
        <time>2020-02-06T09:00:13.000Z</time>
      </trkpt>
      <trkpt lat="47.2699" lon="-2.31421">
        <ele>12.60000038147</ele>
        <time>2020-02-06T09:00:17.000Z</time>
      </trkpt>
      <trkpt lat="47.26987" lon="-2.31404">
        <ele>12.60000038147</ele>
        <time>2020-02-06T09:00:21.000Z</time>
      </trkpt>
      <trkpt lat="47.26986" lon="-2.314">
        <ele>13</ele>
        <time>2020-02-06T09:00:22.000Z</time>
      </trkpt>
      <trkpt lat="47.26987" lon="-2.31395">
        <ele>13.39999961853</ele>
        <time>2020-02-06T09:00:23.000Z</time>
      </trkpt>
      <trkpt lat="47.26987" lon="-2.31391">
        <ele>13.800000190735</ele>
        <time>2020-02-06T09:00:24.000Z</time>
      </trkpt>
      <trkpt lat="47.26986" lon="-2.31387">
        <ele>14.199999809265</ele>
        <time>2020-02-06T09:00:25.000Z</time>
      </trkpt>
      <trkpt lat="47.26986" lon="-2.31383">
        <ele>14.60000038147</ele>
        <time>2020-02-06T09:00:26.000Z</time>
      </trkpt>
      <trkpt lat="47.26986" lon="-2.31375">
        <ele>14.60000038147</ele>
        <time>2020-02-06T09:00:28.000Z</time>
      </trkpt>
      <trkpt lat="47.26984" lon="-2.31357">
        <ele>15</ele>
        <time>2020-02-06T09:00:32.000Z</time>
      </trkpt>
      <trkpt lat="47.26984" lon="-2.31353">
        <ele>15.39999961853</ele>
        <time>2020-02-06T09:00:33.000Z</time>
      </trkpt>
      <trkpt lat="47.26984" lon="-2.31348">
        <ele>15.800000190735</ele>
        <time>2020-02-06T09:00:34.000Z</time>
      </trkpt>
      <trkpt lat="47.26985" lon="-2.31345">
        <ele>16.200000762939</ele>
        <time>2020-02-06T09:00:35.000Z</time>
      </trkpt>
      <trkpt lat="47.26986" lon="-2.31341">
        <ele>16.60000038147</ele>
        <time>2020-02-06T09:00:36.000Z</time>
      </trkpt>
      <trkpt lat="47.26984" lon="-2.31331">
        <ele>16.60000038147</ele>
        <time>2020-02-06T09:00:38.000Z</time>
      </trkpt>
      <trkpt lat="47.2698" lon="-2.31315">
        <ele>16.60000038147</ele>
        <time>2020-02-06T09:00:42.000Z</time>
      </trkpt>
      <trkpt lat="47.26979" lon="-2.31289">
        <ele>16.60000038147</ele>
        <time>2020-02-06T09:00:46.000Z</time>
      </trkpt>
      <trkpt lat="47.26977" lon="-2.31256">
        <ele>16.60000038147</ele>
        <time>2020-02-06T09:00:51.000Z</time>
      </trkpt>
      <trkpt lat="47.26977" lon="-2.31241">
        <ele>16.60000038147</ele>
        <time>2020-02-06T09:00:53.000Z</time>
      </trkpt>
      <trkpt lat="47.26979" lon="-2.31229">
        <ele>16.60000038147</ele>
        <time>2020-02-06T09:00:55.000Z</time>
      </trkpt>
      <trkpt lat="47.2698" lon="-2.31223">
        <ele>16.60000038147</ele>
        <time>2020-02-06T09:00:56.000Z</time>
      </trkpt>
      <trkpt lat="47.26981" lon="-2.31217">
        <ele>16.60000038147</ele>
        <time>2020-02-06T09:00:57.000Z</time>
      </trkpt>
      <trkpt lat="47.26985" lon="-2.31194">
        <ele>16.60000038147</ele>
        <time>2020-02-06T09:01:00.000Z</time>
      </trkpt>
      <trkpt lat="47.2699" lon="-2.31159">
        <ele>16.60000038147</ele>
        <time>2020-02-06T09:01:04.000Z</time>
      </trkpt>
      <trkpt lat="47.26991" lon="-2.31151">
        <ele>16.60000038147</ele>
        <time>2020-02-06T09:01:05.000Z</time>
      </trkpt>
      <trkpt lat="47.26992" lon="-2.31142">
        <ele>16.60000038147</ele>
        <time>2020-02-06T09:01:06.000Z</time>
      </trkpt>
      <trkpt lat="47.26992" lon="-2.31109">
        <ele>16.200000762939</ele>
        <time>2020-02-06T09:01:09.000Z</time>
      </trkpt>
      <trkpt lat="47.26991" lon="-2.31101">
        <ele>15.800000190735</ele>
        <time>2020-02-06T09:01:10.000Z</time>
      </trkpt>
      <trkpt lat="47.26991" lon="-2.31094">
        <ele>15.39999961853</ele>
        <time>2020-02-06T09:01:11.000Z</time>
      </trkpt>
      <trkpt lat="47.2699" lon="-2.31088">
        <ele>15</ele>
        <time>2020-02-06T09:01:12.000Z</time>
      </trkpt>
      <trkpt lat="47.2699" lon="-2.31083">
        <ele>14.60000038147</ele>
        <time>2020-02-06T09:01:13.000Z</time>
      </trkpt>
      <trkpt lat="47.26991" lon="-2.31078">
        <ele>14.199999809265</ele>
        <time>2020-02-06T09:01:14.000Z</time>
      </trkpt>
      <trkpt lat="47.26993" lon="-2.31073">
        <ele>13.800000190735</ele>
        <time>2020-02-06T09:01:15.000Z</time>
      </trkpt>
      <trkpt lat="47.26997" lon="-2.31068">
        <ele>13</ele>
        <time>2020-02-06T09:01:16.000Z</time>
      </trkpt>
      <trkpt lat="47.27" lon="-2.31064">
        <ele>12.60000038147</ele>
        <time>2020-02-06T09:01:17.000Z</time>
      </trkpt>
      <trkpt lat="47.27003" lon="-2.3106">
        <ele>12.60000038147</ele>
        <time>2020-02-06T09:01:18.000Z</time>
      </trkpt>
      <trkpt lat="47.27013" lon="-2.31047">
        <ele>12.60000038147</ele>
        <time>2020-02-06T09:01:21.000Z</time>
      </trkpt>
      <trkpt lat="47.27019" lon="-2.31038">
        <ele>12.60000038147</ele>
        <time>2020-02-06T09:01:23.000Z</time>
      </trkpt>
      <trkpt lat="47.27022" lon="-2.31034">
        <ele>12.199999809265</ele>
        <time>2020-02-06T09:01:24.000Z</time>
      </trkpt>
      <trkpt lat="47.27026" lon="-2.3103">
        <ele>11.800000190735</ele>
        <time>2020-02-06T09:01:25.000Z</time>
      </trkpt>
      <trkpt lat="47.27029" lon="-2.31027">
        <ele>11.39999961853</ele>
        <time>2020-02-06T09:01:26.000Z</time>
      </trkpt>
      <trkpt lat="47.27033" lon="-2.31024">
        <ele>11</ele>
        <time>2020-02-06T09:01:27.000Z</time>
      </trkpt>
      <trkpt lat="47.27036" lon="-2.31022">
        <ele>10.39999961853</ele>
        <time>2020-02-06T09:01:28.000Z</time>
      </trkpt>
      <trkpt lat="47.27045" lon="-2.31005">
        <ele>10.39999961853</ele>
        <time>2020-02-06T09:01:32.000Z</time>
      </trkpt>
      <trkpt lat="47.27048" lon="-2.30984">
        <ele>10.39999961853</ele>
        <time>2020-02-06T09:01:36.000Z</time>
      </trkpt>
      <trkpt lat="47.27048" lon="-2.30979">
        <ele>10.39999961853</ele>
        <time>2020-02-06T09:01:38.000Z</time>
      </trkpt>
      <trkpt lat="47.27048" lon="-2.30975">
        <ele>10</ele>
        <time>2020-02-06T09:01:39.000Z</time>
      </trkpt>
      <trkpt lat="47.27048" lon="-2.30971">
        <ele>9.6000003814697</ele>
        <time>2020-02-06T09:01:40.000Z</time>
      </trkpt>
      <trkpt lat="47.27048" lon="-2.30968">
        <ele>8.8000001907349</ele>
        <time>2020-02-06T09:01:41.000Z</time>
      </trkpt>
      <trkpt lat="47.27049" lon="-2.30964">
        <ele>8.3999996185303</ele>
        <time>2020-02-06T09:01:42.000Z</time>
      </trkpt>
      <trkpt lat="47.2705" lon="-2.30956">
        <ele>8.3999996185303</ele>
        <time>2020-02-06T09:01:44.000Z</time>
      </trkpt>
      <trkpt lat="47.27051" lon="-2.30953">
        <ele>8.3999996185303</ele>
        <time>2020-02-06T09:01:45.000Z</time>
      </trkpt>
      <trkpt lat="47.27051" lon="-2.30938">
        <ele>8.3999996185303</ele>
        <time>2020-02-06T09:01:51.000Z</time>
      </trkpt>
      <trkpt lat="47.27052" lon="-2.30929">
        <ele>8.3999996185303</ele>
        <time>2020-02-06T09:01:56.000Z</time>
      </trkpt>
      <trkpt lat="47.27052" lon="-2.30924">
        <ele>8.3999996185303</ele>
        <time>2020-02-06T09:01:58.000Z</time>
      </trkpt>
      <trkpt lat="47.27052" lon="-2.30917">
        <ele>8.3999996185303</ele>
        <time>2020-02-06T09:02:00.000Z</time>
      </trkpt>
      <trkpt lat="47.27048" lon="-2.30909">
        <ele>8.3999996185303</ele>
        <time>2020-02-06T09:02:03.000Z</time>
      </trkpt>
      <trkpt lat="47.27047" lon="-2.30905">
        <ele>8.3999996185303</ele>
        <time>2020-02-06T09:02:04.000Z</time>
      </trkpt>
      <trkpt lat="47.27036" lon="-2.30886">
        <ele>8.3999996185303</ele>
        <time>2020-02-06T09:02:10.000Z</time>
      </trkpt>
      <trkpt lat="47.27025" lon="-2.30862">
        <ele>8.3999996185303</ele>
        <time>2020-02-06T09:02:16.000Z</time>
      </trkpt>
      <trkpt lat="47.27019" lon="-2.30845">
        <ele>8.3999996185303</ele>
        <time>2020-02-06T09:02:22.000Z</time>
      </trkpt>
      <trkpt lat="47.27014" lon="-2.30834">
        <ele>8.8000001907349</ele>
        <time>2020-02-06T09:02:26.000Z</time>
      </trkpt>
      <trkpt lat="47.27014" lon="-2.30832">
        <ele>9.1999998092651</ele>
        <time>2020-02-06T09:02:27.000Z</time>
      </trkpt>
      <trkpt lat="47.27013" lon="-2.30829">
        <ele>9.6000003814697</ele>
        <time>2020-02-06T09:02:28.000Z</time>
      </trkpt>
      <trkpt lat="47.27011" lon="-2.30825">
        <ele>10</ele>
        <time>2020-02-06T09:02:29.000Z</time>
      </trkpt>
      <trkpt lat="47.2701" lon="-2.30822">
        <ele>10.39999961853</ele>
        <time>2020-02-06T09:02:30.000Z</time>
      </trkpt>
      <trkpt lat="47.27006" lon="-2.30815">
        <ele>10.39999961853</ele>
        <time>2020-02-06T09:02:33.000Z</time>
      </trkpt>
      <trkpt lat="47.26995" lon="-2.30803">
        <ele>10.39999961853</ele>
        <time>2020-02-06T09:02:38.000Z</time>
      </trkpt>
      <trkpt lat="47.26985" lon="-2.30789">
        <ele>10.800000190735</ele>
        <time>2020-02-06T09:02:43.000Z</time>
      </trkpt>
      <trkpt lat="47.26983" lon="-2.30785">
        <ele>11.199999809265</ele>
        <time>2020-02-06T09:02:44.000Z</time>
      </trkpt>
      <trkpt lat="47.26981" lon="-2.30782">
        <ele>11.60000038147</ele>
        <time>2020-02-06T09:02:45.000Z</time>
      </trkpt>
      <trkpt lat="47.26979" lon="-2.30778">
        <ele>12</ele>
        <time>2020-02-06T09:02:46.000Z</time>
      </trkpt>
      <trkpt lat="47.26976" lon="-2.30773">
        <ele>12.39999961853</ele>
        <time>2020-02-06T09:02:47.000Z</time>
      </trkpt>
      <trkpt lat="47.26972" lon="-2.30766">
        <ele>12.39999961853</ele>
        <time>2020-02-06T09:02:49.000Z</time>
      </trkpt>
      <trkpt lat="47.26957" lon="-2.3075">
        <ele>12.39999961853</ele>
        <time>2020-02-06T09:02:53.000Z</time>
      </trkpt>
      <trkpt lat="47.26952" lon="-2.30741">
        <ele>12.800000190735</ele>
        <time>2020-02-06T09:02:55.000Z</time>
      </trkpt>
      <trkpt lat="47.26949" lon="-2.30737">
        <ele>13.199999809265</ele>
        <time>2020-02-06T09:02:56.000Z</time>
      </trkpt>
      <trkpt lat="47.26946" lon="-2.30732">
        <ele>13.60000038147</ele>
        <time>2020-02-06T09:02:57.000Z</time>
      </trkpt>
      <trkpt lat="47.26942" lon="-2.30728">
        <ele>14</ele>
        <time>2020-02-06T09:02:58.000Z</time>
      </trkpt>
      <trkpt lat="47.2694" lon="-2.30724">
        <ele>14.39999961853</ele>
        <time>2020-02-06T09:02:59.000Z</time>
      </trkpt>
      <trkpt lat="47.26924" lon="-2.307">
        <ele>14.39999961853</ele>
        <time>2020-02-06T09:03:05.000Z</time>
      </trkpt>
      <trkpt lat="47.2691" lon="-2.30681">
        <ele>14.39999961853</ele>
        <time>2020-02-06T09:03:10.000Z</time>
      </trkpt>
      <trkpt lat="47.26901" lon="-2.30663">
        <ele>14.39999961853</ele>
        <time>2020-02-06T09:03:16.000Z</time>
      </trkpt>
      <trkpt lat="47.269" lon="-2.30662">
        <ele>14.39999961853</ele>
        <time>2020-02-06T09:03:17.000Z</time>
      </trkpt>
      <trkpt lat="47.26898" lon="-2.30662">
        <ele>14.39999961853</ele>
        <time>2020-02-06T09:03:26.000Z</time>
      </trkpt>
      <trkpt lat="47.26897" lon="-2.30662">
        <ele>14.39999961853</ele>
        <time>2020-02-06T09:03:27.000Z</time>
      </trkpt>
      <trkpt lat="47.26894" lon="-2.30664">
        <ele>14.39999961853</ele>
        <time>2020-02-06T09:03:29.000Z</time>
      </trkpt>
      <trkpt lat="47.2689" lon="-2.3067">
        <ele>14.39999961853</ele>
        <time>2020-02-06T09:03:31.000Z</time>
      </trkpt>
      <trkpt lat="47.26887" lon="-2.30674">
        <ele>14.800000190735</ele>
        <time>2020-02-06T09:03:32.000Z</time>
      </trkpt>
      <trkpt lat="47.26884" lon="-2.30679">
        <ele>15.199999809265</ele>
        <time>2020-02-06T09:03:33.000Z</time>
      </trkpt>
      <trkpt lat="47.26882" lon="-2.30683">
        <ele>15.60000038147</ele>
        <time>2020-02-06T09:03:34.000Z</time>
      </trkpt>
      <trkpt lat="47.26879" lon="-2.30688">
        <ele>16.200000762939</ele>
        <time>2020-02-06T09:03:35.000Z</time>
      </trkpt>
      <trkpt lat="47.26876" lon="-2.30693">
        <ele>16.60000038147</ele>
        <time>2020-02-06T09:03:36.000Z</time>
      </trkpt>
      <trkpt lat="47.26874" lon="-2.30698">
        <ele>16.60000038147</ele>
        <time>2020-02-06T09:03:37.000Z</time>
      </trkpt>
      <trkpt lat="47.26863" lon="-2.3072">
        <ele>16.60000038147</ele>
        <time>2020-02-06T09:03:41.000Z</time>
      </trkpt>
      <trkpt lat="47.26857" lon="-2.30733">
        <ele>16.60000038147</ele>
        <time>2020-02-06T09:03:43.000Z</time>
      </trkpt>
      <trkpt lat="47.26848" lon="-2.30759">
        <ele>16.60000038147</ele>
        <time>2020-02-06T09:03:47.000Z</time>
      </trkpt>
      <trkpt lat="47.26842" lon="-2.30772">
        <ele>16.60000038147</ele>
        <time>2020-02-06T09:03:49.000Z</time>
      </trkpt>
      <trkpt lat="47.26834" lon="-2.30788">
        <ele>16.60000038147</ele>
        <time>2020-02-06T09:03:52.000Z</time>
      </trkpt>
      <trkpt lat="47.26826" lon="-2.30793">
        <ele>16.60000038147</ele>
        <time>2020-02-06T09:03:54.000Z</time>
      </trkpt>
      <trkpt lat="47.268" lon="-2.30815">
        <ele>16.60000038147</ele>
        <time>2020-02-06T09:04:01.000Z</time>
      </trkpt>
      <trkpt lat="47.26783" lon="-2.30836">
        <ele>16.60000038147</ele>
        <time>2020-02-06T09:04:07.000Z</time>
      </trkpt>
      <trkpt lat="47.26766" lon="-2.3085">
        <ele>16.60000038147</ele>
        <time>2020-02-06T09:04:12.000Z</time>
      </trkpt>
      <trkpt lat="47.26763" lon="-2.30853">
        <ele>16.60000038147</ele>
        <time>2020-02-06T09:04:13.000Z</time>
      </trkpt>
      <trkpt lat="47.26754" lon="-2.30862">
        <ele>16.60000038147</ele>
        <time>2020-02-06T09:04:16.000Z</time>
      </trkpt>
      <trkpt lat="47.26747" lon="-2.30869">
        <ele>16.60000038147</ele>
        <time>2020-02-06T09:04:18.000Z</time>
      </trkpt>
      <trkpt lat="47.26742" lon="-2.30871">
        <ele>16.60000038147</ele>
        <time>2020-02-06T09:04:19.000Z</time>
      </trkpt>
      <trkpt lat="47.26733" lon="-2.30867">
        <ele>16.60000038147</ele>
        <time>2020-02-06T09:04:21.000Z</time>
      </trkpt>
      <trkpt lat="47.26726" lon="-2.30852">
        <ele>16.60000038147</ele>
        <time>2020-02-06T09:04:24.000Z</time>
      </trkpt>
      <trkpt lat="47.26712" lon="-2.30822">
        <ele>16.60000038147</ele>
        <time>2020-02-06T09:04:30.000Z</time>
      </trkpt>
      <trkpt lat="47.26705" lon="-2.30803">
        <ele>16.60000038147</ele>
        <time>2020-02-06T09:04:33.000Z</time>
      </trkpt>
      <trkpt lat="47.26699" lon="-2.30789">
        <ele>16.60000038147</ele>
        <time>2020-02-06T09:04:35.000Z</time>
      </trkpt>
      <trkpt lat="47.26682" lon="-2.30746">
        <ele>16.60000038147</ele>
        <time>2020-02-06T09:04:41.000Z</time>
      </trkpt>
      <trkpt lat="47.2668" lon="-2.30739">
        <ele>16</ele>
        <time>2020-02-06T09:04:42.000Z</time>
      </trkpt>
      <trkpt lat="47.26677" lon="-2.30734">
        <ele>15.60000038147</ele>
        <time>2020-02-06T09:04:43.000Z</time>
      </trkpt>
      <trkpt lat="47.26675" lon="-2.30729">
        <ele>15</ele>
        <time>2020-02-06T09:04:44.000Z</time>
      </trkpt>
      <trkpt lat="47.26673" lon="-2.30725">
        <ele>14.60000038147</ele>
        <time>2020-02-06T09:04:45.000Z</time>
      </trkpt>
      <trkpt lat="47.26672" lon="-2.3072">
        <ele>14.199999809265</ele>
        <time>2020-02-06T09:04:46.000Z</time>
      </trkpt>
      <trkpt lat="47.26661" lon="-2.30698">
        <ele>13.800000190735</ele>
        <time>2020-02-06T09:04:52.000Z</time>
      </trkpt>
      <trkpt lat="47.2666" lon="-2.30695">
        <ele>13.199999809265</ele>
        <time>2020-02-06T09:04:53.000Z</time>
      </trkpt>
      <trkpt lat="47.26658" lon="-2.30694">
        <ele>12.800000190735</ele>
        <time>2020-02-06T09:04:54.000Z</time>
      </trkpt>
      <trkpt lat="47.26657" lon="-2.30693">
        <ele>12.39999961853</ele>
        <time>2020-02-06T09:04:55.000Z</time>
      </trkpt>
      <trkpt lat="47.26655" lon="-2.30693">
        <ele>12</ele>
        <time>2020-02-06T09:04:56.000Z</time>
      </trkpt>
      <trkpt lat="47.26647" lon="-2.30706">
        <ele>12</ele>
        <time>2020-02-06T09:05:00.000Z</time>
      </trkpt>
      <trkpt lat="47.26645" lon="-2.3071">
        <ele>12</ele>
        <time>2020-02-06T09:05:01.000Z</time>
      </trkpt>
      <trkpt lat="47.26644" lon="-2.30715">
        <ele>12</ele>
        <time>2020-02-06T09:05:02.000Z</time>
      </trkpt>
      <trkpt lat="47.26641" lon="-2.30723">
        <ele>12</ele>
        <time>2020-02-06T09:05:04.000Z</time>
      </trkpt>
      <trkpt lat="47.26636" lon="-2.30729">
        <ele>12</ele>
        <time>2020-02-06T09:05:07.000Z</time>
      </trkpt>
      <trkpt lat="47.2663" lon="-2.30734">
        <ele>12</ele>
        <time>2020-02-06T09:05:10.000Z</time>
      </trkpt>
      <trkpt lat="47.2663" lon="-2.30737">
        <ele>12</ele>
        <time>2020-02-06T09:05:11.000Z</time>
      </trkpt>
      <trkpt lat="47.26626" lon="-2.30743">
        <ele>12</ele>
        <time>2020-02-06T09:05:14.000Z</time>
      </trkpt>
      <trkpt lat="47.26626" lon="-2.30748">
        <ele>12</ele>
        <time>2020-02-06T09:05:16.000Z</time>
      </trkpt>
      <trkpt lat="47.26626" lon="-2.30754">
        <ele>12</ele>
        <time>2020-02-06T09:05:18.000Z</time>
      </trkpt>
      <trkpt lat="47.26622" lon="-2.3076">
        <ele>11.60000038147</ele>
        <time>2020-02-06T09:05:20.000Z</time>
      </trkpt>
      <trkpt lat="47.26619" lon="-2.30763">
        <ele>11.199999809265</ele>
        <time>2020-02-06T09:05:21.000Z</time>
      </trkpt>
      <trkpt lat="47.26616" lon="-2.30766">
        <ele>10.800000190735</ele>
        <time>2020-02-06T09:05:22.000Z</time>
      </trkpt>
      <trkpt lat="47.26614" lon="-2.30769">
        <ele>9.8000001907349</ele>
        <time>2020-02-06T09:05:23.000Z</time>
      </trkpt>
      <trkpt lat="47.26606" lon="-2.30776">
        <ele>9.8000001907349</ele>
        <time>2020-02-06T09:05:26.000Z</time>
      </trkpt>
      <trkpt lat="47.26592" lon="-2.30793">
        <ele>9.8000001907349</ele>
        <time>2020-02-06T09:05:32.000Z</time>
      </trkpt>
      <trkpt lat="47.26581" lon="-2.30813">
        <ele>9.8000001907349</ele>
        <time>2020-02-06T09:05:37.000Z</time>
      </trkpt>
      <trkpt lat="47.2658" lon="-2.30815">
        <ele>9.3999996185303</ele>
        <time>2020-02-06T09:05:39.000Z</time>
      </trkpt>
      <trkpt lat="47.2658" lon="-2.30818">
        <ele>9</ele>
        <time>2020-02-06T09:05:40.000Z</time>
      </trkpt>
      <trkpt lat="47.26579" lon="-2.3082">
        <ele>8.6000003814697</ele>
        <time>2020-02-06T09:05:41.000Z</time>
      </trkpt>
      <trkpt lat="47.26578" lon="-2.30822">
        <ele>8.1999998092651</ele>
        <time>2020-02-06T09:05:42.000Z</time>
      </trkpt>
      <trkpt lat="47.26578" lon="-2.30824">
        <ele>7.8000001907349</ele>
        <time>2020-02-06T09:05:43.000Z</time>
      </trkpt>
      <trkpt lat="47.26577" lon="-2.30827">
        <ele>7.8000001907349</ele>
        <time>2020-02-06T09:05:45.000Z</time>
      </trkpt>
      <trkpt lat="47.26577" lon="-2.30828">
        <ele>7.8000001907349</ele>
        <time>2020-02-06T09:05:46.000Z</time>
      </trkpt>
      <trkpt lat="47.26573" lon="-2.30834">
        <ele>7.8000001907349</ele>
        <time>2020-02-06T09:05:49.000Z</time>
      </trkpt>
      <trkpt lat="47.26569" lon="-2.30839">
        <ele>7.8000001907349</ele>
        <time>2020-02-06T09:05:51.000Z</time>
      </trkpt>
      <trkpt lat="47.26561" lon="-2.30846">
        <ele>7.8000001907349</ele>
        <time>2020-02-06T09:05:55.000Z</time>
      </trkpt>
      <trkpt lat="47.2656" lon="-2.30848">
        <ele>7.8000001907349</ele>
        <time>2020-02-06T09:05:56.000Z</time>
      </trkpt>
      <trkpt lat="47.26556" lon="-2.30854">
        <ele>7.8000001907349</ele>
        <time>2020-02-06T09:06:00.000Z</time>
      </trkpt>
      <trkpt lat="47.26554" lon="-2.30858">
        <ele>7.8000001907349</ele>
        <time>2020-02-06T09:06:01.000Z</time>
      </trkpt>
      <trkpt lat="47.26548" lon="-2.30862">
        <ele>7.8000001907349</ele>
        <time>2020-02-06T09:06:04.000Z</time>
      </trkpt>
      <trkpt lat="47.26545" lon="-2.30865">
        <ele>7.8000001907349</ele>
        <time>2020-02-06T09:06:05.000Z</time>
      </trkpt>
      <trkpt lat="47.26534" lon="-2.30872">
        <ele>7.8000001907349</ele>
        <time>2020-02-06T09:06:08.000Z</time>
      </trkpt>
      <trkpt lat="47.26532" lon="-2.30875">
        <ele>7.4000000953674</ele>
        <time>2020-02-06T09:06:09.000Z</time>
      </trkpt>
      <trkpt lat="47.26529" lon="-2.30876">
        <ele>7</ele>
        <time>2020-02-06T09:06:10.000Z</time>
      </trkpt>
      <trkpt lat="47.26526" lon="-2.30878">
        <ele>6.5999999046326</ele>
        <time>2020-02-06T09:06:11.000Z</time>
      </trkpt>
      <trkpt lat="47.26523" lon="-2.3088">
        <ele>6.1999998092651</ele>
        <time>2020-02-06T09:06:12.000Z</time>
      </trkpt>
      <trkpt lat="47.26521" lon="-2.30882">
        <ele>5.8000001907349</ele>
        <time>2020-02-06T09:06:13.000Z</time>
      </trkpt>
      <trkpt lat="47.26514" lon="-2.30884">
        <ele>5.8000001907349</ele>
        <time>2020-02-06T09:06:17.000Z</time>
      </trkpt>
      <trkpt lat="47.26507" lon="-2.30881">
        <ele>5.8000001907349</ele>
        <time>2020-02-06T09:06:20.000Z</time>
      </trkpt>
      <trkpt lat="47.26505" lon="-2.30878">
        <ele>5.8000001907349</ele>
        <time>2020-02-06T09:06:22.000Z</time>
      </trkpt>
      <trkpt lat="47.265" lon="-2.30871">
        <ele>6.1999998092651</ele>
        <time>2020-02-06T09:06:26.000Z</time>
      </trkpt>
      <trkpt lat="47.26498" lon="-2.30868">
        <ele>6.5999999046326</ele>
        <time>2020-02-06T09:06:27.000Z</time>
      </trkpt>
      <trkpt lat="47.26496" lon="-2.30864">
        <ele>7.1999998092651</ele>
        <time>2020-02-06T09:06:28.000Z</time>
      </trkpt>
      <trkpt lat="47.26494" lon="-2.30861">
        <ele>7.5999999046326</ele>
        <time>2020-02-06T09:06:29.000Z</time>
      </trkpt>
      <trkpt lat="47.26493" lon="-2.3086">
        <ele>8</ele>
        <time>2020-02-06T09:06:30.000Z</time>
      </trkpt>
      <trkpt lat="47.26488" lon="-2.30856">
        <ele>8</ele>
        <time>2020-02-06T09:06:32.000Z</time>
      </trkpt>
      <trkpt lat="47.26485" lon="-2.30852">
        <ele>8.3999996185303</ele>
        <time>2020-02-06T09:06:35.000Z</time>
      </trkpt>
      <trkpt lat="47.26484" lon="-2.3085">
        <ele>8.8000001907349</ele>
        <time>2020-02-06T09:06:36.000Z</time>
      </trkpt>
      <trkpt lat="47.26483" lon="-2.30848">
        <ele>9.1999998092651</ele>
        <time>2020-02-06T09:06:37.000Z</time>
      </trkpt>
      <trkpt lat="47.26483" lon="-2.30846">
        <ele>10</ele>
        <time>2020-02-06T09:06:38.000Z</time>
      </trkpt>
      <trkpt lat="47.26482" lon="-2.30841">
        <ele>10</ele>
        <time>2020-02-06T09:06:40.000Z</time>
      </trkpt>
      <trkpt lat="47.26479" lon="-2.30829">
        <ele>10</ele>
        <time>2020-02-06T09:06:45.000Z</time>
      </trkpt>
      <trkpt lat="47.26474" lon="-2.30816">
        <ele>10</ele>
        <time>2020-02-06T09:06:50.000Z</time>
      </trkpt>
      <trkpt lat="47.26471" lon="-2.30809">
        <ele>10</ele>
        <time>2020-02-06T09:06:53.000Z</time>
      </trkpt>
      <trkpt lat="47.26469" lon="-2.30803">
        <ele>10.39999961853</ele>
        <time>2020-02-06T09:06:55.000Z</time>
      </trkpt>
      <trkpt lat="47.26468" lon="-2.30801">
        <ele>10.800000190735</ele>
        <time>2020-02-06T09:06:56.000Z</time>
      </trkpt>
      <trkpt lat="47.26468" lon="-2.30798">
        <ele>11.199999809265</ele>
        <time>2020-02-06T09:06:57.000Z</time>
      </trkpt>
      <trkpt lat="47.26466" lon="-2.30795">
        <ele>11.60000038147</ele>
        <time>2020-02-06T09:06:58.000Z</time>
      </trkpt>
      <trkpt lat="47.26466" lon="-2.30792">
        <ele>12</ele>
        <time>2020-02-06T09:06:59.000Z</time>
      </trkpt>
      <trkpt lat="47.26463" lon="-2.30783">
        <ele>12</ele>
        <time>2020-02-06T09:07:02.000Z</time>
      </trkpt>
      <trkpt lat="47.26463" lon="-2.30781">
        <ele>12</ele>
        <time>2020-02-06T09:07:03.000Z</time>
      </trkpt>
      <trkpt lat="47.26461" lon="-2.30773">
        <ele>12</ele>
        <time>2020-02-06T09:07:07.000Z</time>
      </trkpt>
      <trkpt lat="47.2646" lon="-2.3076">
        <ele>12</ele>
        <time>2020-02-06T09:07:13.000Z</time>
      </trkpt>
      <trkpt lat="47.26456" lon="-2.30751">
        <ele>12.39999961853</ele>
        <time>2020-02-06T09:07:17.000Z</time>
      </trkpt>
      <trkpt lat="47.26456" lon="-2.30748">
        <ele>12.800000190735</ele>
        <time>2020-02-06T09:07:18.000Z</time>
      </trkpt>
      <trkpt lat="47.26456" lon="-2.30745">
        <ele>13.199999809265</ele>
        <time>2020-02-06T09:07:19.000Z</time>
      </trkpt>
      <trkpt lat="47.26456" lon="-2.30743">
        <ele>13.60000038147</ele>
        <time>2020-02-06T09:07:20.000Z</time>
      </trkpt>
      <trkpt lat="47.26455" lon="-2.30741">
        <ele>14</ele>
        <time>2020-02-06T09:07:21.000Z</time>
      </trkpt>
      <trkpt lat="47.26452" lon="-2.30734">
        <ele>14</ele>
        <time>2020-02-06T09:07:24.000Z</time>
      </trkpt>
      <trkpt lat="47.2645" lon="-2.30729">
        <ele>14</ele>
        <time>2020-02-06T09:07:25.000Z</time>
      </trkpt>
      <trkpt lat="47.26441" lon="-2.30717">
        <ele>14</ele>
        <time>2020-02-06T09:07:29.000Z</time>
      </trkpt>
      <trkpt lat="47.26437" lon="-2.30712">
        <ele>14</ele>
        <time>2020-02-06T09:07:31.000Z</time>
      </trkpt>
      <trkpt lat="47.26435" lon="-2.3071">
        <ele>14</ele>
        <time>2020-02-06T09:07:32.000Z</time>
      </trkpt>
      <trkpt lat="47.26431" lon="-2.30702">
        <ele>14</ele>
        <time>2020-02-06T09:07:35.000Z</time>
      </trkpt>
      <trkpt lat="47.26429" lon="-2.307">
        <ele>14</ele>
        <time>2020-02-06T09:07:36.000Z</time>
      </trkpt>
      <trkpt lat="47.26423" lon="-2.30692">
        <ele>14</ele>
        <time>2020-02-06T09:07:39.000Z</time>
      </trkpt>
      <trkpt lat="47.26417" lon="-2.30684">
        <ele>14.39999961853</ele>
        <time>2020-02-06T09:07:42.000Z</time>
      </trkpt>
      <trkpt lat="47.26415" lon="-2.30681">
        <ele>15</ele>
        <time>2020-02-06T09:07:43.000Z</time>
      </trkpt>
      <trkpt lat="47.26412" lon="-2.30679">
        <ele>15.39999961853</ele>
        <time>2020-02-06T09:07:44.000Z</time>
      </trkpt>
      <trkpt lat="47.2641" lon="-2.30678">
        <ele>15.800000190735</ele>
        <time>2020-02-06T09:07:45.000Z</time>
      </trkpt>
      <trkpt lat="47.26407" lon="-2.30676">
        <ele>16.200000762939</ele>
        <time>2020-02-06T09:07:46.000Z</time>
      </trkpt>
      <trkpt lat="47.264" lon="-2.30671">
        <ele>16.200000762939</ele>
        <time>2020-02-06T09:07:49.000Z</time>
      </trkpt>
      <trkpt lat="47.2639" lon="-2.30664">
        <ele>16.200000762939</ele>
        <time>2020-02-06T09:07:54.000Z</time>
      </trkpt>
      <trkpt lat="47.26387" lon="-2.30661">
        <ele>16.200000762939</ele>
        <time>2020-02-06T09:07:56.000Z</time>
      </trkpt>
      <trkpt lat="47.26383" lon="-2.30656">
        <ele>16.200000762939</ele>
        <time>2020-02-06T09:07:58.000Z</time>
      </trkpt>
      <trkpt lat="47.26378" lon="-2.3065">
        <ele>16.200000762939</ele>
        <time>2020-02-06T09:08:00.000Z</time>
      </trkpt>
      <trkpt lat="47.26374" lon="-2.30646">
        <ele>16.200000762939</ele>
        <time>2020-02-06T09:08:01.000Z</time>
      </trkpt>
      <trkpt lat="47.26373" lon="-2.30643">
        <ele>16.200000762939</ele>
        <time>2020-02-06T09:08:02.000Z</time>
      </trkpt>
      <trkpt lat="47.26361" lon="-2.30627">
        <ele>16.200000762939</ele>
        <time>2020-02-06T09:08:06.000Z</time>
      </trkpt>
      <trkpt lat="47.26359" lon="-2.30623">
        <ele>16.200000762939</ele>
        <time>2020-02-06T09:08:07.000Z</time>
      </trkpt>
      <trkpt lat="47.2635" lon="-2.30605">
        <ele>16.200000762939</ele>
        <time>2020-02-06T09:08:11.000Z</time>
      </trkpt>
      <trkpt lat="47.26348" lon="-2.30599">
        <ele>16.200000762939</ele>
        <time>2020-02-06T09:08:13.000Z</time>
      </trkpt>
      <trkpt lat="47.26346" lon="-2.3059">
        <ele>16.200000762939</ele>
        <time>2020-02-06T09:08:15.000Z</time>
      </trkpt>
      <trkpt lat="47.26346" lon="-2.30578">
        <ele>16.200000762939</ele>
        <time>2020-02-06T09:08:19.000Z</time>
      </trkpt>
      <trkpt lat="47.26346" lon="-2.30575">
        <ele>16.200000762939</ele>
        <time>2020-02-06T09:08:20.000Z</time>
      </trkpt>
      <trkpt lat="47.26342" lon="-2.30552">
        <ele>16.200000762939</ele>
        <time>2020-02-06T09:08:25.000Z</time>
      </trkpt>
      <trkpt lat="47.26338" lon="-2.30531">
        <ele>16.200000762939</ele>
        <time>2020-02-06T09:08:30.000Z</time>
      </trkpt>
      <trkpt lat="47.26334" lon="-2.30516">
        <ele>16.60000038147</ele>
        <time>2020-02-06T09:08:33.000Z</time>
      </trkpt>
      <trkpt lat="47.26333" lon="-2.30511">
        <ele>17.200000762939</ele>
        <time>2020-02-06T09:08:34.000Z</time>
      </trkpt>
      <trkpt lat="47.26332" lon="-2.30506">
        <ele>17.60000038147</ele>
        <time>2020-02-06T09:08:35.000Z</time>
      </trkpt>
      <trkpt lat="47.26332" lon="-2.305">
        <ele>18.200000762939</ele>
        <time>2020-02-06T09:08:36.000Z</time>
      </trkpt>
      <trkpt lat="47.26331" lon="-2.30494">
        <ele>18.60000038147</ele>
        <time>2020-02-06T09:08:37.000Z</time>
      </trkpt>
      <trkpt lat="47.26328" lon="-2.30471">
        <ele>18.60000038147</ele>
        <time>2020-02-06T09:08:41.000Z</time>
      </trkpt>
      <trkpt lat="47.26322" lon="-2.30449">
        <ele>18.60000038147</ele>
        <time>2020-02-06T09:08:45.000Z</time>
      </trkpt>
      <trkpt lat="47.2632" lon="-2.30429">
        <ele>18.60000038147</ele>
        <time>2020-02-06T09:08:49.000Z</time>
      </trkpt>
      <trkpt lat="47.2632" lon="-2.30424">
        <ele>18.60000038147</ele>
        <time>2020-02-06T09:08:50.000Z</time>
      </trkpt>
      <trkpt lat="47.26314" lon="-2.30403">
        <ele>18.60000038147</ele>
        <time>2020-02-06T09:08:54.000Z</time>
      </trkpt>
      <trkpt lat="47.2631" lon="-2.30384">
        <ele>18.60000038147</ele>
        <time>2020-02-06T09:08:57.000Z</time>
      </trkpt>
      <trkpt lat="47.26309" lon="-2.30371">
        <ele>18.60000038147</ele>
        <time>2020-02-06T09:08:59.000Z</time>
      </trkpt>
      <trkpt lat="47.26307" lon="-2.30351">
        <ele>18.60000038147</ele>
        <time>2020-02-06T09:09:02.000Z</time>
      </trkpt>
      <trkpt lat="47.26305" lon="-2.3034">
        <ele>18.60000038147</ele>
        <time>2020-02-06T09:09:04.000Z</time>
      </trkpt>
      <trkpt lat="47.26299" lon="-2.30321">
        <ele>18.60000038147</ele>
        <time>2020-02-06T09:09:08.000Z</time>
      </trkpt>
      <trkpt lat="47.26288" lon="-2.30294">
        <ele>18.60000038147</ele>
        <time>2020-02-06T09:09:13.000Z</time>
      </trkpt>
      <trkpt lat="47.26281" lon="-2.30262">
        <ele>18.60000038147</ele>
        <time>2020-02-06T09:09:18.000Z</time>
      </trkpt>
      <trkpt lat="47.26277" lon="-2.30243">
        <ele>18.60000038147</ele>
        <time>2020-02-06T09:09:21.000Z</time>
      </trkpt>
      <trkpt lat="47.26276" lon="-2.30237">
        <ele>18.60000038147</ele>
        <time>2020-02-06T09:09:22.000Z</time>
      </trkpt>
      <trkpt lat="47.2627" lon="-2.30208">
        <ele>18.60000038147</ele>
        <time>2020-02-06T09:09:27.000Z</time>
      </trkpt>
      <trkpt lat="47.26266" lon="-2.30182">
        <ele>18.60000038147</ele>
        <time>2020-02-06T09:09:32.000Z</time>
      </trkpt>
      <trkpt lat="47.26263" lon="-2.3017">
        <ele>18.60000038147</ele>
        <time>2020-02-06T09:09:34.000Z</time>
      </trkpt>
      <trkpt lat="47.26257" lon="-2.30158">
        <ele>18.60000038147</ele>
        <time>2020-02-06T09:09:37.000Z</time>
      </trkpt>
      <trkpt lat="47.26253" lon="-2.30143">
        <ele>18.60000038147</ele>
        <time>2020-02-06T09:09:41.000Z</time>
      </trkpt>
      <trkpt lat="47.26253" lon="-2.3014">
        <ele>18.60000038147</ele>
        <time>2020-02-06T09:09:42.000Z</time>
      </trkpt>
      <trkpt lat="47.26249" lon="-2.30132">
        <ele>18.60000038147</ele>
        <time>2020-02-06T09:09:47.000Z</time>
      </trkpt>
      <trkpt lat="47.26245" lon="-2.30132">
        <ele>20.60000038147</ele>
        <time>2020-02-06T09:11:01.000Z</time>
      </trkpt>
      <trkpt lat="47.26238" lon="-2.30134">
        <ele>20.60000038147</ele>
        <time>2020-02-06T09:11:04.000Z</time>
      </trkpt>
      <trkpt lat="47.26222" lon="-2.30139">
        <ele>20.60000038147</ele>
        <time>2020-02-06T09:11:08.000Z</time>
      </trkpt>
      <trkpt lat="47.26196" lon="-2.30148">
        <ele>20.60000038147</ele>
        <time>2020-02-06T09:11:14.000Z</time>
      </trkpt>
      <trkpt lat="47.26188" lon="-2.30151">
        <ele>20.200000762939</ele>
        <time>2020-02-06T09:11:16.000Z</time>
      </trkpt>
      <trkpt lat="47.26185" lon="-2.30153">
        <ele>19.799999237061</ele>
        <time>2020-02-06T09:11:17.000Z</time>
      </trkpt>
      <trkpt lat="47.26181" lon="-2.30155">
        <ele>19.39999961853</ele>
        <time>2020-02-06T09:11:18.000Z</time>
      </trkpt>
      <trkpt lat="47.26179" lon="-2.30157">
        <ele>19</ele>
        <time>2020-02-06T09:11:19.000Z</time>
      </trkpt>
      <trkpt lat="47.26177" lon="-2.30158">
        <ele>18.60000038147</ele>
        <time>2020-02-06T09:11:20.000Z</time>
      </trkpt>
      <trkpt lat="47.26175" lon="-2.30158">
        <ele>18.60000038147</ele>
        <time>2020-02-06T09:11:21.000Z</time>
      </trkpt>
      <trkpt lat="47.26172" lon="-2.30152">
        <ele>18.60000038147</ele>
        <time>2020-02-06T09:11:23.000Z</time>
      </trkpt>
      <trkpt lat="47.2617" lon="-2.30147">
        <ele>18.60000038147</ele>
        <time>2020-02-06T09:11:25.000Z</time>
      </trkpt>
      <trkpt lat="47.26168" lon="-2.30145">
        <ele>18.60000038147</ele>
        <time>2020-02-06T09:11:27.000Z</time>
      </trkpt>
      <trkpt lat="47.26166" lon="-2.30145">
        <ele>18.200000762939</ele>
        <time>2020-02-06T09:11:28.000Z</time>
      </trkpt>
      <trkpt lat="47.26164" lon="-2.30146">
        <ele>17.799999237061</ele>
        <time>2020-02-06T09:11:29.000Z</time>
      </trkpt>
      <trkpt lat="47.2616" lon="-2.30147">
        <ele>17.39999961853</ele>
        <time>2020-02-06T09:11:30.000Z</time>
      </trkpt>
      <trkpt lat="47.26156" lon="-2.30149">
        <ele>17</ele>
        <time>2020-02-06T09:11:31.000Z</time>
      </trkpt>
      <trkpt lat="47.26152" lon="-2.3015">
        <ele>16.60000038147</ele>
        <time>2020-02-06T09:11:32.000Z</time>
      </trkpt>
      <trkpt lat="47.26133" lon="-2.30158">
        <ele>16.60000038147</ele>
        <time>2020-02-06T09:11:37.000Z</time>
      </trkpt>
      <trkpt lat="47.26118" lon="-2.30163">
        <ele>16</ele>
        <time>2020-02-06T09:11:41.000Z</time>
      </trkpt>
      <trkpt lat="47.26115" lon="-2.30164">
        <ele>15.60000038147</ele>
        <time>2020-02-06T09:11:42.000Z</time>
      </trkpt>
      <trkpt lat="47.26112" lon="-2.30164">
        <ele>15.199999809265</ele>
        <time>2020-02-06T09:11:43.000Z</time>
      </trkpt>
      <trkpt lat="47.26109" lon="-2.30165">
        <ele>14.800000190735</ele>
        <time>2020-02-06T09:11:44.000Z</time>
      </trkpt>
      <trkpt lat="47.26106" lon="-2.30166">
        <ele>14.199999809265</ele>
        <time>2020-02-06T09:11:45.000Z</time>
      </trkpt>
      <trkpt lat="47.26097" lon="-2.30161">
        <ele>14.199999809265</ele>
        <time>2020-02-06T09:11:49.000Z</time>
      </trkpt>
      <trkpt lat="47.26092" lon="-2.30157">
        <ele>14.199999809265</ele>
        <time>2020-02-06T09:11:52.000Z</time>
      </trkpt>
      <trkpt lat="47.26091" lon="-2.30155">
        <ele>13.800000190735</ele>
        <time>2020-02-06T09:11:54.000Z</time>
      </trkpt>
      <trkpt lat="47.26089" lon="-2.30156">
        <ele>13.39999961853</ele>
        <time>2020-02-06T09:11:55.000Z</time>
      </trkpt>
      <trkpt lat="47.26087" lon="-2.30156">
        <ele>13</ele>
        <time>2020-02-06T09:11:56.000Z</time>
      </trkpt>
      <trkpt lat="47.26086" lon="-2.30156">
        <ele>12.60000038147</ele>
        <time>2020-02-06T09:11:57.000Z</time>
      </trkpt>
      <trkpt lat="47.26084" lon="-2.30156">
        <ele>12.199999809265</ele>
        <time>2020-02-06T09:11:58.000Z</time>
      </trkpt>
      <trkpt lat="47.26075" lon="-2.30153">
        <ele>12.199999809265</ele>
        <time>2020-02-06T09:12:01.000Z</time>
      </trkpt>
      <trkpt lat="47.2607" lon="-2.30148">
        <ele>12.199999809265</ele>
        <time>2020-02-06T09:12:03.000Z</time>
      </trkpt>
      <trkpt lat="47.26068" lon="-2.30146">
        <ele>12.199999809265</ele>
        <time>2020-02-06T09:12:04.000Z</time>
      </trkpt>
      <trkpt lat="47.26058" lon="-2.30138">
        <ele>12.199999809265</ele>
        <time>2020-02-06T09:12:07.000Z</time>
      </trkpt>
      <trkpt lat="47.26054" lon="-2.30138">
        <ele>12.199999809265</ele>
        <time>2020-02-06T09:12:08.000Z</time>
      </trkpt>
      <trkpt lat="47.26051" lon="-2.30139">
        <ele>11.60000038147</ele>
        <time>2020-02-06T09:12:09.000Z</time>
      </trkpt>
      <trkpt lat="47.26048" lon="-2.3014">
        <ele>11.199999809265</ele>
        <time>2020-02-06T09:12:10.000Z</time>
      </trkpt>
      <trkpt lat="47.26044" lon="-2.30141">
        <ele>10.800000190735</ele>
        <time>2020-02-06T09:12:11.000Z</time>
      </trkpt>
      <trkpt lat="47.2604" lon="-2.3014">
        <ele>10.39999961853</ele>
        <time>2020-02-06T09:12:12.000Z</time>
      </trkpt>
      <trkpt lat="47.26036" lon="-2.3014">
        <ele>10</ele>
        <time>2020-02-06T09:12:13.000Z</time>
      </trkpt>
      <trkpt lat="47.26028" lon="-2.30136">
        <ele>10</ele>
        <time>2020-02-06T09:12:17.000Z</time>
      </trkpt>
      <trkpt lat="47.26027" lon="-2.30136">
        <ele>10</ele>
        <time>2020-02-06T09:12:18.000Z</time>
      </trkpt>
      <trkpt lat="47.26014" lon="-2.30135">
        <ele>10</ele>
        <time>2020-02-06T09:12:25.000Z</time>
      </trkpt>
      <trkpt lat="47.26011" lon="-2.30133">
        <ele>10</ele>
        <time>2020-02-06T09:12:26.000Z</time>
      </trkpt>
      <trkpt lat="47.26008" lon="-2.30133">
        <ele>9.3999996185303</ele>
        <time>2020-02-06T09:12:27.000Z</time>
      </trkpt>
      <trkpt lat="47.26005" lon="-2.30133">
        <ele>9</ele>
        <time>2020-02-06T09:12:28.000Z</time>
      </trkpt>
      <trkpt lat="47.26002" lon="-2.30134">
        <ele>8.6000003814697</ele>
        <time>2020-02-06T09:12:29.000Z</time>
      </trkpt>
      <trkpt lat="47.25998" lon="-2.30134">
        <ele>8.1999998092651</ele>
        <time>2020-02-06T09:12:30.000Z</time>
      </trkpt>
      <trkpt lat="47.25995" lon="-2.30134">
        <ele>7.8000001907349</ele>
        <time>2020-02-06T09:12:31.000Z</time>
      </trkpt>
      <trkpt lat="47.2598" lon="-2.30141">
        <ele>7.8000001907349</ele>
        <time>2020-02-06T09:12:35.000Z</time>
      </trkpt>
      <trkpt lat="47.25965" lon="-2.30159">
        <ele>7.8000001907349</ele>
        <time>2020-02-06T09:12:39.000Z</time>
      </trkpt>
      <trkpt lat="47.25939" lon="-2.30174">
        <ele>7.8000001907349</ele>
        <time>2020-02-06T09:12:44.000Z</time>
      </trkpt>
      <trkpt lat="47.25921" lon="-2.30176">
        <ele>7.8000001907349</ele>
        <time>2020-02-06T09:12:47.000Z</time>
      </trkpt>
      <trkpt lat="47.25911" lon="-2.30178">
        <ele>7.8000001907349</ele>
        <time>2020-02-06T09:12:49.000Z</time>
      </trkpt>
      <trkpt lat="47.25894" lon="-2.30186">
        <ele>7.8000001907349</ele>
        <time>2020-02-06T09:12:54.000Z</time>
      </trkpt>
      <trkpt lat="47.2589" lon="-2.30211">
        <ele>7.8000001907349</ele>
        <time>2020-02-06T09:12:58.000Z</time>
      </trkpt>
      <trkpt lat="47.25895" lon="-2.3023">
        <ele>7.8000001907349</ele>
        <time>2020-02-06T09:13:01.000Z</time>
      </trkpt>
      <trkpt lat="47.25897" lon="-2.30235">
        <ele>7.8000001907349</ele>
        <time>2020-02-06T09:13:02.000Z</time>
      </trkpt>
      <trkpt lat="47.25898" lon="-2.30242">
        <ele>7.8000001907349</ele>
        <time>2020-02-06T09:13:03.000Z</time>
      </trkpt>
      <trkpt lat="47.25899" lon="-2.30271">
        <ele>7.8000001907349</ele>
        <time>2020-02-06T09:13:07.000Z</time>
      </trkpt>
      <trkpt lat="47.25897" lon="-2.303">
        <ele>7.8000001907349</ele>
        <time>2020-02-06T09:13:11.000Z</time>
      </trkpt>
      <trkpt lat="47.25889" lon="-2.30309">
        <ele>8.1999998092651</ele>
        <time>2020-02-06T09:13:13.000Z</time>
      </trkpt>
      <trkpt lat="47.25884" lon="-2.3031">
        <ele>8.6000003814697</ele>
        <time>2020-02-06T09:13:14.000Z</time>
      </trkpt>
      <trkpt lat="47.25879" lon="-2.3031">
        <ele>9</ele>
        <time>2020-02-06T09:13:15.000Z</time>
      </trkpt>
      <trkpt lat="47.25873" lon="-2.3031">
        <ele>9.3999996185303</ele>
        <time>2020-02-06T09:13:16.000Z</time>
      </trkpt>
      <trkpt lat="47.25868" lon="-2.30311">
        <ele>9.8000001907349</ele>
        <time>2020-02-06T09:13:17.000Z</time>
      </trkpt>
      <trkpt lat="47.25863" lon="-2.30308">
        <ele>9.8000001907349</ele>
        <time>2020-02-06T09:13:18.000Z</time>
      </trkpt>
      <trkpt lat="47.2586" lon="-2.30302">
        <ele>9.8000001907349</ele>
        <time>2020-02-06T09:13:19.000Z</time>
      </trkpt>
      <trkpt lat="47.25851" lon="-2.30285">
        <ele>9.8000001907349</ele>
        <time>2020-02-06T09:13:22.000Z</time>
      </trkpt>
      <trkpt lat="47.25847" lon="-2.3028">
        <ele>9.8000001907349</ele>
        <time>2020-02-06T09:13:23.000Z</time>
      </trkpt>
      <trkpt lat="47.25829" lon="-2.30271">
        <ele>9.8000001907349</ele>
        <time>2020-02-06T09:13:26.000Z</time>
      </trkpt>
      <trkpt lat="47.25799" lon="-2.30254">
        <ele>9.8000001907349</ele>
        <time>2020-02-06T09:13:31.000Z</time>
      </trkpt>
      <trkpt lat="47.25764" lon="-2.30237">
        <ele>9.8000001907349</ele>
        <time>2020-02-06T09:13:37.000Z</time>
      </trkpt>
      <trkpt lat="47.25723" lon="-2.30221">
        <ele>9.8000001907349</ele>
        <time>2020-02-06T09:13:44.000Z</time>
      </trkpt>
      <trkpt lat="47.25706" lon="-2.30227">
        <ele>9.8000001907349</ele>
        <time>2020-02-06T09:13:47.000Z</time>
      </trkpt>
      <trkpt lat="47.25695" lon="-2.30244">
        <ele>9.8000001907349</ele>
        <time>2020-02-06T09:13:50.000Z</time>
      </trkpt>
      <trkpt lat="47.25693" lon="-2.30269">
        <ele>9.8000001907349</ele>
        <time>2020-02-06T09:13:54.000Z</time>
      </trkpt>
      <trkpt lat="47.25691" lon="-2.30288">
        <ele>9.8000001907349</ele>
        <time>2020-02-06T09:13:58.000Z</time>
      </trkpt>
      <trkpt lat="47.25689" lon="-2.30308">
        <ele>10.199999809265</ele>
        <time>2020-02-06T09:14:01.000Z</time>
      </trkpt>
      <trkpt lat="47.25687" lon="-2.30313">
        <ele>10.60000038147</ele>
        <time>2020-02-06T09:14:02.000Z</time>
      </trkpt>
      <trkpt lat="47.25685" lon="-2.30318">
        <ele>11.60000038147</ele>
        <time>2020-02-06T09:14:03.000Z</time>
      </trkpt>
      <trkpt lat="47.2568" lon="-2.30321">
        <ele>12</ele>
        <time>2020-02-06T09:14:04.000Z</time>
      </trkpt>
      <trkpt lat="47.25675" lon="-2.30322">
        <ele>12</ele>
        <time>2020-02-06T09:14:05.000Z</time>
      </trkpt>
      <trkpt lat="47.25654" lon="-2.30332">
        <ele>12</ele>
        <time>2020-02-06T09:14:09.000Z</time>
      </trkpt>
      <trkpt lat="47.25644" lon="-2.3034">
        <ele>12</ele>
        <time>2020-02-06T09:14:11.000Z</time>
      </trkpt>
      <trkpt lat="47.25641" lon="-2.30342">
        <ele>12</ele>
        <time>2020-02-06T09:14:12.000Z</time>
      </trkpt>
      <trkpt lat="47.25634" lon="-2.30343">
        <ele>12</ele>
        <time>2020-02-06T09:14:14.000Z</time>
      </trkpt>
      <trkpt lat="47.2563" lon="-2.30333">
        <ele>12</ele>
        <time>2020-02-06T09:14:17.000Z</time>
      </trkpt>
      <trkpt lat="47.25625" lon="-2.30309">
        <ele>12</ele>
        <time>2020-02-06T09:14:21.000Z</time>
      </trkpt>
      <trkpt lat="47.25624" lon="-2.30302">
        <ele>12</ele>
        <time>2020-02-06T09:14:22.000Z</time>
      </trkpt>
      <trkpt lat="47.25622" lon="-2.30288">
        <ele>12</ele>
        <time>2020-02-06T09:14:24.000Z</time>
      </trkpt>
      <trkpt lat="47.25621" lon="-2.30272">
        <ele>12</ele>
        <time>2020-02-06T09:14:26.000Z</time>
      </trkpt>
      <trkpt lat="47.25615" lon="-2.30234">
        <ele>12</ele>
        <time>2020-02-06T09:14:32.000Z</time>
      </trkpt>
      <trkpt lat="47.25607" lon="-2.3021">
        <ele>12</ele>
        <time>2020-02-06T09:14:37.000Z</time>
      </trkpt>
      <trkpt lat="47.25599" lon="-2.30198">
        <ele>12</ele>
        <time>2020-02-06T09:14:40.000Z</time>
      </trkpt>
      <trkpt lat="47.25591" lon="-2.30193">
        <ele>12</ele>
        <time>2020-02-06T09:14:42.000Z</time>
      </trkpt>
      <trkpt lat="47.25581" lon="-2.30187">
        <ele>12</ele>
        <time>2020-02-06T09:14:46.000Z</time>
      </trkpt>
      <trkpt lat="47.25572" lon="-2.30183">
        <ele>12</ele>
        <time>2020-02-06T09:14:50.000Z</time>
      </trkpt>
      <trkpt lat="47.25568" lon="-2.30185">
        <ele>12</ele>
        <time>2020-02-06T09:14:51.000Z</time>
      </trkpt>
      <trkpt lat="47.25552" lon="-2.30194">
        <ele>12</ele>
        <time>2020-02-06T09:14:55.000Z</time>
      </trkpt>
      <trkpt lat="47.25533" lon="-2.30199">
        <ele>12</ele>
        <time>2020-02-06T09:15:00.000Z</time>
      </trkpt>
      <trkpt lat="47.25524" lon="-2.30196">
        <ele>12</ele>
        <time>2020-02-06T09:15:04.000Z</time>
      </trkpt>
      <trkpt lat="47.25515" lon="-2.30199">
        <ele>12</ele>
        <time>2020-02-06T09:15:07.000Z</time>
      </trkpt>
      <trkpt lat="47.25515" lon="-2.30202">
        <ele>12</ele>
        <time>2020-02-06T09:15:08.000Z</time>
      </trkpt>
      <trkpt lat="47.25511" lon="-2.30203">
        <ele>12</ele>
        <time>2020-02-06T09:15:09.000Z</time>
      </trkpt>
      <trkpt lat="47.25506" lon="-2.30208">
        <ele>12</ele>
        <time>2020-02-06T09:15:11.000Z</time>
      </trkpt>
      <trkpt lat="47.25491" lon="-2.30226">
        <ele>12</ele>
        <time>2020-02-06T09:15:16.000Z</time>
      </trkpt>
      <trkpt lat="47.25489" lon="-2.30236">
        <ele>12</ele>
        <time>2020-02-06T09:15:19.000Z</time>
      </trkpt>
      <trkpt lat="47.25485" lon="-2.30241">
        <ele>12.39999961853</ele>
        <time>2020-02-06T09:15:22.000Z</time>
      </trkpt>
      <trkpt lat="47.25483" lon="-2.30241">
        <ele>12.800000190735</ele>
        <time>2020-02-06T09:15:23.000Z</time>
      </trkpt>
      <trkpt lat="47.25481" lon="-2.30241">
        <ele>13.199999809265</ele>
        <time>2020-02-06T09:15:24.000Z</time>
      </trkpt>
      <trkpt lat="47.25477" lon="-2.30239">
        <ele>13.60000038147</ele>
        <time>2020-02-06T09:15:25.000Z</time>
      </trkpt>
      <trkpt lat="47.25473" lon="-2.30237">
        <ele>14</ele>
        <time>2020-02-06T09:15:26.000Z</time>
      </trkpt>
      <trkpt lat="47.25469" lon="-2.30236">
        <ele>14</ele>
        <time>2020-02-06T09:15:27.000Z</time>
      </trkpt>
      <trkpt lat="47.25442" lon="-2.30236">
        <ele>14.39999961853</ele>
        <time>2020-02-06T09:15:33.000Z</time>
      </trkpt>
      <trkpt lat="47.25437" lon="-2.30235">
        <ele>14.800000190735</ele>
        <time>2020-02-06T09:15:34.000Z</time>
      </trkpt>
      <trkpt lat="47.25434" lon="-2.30234">
        <ele>15.39999961853</ele>
        <time>2020-02-06T09:15:35.000Z</time>
      </trkpt>
      <trkpt lat="47.2543" lon="-2.30232">
        <ele>15.800000190735</ele>
        <time>2020-02-06T09:15:36.000Z</time>
      </trkpt>
      <trkpt lat="47.25425" lon="-2.30231">
        <ele>16.200000762939</ele>
        <time>2020-02-06T09:15:37.000Z</time>
      </trkpt>
      <trkpt lat="47.2542" lon="-2.30229">
        <ele>16.200000762939</ele>
        <time>2020-02-06T09:15:38.000Z</time>
      </trkpt>
      <trkpt lat="47.25408" lon="-2.30224">
        <ele>16.200000762939</ele>
        <time>2020-02-06T09:15:42.000Z</time>
      </trkpt>
      <trkpt lat="47.25394" lon="-2.30218">
        <ele>16.200000762939</ele>
        <time>2020-02-06T09:15:48.000Z</time>
      </trkpt>
      <trkpt lat="47.25375" lon="-2.30212">
        <ele>16.200000762939</ele>
        <time>2020-02-06T09:15:55.000Z</time>
      </trkpt>
      <trkpt lat="47.25349" lon="-2.3021">
        <ele>16.200000762939</ele>
        <time>2020-02-06T09:16:02.000Z</time>
      </trkpt>
      <trkpt lat="47.25333" lon="-2.3021">
        <ele>16.200000762939</ele>
        <time>2020-02-06T09:16:07.000Z</time>
      </trkpt>
      <trkpt lat="47.25321" lon="-2.30207">
        <ele>16.60000038147</ele>
        <time>2020-02-06T09:16:11.000Z</time>
      </trkpt>
      <trkpt lat="47.25318" lon="-2.30206">
        <ele>17</ele>
        <time>2020-02-06T09:16:12.000Z</time>
      </trkpt>
      <trkpt lat="47.25315" lon="-2.30206">
        <ele>17.39999961853</ele>
        <time>2020-02-06T09:16:13.000Z</time>
      </trkpt>
      <trkpt lat="47.25313" lon="-2.30205">
        <ele>17.799999237061</ele>
        <time>2020-02-06T09:16:14.000Z</time>
      </trkpt>
      <trkpt lat="47.25311" lon="-2.30206">
        <ele>18.200000762939</ele>
        <time>2020-02-06T09:16:15.000Z</time>
      </trkpt>
      <trkpt lat="47.25309" lon="-2.30208">
        <ele>18.200000762939</ele>
        <time>2020-02-06T09:16:16.000Z</time>
      </trkpt>
      <trkpt lat="47.25309" lon="-2.30209">
        <ele>18.200000762939</ele>
        <time>2020-02-06T09:16:17.000Z</time>
      </trkpt>
      <trkpt lat="47.25305" lon="-2.30213">
        <ele>18.200000762939</ele>
        <time>2020-02-06T09:16:21.000Z</time>
      </trkpt>
      <trkpt lat="47.25303" lon="-2.30211">
        <ele>18.200000762939</ele>
        <time>2020-02-06T09:16:22.000Z</time>
      </trkpt>
      <trkpt lat="47.25291" lon="-2.30205">
        <ele>18.200000762939</ele>
        <time>2020-02-06T09:16:27.000Z</time>
      </trkpt>
      <trkpt lat="47.25287" lon="-2.30203">
        <ele>18.200000762939</ele>
        <time>2020-02-06T09:16:28.000Z</time>
      </trkpt>
      <trkpt lat="47.25277" lon="-2.30199">
        <ele>18.60000038147</ele>
        <time>2020-02-06T09:16:31.000Z</time>
      </trkpt>
      <trkpt lat="47.25272" lon="-2.30197">
        <ele>19</ele>
        <time>2020-02-06T09:16:32.000Z</time>
      </trkpt>
      <trkpt lat="47.25267" lon="-2.30196">
        <ele>19.39999961853</ele>
        <time>2020-02-06T09:16:33.000Z</time>
      </trkpt>
      <trkpt lat="47.25263" lon="-2.30194">
        <ele>19.799999237061</ele>
        <time>2020-02-06T09:16:34.000Z</time>
      </trkpt>
      <trkpt lat="47.25258" lon="-2.30192">
        <ele>20.39999961853</ele>
        <time>2020-02-06T09:16:35.000Z</time>
      </trkpt>
      <trkpt lat="47.2524" lon="-2.30184">
        <ele>20.39999961853</ele>
        <time>2020-02-06T09:16:39.000Z</time>
      </trkpt>
      <trkpt lat="47.2523" lon="-2.3018">
        <ele>20.39999961853</ele>
        <time>2020-02-06T09:16:41.000Z</time>
      </trkpt>
      <trkpt lat="47.25222" lon="-2.30175">
        <ele>20.799999237061</ele>
        <time>2020-02-06T09:16:43.000Z</time>
      </trkpt>
      <trkpt lat="47.2522" lon="-2.30171">
        <ele>21.200000762939</ele>
        <time>2020-02-06T09:16:44.000Z</time>
      </trkpt>
      <trkpt lat="47.25218" lon="-2.30168">
        <ele>21.60000038147</ele>
        <time>2020-02-06T09:16:45.000Z</time>
      </trkpt>
      <trkpt lat="47.25215" lon="-2.30164">
        <ele>22</ele>
        <time>2020-02-06T09:16:46.000Z</time>
      </trkpt>
      <trkpt lat="47.25211" lon="-2.3016">
        <ele>22.39999961853</ele>
        <time>2020-02-06T09:16:47.000Z</time>
      </trkpt>
      <trkpt lat="47.25203" lon="-2.30153">
        <ele>22.39999961853</ele>
        <time>2020-02-06T09:16:49.000Z</time>
      </trkpt>
      <trkpt lat="47.25198" lon="-2.30149">
        <ele>22.39999961853</ele>
        <time>2020-02-06T09:16:50.000Z</time>
      </trkpt>
      <trkpt lat="47.25196" lon="-2.30139">
        <ele>22.39999961853</ele>
        <time>2020-02-06T09:16:52.000Z</time>
      </trkpt>
      <trkpt lat="47.25186" lon="-2.30123">
        <ele>22.39999961853</ele>
        <time>2020-02-06T09:16:56.000Z</time>
      </trkpt>
      <trkpt lat="47.25181" lon="-2.30122">
        <ele>22.39999961853</ele>
        <time>2020-02-06T09:16:57.000Z</time>
      </trkpt>
      <trkpt lat="47.25173" lon="-2.30123">
        <ele>22.39999961853</ele>
        <time>2020-02-06T09:16:59.000Z</time>
      </trkpt>
      <trkpt lat="47.2516" lon="-2.30126">
        <ele>22.39999961853</ele>
        <time>2020-02-06T09:17:02.000Z</time>
      </trkpt>
      <trkpt lat="47.25155" lon="-2.30127">
        <ele>22.799999237061</ele>
        <time>2020-02-06T09:17:03.000Z</time>
      </trkpt>
      <trkpt lat="47.25151" lon="-2.30127">
        <ele>23.200000762939</ele>
        <time>2020-02-06T09:17:04.000Z</time>
      </trkpt>
      <trkpt lat="47.25146" lon="-2.30128">
        <ele>23.60000038147</ele>
        <time>2020-02-06T09:17:05.000Z</time>
      </trkpt>
      <trkpt lat="47.25142" lon="-2.30129">
        <ele>24</ele>
        <time>2020-02-06T09:17:06.000Z</time>
      </trkpt>
      <trkpt lat="47.25138" lon="-2.3013">
        <ele>24.39999961853</ele>
        <time>2020-02-06T09:17:07.000Z</time>
      </trkpt>
      <trkpt lat="47.25126" lon="-2.3013">
        <ele>24.39999961853</ele>
        <time>2020-02-06T09:17:10.000Z</time>
      </trkpt>
      <trkpt lat="47.25118" lon="-2.30131">
        <ele>24.39999961853</ele>
        <time>2020-02-06T09:17:13.000Z</time>
      </trkpt>
      <trkpt lat="47.25115" lon="-2.30132">
        <ele>24.39999961853</ele>
        <time>2020-02-06T09:17:14.000Z</time>
      </trkpt>
      <trkpt lat="47.251" lon="-2.30134">
        <ele>24.39999961853</ele>
        <time>2020-02-06T09:17:18.000Z</time>
      </trkpt>
      <trkpt lat="47.25092" lon="-2.30135">
        <ele>24.39999961853</ele>
        <time>2020-02-06T09:17:20.000Z</time>
      </trkpt>
      <trkpt lat="47.25071" lon="-2.30135">
        <ele>24.799999237061</ele>
        <time>2020-02-06T09:17:26.000Z</time>
      </trkpt>
      <trkpt lat="47.25069" lon="-2.30132">
        <ele>25.200000762939</ele>
        <time>2020-02-06T09:17:27.000Z</time>
      </trkpt>
      <trkpt lat="47.25067" lon="-2.30128">
        <ele>25.60000038147</ele>
        <time>2020-02-06T09:17:28.000Z</time>
      </trkpt>
      <trkpt lat="47.25067" lon="-2.30125">
        <ele>26</ele>
        <time>2020-02-06T09:17:29.000Z</time>
      </trkpt>
      <trkpt lat="47.25068" lon="-2.30121">
        <ele>26.39999961853</ele>
        <time>2020-02-06T09:17:30.000Z</time>
      </trkpt>
      <trkpt lat="47.25068" lon="-2.30117">
        <ele>26.39999961853</ele>
        <time>2020-02-06T09:17:31.000Z</time>
      </trkpt>
      <trkpt lat="47.25068" lon="-2.30106">
        <ele>26.39999961853</ele>
        <time>2020-02-06T09:17:34.000Z</time>
      </trkpt>
      <trkpt lat="47.2507" lon="-2.30077">
        <ele>26.39999961853</ele>
        <time>2020-02-06T09:17:40.000Z</time>
      </trkpt>
      <trkpt lat="47.25072" lon="-2.30072">
        <ele>26.39999961853</ele>
        <time>2020-02-06T09:17:41.000Z</time>
      </trkpt>
      <trkpt lat="47.25074" lon="-2.30061">
        <ele>26.39999961853</ele>
        <time>2020-02-06T09:17:44.000Z</time>
      </trkpt>
      <trkpt lat="47.25073" lon="-2.30058">
        <ele>26.39999961853</ele>
        <time>2020-02-06T09:17:46.000Z</time>
      </trkpt>
      <trkpt lat="47.25069" lon="-2.30059">
        <ele>26.39999961853</ele>
        <time>2020-02-06T09:17:48.000Z</time>
      </trkpt>
      <trkpt lat="47.25059" lon="-2.30057">
        <ele>26.39999961853</ele>
        <time>2020-02-06T09:17:52.000Z</time>
      </trkpt>
      <trkpt lat="47.25056" lon="-2.30057">
        <ele>26.39999961853</ele>
        <time>2020-02-06T09:17:53.000Z</time>
      </trkpt>
      <trkpt lat="47.25042" lon="-2.30055">
        <ele>26.39999961853</ele>
        <time>2020-02-06T09:17:57.000Z</time>
      </trkpt>
      <trkpt lat="47.25021" lon="-2.30053">
        <ele>26.39999961853</ele>
        <time>2020-02-06T09:18:03.000Z</time>
      </trkpt>
      <trkpt lat="47.25003" lon="-2.30052">
        <ele>26.39999961853</ele>
        <time>2020-02-06T09:18:09.000Z</time>
      </trkpt>
      <trkpt lat="47.24986" lon="-2.30056">
        <ele>26.799999237061</ele>
        <time>2020-02-06T09:18:14.000Z</time>
      </trkpt>
      <trkpt lat="47.24982" lon="-2.30056">
        <ele>27.200000762939</ele>
        <time>2020-02-06T09:18:15.000Z</time>
      </trkpt>
      <trkpt lat="47.24977" lon="-2.30056">
        <ele>27.60000038147</ele>
        <time>2020-02-06T09:18:16.000Z</time>
      </trkpt>
      <trkpt lat="47.24973" lon="-2.30056">
        <ele>28</ele>
        <time>2020-02-06T09:18:17.000Z</time>
      </trkpt>
      <trkpt lat="47.24969" lon="-2.30056">
        <ele>28.60000038147</ele>
        <time>2020-02-06T09:18:18.000Z</time>
      </trkpt>
      <trkpt lat="47.2496" lon="-2.30057">
        <ele>28.60000038147</ele>
        <time>2020-02-06T09:18:20.000Z</time>
      </trkpt>
      <trkpt lat="47.24934" lon="-2.30056">
        <ele>28.60000038147</ele>
        <time>2020-02-06T09:18:26.000Z</time>
      </trkpt>
      <trkpt lat="47.24908" lon="-2.30057">
        <ele>28.60000038147</ele>
        <time>2020-02-06T09:18:33.000Z</time>
      </trkpt>
      <trkpt lat="47.24905" lon="-2.30054">
        <ele>28.60000038147</ele>
        <time>2020-02-06T09:18:34.000Z</time>
      </trkpt>
      <trkpt lat="47.24903" lon="-2.30043">
        <ele>28.60000038147</ele>
        <time>2020-02-06T09:18:36.000Z</time>
      </trkpt>
      <trkpt lat="47.24905" lon="-2.30032">
        <ele>28.60000038147</ele>
        <time>2020-02-06T09:18:39.000Z</time>
      </trkpt>
      <trkpt lat="47.24903" lon="-2.30023">
        <ele>28.60000038147</ele>
        <time>2020-02-06T09:18:41.000Z</time>
      </trkpt>
      <trkpt lat="47.24901" lon="-2.30011">
        <ele>28.60000038147</ele>
        <time>2020-02-06T09:18:43.000Z</time>
      </trkpt>
      <trkpt lat="47.24898" lon="-2.29997">
        <ele>28.60000038147</ele>
        <time>2020-02-06T09:18:46.000Z</time>
      </trkpt>
      <trkpt lat="47.24893" lon="-2.29972">
        <ele>28.60000038147</ele>
        <time>2020-02-06T09:18:51.000Z</time>
      </trkpt>
      <trkpt lat="47.24891" lon="-2.29966">
        <ele>28.60000038147</ele>
        <time>2020-02-06T09:18:52.000Z</time>
      </trkpt>
      <trkpt lat="47.24885" lon="-2.29945">
        <ele>28.60000038147</ele>
        <time>2020-02-06T09:18:55.000Z</time>
      </trkpt>
      <trkpt lat="47.24884" lon="-2.29939">
        <ele>28.60000038147</ele>
        <time>2020-02-06T09:18:56.000Z</time>
      </trkpt>
      <trkpt lat="47.2488" lon="-2.29916">
        <ele>28.60000038147</ele>
        <time>2020-02-06T09:18:59.000Z</time>
      </trkpt>
      <trkpt lat="47.24879" lon="-2.299">
        <ele>28.60000038147</ele>
        <time>2020-02-06T09:19:01.000Z</time>
      </trkpt>
      <trkpt lat="47.24876" lon="-2.29877">
        <ele>29</ele>
        <time>2020-02-06T09:19:04.000Z</time>
      </trkpt>
      <trkpt lat="47.24874" lon="-2.2987">
        <ele>29.39999961853</ele>
        <time>2020-02-06T09:19:05.000Z</time>
      </trkpt>
      <trkpt lat="47.24872" lon="-2.29863">
        <ele>30</ele>
        <time>2020-02-06T09:19:06.000Z</time>
      </trkpt>
      <trkpt lat="47.2487" lon="-2.29856">
        <ele>30.39999961853</ele>
        <time>2020-02-06T09:19:07.000Z</time>
      </trkpt>
      <trkpt lat="47.24869" lon="-2.29848">
        <ele>30.799999237061</ele>
        <time>2020-02-06T09:19:08.000Z</time>
      </trkpt>
      <trkpt lat="47.24868" lon="-2.29841">
        <ele>30.799999237061</ele>
        <time>2020-02-06T09:19:09.000Z</time>
      </trkpt>
      <trkpt lat="47.24863" lon="-2.29831">
        <ele>30.799999237061</ele>
        <time>2020-02-06T09:19:11.000Z</time>
      </trkpt>
      <trkpt lat="47.24851" lon="-2.29836">
        <ele>30.799999237061</ele>
        <time>2020-02-06T09:19:14.000Z</time>
      </trkpt>
      <trkpt lat="47.24843" lon="-2.29842">
        <ele>30.799999237061</ele>
        <time>2020-02-06T09:19:16.000Z</time>
      </trkpt>
      <trkpt lat="47.2483" lon="-2.29847">
        <ele>30.799999237061</ele>
        <time>2020-02-06T09:19:19.000Z</time>
      </trkpt>
      <trkpt lat="47.24799" lon="-2.29856">
        <ele>30.799999237061</ele>
        <time>2020-02-06T09:19:24.000Z</time>
      </trkpt>
      <trkpt lat="47.24774" lon="-2.29875">
        <ele>30.799999237061</ele>
        <time>2020-02-06T09:19:29.000Z</time>
      </trkpt>
      <trkpt lat="47.2477" lon="-2.29879">
        <ele>30.799999237061</ele>
        <time>2020-02-06T09:19:30.000Z</time>
      </trkpt>
      <trkpt lat="47.2475" lon="-2.29894">
        <ele>30.799999237061</ele>
        <time>2020-02-06T09:19:34.000Z</time>
      </trkpt>
      <trkpt lat="47.24747" lon="-2.29901">
        <ele>30.39999961853</ele>
        <time>2020-02-06T09:19:35.000Z</time>
      </trkpt>
      <trkpt lat="47.24745" lon="-2.2991">
        <ele>30</ele>
        <time>2020-02-06T09:19:36.000Z</time>
      </trkpt>
      <trkpt lat="47.24744" lon="-2.29918">
        <ele>29.60000038147</ele>
        <time>2020-02-06T09:19:37.000Z</time>
      </trkpt>
      <trkpt lat="47.24743" lon="-2.29925">
        <ele>29.200000762939</ele>
        <time>2020-02-06T09:19:38.000Z</time>
      </trkpt>
      <trkpt lat="47.24742" lon="-2.29931">
        <ele>28.799999237061</ele>
        <time>2020-02-06T09:19:39.000Z</time>
      </trkpt>
      <trkpt lat="47.24741" lon="-2.29943">
        <ele>28.799999237061</ele>
        <time>2020-02-06T09:19:41.000Z</time>
      </trkpt>
      <trkpt lat="47.24743" lon="-2.29961">
        <ele>28.799999237061</ele>
        <time>2020-02-06T09:19:46.000Z</time>
      </trkpt>
      <trkpt lat="47.24743" lon="-2.29962">
        <ele>28.799999237061</ele>
        <time>2020-02-06T09:19:47.000Z</time>
      </trkpt>
      <trkpt lat="47.24743" lon="-2.29963">
        <ele>28.799999237061</ele>
        <time>2020-02-06T09:19:58.000Z</time>
      </trkpt>
      <trkpt lat="47.24743" lon="-2.29968">
        <ele>28.799999237061</ele>
        <time>2020-02-06T09:20:00.000Z</time>
      </trkpt>
      <trkpt lat="47.24743" lon="-2.29976">
        <ele>28.799999237061</ele>
        <time>2020-02-06T09:20:02.000Z</time>
      </trkpt>
      <trkpt lat="47.24742" lon="-2.29985">
        <ele>28.799999237061</ele>
        <time>2020-02-06T09:20:04.000Z</time>
      </trkpt>
      <trkpt lat="47.24736" lon="-2.30002">
        <ele>28.799999237061</ele>
        <time>2020-02-06T09:20:07.000Z</time>
      </trkpt>
      <trkpt lat="47.24733" lon="-2.30007">
        <ele>28.799999237061</ele>
        <time>2020-02-06T09:20:08.000Z</time>
      </trkpt>
      <trkpt lat="47.24706" lon="-2.30038">
        <ele>28.799999237061</ele>
        <time>2020-02-06T09:20:14.000Z</time>
      </trkpt>
      <trkpt lat="47.24669" lon="-2.30067">
        <ele>28.799999237061</ele>
        <time>2020-02-06T09:20:21.000Z</time>
      </trkpt>
      <trkpt lat="47.24664" lon="-2.30072">
        <ele>28.39999961853</ele>
        <time>2020-02-06T09:20:22.000Z</time>
      </trkpt>
      <trkpt lat="47.24659" lon="-2.30076">
        <ele>28</ele>
        <time>2020-02-06T09:20:23.000Z</time>
      </trkpt>
      <trkpt lat="47.24655" lon="-2.30079">
        <ele>27.60000038147</ele>
        <time>2020-02-06T09:20:24.000Z</time>
      </trkpt>
      <trkpt lat="47.24652" lon="-2.30081">
        <ele>27.200000762939</ele>
        <time>2020-02-06T09:20:25.000Z</time>
      </trkpt>
      <trkpt lat="47.24649" lon="-2.30083">
        <ele>26.799999237061</ele>
        <time>2020-02-06T09:20:26.000Z</time>
      </trkpt>
      <trkpt lat="47.24648" lon="-2.30084">
        <ele>26.799999237061</ele>
        <time>2020-02-06T09:20:27.000Z</time>
      </trkpt>
      <trkpt lat="47.24646" lon="-2.30086">
        <ele>26.799999237061</ele>
        <time>2020-02-06T09:20:28.000Z</time>
      </trkpt>
      <trkpt lat="47.24644" lon="-2.30091">
        <ele>26.39999961853</ele>
        <time>2020-02-06T09:20:30.000Z</time>
      </trkpt>
      <trkpt lat="47.24642" lon="-2.30094">
        <ele>25.799999237061</ele>
        <time>2020-02-06T09:20:31.000Z</time>
      </trkpt>
      <trkpt lat="47.2464" lon="-2.30098">
        <ele>25.39999961853</ele>
        <time>2020-02-06T09:20:32.000Z</time>
      </trkpt>
      <trkpt lat="47.24636" lon="-2.30101">
        <ele>25</ele>
        <time>2020-02-06T09:20:33.000Z</time>
      </trkpt>
      <trkpt lat="47.24633" lon="-2.30104">
        <ele>24.60000038147</ele>
        <time>2020-02-06T09:20:34.000Z</time>
      </trkpt>
      <trkpt lat="47.24619" lon="-2.30118">
        <ele>24.60000038147</ele>
        <time>2020-02-06T09:20:38.000Z</time>
      </trkpt>
      <trkpt lat="47.24593" lon="-2.30148">
        <ele>24.60000038147</ele>
        <time>2020-02-06T09:20:46.000Z</time>
      </trkpt>
      <trkpt lat="47.24576" lon="-2.30174">
        <ele>24.60000038147</ele>
        <time>2020-02-06T09:20:52.000Z</time>
      </trkpt>
      <trkpt lat="47.24566" lon="-2.30186">
        <ele>24.60000038147</ele>
        <time>2020-02-06T09:20:57.000Z</time>
      </trkpt>
      <trkpt lat="47.24554" lon="-2.30202">
        <ele>24.60000038147</ele>
        <time>2020-02-06T09:21:04.000Z</time>
      </trkpt>
      <trkpt lat="47.24542" lon="-2.30217">
        <ele>24.60000038147</ele>
        <time>2020-02-06T09:21:11.000Z</time>
      </trkpt>
      <trkpt lat="47.2453" lon="-2.3023">
        <ele>24.60000038147</ele>
        <time>2020-02-06T09:21:16.000Z</time>
      </trkpt>
      <trkpt lat="47.24513" lon="-2.30246">
        <ele>24.60000038147</ele>
        <time>2020-02-06T09:21:21.000Z</time>
      </trkpt>
      <trkpt lat="47.24495" lon="-2.30262">
        <ele>24.200000762939</ele>
        <time>2020-02-06T09:21:25.000Z</time>
      </trkpt>
      <trkpt lat="47.24491" lon="-2.30267">
        <ele>23.799999237061</ele>
        <time>2020-02-06T09:21:26.000Z</time>
      </trkpt>
      <trkpt lat="47.24487" lon="-2.30273">
        <ele>23</ele>
        <time>2020-02-06T09:21:27.000Z</time>
      </trkpt>
      <trkpt lat="47.24483" lon="-2.30279">
        <ele>22.60000038147</ele>
        <time>2020-02-06T09:21:28.000Z</time>
      </trkpt>
      <trkpt lat="47.2448" lon="-2.30287">
        <ele>22.60000038147</ele>
        <time>2020-02-06T09:21:29.000Z</time>
      </trkpt>
      <trkpt lat="47.24477" lon="-2.30295">
        <ele>22.60000038147</ele>
        <time>2020-02-06T09:21:30.000Z</time>
      </trkpt>
      <trkpt lat="47.24472" lon="-2.30323">
        <ele>22.200000762939</ele>
        <time>2020-02-06T09:21:33.000Z</time>
      </trkpt>
      <trkpt lat="47.24472" lon="-2.30331">
        <ele>21.799999237061</ele>
        <time>2020-02-06T09:21:34.000Z</time>
      </trkpt>
      <trkpt lat="47.24471" lon="-2.30338">
        <ele>21.39999961853</ele>
        <time>2020-02-06T09:21:35.000Z</time>
      </trkpt>
      <trkpt lat="47.24471" lon="-2.30346">
        <ele>21</ele>
        <time>2020-02-06T09:21:36.000Z</time>
      </trkpt>
      <trkpt lat="47.24471" lon="-2.30355">
        <ele>20.60000038147</ele>
        <time>2020-02-06T09:21:37.000Z</time>
      </trkpt>
      <trkpt lat="47.24472" lon="-2.30391">
        <ele>20.60000038147</ele>
        <time>2020-02-06T09:21:41.000Z</time>
      </trkpt>
      <trkpt lat="47.2447" lon="-2.30419">
        <ele>20.200000762939</ele>
        <time>2020-02-06T09:21:44.000Z</time>
      </trkpt>
      <trkpt lat="47.24469" lon="-2.30429">
        <ele>19.799999237061</ele>
        <time>2020-02-06T09:21:45.000Z</time>
      </trkpt>
      <trkpt lat="47.24468" lon="-2.30437">
        <ele>19.200000762939</ele>
        <time>2020-02-06T09:21:46.000Z</time>
      </trkpt>
      <trkpt lat="47.24468" lon="-2.30446">
        <ele>18.799999237061</ele>
        <time>2020-02-06T09:21:47.000Z</time>
      </trkpt>
      <trkpt lat="47.24469" lon="-2.30455">
        <ele>18.39999961853</ele>
        <time>2020-02-06T09:21:48.000Z</time>
      </trkpt>
      <trkpt lat="47.24477" lon="-2.30479">
        <ele>18</ele>
        <time>2020-02-06T09:21:51.000Z</time>
      </trkpt>
      <trkpt lat="47.2448" lon="-2.30486">
        <ele>17.200000762939</ele>
        <time>2020-02-06T09:21:52.000Z</time>
      </trkpt>
      <trkpt lat="47.24483" lon="-2.30494">
        <ele>16.799999237061</ele>
        <time>2020-02-06T09:21:53.000Z</time>
      </trkpt>
      <trkpt lat="47.24485" lon="-2.30502">
        <ele>16.39999961853</ele>
        <time>2020-02-06T09:21:54.000Z</time>
      </trkpt>
      <trkpt lat="47.24488" lon="-2.30518">
        <ele>16.39999961853</ele>
        <time>2020-02-06T09:21:56.000Z</time>
      </trkpt>
      <trkpt lat="47.24487" lon="-2.30537">
        <ele>16.39999961853</ele>
        <time>2020-02-06T09:22:00.000Z</time>
      </trkpt>
      <trkpt lat="47.24473" lon="-2.30551">
        <ele>16.39999961853</ele>
        <time>2020-02-06T09:22:04.000Z</time>
      </trkpt>
      <trkpt lat="47.24468" lon="-2.30554">
        <ele>16.39999961853</ele>
        <time>2020-02-06T09:22:05.000Z</time>
      </trkpt>
      <trkpt lat="47.24448" lon="-2.30571">
        <ele>16</ele>
        <time>2020-02-06T09:22:10.000Z</time>
      </trkpt>
      <trkpt lat="47.24441" lon="-2.30574">
        <ele>15.39999961853</ele>
        <time>2020-02-06T09:22:11.000Z</time>
      </trkpt>
      <trkpt lat="47.24436" lon="-2.30577">
        <ele>15</ele>
        <time>2020-02-06T09:22:12.000Z</time>
      </trkpt>
      <trkpt lat="47.24429" lon="-2.30579">
        <ele>14.60000038147</ele>
        <time>2020-02-06T09:22:13.000Z</time>
      </trkpt>
      <trkpt lat="47.24424" lon="-2.30582">
        <ele>14.199999809265</ele>
        <time>2020-02-06T09:22:14.000Z</time>
      </trkpt>
      <trkpt lat="47.24419" lon="-2.30583">
        <ele>14.199999809265</ele>
        <time>2020-02-06T09:22:15.000Z</time>
      </trkpt>
      <trkpt lat="47.24413" lon="-2.30584">
        <ele>14.199999809265</ele>
        <time>2020-02-06T09:22:17.000Z</time>
      </trkpt>
      <trkpt lat="47.24409" lon="-2.30583">
        <ele>13.800000190735</ele>
        <time>2020-02-06T09:22:19.000Z</time>
      </trkpt>
      <trkpt lat="47.24407" lon="-2.30583">
        <ele>13.199999809265</ele>
        <time>2020-02-06T09:22:20.000Z</time>
      </trkpt>
      <trkpt lat="47.24404" lon="-2.30581">
        <ele>12.800000190735</ele>
        <time>2020-02-06T09:22:21.000Z</time>
      </trkpt>
      <trkpt lat="47.24402" lon="-2.30578">
        <ele>12.39999961853</ele>
        <time>2020-02-06T09:22:22.000Z</time>
      </trkpt>
      <trkpt lat="47.24399" lon="-2.30575">
        <ele>11.800000190735</ele>
        <time>2020-02-06T09:22:23.000Z</time>
      </trkpt>
      <trkpt lat="47.24391" lon="-2.30569">
        <ele>11.800000190735</ele>
        <time>2020-02-06T09:22:26.000Z</time>
      </trkpt>
      <trkpt lat="47.24389" lon="-2.30557">
        <ele>11.800000190735</ele>
        <time>2020-02-06T09:22:30.000Z</time>
      </trkpt>
      <trkpt lat="47.2439" lon="-2.30547">
        <ele>11.800000190735</ele>
        <time>2020-02-06T09:22:33.000Z</time>
      </trkpt>
      <trkpt lat="47.24388" lon="-2.3054">
        <ele>11.800000190735</ele>
        <time>2020-02-06T09:22:35.000Z</time>
      </trkpt>
      <trkpt lat="47.24382" lon="-2.30524">
        <ele>11.800000190735</ele>
        <time>2020-02-06T09:22:39.000Z</time>
      </trkpt>
      <trkpt lat="47.24381" lon="-2.30516">
        <ele>11.800000190735</ele>
        <time>2020-02-06T09:22:41.000Z</time>
      </trkpt>
      <trkpt lat="47.24381" lon="-2.30512">
        <ele>12.199999809265</ele>
        <time>2020-02-06T09:22:42.000Z</time>
      </trkpt>
      <trkpt lat="47.24382" lon="-2.30508">
        <ele>12.60000038147</ele>
        <time>2020-02-06T09:22:43.000Z</time>
      </trkpt>
      <trkpt lat="47.24382" lon="-2.30505">
        <ele>13.199999809265</ele>
        <time>2020-02-06T09:22:44.000Z</time>
      </trkpt>
      <trkpt lat="47.24382" lon="-2.30502">
        <ele>13.60000038147</ele>
        <time>2020-02-06T09:22:45.000Z</time>
      </trkpt>
      <trkpt lat="47.24383" lon="-2.30499">
        <ele>14</ele>
        <time>2020-02-06T09:22:46.000Z</time>
      </trkpt>
      <trkpt lat="47.24384" lon="-2.30492">
        <ele>14</ele>
        <time>2020-02-06T09:22:49.000Z</time>
      </trkpt>
      <trkpt lat="47.24386" lon="-2.30475">
        <ele>14.39999961853</ele>
        <time>2020-02-06T09:22:54.000Z</time>
      </trkpt>
      <trkpt lat="47.24386" lon="-2.3047">
        <ele>14.800000190735</ele>
        <time>2020-02-06T09:22:55.000Z</time>
      </trkpt>
      <trkpt lat="47.24386" lon="-2.30466">
        <ele>15.199999809265</ele>
        <time>2020-02-06T09:22:56.000Z</time>
      </trkpt>
      <trkpt lat="47.24386" lon="-2.30463">
        <ele>15.60000038147</ele>
        <time>2020-02-06T09:22:57.000Z</time>
      </trkpt>
      <trkpt lat="47.24386" lon="-2.3046">
        <ele>16.200000762939</ele>
        <time>2020-02-06T09:22:58.000Z</time>
      </trkpt>
      <trkpt lat="47.24386" lon="-2.30458">
        <ele>16.200000762939</ele>
        <time>2020-02-06T09:22:59.000Z</time>
      </trkpt>
      <trkpt lat="47.24386" lon="-2.30457">
        <ele>16.200000762939</ele>
        <time>2020-02-06T09:23:00.000Z</time>
      </trkpt>
      <trkpt lat="47.24386" lon="-2.30454">
        <ele>16.200000762939</ele>
        <time>2020-02-06T09:23:02.000Z</time>
      </trkpt>
      <trkpt lat="47.24384" lon="-2.30455">
        <ele>16.200000762939</ele>
        <time>2020-02-06T09:23:04.000Z</time>
      </trkpt>
      <trkpt lat="47.24381" lon="-2.30455">
        <ele>16.200000762939</ele>
        <time>2020-02-06T09:23:05.000Z</time>
      </trkpt>
      <trkpt lat="47.24372" lon="-2.30455">
        <ele>16.200000762939</ele>
        <time>2020-02-06T09:23:08.000Z</time>
      </trkpt>
      <trkpt lat="47.24369" lon="-2.30455">
        <ele>16.200000762939</ele>
        <time>2020-02-06T09:23:09.000Z</time>
      </trkpt>
      <trkpt lat="47.24366" lon="-2.30453">
        <ele>16.200000762939</ele>
        <time>2020-02-06T09:23:10.000Z</time>
      </trkpt>
      <trkpt lat="47.24363" lon="-2.30452">
        <ele>16.60000038147</ele>
        <time>2020-02-06T09:23:11.000Z</time>
      </trkpt>
      <trkpt lat="47.2436" lon="-2.3045">
        <ele>17</ele>
        <time>2020-02-06T09:23:12.000Z</time>
      </trkpt>
      <trkpt lat="47.24357" lon="-2.30448">
        <ele>17.39999961853</ele>
        <time>2020-02-06T09:23:13.000Z</time>
      </trkpt>
      <trkpt lat="47.24354" lon="-2.30446">
        <ele>17.799999237061</ele>
        <time>2020-02-06T09:23:14.000Z</time>
      </trkpt>
      <trkpt lat="47.24351" lon="-2.30444">
        <ele>18.200000762939</ele>
        <time>2020-02-06T09:23:15.000Z</time>
      </trkpt>
      <trkpt lat="47.24342" lon="-2.30439">
        <ele>18.200000762939</ele>
        <time>2020-02-06T09:23:18.000Z</time>
      </trkpt>
      <trkpt lat="47.24318" lon="-2.30427">
        <ele>18.200000762939</ele>
        <time>2020-02-06T09:23:24.000Z</time>
      </trkpt>
      <trkpt lat="47.24301" lon="-2.30418">
        <ele>18.200000762939</ele>
        <time>2020-02-06T09:23:30.000Z</time>
      </trkpt>
      <trkpt lat="47.24296" lon="-2.30414">
        <ele>18.60000038147</ele>
        <time>2020-02-06T09:23:32.000Z</time>
      </trkpt>
      <trkpt lat="47.24292" lon="-2.30412">
        <ele>19</ele>
        <time>2020-02-06T09:23:33.000Z</time>
      </trkpt>
      <trkpt lat="47.24289" lon="-2.30408">
        <ele>19.39999961853</ele>
        <time>2020-02-06T09:23:34.000Z</time>
      </trkpt>
      <trkpt lat="47.24285" lon="-2.30404">
        <ele>19.799999237061</ele>
        <time>2020-02-06T09:23:35.000Z</time>
      </trkpt>
      <trkpt lat="47.24282" lon="-2.304">
        <ele>20.200000762939</ele>
        <time>2020-02-06T09:23:36.000Z</time>
      </trkpt>
      <trkpt lat="47.24266" lon="-2.30378">
        <ele>20.200000762939</ele>
        <time>2020-02-06T09:23:41.000Z</time>
      </trkpt>
      <trkpt lat="47.2425" lon="-2.30348">
        <ele>20.200000762939</ele>
        <time>2020-02-06T09:23:48.000Z</time>
      </trkpt>
      <trkpt lat="47.24235" lon="-2.30329">
        <ele>20.200000762939</ele>
        <time>2020-02-06T09:23:53.000Z</time>
      </trkpt>
      <trkpt lat="47.24223" lon="-2.30331">
        <ele>20.200000762939</ele>
        <time>2020-02-06T09:23:57.000Z</time>
      </trkpt>
      <trkpt lat="47.2422" lon="-2.30333">
        <ele>19.799999237061</ele>
        <time>2020-02-06T09:23:58.000Z</time>
      </trkpt>
      <trkpt lat="47.24216" lon="-2.30334">
        <ele>19.39999961853</ele>
        <time>2020-02-06T09:23:59.000Z</time>
      </trkpt>
      <trkpt lat="47.24213" lon="-2.30332">
        <ele>18.799999237061</ele>
        <time>2020-02-06T09:24:00.000Z</time>
      </trkpt>
      <trkpt lat="47.2421" lon="-2.30328">
        <ele>18.39999961853</ele>
        <time>2020-02-06T09:24:01.000Z</time>
      </trkpt>
      <trkpt lat="47.24208" lon="-2.30324">
        <ele>18</ele>
        <time>2020-02-06T09:24:02.000Z</time>
      </trkpt>
      <trkpt lat="47.24207" lon="-2.30319">
        <ele>17.60000038147</ele>
        <time>2020-02-06T09:24:03.000Z</time>
      </trkpt>
      <trkpt lat="47.24205" lon="-2.30312">
        <ele>17.200000762939</ele>
        <time>2020-02-06T09:24:04.000Z</time>
      </trkpt>
      <trkpt lat="47.24203" lon="-2.30304">
        <ele>16.799999237061</ele>
        <time>2020-02-06T09:24:05.000Z</time>
      </trkpt>
      <trkpt lat="47.24202" lon="-2.30298">
        <ele>16.39999961853</ele>
        <time>2020-02-06T09:24:06.000Z</time>
      </trkpt>
      <trkpt lat="47.24202" lon="-2.30291">
        <ele>16</ele>
        <time>2020-02-06T09:24:07.000Z</time>
      </trkpt>
      <trkpt lat="47.24201" lon="-2.30278">
        <ele>16</ele>
        <time>2020-02-06T09:24:09.000Z</time>
      </trkpt>
      <trkpt lat="47.24199" lon="-2.30265">
        <ele>15.60000038147</ele>
        <time>2020-02-06T09:24:11.000Z</time>
      </trkpt>
      <trkpt lat="47.24199" lon="-2.30259">
        <ele>15</ele>
        <time>2020-02-06T09:24:12.000Z</time>
      </trkpt>
      <trkpt lat="47.24198" lon="-2.30253">
        <ele>14.60000038147</ele>
        <time>2020-02-06T09:24:13.000Z</time>
      </trkpt>
      <trkpt lat="47.24197" lon="-2.30249">
        <ele>14.199999809265</ele>
        <time>2020-02-06T09:24:14.000Z</time>
      </trkpt>
      <trkpt lat="47.24196" lon="-2.30245">
        <ele>13.800000190735</ele>
        <time>2020-02-06T09:24:15.000Z</time>
      </trkpt>
      <trkpt lat="47.24194" lon="-2.30239">
        <ele>13.800000190735</ele>
        <time>2020-02-06T09:24:17.000Z</time>
      </trkpt>
      <trkpt lat="47.24192" lon="-2.3024">
        <ele>13.800000190735</ele>
        <time>2020-02-06T09:24:18.000Z</time>
      </trkpt>
      <trkpt lat="47.24182" lon="-2.30249">
        <ele>13.800000190735</ele>
        <time>2020-02-06T09:24:22.000Z</time>
      </trkpt>
      <trkpt lat="47.2417" lon="-2.30253">
        <ele>13.800000190735</ele>
        <time>2020-02-06T09:24:26.000Z</time>
      </trkpt>
      <trkpt lat="47.24162" lon="-2.30254">
        <ele>14.199999809265</ele>
        <time>2020-02-06T09:24:31.000Z</time>
      </trkpt>
      <trkpt lat="47.24159" lon="-2.30255">
        <ele>14.60000038147</ele>
        <time>2020-02-06T09:24:32.000Z</time>
      </trkpt>
      <trkpt lat="47.24156" lon="-2.30255">
        <ele>15</ele>
        <time>2020-02-06T09:24:33.000Z</time>
      </trkpt>
      <trkpt lat="47.24154" lon="-2.30256">
        <ele>15.60000038147</ele>
        <time>2020-02-06T09:24:34.000Z</time>
      </trkpt>
      <trkpt lat="47.24152" lon="-2.30258">
        <ele>16</ele>
        <time>2020-02-06T09:24:35.000Z</time>
      </trkpt>
      <trkpt lat="47.24145" lon="-2.30261">
        <ele>16.39999961853</ele>
        <time>2020-02-06T09:24:38.000Z</time>
      </trkpt>
      <trkpt lat="47.24142" lon="-2.30263">
        <ele>16.799999237061</ele>
        <time>2020-02-06T09:24:39.000Z</time>
      </trkpt>
      <trkpt lat="47.24139" lon="-2.30265">
        <ele>17.200000762939</ele>
        <time>2020-02-06T09:24:40.000Z</time>
      </trkpt>
      <trkpt lat="47.24136" lon="-2.30266">
        <ele>17.799999237061</ele>
        <time>2020-02-06T09:24:41.000Z</time>
      </trkpt>
      <trkpt lat="47.24132" lon="-2.30267">
        <ele>18.200000762939</ele>
        <time>2020-02-06T09:24:42.000Z</time>
      </trkpt>
      <trkpt lat="47.2412" lon="-2.30269">
        <ele>19</ele>
        <time>2020-02-06T09:24:45.000Z</time>
      </trkpt>
      <trkpt lat="47.24118" lon="-2.30271">
        <ele>19.39999961853</ele>
        <time>2020-02-06T09:24:46.000Z</time>
      </trkpt>
      <trkpt lat="47.24117" lon="-2.30272">
        <ele>19.799999237061</ele>
        <time>2020-02-06T09:24:47.000Z</time>
      </trkpt>
      <trkpt lat="47.24116" lon="-2.30273">
        <ele>20.200000762939</ele>
        <time>2020-02-06T09:24:48.000Z</time>
      </trkpt>
      <trkpt lat="47.24113" lon="-2.30275">
        <ele>20.200000762939</ele>
        <time>2020-02-06T09:24:50.000Z</time>
      </trkpt>
      <trkpt lat="47.24103" lon="-2.3028">
        <ele>20.200000762939</ele>
        <time>2020-02-06T09:24:56.000Z</time>
      </trkpt>
      <trkpt lat="47.24096" lon="-2.30282">
        <ele>20.200000762939</ele>
        <time>2020-02-06T09:25:00.000Z</time>
      </trkpt>
      <trkpt lat="47.24089" lon="-2.30287">
        <ele>20.200000762939</ele>
        <time>2020-02-06T09:25:03.000Z</time>
      </trkpt>
      <trkpt lat="47.24087" lon="-2.30289">
        <ele>20.200000762939</ele>
        <time>2020-02-06T09:25:04.000Z</time>
      </trkpt>
      <trkpt lat="47.24079" lon="-2.30297">
        <ele>20.200000762939</ele>
        <time>2020-02-06T09:25:08.000Z</time>
      </trkpt>
      <trkpt lat="47.24064" lon="-2.30303">
        <ele>20.200000762939</ele>
        <time>2020-02-06T09:25:12.000Z</time>
      </trkpt>
      <trkpt lat="47.24045" lon="-2.30303">
        <ele>20.200000762939</ele>
        <time>2020-02-06T09:25:17.000Z</time>
      </trkpt>
      <trkpt lat="47.24034" lon="-2.30288">
        <ele>20.200000762939</ele>
        <time>2020-02-06T09:25:20.000Z</time>
      </trkpt>
      <trkpt lat="47.24033" lon="-2.30275">
        <ele>20.200000762939</ele>
        <time>2020-02-06T09:25:22.000Z</time>
      </trkpt>
      <trkpt lat="47.24034" lon="-2.30268">
        <ele>20.200000762939</ele>
        <time>2020-02-06T09:25:23.000Z</time>
      </trkpt>
      <trkpt lat="47.24035" lon="-2.30255">
        <ele>20.200000762939</ele>
        <time>2020-02-06T09:25:25.000Z</time>
      </trkpt>
      <trkpt lat="47.24035" lon="-2.30229">
        <ele>20.60000038147</ele>
        <time>2020-02-06T09:25:29.000Z</time>
      </trkpt>
      <trkpt lat="47.24035" lon="-2.30223">
        <ele>21</ele>
        <time>2020-02-06T09:25:30.000Z</time>
      </trkpt>
      <trkpt lat="47.24035" lon="-2.30218">
        <ele>21.39999961853</ele>
        <time>2020-02-06T09:25:31.000Z</time>
      </trkpt>
      <trkpt lat="47.24035" lon="-2.30214">
        <ele>22</ele>
        <time>2020-02-06T09:25:32.000Z</time>
      </trkpt>
      <trkpt lat="47.24034" lon="-2.30212">
        <ele>22.39999961853</ele>
        <time>2020-02-06T09:25:33.000Z</time>
      </trkpt>
      <trkpt lat="47.24034" lon="-2.30208">
        <ele>22.39999961853</ele>
        <time>2020-02-06T09:25:35.000Z</time>
      </trkpt>
      <trkpt lat="47.24034" lon="-2.30206">
        <ele>22.39999961853</ele>
        <time>2020-02-06T09:25:36.000Z</time>
      </trkpt>
      <trkpt lat="47.24035" lon="-2.30197">
        <ele>22.39999961853</ele>
        <time>2020-02-06T09:25:39.000Z</time>
      </trkpt>
      <trkpt lat="47.24045" lon="-2.30184">
        <ele>22.39999961853</ele>
        <time>2020-02-06T09:25:43.000Z</time>
      </trkpt>
      <trkpt lat="47.24057" lon="-2.30184">
        <ele>22.39999961853</ele>
        <time>2020-02-06T09:25:47.000Z</time>
      </trkpt>
      <trkpt lat="47.2406" lon="-2.30183">
        <ele>22.799999237061</ele>
        <time>2020-02-06T09:25:48.000Z</time>
      </trkpt>
      <trkpt lat="47.24063" lon="-2.30181">
        <ele>23.200000762939</ele>
        <time>2020-02-06T09:25:49.000Z</time>
      </trkpt>
      <trkpt lat="47.24066" lon="-2.3018">
        <ele>23.60000038147</ele>
        <time>2020-02-06T09:25:50.000Z</time>
      </trkpt>
      <trkpt lat="47.24068" lon="-2.30179">
        <ele>24</ele>
        <time>2020-02-06T09:25:51.000Z</time>
      </trkpt>
      <trkpt lat="47.2407" lon="-2.30177">
        <ele>24.39999961853</ele>
        <time>2020-02-06T09:25:52.000Z</time>
      </trkpt>
      <trkpt lat="47.24073" lon="-2.30176">
        <ele>24.39999961853</ele>
        <time>2020-02-06T09:25:53.000Z</time>
      </trkpt>
      <trkpt lat="47.24077" lon="-2.30171">
        <ele>24.39999961853</ele>
        <time>2020-02-06T09:25:55.000Z</time>
      </trkpt>
      <trkpt lat="47.24081" lon="-2.30165">
        <ele>24.39999961853</ele>
        <time>2020-02-06T09:25:57.000Z</time>
      </trkpt>
      <trkpt lat="47.2409" lon="-2.30164">
        <ele>24.39999961853</ele>
        <time>2020-02-06T09:26:01.000Z</time>
      </trkpt>
      <trkpt lat="47.24098" lon="-2.30165">
        <ele>24.39999961853</ele>
        <time>2020-02-06T09:26:04.000Z</time>
      </trkpt>
      <trkpt lat="47.24109" lon="-2.30165">
        <ele>24.39999961853</ele>
        <time>2020-02-06T09:26:07.000Z</time>
      </trkpt>
      <trkpt lat="47.24111" lon="-2.30166">
        <ele>24</ele>
        <time>2020-02-06T09:26:08.000Z</time>
      </trkpt>
      <trkpt lat="47.24112" lon="-2.30166">
        <ele>23.39999961853</ele>
        <time>2020-02-06T09:26:09.000Z</time>
      </trkpt>
      <trkpt lat="47.24114" lon="-2.30166">
        <ele>23</ele>
        <time>2020-02-06T09:26:10.000Z</time>
      </trkpt>
      <trkpt lat="47.24116" lon="-2.30166">
        <ele>22.60000038147</ele>
        <time>2020-02-06T09:26:11.000Z</time>
      </trkpt>
      <trkpt lat="47.24118" lon="-2.30165">
        <ele>22.200000762939</ele>
        <time>2020-02-06T09:26:12.000Z</time>
      </trkpt>
      <trkpt lat="47.24129" lon="-2.30162">
        <ele>21.799999237061</ele>
        <time>2020-02-06T09:26:17.000Z</time>
      </trkpt>
      <trkpt lat="47.2413" lon="-2.30161">
        <ele>21.39999961853</ele>
        <time>2020-02-06T09:26:18.000Z</time>
      </trkpt>
      <trkpt lat="47.24131" lon="-2.30158">
        <ele>21</ele>
        <time>2020-02-06T09:26:19.000Z</time>
      </trkpt>
      <trkpt lat="47.24132" lon="-2.30155">
        <ele>20.60000038147</ele>
        <time>2020-02-06T09:26:20.000Z</time>
      </trkpt>
      <trkpt lat="47.24133" lon="-2.30152">
        <ele>20.200000762939</ele>
        <time>2020-02-06T09:26:21.000Z</time>
      </trkpt>
      <trkpt lat="47.24135" lon="-2.30148">
        <ele>20.200000762939</ele>
        <time>2020-02-06T09:26:22.000Z</time>
      </trkpt>
      <trkpt lat="47.24144" lon="-2.30125">
        <ele>20.200000762939</ele>
        <time>2020-02-06T09:26:27.000Z</time>
      </trkpt>
      <trkpt lat="47.24151" lon="-2.301">
        <ele>20.200000762939</ele>
        <time>2020-02-06T09:26:32.000Z</time>
      </trkpt>
      <trkpt lat="47.2415" lon="-2.30095">
        <ele>20.200000762939</ele>
        <time>2020-02-06T09:26:33.000Z</time>
      </trkpt>
      <trkpt lat="47.24148" lon="-2.30089">
        <ele>20.60000038147</ele>
        <time>2020-02-06T09:26:35.000Z</time>
      </trkpt>
      <trkpt lat="47.24147" lon="-2.30086">
        <ele>21</ele>
        <time>2020-02-06T09:26:36.000Z</time>
      </trkpt>
      <trkpt lat="47.24145" lon="-2.30082">
        <ele>21.39999961853</ele>
        <time>2020-02-06T09:26:37.000Z</time>
      </trkpt>
      <trkpt lat="47.24143" lon="-2.30079">
        <ele>21.799999237061</ele>
        <time>2020-02-06T09:26:38.000Z</time>
      </trkpt>
      <trkpt lat="47.24142" lon="-2.30076">
        <ele>22.200000762939</ele>
        <time>2020-02-06T09:26:39.000Z</time>
      </trkpt>
      <trkpt lat="47.24141" lon="-2.30067">
        <ele>22.200000762939</ele>
        <time>2020-02-06T09:26:42.000Z</time>
      </trkpt>
      <trkpt lat="47.2414" lon="-2.30053">
        <ele>23.200000762939</ele>
        <time>2020-02-06T09:26:48.000Z</time>
      </trkpt>
      <trkpt lat="47.24139" lon="-2.3005">
        <ele>23.60000038147</ele>
        <time>2020-02-06T09:26:49.000Z</time>
      </trkpt>
      <trkpt lat="47.24138" lon="-2.30048">
        <ele>24.200000762939</ele>
        <time>2020-02-06T09:26:50.000Z</time>
      </trkpt>
      <trkpt lat="47.24137" lon="-2.30047">
        <ele>24.60000038147</ele>
        <time>2020-02-06T09:26:51.000Z</time>
      </trkpt>
      <trkpt lat="47.24137" lon="-2.30045">
        <ele>24.60000038147</ele>
        <time>2020-02-06T09:26:52.000Z</time>
      </trkpt>
      <trkpt lat="47.24137" lon="-2.30042">
        <ele>24.60000038147</ele>
        <time>2020-02-06T09:26:53.000Z</time>
      </trkpt>
      <trkpt lat="47.24142" lon="-2.30028">
        <ele>24.60000038147</ele>
        <time>2020-02-06T09:26:57.000Z</time>
      </trkpt>
      <trkpt lat="47.24143" lon="-2.30007">
        <ele>24.60000038147</ele>
        <time>2020-02-06T09:27:02.000Z</time>
      </trkpt>
      <trkpt lat="47.24149" lon="-2.2999">
        <ele>24.60000038147</ele>
        <time>2020-02-06T09:27:07.000Z</time>
      </trkpt>
      <trkpt lat="47.24151" lon="-2.29989">
        <ele>24.60000038147</ele>
        <time>2020-02-06T09:27:08.000Z</time>
      </trkpt>
      <trkpt lat="47.24156" lon="-2.29989">
        <ele>24.60000038147</ele>
        <time>2020-02-06T09:27:11.000Z</time>
      </trkpt>
      <trkpt lat="47.24159" lon="-2.2999">
        <ele>24.60000038147</ele>
        <time>2020-02-06T09:27:13.000Z</time>
      </trkpt>
      <trkpt lat="47.24164" lon="-2.29993">
        <ele>24.60000038147</ele>
        <time>2020-02-06T09:27:15.000Z</time>
      </trkpt>
      <trkpt lat="47.24174" lon="-2.30007">
        <ele>24.60000038147</ele>
        <time>2020-02-06T09:27:20.000Z</time>
      </trkpt>
      <trkpt lat="47.24181" lon="-2.30018">
        <ele>24.60000038147</ele>
        <time>2020-02-06T09:27:23.000Z</time>
      </trkpt>
      <trkpt lat="47.24183" lon="-2.30024">
        <ele>24.60000038147</ele>
        <time>2020-02-06T09:27:25.000Z</time>
      </trkpt>
      <trkpt lat="47.24184" lon="-2.30027">
        <ele>24.60000038147</ele>
        <time>2020-02-06T09:27:26.000Z</time>
      </trkpt>
      <trkpt lat="47.24183" lon="-2.30032">
        <ele>24.60000038147</ele>
        <time>2020-02-06T09:27:29.000Z</time>
      </trkpt>
      <trkpt lat="47.24175" lon="-2.30032">
        <ele>24.60000038147</ele>
        <time>2020-02-06T09:27:52.000Z</time>
      </trkpt>
      <trkpt lat="47.24173" lon="-2.3003">
        <ele>24.60000038147</ele>
        <time>2020-02-06T09:27:53.000Z</time>
      </trkpt>
      <trkpt lat="47.24168" lon="-2.30027">
        <ele>24.60000038147</ele>
        <time>2020-02-06T09:27:55.000Z</time>
      </trkpt>
      <trkpt lat="47.24163" lon="-2.30027">
        <ele>24.60000038147</ele>
        <time>2020-02-06T09:27:57.000Z</time>
      </trkpt>
      <trkpt lat="47.2415" lon="-2.30028">
        <ele>24.60000038147</ele>
        <time>2020-02-06T09:28:02.000Z</time>
      </trkpt>
      <trkpt lat="47.2414" lon="-2.30023">
        <ele>24.60000038147</ele>
        <time>2020-02-06T09:28:07.000Z</time>
      </trkpt>
      <trkpt lat="47.24139" lon="-2.30019">
        <ele>24.60000038147</ele>
        <time>2020-02-06T09:28:09.000Z</time>
      </trkpt>
      <trkpt lat="47.24139" lon="-2.30015">
        <ele>24.60000038147</ele>
        <time>2020-02-06T09:28:12.000Z</time>
      </trkpt>
      <trkpt lat="47.24137" lon="-2.29998">
        <ele>24.60000038147</ele>
        <time>2020-02-06T09:28:18.000Z</time>
      </trkpt>
      <trkpt lat="47.24139" lon="-2.29994">
        <ele>24.60000038147</ele>
        <time>2020-02-06T09:28:20.000Z</time>
      </trkpt>
      <trkpt lat="47.24143" lon="-2.29991">
        <ele>24.60000038147</ele>
        <time>2020-02-06T09:28:23.000Z</time>
      </trkpt>
      <trkpt lat="47.24148" lon="-2.29984">
        <ele>24.60000038147</ele>
        <time>2020-02-06T09:28:26.000Z</time>
      </trkpt>
      <trkpt lat="47.2415" lon="-2.29981">
        <ele>25.200000762939</ele>
        <time>2020-02-06T09:28:27.000Z</time>
      </trkpt>
      <trkpt lat="47.24151" lon="-2.29978">
        <ele>25.60000038147</ele>
        <time>2020-02-06T09:28:28.000Z</time>
      </trkpt>
      <trkpt lat="47.24153" lon="-2.29974">
        <ele>26</ele>
        <time>2020-02-06T09:28:29.000Z</time>
      </trkpt>
      <trkpt lat="47.24154" lon="-2.29969">
        <ele>26.39999961853</ele>
        <time>2020-02-06T09:28:30.000Z</time>
      </trkpt>
      <trkpt lat="47.24156" lon="-2.29964">
        <ele>26.799999237061</ele>
        <time>2020-02-06T09:28:31.000Z</time>
      </trkpt>
      <trkpt lat="47.24158" lon="-2.29958">
        <ele>26.799999237061</ele>
        <time>2020-02-06T09:28:32.000Z</time>
      </trkpt>
      <trkpt lat="47.24164" lon="-2.29927">
        <ele>26.799999237061</ele>
        <time>2020-02-06T09:28:37.000Z</time>
      </trkpt>
      <trkpt lat="47.2417" lon="-2.29909">
        <ele>26.799999237061</ele>
        <time>2020-02-06T09:28:41.000Z</time>
      </trkpt>
      <trkpt lat="47.24175" lon="-2.29896">
        <ele>26.799999237061</ele>
        <time>2020-02-06T09:28:45.000Z</time>
      </trkpt>
      <trkpt lat="47.24176" lon="-2.29893">
        <ele>26.799999237061</ele>
        <time>2020-02-06T09:28:46.000Z</time>
      </trkpt>
      <trkpt lat="47.24175" lon="-2.29883">
        <ele>26.799999237061</ele>
        <time>2020-02-06T09:28:50.000Z</time>
      </trkpt>
      <trkpt lat="47.24175" lon="-2.29874">
        <ele>26.799999237061</ele>
        <time>2020-02-06T09:28:53.000Z</time>
      </trkpt>
      <trkpt lat="47.24174" lon="-2.29862">
        <ele>26.799999237061</ele>
        <time>2020-02-06T09:28:56.000Z</time>
      </trkpt>
      <trkpt lat="47.24174" lon="-2.29841">
        <ele>26.799999237061</ele>
        <time>2020-02-06T09:29:00.000Z</time>
      </trkpt>
      <trkpt lat="47.24172" lon="-2.29839">
        <ele>26.799999237061</ele>
        <time>2020-02-06T09:29:01.000Z</time>
      </trkpt>
      <trkpt lat="47.24167" lon="-2.29839">
        <ele>26.799999237061</ele>
        <time>2020-02-06T09:29:03.000Z</time>
      </trkpt>
      <trkpt lat="47.24156" lon="-2.2984">
        <ele>26.799999237061</ele>
        <time>2020-02-06T09:29:07.000Z</time>
      </trkpt>
      <trkpt lat="47.24149" lon="-2.29839">
        <ele>26.799999237061</ele>
        <time>2020-02-06T09:29:11.000Z</time>
      </trkpt>
      <trkpt lat="47.24144" lon="-2.29842">
        <ele>26.799999237061</ele>
        <time>2020-02-06T09:29:17.000Z</time>
      </trkpt>
      <trkpt lat="47.24142" lon="-2.29844">
        <ele>26.799999237061</ele>
        <time>2020-02-06T09:29:20.000Z</time>
      </trkpt>
      <trkpt lat="47.2414" lon="-2.29843">
        <ele>26.799999237061</ele>
        <time>2020-02-06T09:29:32.000Z</time>
      </trkpt>
      <trkpt lat="47.24138" lon="-2.29843">
        <ele>26.799999237061</ele>
        <time>2020-02-06T09:29:33.000Z</time>
      </trkpt>
      <trkpt lat="47.24125" lon="-2.29846">
        <ele>26.799999237061</ele>
        <time>2020-02-06T09:29:37.000Z</time>
      </trkpt>
      <trkpt lat="47.24112" lon="-2.29848">
        <ele>26.799999237061</ele>
        <time>2020-02-06T09:29:41.000Z</time>
      </trkpt>
      <trkpt lat="47.24098" lon="-2.29847">
        <ele>26.799999237061</ele>
        <time>2020-02-06T09:29:45.000Z</time>
      </trkpt>
      <trkpt lat="47.24084" lon="-2.29848">
        <ele>26.799999237061</ele>
        <time>2020-02-06T09:29:49.000Z</time>
      </trkpt>
      <trkpt lat="47.24071" lon="-2.2986">
        <ele>26.799999237061</ele>
        <time>2020-02-06T09:29:54.000Z</time>
      </trkpt>
      <trkpt lat="47.2407" lon="-2.29878">
        <ele>26.799999237061</ele>
        <time>2020-02-06T09:29:58.000Z</time>
      </trkpt>
      <trkpt lat="47.2407" lon="-2.29885">
        <ele>26.799999237061</ele>
        <time>2020-02-06T09:30:00.000Z</time>
      </trkpt>
      <trkpt lat="47.2407" lon="-2.29897">
        <ele>26.799999237061</ele>
        <time>2020-02-06T09:30:02.000Z</time>
      </trkpt>
      <trkpt lat="47.2407" lon="-2.29922">
        <ele>26.799999237061</ele>
        <time>2020-02-06T09:30:06.000Z</time>
      </trkpt>
      <trkpt lat="47.2407" lon="-2.29926">
        <ele>26.799999237061</ele>
        <time>2020-02-06T09:30:07.000Z</time>
      </trkpt>
      <trkpt lat="47.24074" lon="-2.29937">
        <ele>26.799999237061</ele>
        <time>2020-02-06T09:30:10.000Z</time>
      </trkpt>
      <trkpt lat="47.2408" lon="-2.29956">
        <ele>26.799999237061</ele>
        <time>2020-02-06T09:30:15.000Z</time>
      </trkpt>
      <trkpt lat="47.24081" lon="-2.29972">
        <ele>26.799999237061</ele>
        <time>2020-02-06T09:30:21.000Z</time>
      </trkpt>
      <trkpt lat="47.24082" lon="-2.29975">
        <ele>26.799999237061</ele>
        <time>2020-02-06T09:30:23.000Z</time>
      </trkpt>
      <trkpt lat="47.24085" lon="-2.29978">
        <ele>26.799999237061</ele>
        <time>2020-02-06T09:30:26.000Z</time>
      </trkpt>
      <trkpt lat="47.24087" lon="-2.29978">
        <ele>26.799999237061</ele>
        <time>2020-02-06T09:30:27.000Z</time>
      </trkpt>
      <trkpt lat="47.24104" lon="-2.29983">
        <ele>26.799999237061</ele>
        <time>2020-02-06T09:30:32.000Z</time>
      </trkpt>
      <trkpt lat="47.24119" lon="-2.29984">
        <ele>26.799999237061</ele>
        <time>2020-02-06T09:30:36.000Z</time>
      </trkpt>
      <trkpt lat="47.24132" lon="-2.29989">
        <ele>26.799999237061</ele>
        <time>2020-02-06T09:30:41.000Z</time>
      </trkpt>
      <trkpt lat="47.24143" lon="-2.30002">
        <ele>26.799999237061</ele>
        <time>2020-02-06T09:30:46.000Z</time>
      </trkpt>
      <trkpt lat="47.24141" lon="-2.30017">
        <ele>26.799999237061</ele>
        <time>2020-02-06T09:30:50.000Z</time>
      </trkpt>
      <trkpt lat="47.2414" lon="-2.3002">
        <ele>26.799999237061</ele>
        <time>2020-02-06T09:30:51.000Z</time>
      </trkpt>
      <trkpt lat="47.24138" lon="-2.30026">
        <ele>26.799999237061</ele>
        <time>2020-02-06T09:30:53.000Z</time>
      </trkpt>
      <trkpt lat="47.2414" lon="-2.30031">
        <ele>26.799999237061</ele>
        <time>2020-02-06T09:30:55.000Z</time>
      </trkpt>
      <trkpt lat="47.24144" lon="-2.30053">
        <ele>26.799999237061</ele>
        <time>2020-02-06T09:30:59.000Z</time>
      </trkpt>
      <trkpt lat="47.24146" lon="-2.30065">
        <ele>26.39999961853</ele>
        <time>2020-02-06T09:31:01.000Z</time>
      </trkpt>
      <trkpt lat="47.24148" lon="-2.30069">
        <ele>25.799999237061</ele>
        <time>2020-02-06T09:31:02.000Z</time>
      </trkpt>
      <trkpt lat="47.2415" lon="-2.30073">
        <ele>25.39999961853</ele>
        <time>2020-02-06T09:31:03.000Z</time>
      </trkpt>
      <trkpt lat="47.24152" lon="-2.30078">
        <ele>25</ele>
        <time>2020-02-06T09:31:04.000Z</time>
      </trkpt>
      <trkpt lat="47.24154" lon="-2.30085">
        <ele>24.39999961853</ele>
        <time>2020-02-06T09:31:05.000Z</time>
      </trkpt>
      <trkpt lat="47.24153" lon="-2.30098">
        <ele>24.39999961853</ele>
        <time>2020-02-06T09:31:07.000Z</time>
      </trkpt>
      <trkpt lat="47.24153" lon="-2.30116">
        <ele>24</ele>
        <time>2020-02-06T09:31:10.000Z</time>
      </trkpt>
      <trkpt lat="47.24152" lon="-2.30123">
        <ele>23.60000038147</ele>
        <time>2020-02-06T09:31:11.000Z</time>
      </trkpt>
      <trkpt lat="47.24151" lon="-2.30128">
        <ele>23.200000762939</ele>
        <time>2020-02-06T09:31:12.000Z</time>
      </trkpt>
      <trkpt lat="47.2415" lon="-2.30133">
        <ele>22.60000038147</ele>
        <time>2020-02-06T09:31:13.000Z</time>
      </trkpt>
      <trkpt lat="47.24149" lon="-2.30138">
        <ele>22.200000762939</ele>
        <time>2020-02-06T09:31:14.000Z</time>
      </trkpt>
      <trkpt lat="47.2415" lon="-2.30143">
        <ele>21.799999237061</ele>
        <time>2020-02-06T09:31:15.000Z</time>
      </trkpt>
      <trkpt lat="47.24148" lon="-2.30149">
        <ele>21.39999961853</ele>
        <time>2020-02-06T09:31:16.000Z</time>
      </trkpt>
      <trkpt lat="47.24146" lon="-2.30154">
        <ele>21</ele>
        <time>2020-02-06T09:31:17.000Z</time>
      </trkpt>
      <trkpt lat="47.24141" lon="-2.30158">
        <ele>20.60000038147</ele>
        <time>2020-02-06T09:31:18.000Z</time>
      </trkpt>
      <trkpt lat="47.24138" lon="-2.30159">
        <ele>20.200000762939</ele>
        <time>2020-02-06T09:31:19.000Z</time>
      </trkpt>
      <trkpt lat="47.24137" lon="-2.30159">
        <ele>20.200000762939</ele>
        <time>2020-02-06T09:31:20.000Z</time>
      </trkpt>
      <trkpt lat="47.24134" lon="-2.30161">
        <ele>20.200000762939</ele>
        <time>2020-02-06T09:31:21.000Z</time>
      </trkpt>
      <trkpt lat="47.24129" lon="-2.30165">
        <ele>20.200000762939</ele>
        <time>2020-02-06T09:31:23.000Z</time>
      </trkpt>
      <trkpt lat="47.24126" lon="-2.30166">
        <ele>20.60000038147</ele>
        <time>2020-02-06T09:31:24.000Z</time>
      </trkpt>
      <trkpt lat="47.24124" lon="-2.30167">
        <ele>21</ele>
        <time>2020-02-06T09:31:25.000Z</time>
      </trkpt>
      <trkpt lat="47.24122" lon="-2.30168">
        <ele>21.39999961853</ele>
        <time>2020-02-06T09:31:26.000Z</time>
      </trkpt>
      <trkpt lat="47.2412" lon="-2.30168">
        <ele>22</ele>
        <time>2020-02-06T09:31:27.000Z</time>
      </trkpt>
      <trkpt lat="47.24118" lon="-2.30167">
        <ele>22.39999961853</ele>
        <time>2020-02-06T09:31:28.000Z</time>
      </trkpt>
      <trkpt lat="47.24116" lon="-2.30166">
        <ele>22.39999961853</ele>
        <time>2020-02-06T09:31:29.000Z</time>
      </trkpt>
      <trkpt lat="47.24108" lon="-2.3016">
        <ele>22.39999961853</ele>
        <time>2020-02-06T09:31:34.000Z</time>
      </trkpt>
      <trkpt lat="47.24106" lon="-2.30157">
        <ele>22.39999961853</ele>
        <time>2020-02-06T09:31:37.000Z</time>
      </trkpt>
      <trkpt lat="47.24108" lon="-2.30155">
        <ele>22.39999961853</ele>
        <time>2020-02-06T09:31:39.000Z</time>
      </trkpt>
      <trkpt lat="47.2411" lon="-2.30152">
        <ele>22.39999961853</ele>
        <time>2020-02-06T09:31:42.000Z</time>
      </trkpt>
      <trkpt lat="47.24118" lon="-2.30162">
        <ele>22.39999961853</ele>
        <time>2020-02-06T09:31:51.000Z</time>
      </trkpt>
      <trkpt lat="47.24124" lon="-2.30164">
        <ele>22.39999961853</ele>
        <time>2020-02-06T09:31:54.000Z</time>
      </trkpt>
      <trkpt lat="47.24127" lon="-2.30163">
        <ele>22.39999961853</ele>
        <time>2020-02-06T09:31:55.000Z</time>
      </trkpt>
      <trkpt lat="47.24134" lon="-2.30157">
        <ele>21.799999237061</ele>
        <time>2020-02-06T09:31:58.000Z</time>
      </trkpt>
      <trkpt lat="47.24135" lon="-2.30154">
        <ele>21.39999961853</ele>
        <time>2020-02-06T09:31:59.000Z</time>
      </trkpt>
      <trkpt lat="47.24134" lon="-2.30151">
        <ele>21</ele>
        <time>2020-02-06T09:32:00.000Z</time>
      </trkpt>
      <trkpt lat="47.24133" lon="-2.3015">
        <ele>20.60000038147</ele>
        <time>2020-02-06T09:32:01.000Z</time>
      </trkpt>
      <trkpt lat="47.24131" lon="-2.3015">
        <ele>20</ele>
        <time>2020-02-06T09:32:02.000Z</time>
      </trkpt>
      <trkpt lat="47.24126" lon="-2.30155">
        <ele>20.60000038147</ele>
        <time>2020-02-06T09:32:07.000Z</time>
      </trkpt>
      <trkpt lat="47.24126" lon="-2.30156">
        <ele>21</ele>
        <time>2020-02-06T09:32:08.000Z</time>
      </trkpt>
      <trkpt lat="47.24125" lon="-2.30157">
        <ele>21.799999237061</ele>
        <time>2020-02-06T09:32:09.000Z</time>
      </trkpt>
      <trkpt lat="47.24125" lon="-2.30158">
        <ele>22.39999961853</ele>
        <time>2020-02-06T09:32:10.000Z</time>
      </trkpt>
      <trkpt lat="47.2412" lon="-2.30164">
        <ele>22.39999961853</ele>
        <time>2020-02-06T09:32:16.000Z</time>
      </trkpt>
      <trkpt lat="47.24117" lon="-2.30165">
        <ele>22.39999961853</ele>
        <time>2020-02-06T09:32:18.000Z</time>
      </trkpt>
      <trkpt lat="47.24112" lon="-2.30166">
        <ele>22.39999961853</ele>
        <time>2020-02-06T09:32:21.000Z</time>
      </trkpt>
      <trkpt lat="47.24108" lon="-2.30165">
        <ele>22.799999237061</ele>
        <time>2020-02-06T09:32:23.000Z</time>
      </trkpt>
      <trkpt lat="47.24105" lon="-2.30165">
        <ele>23.200000762939</ele>
        <time>2020-02-06T09:32:24.000Z</time>
      </trkpt>
      <trkpt lat="47.24101" lon="-2.30165">
        <ele>23.60000038147</ele>
        <time>2020-02-06T09:32:25.000Z</time>
      </trkpt>
      <trkpt lat="47.24097" lon="-2.30166">
        <ele>24</ele>
        <time>2020-02-06T09:32:26.000Z</time>
      </trkpt>
      <trkpt lat="47.24092" lon="-2.30168">
        <ele>24.39999961853</ele>
        <time>2020-02-06T09:32:27.000Z</time>
      </trkpt>
      <trkpt lat="47.24088" lon="-2.30172">
        <ele>24.39999961853</ele>
        <time>2020-02-06T09:32:28.000Z</time>
      </trkpt>
      <trkpt lat="47.24081" lon="-2.30178">
        <ele>24.39999961853</ele>
        <time>2020-02-06T09:32:30.000Z</time>
      </trkpt>
      <trkpt lat="47.24066" lon="-2.30187">
        <ele>24.39999961853</ele>
        <time>2020-02-06T09:32:34.000Z</time>
      </trkpt>
      <trkpt lat="47.24043" lon="-2.30195">
        <ele>24.39999961853</ele>
        <time>2020-02-06T09:32:40.000Z</time>
      </trkpt>
      <trkpt lat="47.2403" lon="-2.30192">
        <ele>24.39999961853</ele>
        <time>2020-02-06T09:32:44.000Z</time>
      </trkpt>
      <trkpt lat="47.24028" lon="-2.3019">
        <ele>24.39999961853</ele>
        <time>2020-02-06T09:32:45.000Z</time>
      </trkpt>
      <trkpt lat="47.24023" lon="-2.3018">
        <ele>24.39999961853</ele>
        <time>2020-02-06T09:32:48.000Z</time>
      </trkpt>
      <trkpt lat="47.24018" lon="-2.30174">
        <ele>24.39999961853</ele>
        <time>2020-02-06T09:32:52.000Z</time>
      </trkpt>
      <trkpt lat="47.24005" lon="-2.30164">
        <ele>24.39999961853</ele>
        <time>2020-02-06T09:32:57.000Z</time>
      </trkpt>
      <trkpt lat="47.23994" lon="-2.30155">
        <ele>24.39999961853</ele>
        <time>2020-02-06T09:33:01.000Z</time>
      </trkpt>
      <trkpt lat="47.23991" lon="-2.30151">
        <ele>24.39999961853</ele>
        <time>2020-02-06T09:33:02.000Z</time>
      </trkpt>
      <trkpt lat="47.23975" lon="-2.30142">
        <ele>24.39999961853</ele>
        <time>2020-02-06T09:33:06.000Z</time>
      </trkpt>
      <trkpt lat="47.23954" lon="-2.30139">
        <ele>24.39999961853</ele>
        <time>2020-02-06T09:33:10.000Z</time>
      </trkpt>
      <trkpt lat="47.23938" lon="-2.30129">
        <ele>24.39999961853</ele>
        <time>2020-02-06T09:33:14.000Z</time>
      </trkpt>
      <trkpt lat="47.23922" lon="-2.3012">
        <ele>24.39999961853</ele>
        <time>2020-02-06T09:33:19.000Z</time>
      </trkpt>
      <trkpt lat="47.23915" lon="-2.30106">
        <ele>24.39999961853</ele>
        <time>2020-02-06T09:33:23.000Z</time>
      </trkpt>
      <trkpt lat="47.2391" lon="-2.30104">
        <ele>24.39999961853</ele>
        <time>2020-02-06T09:33:24.000Z</time>
      </trkpt>
      <trkpt lat="47.2389" lon="-2.30089">
        <ele>24.39999961853</ele>
        <time>2020-02-06T09:33:28.000Z</time>
      </trkpt>
      <trkpt lat="47.23872" lon="-2.30074">
        <ele>24.39999961853</ele>
        <time>2020-02-06T09:33:34.000Z</time>
      </trkpt>
      <trkpt lat="47.23851" lon="-2.3006">
        <ele>24.39999961853</ele>
        <time>2020-02-06T09:33:40.000Z</time>
      </trkpt>
      <trkpt lat="47.23832" lon="-2.30068">
        <ele>24.39999961853</ele>
        <time>2020-02-06T09:33:45.000Z</time>
      </trkpt>
      <trkpt lat="47.23805" lon="-2.30085">
        <ele>24.39999961853</ele>
        <time>2020-02-06T09:33:51.000Z</time>
      </trkpt>
      <trkpt lat="47.23801" lon="-2.30087">
        <ele>24.39999961853</ele>
        <time>2020-02-06T09:33:52.000Z</time>
      </trkpt>
      <trkpt lat="47.23793" lon="-2.30083">
        <ele>24.39999961853</ele>
        <time>2020-02-06T09:33:54.000Z</time>
      </trkpt>
      <trkpt lat="47.23785" lon="-2.30073">
        <ele>24.39999961853</ele>
        <time>2020-02-06T09:33:56.000Z</time>
      </trkpt>
      <trkpt lat="47.23779" lon="-2.30063">
        <ele>24.39999961853</ele>
        <time>2020-02-06T09:33:58.000Z</time>
      </trkpt>
      <trkpt lat="47.2377" lon="-2.30047">
        <ele>24.39999961853</ele>
        <time>2020-02-06T09:34:01.000Z</time>
      </trkpt>
      <trkpt lat="47.23767" lon="-2.30037">
        <ele>24.39999961853</ele>
        <time>2020-02-06T09:34:03.000Z</time>
      </trkpt>
      <trkpt lat="47.23762" lon="-2.30032">
        <ele>24.39999961853</ele>
        <time>2020-02-06T09:34:05.000Z</time>
      </trkpt>
      <trkpt lat="47.23754" lon="-2.30024">
        <ele>24.39999961853</ele>
        <time>2020-02-06T09:34:07.000Z</time>
      </trkpt>
      <trkpt lat="47.23746" lon="-2.30016">
        <ele>24.39999961853</ele>
        <time>2020-02-06T09:34:09.000Z</time>
      </trkpt>
      <trkpt lat="47.2374" lon="-2.30008">
        <ele>24.39999961853</ele>
        <time>2020-02-06T09:34:11.000Z</time>
      </trkpt>
      <trkpt lat="47.23736" lon="-2.30007">
        <ele>24.39999961853</ele>
        <time>2020-02-06T09:34:12.000Z</time>
      </trkpt>
      <trkpt lat="47.23727" lon="-2.30009">
        <ele>24.39999961853</ele>
        <time>2020-02-06T09:34:14.000Z</time>
      </trkpt>
      <trkpt lat="47.23723" lon="-2.3001">
        <ele>24</ele>
        <time>2020-02-06T09:34:15.000Z</time>
      </trkpt>
      <trkpt lat="47.23719" lon="-2.30012">
        <ele>23.60000038147</ele>
        <time>2020-02-06T09:34:16.000Z</time>
      </trkpt>
      <trkpt lat="47.23715" lon="-2.30015">
        <ele>23.200000762939</ele>
        <time>2020-02-06T09:34:17.000Z</time>
      </trkpt>
      <trkpt lat="47.23711" lon="-2.30017">
        <ele>22.799999237061</ele>
        <time>2020-02-06T09:34:18.000Z</time>
      </trkpt>
      <trkpt lat="47.23708" lon="-2.3002">
        <ele>22.39999961853</ele>
        <time>2020-02-06T09:34:19.000Z</time>
      </trkpt>
      <trkpt lat="47.23705" lon="-2.30025">
        <ele>22.39999961853</ele>
        <time>2020-02-06T09:34:21.000Z</time>
      </trkpt>
      <trkpt lat="47.23706" lon="-2.30028">
        <ele>22.39999961853</ele>
        <time>2020-02-06T09:34:22.000Z</time>
      </trkpt>
      <trkpt lat="47.23707" lon="-2.30033">
        <ele>22</ele>
        <time>2020-02-06T09:34:24.000Z</time>
      </trkpt>
      <trkpt lat="47.23708" lon="-2.30036">
        <ele>21.60000038147</ele>
        <time>2020-02-06T09:34:25.000Z</time>
      </trkpt>
      <trkpt lat="47.23708" lon="-2.3004">
        <ele>21</ele>
        <time>2020-02-06T09:34:26.000Z</time>
      </trkpt>
      <trkpt lat="47.23707" lon="-2.30044">
        <ele>20.60000038147</ele>
        <time>2020-02-06T09:34:27.000Z</time>
      </trkpt>
      <trkpt lat="47.23706" lon="-2.30047">
        <ele>20.200000762939</ele>
        <time>2020-02-06T09:34:28.000Z</time>
      </trkpt>
      <trkpt lat="47.23702" lon="-2.30049">
        <ele>20.200000762939</ele>
        <time>2020-02-06T09:34:30.000Z</time>
      </trkpt>
      <trkpt lat="47.23701" lon="-2.3005">
        <ele>20.200000762939</ele>
        <time>2020-02-06T09:34:31.000Z</time>
      </trkpt>
      <trkpt lat="47.23698" lon="-2.30049">
        <ele>20.200000762939</ele>
        <time>2020-02-06T09:34:33.000Z</time>
      </trkpt>
      <trkpt lat="47.23696" lon="-2.30043">
        <ele>20.200000762939</ele>
        <time>2020-02-06T09:34:35.000Z</time>
      </trkpt>
      <trkpt lat="47.23688" lon="-2.30023">
        <ele>20.200000762939</ele>
        <time>2020-02-06T09:34:40.000Z</time>
      </trkpt>
      <trkpt lat="47.23677" lon="-2.3">
        <ele>20.200000762939</ele>
        <time>2020-02-06T09:34:45.000Z</time>
      </trkpt>
      <trkpt lat="47.23667" lon="-2.29987">
        <ele>20.60000038147</ele>
        <time>2020-02-06T09:34:48.000Z</time>
      </trkpt>
      <trkpt lat="47.23664" lon="-2.29982">
        <ele>21.200000762939</ele>
        <time>2020-02-06T09:34:49.000Z</time>
      </trkpt>
      <trkpt lat="47.23661" lon="-2.29976">
        <ele>21.60000038147</ele>
        <time>2020-02-06T09:34:50.000Z</time>
      </trkpt>
      <trkpt lat="47.23658" lon="-2.29971">
        <ele>22</ele>
        <time>2020-02-06T09:34:51.000Z</time>
      </trkpt>
      <trkpt lat="47.23656" lon="-2.29966">
        <ele>22.60000038147</ele>
        <time>2020-02-06T09:34:52.000Z</time>
      </trkpt>
      <trkpt lat="47.23649" lon="-2.29951">
        <ele>22.60000038147</ele>
        <time>2020-02-06T09:34:55.000Z</time>
      </trkpt>
      <trkpt lat="47.23647" lon="-2.29946">
        <ele>23</ele>
        <time>2020-02-06T09:34:56.000Z</time>
      </trkpt>
      <trkpt lat="47.23644" lon="-2.2994">
        <ele>23.39999961853</ele>
        <time>2020-02-06T09:34:57.000Z</time>
      </trkpt>
      <trkpt lat="47.23642" lon="-2.29934">
        <ele>24</ele>
        <time>2020-02-06T09:34:58.000Z</time>
      </trkpt>
      <trkpt lat="47.2364" lon="-2.29928">
        <ele>24.39999961853</ele>
        <time>2020-02-06T09:34:59.000Z</time>
      </trkpt>
      <trkpt lat="47.23638" lon="-2.29922">
        <ele>24.799999237061</ele>
        <time>2020-02-06T09:35:00.000Z</time>
      </trkpt>
      <trkpt lat="47.23625" lon="-2.29882">
        <ele>24.799999237061</ele>
        <time>2020-02-06T09:35:06.000Z</time>
      </trkpt>
      <trkpt lat="47.23612" lon="-2.29842">
        <ele>25.200000762939</ele>
        <time>2020-02-06T09:35:12.000Z</time>
      </trkpt>
      <trkpt lat="47.2361" lon="-2.29835">
        <ele>25.60000038147</ele>
        <time>2020-02-06T09:35:13.000Z</time>
      </trkpt>
      <trkpt lat="47.23608" lon="-2.29827">
        <ele>26</ele>
        <time>2020-02-06T09:35:14.000Z</time>
      </trkpt>
      <trkpt lat="47.23606" lon="-2.2982">
        <ele>26.60000038147</ele>
        <time>2020-02-06T09:35:15.000Z</time>
      </trkpt>
      <trkpt lat="47.23604" lon="-2.29813">
        <ele>26.200000762939</ele>
        <time>2020-02-06T09:35:16.000Z</time>
      </trkpt>
      <trkpt lat="47.236" lon="-2.29808">
        <ele>25.799999237061</ele>
        <time>2020-02-06T09:35:17.000Z</time>
      </trkpt>
      <trkpt lat="47.23595" lon="-2.29805">
        <ele>25.39999961853</ele>
        <time>2020-02-06T09:35:18.000Z</time>
      </trkpt>
      <trkpt lat="47.23589" lon="-2.29805">
        <ele>25.200000762939</ele>
        <time>2020-02-06T09:35:19.000Z</time>
      </trkpt>
      <trkpt lat="47.23583" lon="-2.29805">
        <ele>24.60000038147</ele>
        <time>2020-02-06T09:35:20.000Z</time>
      </trkpt>
      <trkpt lat="47.23579" lon="-2.29806">
        <ele>24.200000762939</ele>
        <time>2020-02-06T09:35:21.000Z</time>
      </trkpt>
      <trkpt lat="47.23574" lon="-2.29807">
        <ele>23.60000038147</ele>
        <time>2020-02-06T09:35:22.000Z</time>
      </trkpt>
      <trkpt lat="47.23569" lon="-2.29809">
        <ele>23</ele>
        <time>2020-02-06T09:35:23.000Z</time>
      </trkpt>
      <trkpt lat="47.23564" lon="-2.2981">
        <ele>22.60000038147</ele>
        <time>2020-02-06T09:35:24.000Z</time>
      </trkpt>
      <trkpt lat="47.23554" lon="-2.29813">
        <ele>22.60000038147</ele>
        <time>2020-02-06T09:35:26.000Z</time>
      </trkpt>
      <trkpt lat="47.2353" lon="-2.29824">
        <ele>22.60000038147</ele>
        <time>2020-02-06T09:35:31.000Z</time>
      </trkpt>
      <trkpt lat="47.23495" lon="-2.29838">
        <ele>22.60000038147</ele>
        <time>2020-02-06T09:35:38.000Z</time>
      </trkpt>
      <trkpt lat="47.2349" lon="-2.29841">
        <ele>22.200000762939</ele>
        <time>2020-02-06T09:35:39.000Z</time>
      </trkpt>
      <trkpt lat="47.23486" lon="-2.29844">
        <ele>21.60000038147</ele>
        <time>2020-02-06T09:35:40.000Z</time>
      </trkpt>
      <trkpt lat="47.23482" lon="-2.29847">
        <ele>21.200000762939</ele>
        <time>2020-02-06T09:35:41.000Z</time>
      </trkpt>
      <trkpt lat="47.23479" lon="-2.29847">
        <ele>20.799999237061</ele>
        <time>2020-02-06T09:35:42.000Z</time>
      </trkpt>
      <trkpt lat="47.23476" lon="-2.29846">
        <ele>20.39999961853</ele>
        <time>2020-02-06T09:35:43.000Z</time>
      </trkpt>
      <trkpt lat="47.23475" lon="-2.29842">
        <ele>20.39999961853</ele>
        <time>2020-02-06T09:35:45.000Z</time>
      </trkpt>
      <trkpt lat="47.23474" lon="-2.29819">
        <ele>20.39999961853</ele>
        <time>2020-02-06T09:35:49.000Z</time>
      </trkpt>
      <trkpt lat="47.23474" lon="-2.29808">
        <ele>19.799999237061</ele>
        <time>2020-02-06T09:35:51.000Z</time>
      </trkpt>
      <trkpt lat="47.23476" lon="-2.29803">
        <ele>19</ele>
        <time>2020-02-06T09:35:52.000Z</time>
      </trkpt>
      <trkpt lat="47.23478" lon="-2.29799">
        <ele>18.60000038147</ele>
        <time>2020-02-06T09:35:53.000Z</time>
      </trkpt>
      <trkpt lat="47.2348" lon="-2.29796">
        <ele>18.200000762939</ele>
        <time>2020-02-06T09:35:54.000Z</time>
      </trkpt>
      <trkpt lat="47.23489" lon="-2.29764">
        <ele>18.200000762939</ele>
        <time>2020-02-06T09:36:00.000Z</time>
      </trkpt>
      <trkpt lat="47.23497" lon="-2.29737">
        <ele>17.60000038147</ele>
        <time>2020-02-06T09:36:04.000Z</time>
      </trkpt>
      <trkpt lat="47.23501" lon="-2.29729">
        <ele>17.200000762939</ele>
        <time>2020-02-06T09:36:05.000Z</time>
      </trkpt>
      <trkpt lat="47.23506" lon="-2.29721">
        <ele>16.799999237061</ele>
        <time>2020-02-06T09:36:06.000Z</time>
      </trkpt>
      <trkpt lat="47.23509" lon="-2.29715">
        <ele>16.39999961853</ele>
        <time>2020-02-06T09:36:07.000Z</time>
      </trkpt>
      <trkpt lat="47.23511" lon="-2.29708">
        <ele>16</ele>
        <time>2020-02-06T09:36:08.000Z</time>
      </trkpt>
      <trkpt lat="47.23514" lon="-2.29689">
        <ele>16</ele>
        <time>2020-02-06T09:36:11.000Z</time>
      </trkpt>
      <trkpt lat="47.23513" lon="-2.29675">
        <ele>16</ele>
        <time>2020-02-06T09:36:13.000Z</time>
      </trkpt>
      <trkpt lat="47.23512" lon="-2.2966">
        <ele>16</ele>
        <time>2020-02-06T09:36:16.000Z</time>
      </trkpt>
      <trkpt lat="47.23511" lon="-2.29655">
        <ele>15.199999809265</ele>
        <time>2020-02-06T09:36:17.000Z</time>
      </trkpt>
      <trkpt lat="47.23509" lon="-2.29648">
        <ele>14.60000038147</ele>
        <time>2020-02-06T09:36:18.000Z</time>
      </trkpt>
      <trkpt lat="47.23508" lon="-2.29641">
        <ele>14.199999809265</ele>
        <time>2020-02-06T09:36:19.000Z</time>
      </trkpt>
      <trkpt lat="47.23506" lon="-2.29634">
        <ele>13.800000190735</ele>
        <time>2020-02-06T09:36:20.000Z</time>
      </trkpt>
      <trkpt lat="47.23506" lon="-2.29624">
        <ele>13.800000190735</ele>
        <time>2020-02-06T09:36:21.000Z</time>
      </trkpt>
      <trkpt lat="47.23509" lon="-2.29605">
        <ele>13.39999961853</ele>
        <time>2020-02-06T09:36:24.000Z</time>
      </trkpt>
      <trkpt lat="47.23512" lon="-2.29601">
        <ele>12.800000190735</ele>
        <time>2020-02-06T09:36:25.000Z</time>
      </trkpt>
      <trkpt lat="47.23516" lon="-2.29598">
        <ele>12.39999961853</ele>
        <time>2020-02-06T09:36:26.000Z</time>
      </trkpt>
      <trkpt lat="47.23519" lon="-2.29595">
        <ele>11.800000190735</ele>
        <time>2020-02-06T09:36:27.000Z</time>
      </trkpt>
      <trkpt lat="47.23523" lon="-2.29592">
        <ele>11.39999961853</ele>
        <time>2020-02-06T09:36:28.000Z</time>
      </trkpt>
      <trkpt lat="47.23534" lon="-2.29585">
        <ele>11.39999961853</ele>
        <time>2020-02-06T09:36:31.000Z</time>
      </trkpt>
      <trkpt lat="47.23536" lon="-2.29585">
        <ele>11.39999961853</ele>
        <time>2020-02-06T09:36:32.000Z</time>
      </trkpt>
      <trkpt lat="47.23547" lon="-2.29592">
        <ele>11.39999961853</ele>
        <time>2020-02-06T09:36:35.000Z</time>
      </trkpt>
      <trkpt lat="47.2356" lon="-2.29601">
        <ele>11.39999961853</ele>
        <time>2020-02-06T09:36:39.000Z</time>
      </trkpt>
      <trkpt lat="47.23572" lon="-2.296">
        <ele>11.39999961853</ele>
        <time>2020-02-06T09:36:43.000Z</time>
      </trkpt>
      <trkpt lat="47.23575" lon="-2.29598">
        <ele>11.800000190735</ele>
        <time>2020-02-06T09:36:44.000Z</time>
      </trkpt>
      <trkpt lat="47.23577" lon="-2.29597">
        <ele>12.199999809265</ele>
        <time>2020-02-06T09:36:45.000Z</time>
      </trkpt>
      <trkpt lat="47.23579" lon="-2.29595">
        <ele>12.60000038147</ele>
        <time>2020-02-06T09:36:46.000Z</time>
      </trkpt>
      <trkpt lat="47.2358" lon="-2.29591">
        <ele>13.199999809265</ele>
        <time>2020-02-06T09:36:47.000Z</time>
      </trkpt>
      <trkpt lat="47.23581" lon="-2.29588">
        <ele>13.60000038147</ele>
        <time>2020-02-06T09:36:48.000Z</time>
      </trkpt>
      <trkpt lat="47.23582" lon="-2.29584">
        <ele>14</ele>
        <time>2020-02-06T09:36:49.000Z</time>
      </trkpt>
      <trkpt lat="47.23583" lon="-2.29579">
        <ele>14.39999961853</ele>
        <time>2020-02-06T09:36:50.000Z</time>
      </trkpt>
      <trkpt lat="47.23585" lon="-2.29573">
        <ele>14.800000190735</ele>
        <time>2020-02-06T09:36:51.000Z</time>
      </trkpt>
      <trkpt lat="47.23587" lon="-2.29567">
        <ele>15.199999809265</ele>
        <time>2020-02-06T09:36:52.000Z</time>
      </trkpt>
      <trkpt lat="47.23588" lon="-2.29561">
        <ele>15.60000038147</ele>
        <time>2020-02-06T09:36:53.000Z</time>
      </trkpt>
      <trkpt lat="47.23588" lon="-2.2954">
        <ele>15.60000038147</ele>
        <time>2020-02-06T09:36:57.000Z</time>
      </trkpt>
      <trkpt lat="47.23588" lon="-2.29503">
        <ele>15.60000038147</ele>
        <time>2020-02-06T09:37:04.000Z</time>
      </trkpt>
      <trkpt lat="47.23587" lon="-2.29472">
        <ele>15.60000038147</ele>
        <time>2020-02-06T09:37:10.000Z</time>
      </trkpt>
      <trkpt lat="47.23587" lon="-2.29461">
        <ele>16</ele>
        <time>2020-02-06T09:37:12.000Z</time>
      </trkpt>
      <trkpt lat="47.23587" lon="-2.29455">
        <ele>16.39999961853</ele>
        <time>2020-02-06T09:37:13.000Z</time>
      </trkpt>
      <trkpt lat="47.23587" lon="-2.2945">
        <ele>16.799999237061</ele>
        <time>2020-02-06T09:37:14.000Z</time>
      </trkpt>
      <trkpt lat="47.23587" lon="-2.29445">
        <ele>17.200000762939</ele>
        <time>2020-02-06T09:37:15.000Z</time>
      </trkpt>
      <trkpt lat="47.23587" lon="-2.2944">
        <ele>17.799999237061</ele>
        <time>2020-02-06T09:37:16.000Z</time>
      </trkpt>
      <trkpt lat="47.23588" lon="-2.29436">
        <ele>17.799999237061</ele>
        <time>2020-02-06T09:37:17.000Z</time>
      </trkpt>
      <trkpt lat="47.23587" lon="-2.29399">
        <ele>17.799999237061</ele>
        <time>2020-02-06T09:37:23.000Z</time>
      </trkpt>
      <trkpt lat="47.23588" lon="-2.29352">
        <ele>17.799999237061</ele>
        <time>2020-02-06T09:37:29.000Z</time>
      </trkpt>
      <trkpt lat="47.23591" lon="-2.29311">
        <ele>17.799999237061</ele>
        <time>2020-02-06T09:37:34.000Z</time>
      </trkpt>
      <trkpt lat="47.23591" lon="-2.29291">
        <ele>17.200000762939</ele>
        <time>2020-02-06T09:37:36.000Z</time>
      </trkpt>
      <trkpt lat="47.2359" lon="-2.29282">
        <ele>16.799999237061</ele>
        <time>2020-02-06T09:37:37.000Z</time>
      </trkpt>
      <trkpt lat="47.2359" lon="-2.29273">
        <ele>16.200000762939</ele>
        <time>2020-02-06T09:37:38.000Z</time>
      </trkpt>
      <trkpt lat="47.23589" lon="-2.29265">
        <ele>15.800000190735</ele>
        <time>2020-02-06T09:37:39.000Z</time>
      </trkpt>
      <trkpt lat="47.23589" lon="-2.29258">
        <ele>15.39999961853</ele>
        <time>2020-02-06T09:37:40.000Z</time>
      </trkpt>
      <trkpt lat="47.23589" lon="-2.29245">
        <ele>15.39999961853</ele>
        <time>2020-02-06T09:37:42.000Z</time>
      </trkpt>
      <trkpt lat="47.23589" lon="-2.29238">
        <ele>15.39999961853</ele>
        <time>2020-02-06T09:37:43.000Z</time>
      </trkpt>
      <trkpt lat="47.23595" lon="-2.29224">
        <ele>15.800000190735</ele>
        <time>2020-02-06T09:37:46.000Z</time>
      </trkpt>
      <trkpt lat="47.23597" lon="-2.2922">
        <ele>16.200000762939</ele>
        <time>2020-02-06T09:37:47.000Z</time>
      </trkpt>
      <trkpt lat="47.236" lon="-2.29216">
        <ele>16.60000038147</ele>
        <time>2020-02-06T09:37:48.000Z</time>
      </trkpt>
      <trkpt lat="47.23603" lon="-2.29213">
        <ele>17</ele>
        <time>2020-02-06T09:37:49.000Z</time>
      </trkpt>
      <trkpt lat="47.23607" lon="-2.29211">
        <ele>17.39999961853</ele>
        <time>2020-02-06T09:37:50.000Z</time>
      </trkpt>
      <trkpt lat="47.23611" lon="-2.29208">
        <ele>17.39999961853</ele>
        <time>2020-02-06T09:37:51.000Z</time>
      </trkpt>
      <trkpt lat="47.23638" lon="-2.29202">
        <ele>17.39999961853</ele>
        <time>2020-02-06T09:37:57.000Z</time>
      </trkpt>
      <trkpt lat="47.23647" lon="-2.292">
        <ele>17.799999237061</ele>
        <time>2020-02-06T09:37:59.000Z</time>
      </trkpt>
      <trkpt lat="47.23651" lon="-2.29199">
        <ele>18.200000762939</ele>
        <time>2020-02-06T09:38:00.000Z</time>
      </trkpt>
      <trkpt lat="47.23655" lon="-2.29199">
        <ele>18.60000038147</ele>
        <time>2020-02-06T09:38:01.000Z</time>
      </trkpt>
      <trkpt lat="47.23658" lon="-2.29198">
        <ele>19.200000762939</ele>
        <time>2020-02-06T09:38:02.000Z</time>
      </trkpt>
      <trkpt lat="47.2366" lon="-2.29198">
        <ele>19.60000038147</ele>
        <time>2020-02-06T09:38:03.000Z</time>
      </trkpt>
      <trkpt lat="47.23673" lon="-2.29193">
        <ele>19.60000038147</ele>
        <time>2020-02-06T09:38:08.000Z</time>
      </trkpt>
      <trkpt lat="47.2369" lon="-2.29189">
        <ele>19.60000038147</ele>
        <time>2020-02-06T09:38:14.000Z</time>
      </trkpt>
      <trkpt lat="47.23703" lon="-2.29189">
        <ele>19.60000038147</ele>
        <time>2020-02-06T09:38:20.000Z</time>
      </trkpt>
      <trkpt lat="47.23708" lon="-2.29188">
        <ele>19.60000038147</ele>
        <time>2020-02-06T09:38:26.000Z</time>
      </trkpt>
      <trkpt lat="47.2371" lon="-2.29187">
        <ele>19.60000038147</ele>
        <time>2020-02-06T09:39:33.000Z</time>
      </trkpt>
      <trkpt lat="47.23716" lon="-2.2918">
        <ele>19.60000038147</ele>
        <time>2020-02-06T09:39:36.000Z</time>
      </trkpt>
      <trkpt lat="47.23725" lon="-2.29178">
        <ele>20</ele>
        <time>2020-02-06T09:39:38.000Z</time>
      </trkpt>
      <trkpt lat="47.23729" lon="-2.29176">
        <ele>20.39999961853</ele>
        <time>2020-02-06T09:39:39.000Z</time>
      </trkpt>
      <trkpt lat="47.23734" lon="-2.29172">
        <ele>20.799999237061</ele>
        <time>2020-02-06T09:39:40.000Z</time>
      </trkpt>
      <trkpt lat="47.23738" lon="-2.29169">
        <ele>21.200000762939</ele>
        <time>2020-02-06T09:39:41.000Z</time>
      </trkpt>
      <trkpt lat="47.23743" lon="-2.29165">
        <ele>21.60000038147</ele>
        <time>2020-02-06T09:39:42.000Z</time>
      </trkpt>
      <trkpt lat="47.23753" lon="-2.2916">
        <ele>21.60000038147</ele>
        <time>2020-02-06T09:39:44.000Z</time>
      </trkpt>
      <trkpt lat="47.23765" lon="-2.29153">
        <ele>21.60000038147</ele>
        <time>2020-02-06T09:39:47.000Z</time>
      </trkpt>
      <trkpt lat="47.23769" lon="-2.2915">
        <ele>21.60000038147</ele>
        <time>2020-02-06T09:39:48.000Z</time>
      </trkpt>
      <trkpt lat="47.23783" lon="-2.29133">
        <ele>21.60000038147</ele>
        <time>2020-02-06T09:39:52.000Z</time>
      </trkpt>
      <trkpt lat="47.23792" lon="-2.29108">
        <ele>21.60000038147</ele>
        <time>2020-02-06T09:39:56.000Z</time>
      </trkpt>
      <trkpt lat="47.23795" lon="-2.29094">
        <ele>22.39999961853</ele>
        <time>2020-02-06T09:39:58.000Z</time>
      </trkpt>
      <trkpt lat="47.23795" lon="-2.29087">
        <ele>22.799999237061</ele>
        <time>2020-02-06T09:39:59.000Z</time>
      </trkpt>
      <trkpt lat="47.23796" lon="-2.2908">
        <ele>23.200000762939</ele>
        <time>2020-02-06T09:40:00.000Z</time>
      </trkpt>
      <trkpt lat="47.23797" lon="-2.29073">
        <ele>23.60000038147</ele>
        <time>2020-02-06T09:40:01.000Z</time>
      </trkpt>
      <trkpt lat="47.23802" lon="-2.29024">
        <ele>23.60000038147</ele>
        <time>2020-02-06T09:40:07.000Z</time>
      </trkpt>
      <trkpt lat="47.23809" lon="-2.28971">
        <ele>23.200000762939</ele>
        <time>2020-02-06T09:40:13.000Z</time>
      </trkpt>
      <trkpt lat="47.23811" lon="-2.28962">
        <ele>22.799999237061</ele>
        <time>2020-02-06T09:40:14.000Z</time>
      </trkpt>
      <trkpt lat="47.23812" lon="-2.28954">
        <ele>22.39999961853</ele>
        <time>2020-02-06T09:40:15.000Z</time>
      </trkpt>
      <trkpt lat="47.23814" lon="-2.28946">
        <ele>22</ele>
        <time>2020-02-06T09:40:16.000Z</time>
      </trkpt>
      <trkpt lat="47.23816" lon="-2.28939">
        <ele>21.60000038147</ele>
        <time>2020-02-06T09:40:17.000Z</time>
      </trkpt>
      <trkpt lat="47.23819" lon="-2.28927">
        <ele>21.60000038147</ele>
        <time>2020-02-06T09:40:19.000Z</time>
      </trkpt>
      <trkpt lat="47.23819" lon="-2.28921">
        <ele>21.60000038147</ele>
        <time>2020-02-06T09:40:20.000Z</time>
      </trkpt>
      <trkpt lat="47.23812" lon="-2.28915">
        <ele>21.200000762939</ele>
        <time>2020-02-06T09:40:22.000Z</time>
      </trkpt>
      <trkpt lat="47.23807" lon="-2.28914">
        <ele>20.60000038147</ele>
        <time>2020-02-06T09:40:23.000Z</time>
      </trkpt>
      <trkpt lat="47.23802" lon="-2.28914">
        <ele>20.200000762939</ele>
        <time>2020-02-06T09:40:24.000Z</time>
      </trkpt>
      <trkpt lat="47.23796" lon="-2.28915">
        <ele>19.60000038147</ele>
        <time>2020-02-06T09:40:25.000Z</time>
      </trkpt>
      <trkpt lat="47.23791" lon="-2.28915">
        <ele>19.200000762939</ele>
        <time>2020-02-06T09:40:26.000Z</time>
      </trkpt>
      <trkpt lat="47.23786" lon="-2.28915">
        <ele>18.799999237061</ele>
        <time>2020-02-06T09:40:27.000Z</time>
      </trkpt>
      <trkpt lat="47.23783" lon="-2.28915">
        <ele>18.200000762939</ele>
        <time>2020-02-06T09:40:28.000Z</time>
      </trkpt>
      <trkpt lat="47.23781" lon="-2.28914">
        <ele>17.799999237061</ele>
        <time>2020-02-06T09:40:29.000Z</time>
      </trkpt>
      <trkpt lat="47.23779" lon="-2.28911">
        <ele>17.200000762939</ele>
        <time>2020-02-06T09:40:30.000Z</time>
      </trkpt>
      <trkpt lat="47.23778" lon="-2.28906">
        <ele>16.799999237061</ele>
        <time>2020-02-06T09:40:31.000Z</time>
      </trkpt>
      <trkpt lat="47.23777" lon="-2.28901">
        <ele>16.799999237061</ele>
        <time>2020-02-06T09:40:32.000Z</time>
      </trkpt>
      <trkpt lat="47.23777" lon="-2.28896">
        <ele>16.799999237061</ele>
        <time>2020-02-06T09:40:33.000Z</time>
      </trkpt>
      <trkpt lat="47.23777" lon="-2.2889">
        <ele>16.799999237061</ele>
        <time>2020-02-06T09:40:34.000Z</time>
      </trkpt>
      <trkpt lat="47.23776" lon="-2.28884">
        <ele>16.799999237061</ele>
        <time>2020-02-06T09:40:35.000Z</time>
      </trkpt>
      <trkpt lat="47.23776" lon="-2.2887">
        <ele>16.799999237061</ele>
        <time>2020-02-06T09:40:37.000Z</time>
      </trkpt>
      <trkpt lat="47.23775" lon="-2.28856">
        <ele>16.799999237061</ele>
        <time>2020-02-06T09:40:39.000Z</time>
      </trkpt>
      <trkpt lat="47.23773" lon="-2.28842">
        <ele>16.799999237061</ele>
        <time>2020-02-06T09:40:41.000Z</time>
      </trkpt>
      <trkpt lat="47.23772" lon="-2.28827">
        <ele>16.799999237061</ele>
        <time>2020-02-06T09:40:43.000Z</time>
      </trkpt>
      <trkpt lat="47.23772" lon="-2.2882">
        <ele>16.39999961853</ele>
        <time>2020-02-06T09:40:44.000Z</time>
      </trkpt>
      <trkpt lat="47.23771" lon="-2.28812">
        <ele>16</ele>
        <time>2020-02-06T09:40:45.000Z</time>
      </trkpt>
      <trkpt lat="47.23771" lon="-2.28804">
        <ele>15.60000038147</ele>
        <time>2020-02-06T09:40:46.000Z</time>
      </trkpt>
      <trkpt lat="47.23771" lon="-2.28796">
        <ele>14.800000190735</ele>
        <time>2020-02-06T09:40:47.000Z</time>
      </trkpt>
      <trkpt lat="47.23771" lon="-2.28788">
        <ele>14.800000190735</ele>
        <time>2020-02-06T09:40:48.000Z</time>
      </trkpt>
      <trkpt lat="47.23767" lon="-2.28752">
        <ele>14.800000190735</ele>
        <time>2020-02-06T09:40:53.000Z</time>
      </trkpt>
      <trkpt lat="47.23763" lon="-2.28732">
        <ele>14.800000190735</ele>
        <time>2020-02-06T09:40:56.000Z</time>
      </trkpt>
      <trkpt lat="47.23762" lon="-2.28718">
        <ele>14.800000190735</ele>
        <time>2020-02-06T09:40:58.000Z</time>
      </trkpt>
      <trkpt lat="47.23766" lon="-2.28697">
        <ele>14.800000190735</ele>
        <time>2020-02-06T09:41:02.000Z</time>
      </trkpt>
      <trkpt lat="47.23772" lon="-2.28682">
        <ele>15.199999809265</ele>
        <time>2020-02-06T09:41:05.000Z</time>
      </trkpt>
      <trkpt lat="47.23774" lon="-2.28677">
        <ele>15.60000038147</ele>
        <time>2020-02-06T09:41:06.000Z</time>
      </trkpt>
      <trkpt lat="47.23775" lon="-2.28672">
        <ele>16</ele>
        <time>2020-02-06T09:41:07.000Z</time>
      </trkpt>
      <trkpt lat="47.23777" lon="-2.28667">
        <ele>16.39999961853</ele>
        <time>2020-02-06T09:41:08.000Z</time>
      </trkpt>
      <trkpt lat="47.23778" lon="-2.28661">
        <ele>16.799999237061</ele>
        <time>2020-02-06T09:41:09.000Z</time>
      </trkpt>
      <trkpt lat="47.23784" lon="-2.28643">
        <ele>16.799999237061</ele>
        <time>2020-02-06T09:41:14.000Z</time>
      </trkpt>
      <trkpt lat="47.23788" lon="-2.28634">
        <ele>16.39999961853</ele>
        <time>2020-02-06T09:41:17.000Z</time>
      </trkpt>
      <trkpt lat="47.2379" lon="-2.2863">
        <ele>16</ele>
        <time>2020-02-06T09:41:18.000Z</time>
      </trkpt>
      <trkpt lat="47.23792" lon="-2.28627">
        <ele>15.60000038147</ele>
        <time>2020-02-06T09:41:19.000Z</time>
      </trkpt>
      <trkpt lat="47.23794" lon="-2.28623">
        <ele>15.199999809265</ele>
        <time>2020-02-06T09:41:20.000Z</time>
      </trkpt>
      <trkpt lat="47.23794" lon="-2.28619">
        <ele>14.800000190735</ele>
        <time>2020-02-06T09:41:21.000Z</time>
      </trkpt>
      <trkpt lat="47.23793" lon="-2.2861">
        <ele>14.800000190735</ele>
        <time>2020-02-06T09:41:23.000Z</time>
      </trkpt>
      <trkpt lat="47.23792" lon="-2.28607">
        <ele>14.800000190735</ele>
        <time>2020-02-06T09:41:24.000Z</time>
      </trkpt>
      <trkpt lat="47.23788" lon="-2.286">
        <ele>14.800000190735</ele>
        <time>2020-02-06T09:41:26.000Z</time>
      </trkpt>
      <trkpt lat="47.23784" lon="-2.28576">
        <ele>14.800000190735</ele>
        <time>2020-02-06T09:41:31.000Z</time>
      </trkpt>
      <trkpt lat="47.23787" lon="-2.28542">
        <ele>14.800000190735</ele>
        <time>2020-02-06T09:41:36.000Z</time>
      </trkpt>
      <trkpt lat="47.23787" lon="-2.28523">
        <ele>14.800000190735</ele>
        <time>2020-02-06T09:41:40.000Z</time>
      </trkpt>
      <trkpt lat="47.23785" lon="-2.2852">
        <ele>14.800000190735</ele>
        <time>2020-02-06T09:41:41.000Z</time>
      </trkpt>
      <trkpt lat="47.2378" lon="-2.2851">
        <ele>14.800000190735</ele>
        <time>2020-02-06T09:41:43.000Z</time>
      </trkpt>
      <trkpt lat="47.23776" lon="-2.285">
        <ele>14.39999961853</ele>
        <time>2020-02-06T09:41:45.000Z</time>
      </trkpt>
      <trkpt lat="47.23773" lon="-2.28495">
        <ele>14</ele>
        <time>2020-02-06T09:41:46.000Z</time>
      </trkpt>
      <trkpt lat="47.2377" lon="-2.28492">
        <ele>13.39999961853</ele>
        <time>2020-02-06T09:41:47.000Z</time>
      </trkpt>
      <trkpt lat="47.23767" lon="-2.28488">
        <ele>13</ele>
        <time>2020-02-06T09:41:48.000Z</time>
      </trkpt>
      <trkpt lat="47.23764" lon="-2.28484">
        <ele>12.60000038147</ele>
        <time>2020-02-06T09:41:49.000Z</time>
      </trkpt>
      <trkpt lat="47.23761" lon="-2.2848">
        <ele>12.60000038147</ele>
        <time>2020-02-06T09:41:50.000Z</time>
      </trkpt>
      <trkpt lat="47.2376" lon="-2.28476">
        <ele>12.60000038147</ele>
        <time>2020-02-06T09:41:51.000Z</time>
      </trkpt>
      <trkpt lat="47.23759" lon="-2.28471">
        <ele>12.60000038147</ele>
        <time>2020-02-06T09:41:52.000Z</time>
      </trkpt>
      <trkpt lat="47.23758" lon="-2.28457">
        <ele>12.60000038147</ele>
        <time>2020-02-06T09:41:55.000Z</time>
      </trkpt>
      <trkpt lat="47.2376" lon="-2.28453">
        <ele>12.60000038147</ele>
        <time>2020-02-06T09:41:56.000Z</time>
      </trkpt>
      <trkpt lat="47.23769" lon="-2.28444">
        <ele>12.60000038147</ele>
        <time>2020-02-06T09:42:00.000Z</time>
      </trkpt>
      <trkpt lat="47.23771" lon="-2.28424">
        <ele>12.60000038147</ele>
        <time>2020-02-06T09:42:04.000Z</time>
      </trkpt>
      <trkpt lat="47.23769" lon="-2.28407">
        <ele>12.60000038147</ele>
        <time>2020-02-06T09:42:07.000Z</time>
      </trkpt>
      <trkpt lat="47.23768" lon="-2.28392">
        <ele>12.60000038147</ele>
        <time>2020-02-06T09:42:09.000Z</time>
      </trkpt>
      <trkpt lat="47.23768" lon="-2.28385">
        <ele>12.60000038147</ele>
        <time>2020-02-06T09:42:10.000Z</time>
      </trkpt>
      <trkpt lat="47.23776" lon="-2.2837">
        <ele>12.60000038147</ele>
        <time>2020-02-06T09:42:13.000Z</time>
      </trkpt>
      <trkpt lat="47.23786" lon="-2.28354">
        <ele>12.60000038147</ele>
        <time>2020-02-06T09:42:16.000Z</time>
      </trkpt>
      <trkpt lat="47.23789" lon="-2.28349">
        <ele>12.60000038147</ele>
        <time>2020-02-06T09:42:17.000Z</time>
      </trkpt>
      <trkpt lat="47.23804" lon="-2.28321">
        <ele>12.60000038147</ele>
        <time>2020-02-06T09:42:22.000Z</time>
      </trkpt>
      <trkpt lat="47.23805" lon="-2.28313">
        <ele>12.60000038147</ele>
        <time>2020-02-06T09:42:23.000Z</time>
      </trkpt>
      <trkpt lat="47.23809" lon="-2.28293">
        <ele>12.60000038147</ele>
        <time>2020-02-06T09:42:26.000Z</time>
      </trkpt>
      <trkpt lat="47.23816" lon="-2.28286">
        <ele>12.199999809265</ele>
        <time>2020-02-06T09:42:28.000Z</time>
      </trkpt>
      <trkpt lat="47.2382" lon="-2.28281">
        <ele>11.800000190735</ele>
        <time>2020-02-06T09:42:29.000Z</time>
      </trkpt>
      <trkpt lat="47.23823" lon="-2.28274">
        <ele>11.199999809265</ele>
        <time>2020-02-06T09:42:30.000Z</time>
      </trkpt>
      <trkpt lat="47.23823" lon="-2.28267">
        <ele>10.800000190735</ele>
        <time>2020-02-06T09:42:31.000Z</time>
      </trkpt>
      <trkpt lat="47.23824" lon="-2.2826">
        <ele>10.199999809265</ele>
        <time>2020-02-06T09:42:32.000Z</time>
      </trkpt>
      <trkpt lat="47.23823" lon="-2.28241">
        <ele>10.199999809265</ele>
        <time>2020-02-06T09:42:36.000Z</time>
      </trkpt>
      <trkpt lat="47.23819" lon="-2.28226">
        <ele>9.8000001907349</ele>
        <time>2020-02-06T09:42:40.000Z</time>
      </trkpt>
      <trkpt lat="47.23819" lon="-2.2822">
        <ele>9.3999996185303</ele>
        <time>2020-02-06T09:42:41.000Z</time>
      </trkpt>
      <trkpt lat="47.23818" lon="-2.28214">
        <ele>9</ele>
        <time>2020-02-06T09:42:42.000Z</time>
      </trkpt>
      <trkpt lat="47.23818" lon="-2.28209">
        <ele>8.6000003814697</ele>
        <time>2020-02-06T09:42:43.000Z</time>
      </trkpt>
      <trkpt lat="47.23819" lon="-2.28203">
        <ele>8.1999998092651</ele>
        <time>2020-02-06T09:42:44.000Z</time>
      </trkpt>
      <trkpt lat="47.23819" lon="-2.28197">
        <ele>8.1999998092651</ele>
        <time>2020-02-06T09:42:45.000Z</time>
      </trkpt>
      <trkpt lat="47.2382" lon="-2.28155">
        <ele>8.1999998092651</ele>
        <time>2020-02-06T09:42:52.000Z</time>
      </trkpt>
      <trkpt lat="47.23824" lon="-2.28122">
        <ele>8.1999998092651</ele>
        <time>2020-02-06T09:42:58.000Z</time>
      </trkpt>
      <trkpt lat="47.23823" lon="-2.28121">
        <ele>8.1999998092651</ele>
        <time>2020-02-06T09:42:59.000Z</time>
      </trkpt>
      <trkpt lat="47.23825" lon="-2.28116">
        <ele>8.1999998092651</ele>
        <time>2020-02-06T09:43:02.000Z</time>
      </trkpt>
      <trkpt lat="47.23831" lon="-2.28099">
        <ele>8.1999998092651</ele>
        <time>2020-02-06T09:43:06.000Z</time>
      </trkpt>
      <trkpt lat="47.23831" lon="-2.28095">
        <ele>7.8000001907349</ele>
        <time>2020-02-06T09:43:07.000Z</time>
      </trkpt>
      <trkpt lat="47.2383" lon="-2.28091">
        <ele>7.4000000953674</ele>
        <time>2020-02-06T09:43:08.000Z</time>
      </trkpt>
      <trkpt lat="47.23828" lon="-2.28086">
        <ele>7</ele>
        <time>2020-02-06T09:43:09.000Z</time>
      </trkpt>
      <trkpt lat="47.23827" lon="-2.2808">
        <ele>6.5999999046326</ele>
        <time>2020-02-06T09:43:10.000Z</time>
      </trkpt>
      <trkpt lat="47.23827" lon="-2.28074">
        <ele>6</ele>
        <time>2020-02-06T09:43:11.000Z</time>
      </trkpt>
      <trkpt lat="47.23827" lon="-2.28062">
        <ele>6</ele>
        <time>2020-02-06T09:43:13.000Z</time>
      </trkpt>
      <trkpt lat="47.23827" lon="-2.28051">
        <ele>6</ele>
        <time>2020-02-06T09:43:15.000Z</time>
      </trkpt>
      <trkpt lat="47.23829" lon="-2.28023">
        <ele>5.5999999046326</ele>
        <time>2020-02-06T09:43:20.000Z</time>
      </trkpt>
      <trkpt lat="47.2383" lon="-2.28017">
        <ele>5.1999998092651</ele>
        <time>2020-02-06T09:43:21.000Z</time>
      </trkpt>
      <trkpt lat="47.23831" lon="-2.28011">
        <ele>4.5999999046326</ele>
        <time>2020-02-06T09:43:22.000Z</time>
      </trkpt>
      <trkpt lat="47.23832" lon="-2.28005">
        <ele>4.1999998092651</ele>
        <time>2020-02-06T09:43:23.000Z</time>
      </trkpt>
      <trkpt lat="47.23833" lon="-2.27998">
        <ele>3.7999999523163</ele>
        <time>2020-02-06T09:43:24.000Z</time>
      </trkpt>
      <trkpt lat="47.23835" lon="-2.27992">
        <ele>3.7999999523163</ele>
        <time>2020-02-06T09:43:25.000Z</time>
      </trkpt>
      <trkpt lat="47.23837" lon="-2.27985">
        <ele>3.7999999523163</ele>
        <time>2020-02-06T09:43:26.000Z</time>
      </trkpt>
      <trkpt lat="47.23848" lon="-2.27952">
        <ele>3.4000000953674</ele>
        <time>2020-02-06T09:43:31.000Z</time>
      </trkpt>
      <trkpt lat="47.23851" lon="-2.27946">
        <ele>3</ele>
        <time>2020-02-06T09:43:32.000Z</time>
      </trkpt>
      <trkpt lat="47.23853" lon="-2.2794">
        <ele>2.4000000953674</ele>
        <time>2020-02-06T09:43:33.000Z</time>
      </trkpt>
      <trkpt lat="47.23857" lon="-2.27935">
        <ele>2</ele>
        <time>2020-02-06T09:43:34.000Z</time>
      </trkpt>
      <trkpt lat="47.2386" lon="-2.2793">
        <ele>1.6000000238419</ele>
        <time>2020-02-06T09:43:35.000Z</time>
      </trkpt>
      <trkpt lat="47.23864" lon="-2.27925">
        <ele>1.6000000238419</ele>
        <time>2020-02-06T09:43:36.000Z</time>
      </trkpt>
      <trkpt lat="47.23877" lon="-2.27913">
        <ele>1.6000000238419</ele>
        <time>2020-02-06T09:43:39.000Z</time>
      </trkpt>
      <trkpt lat="47.23881" lon="-2.2791">
        <ele>1.2000000476837</ele>
        <time>2020-02-06T09:43:40.000Z</time>
      </trkpt>
      <trkpt lat="47.23886" lon="-2.27908">
        <ele>0.20000000298023</ele>
        <time>2020-02-06T09:43:41.000Z</time>
      </trkpt>
      <trkpt lat="47.23891" lon="-2.27905">
        <ele>-0.40000000596046</ele>
        <time>2020-02-06T09:43:42.000Z</time>
      </trkpt>
      <trkpt lat="47.23896" lon="-2.27901">
        <ele>-0.80000001192093</ele>
        <time>2020-02-06T09:43:43.000Z</time>
      </trkpt>
      <trkpt lat="47.239" lon="-2.27898">
        <ele>-1.2000000476837</ele>
        <time>2020-02-06T09:43:44.000Z</time>
      </trkpt>
      <trkpt lat="47.23906" lon="-2.27895">
        <ele>-1.6000000238419</ele>
        <time>2020-02-06T09:43:45.000Z</time>
      </trkpt>
      <trkpt lat="47.23911" lon="-2.27893">
        <ele>-2</ele>
        <time>2020-02-06T09:43:46.000Z</time>
      </trkpt>
      <trkpt lat="47.23916" lon="-2.27891">
        <ele>-2.4000000953674</ele>
        <time>2020-02-06T09:43:47.000Z</time>
      </trkpt>
      <trkpt lat="47.23921" lon="-2.27888">
        <ele>-2.7999999523163</ele>
        <time>2020-02-06T09:43:48.000Z</time>
      </trkpt>
      <trkpt lat="47.2393" lon="-2.27885">
        <ele>-2.7999999523163</ele>
        <time>2020-02-06T09:43:50.000Z</time>
      </trkpt>
      <trkpt lat="47.23942" lon="-2.27882">
        <ele>-2.7999999523163</ele>
        <time>2020-02-06T09:43:53.000Z</time>
      </trkpt>
      <trkpt lat="47.23951" lon="-2.27882">
        <ele>-2.7999999523163</ele>
        <time>2020-02-06T09:43:57.000Z</time>
      </trkpt>
      <trkpt lat="47.23959" lon="-2.27879">
        <ele>-2.7999999523163</ele>
        <time>2020-02-06T09:44:02.000Z</time>
      </trkpt>
      <trkpt lat="47.23964" lon="-2.27878">
        <ele>-2.7999999523163</ele>
        <time>2020-02-06T09:44:07.000Z</time>
      </trkpt>
      <trkpt lat="47.23965" lon="-2.27877">
        <ele>-2.7999999523163</ele>
        <time>2020-02-06T09:44:30.000Z</time>
      </trkpt>
      <trkpt lat="47.2397" lon="-2.27873">
        <ele>-2.7999999523163</ele>
        <time>2020-02-06T09:44:32.000Z</time>
      </trkpt>
      <trkpt lat="47.23988" lon="-2.27865">
        <ele>-2.7999999523163</ele>
        <time>2020-02-06T09:44:37.000Z</time>
      </trkpt>
      <trkpt lat="47.24002" lon="-2.2785">
        <ele>-2.7999999523163</ele>
        <time>2020-02-06T09:44:42.000Z</time>
      </trkpt>
      <trkpt lat="47.24002" lon="-2.27828">
        <ele>-2.7999999523163</ele>
        <time>2020-02-06T09:44:46.000Z</time>
      </trkpt>
      <trkpt lat="47.24001" lon="-2.27806">
        <ele>-2.7999999523163</ele>
        <time>2020-02-06T09:44:52.000Z</time>
      </trkpt>
      <trkpt lat="47.23997" lon="-2.278">
        <ele>-2.7999999523163</ele>
        <time>2020-02-06T09:44:56.000Z</time>
      </trkpt>
      <trkpt lat="47.23995" lon="-2.278">
        <ele>-2.7999999523163</ele>
        <time>2020-02-06T09:44:58.000Z</time>
      </trkpt>
      <trkpt lat="47.23994" lon="-2.278">
        <ele>-2.7999999523163</ele>
        <time>2020-02-06T09:44:59.000Z</time>
      </trkpt>
      <trkpt lat="47.2399" lon="-2.27801">
        <ele>-2.7999999523163</ele>
        <time>2020-02-06T09:45:02.000Z</time>
      </trkpt>
      <trkpt lat="47.23989" lon="-2.278">
        <ele>-2.4000000953674</ele>
        <time>2020-02-06T09:45:03.000Z</time>
      </trkpt>
      <trkpt lat="47.23988" lon="-2.27797">
        <ele>-2</ele>
        <time>2020-02-06T09:45:04.000Z</time>
      </trkpt>
      <trkpt lat="47.23987" lon="-2.27795">
        <ele>-1.6000000238419</ele>
        <time>2020-02-06T09:45:05.000Z</time>
      </trkpt>
      <trkpt lat="47.23987" lon="-2.27793">
        <ele>-1</ele>
        <time>2020-02-06T09:45:06.000Z</time>
      </trkpt>
      <trkpt lat="47.23986" lon="-2.2779">
        <ele>-0.60000002384186</ele>
        <time>2020-02-06T09:45:07.000Z</time>
      </trkpt>
      <trkpt lat="47.23981" lon="-2.27782">
        <ele>-0.60000002384186</ele>
        <time>2020-02-06T09:45:11.000Z</time>
      </trkpt>
      <trkpt lat="47.2398" lon="-2.27776">
        <ele>-0.20000000298023</ele>
        <time>2020-02-06T09:45:13.000Z</time>
      </trkpt>
      <trkpt lat="47.23979" lon="-2.27773">
        <ele>0.20000000298023</ele>
        <time>2020-02-06T09:45:14.000Z</time>
      </trkpt>
      <trkpt lat="47.23978" lon="-2.27771">
        <ele>0.60000002384186</ele>
        <time>2020-02-06T09:45:15.000Z</time>
      </trkpt>
      <trkpt lat="47.23976" lon="-2.27768">
        <ele>1</ele>
        <time>2020-02-06T09:45:16.000Z</time>
      </trkpt>
      <trkpt lat="47.23976" lon="-2.27765">
        <ele>1.3999999761581</ele>
        <time>2020-02-06T09:45:17.000Z</time>
      </trkpt>
      <trkpt lat="47.23975" lon="-2.27759">
        <ele>2</ele>
        <time>2020-02-06T09:45:19.000Z</time>
      </trkpt>
      <trkpt lat="47.23974" lon="-2.27756">
        <ele>2.4000000953674</ele>
        <time>2020-02-06T09:45:20.000Z</time>
      </trkpt>
      <trkpt lat="47.23974" lon="-2.27754">
        <ele>2.7999999523163</ele>
        <time>2020-02-06T09:45:21.000Z</time>
      </trkpt>
      <trkpt lat="47.23974" lon="-2.27751">
        <ele>3.2000000476837</ele>
        <time>2020-02-06T09:45:22.000Z</time>
      </trkpt>
      <trkpt lat="47.23974" lon="-2.27748">
        <ele>3.7999999523163</ele>
        <time>2020-02-06T09:45:23.000Z</time>
      </trkpt>
      <trkpt lat="47.23972" lon="-2.2774">
        <ele>4.1999998092651</ele>
        <time>2020-02-06T09:45:26.000Z</time>
      </trkpt>
      <trkpt lat="47.23972" lon="-2.27737">
        <ele>4.5999999046326</ele>
        <time>2020-02-06T09:45:27.000Z</time>
      </trkpt>
      <trkpt lat="47.23971" lon="-2.27735">
        <ele>5</ele>
        <time>2020-02-06T09:45:28.000Z</time>
      </trkpt>
      <trkpt lat="47.23971" lon="-2.27732">
        <ele>5.4000000953674</ele>
        <time>2020-02-06T09:45:29.000Z</time>
      </trkpt>
      <trkpt lat="47.2397" lon="-2.27729">
        <ele>6</ele>
        <time>2020-02-06T09:45:30.000Z</time>
      </trkpt>
      <trkpt lat="47.23968" lon="-2.27724">
        <ele>6.4000000953674</ele>
        <time>2020-02-06T09:45:32.000Z</time>
      </trkpt>
      <trkpt lat="47.23967" lon="-2.27721">
        <ele>6.8000001907349</ele>
        <time>2020-02-06T09:45:33.000Z</time>
      </trkpt>
      <trkpt lat="47.23966" lon="-2.27719">
        <ele>7.1999998092651</ele>
        <time>2020-02-06T09:45:34.000Z</time>
      </trkpt>
      <trkpt lat="47.23966" lon="-2.27717">
        <ele>7.5999999046326</ele>
        <time>2020-02-06T09:45:35.000Z</time>
      </trkpt>
      <trkpt lat="47.23965" lon="-2.27714">
        <ele>8</ele>
        <time>2020-02-06T09:45:36.000Z</time>
      </trkpt>
      <trkpt lat="47.23967" lon="-2.27714">
        <ele>8</ele>
        <time>2020-02-06T09:45:39.000Z</time>
      </trkpt>
      <trkpt lat="47.23958" lon="-2.27703">
        <ele>12</ele>
        <time>2020-02-06T09:46:40.000Z</time>
      </trkpt>
      <trkpt lat="47.23955" lon="-2.27707">
        <ele>12</ele>
        <time>2020-02-06T09:46:42.000Z</time>
      </trkpt>
      <trkpt lat="47.23934" lon="-2.2772">
        <ele>12</ele>
        <time>2020-02-06T09:46:51.000Z</time>
      </trkpt>
      <trkpt lat="47.23918" lon="-2.27728">
        <ele>12</ele>
        <time>2020-02-06T09:46:57.000Z</time>
      </trkpt>
      <trkpt lat="47.23913" lon="-2.27733">
        <ele>12</ele>
        <time>2020-02-06T09:47:01.000Z</time>
      </trkpt>
      <trkpt lat="47.239" lon="-2.27742">
        <ele>12</ele>
        <time>2020-02-06T09:47:06.000Z</time>
      </trkpt>
      <trkpt lat="47.23875" lon="-2.2775">
        <ele>12</ele>
        <time>2020-02-06T09:47:13.000Z</time>
      </trkpt>
      <trkpt lat="47.23858" lon="-2.27753">
        <ele>12</ele>
        <time>2020-02-06T09:47:20.000Z</time>
      </trkpt>
      <trkpt lat="47.23852" lon="-2.27756">
        <ele>12</ele>
        <time>2020-02-06T09:47:25.000Z</time>
      </trkpt>
      <trkpt lat="47.23851" lon="-2.27756">
        <ele>12</ele>
        <time>2020-02-06T09:47:26.000Z</time>
      </trkpt>
      <trkpt lat="47.23848" lon="-2.27761">
        <ele>12</ele>
        <time>2020-02-06T09:47:33.000Z</time>
      </trkpt>
      <trkpt lat="47.23845" lon="-2.27763">
        <ele>12</ele>
        <time>2020-02-06T09:47:36.000Z</time>
      </trkpt>
      <trkpt lat="47.2384" lon="-2.27766">
        <ele>12</ele>
        <time>2020-02-06T09:47:38.000Z</time>
      </trkpt>
      <trkpt lat="47.23823" lon="-2.27775">
        <ele>12</ele>
        <time>2020-02-06T09:47:44.000Z</time>
      </trkpt>
      <trkpt lat="47.23816" lon="-2.27778">
        <ele>12</ele>
        <time>2020-02-06T09:47:48.000Z</time>
      </trkpt>
      <trkpt lat="47.23803" lon="-2.2778">
        <ele>12</ele>
        <time>2020-02-06T09:47:55.000Z</time>
      </trkpt>
      <trkpt lat="47.23797" lon="-2.2778">
        <ele>12</ele>
        <time>2020-02-06T09:47:59.000Z</time>
      </trkpt>
      <trkpt lat="47.23793" lon="-2.27784">
        <ele>11.60000038147</ele>
        <time>2020-02-06T09:48:06.000Z</time>
      </trkpt>
      <trkpt lat="47.23791" lon="-2.27784">
        <ele>11.199999809265</ele>
        <time>2020-02-06T09:48:07.000Z</time>
      </trkpt>
      <trkpt lat="47.23791" lon="-2.27785">
        <ele>10.800000190735</ele>
        <time>2020-02-06T09:48:08.000Z</time>
      </trkpt>
      <trkpt lat="47.2379" lon="-2.27784">
        <ele>10.199999809265</ele>
        <time>2020-02-06T09:48:09.000Z</time>
      </trkpt>
      <trkpt lat="47.23785" lon="-2.27779">
        <ele>9.8000001907349</ele>
        <time>2020-02-06T09:48:17.000Z</time>
      </trkpt>
      <trkpt lat="47.23783" lon="-2.27779">
        <ele>9.8000001907349</ele>
        <time>2020-02-06T09:48:18.000Z</time>
      </trkpt>
      <trkpt lat="47.23781" lon="-2.27779">
        <ele>9.8000001907349</ele>
        <time>2020-02-06T09:48:22.000Z</time>
      </trkpt>
      <trkpt lat="47.2378" lon="-2.27771">
        <ele>9.8000001907349</ele>
        <time>2020-02-06T09:58:52.000Z</time>
      </trkpt>
      <trkpt lat="47.23781" lon="-2.27769">
        <ele>9.8000001907349</ele>
        <time>2020-02-06T09:58:53.000Z</time>
      </trkpt>
      <trkpt lat="47.23784" lon="-2.2776">
        <ele>9.8000001907349</ele>
        <time>2020-02-06T09:58:59.000Z</time>
      </trkpt>
      <trkpt lat="47.23783" lon="-2.27752">
        <ele>10.199999809265</ele>
        <time>2020-02-06T09:59:05.000Z</time>
      </trkpt>
      <trkpt lat="47.23782" lon="-2.2775">
        <ele>10.800000190735</ele>
        <time>2020-02-06T09:59:06.000Z</time>
      </trkpt>
      <trkpt lat="47.23782" lon="-2.27748">
        <ele>11.199999809265</ele>
        <time>2020-02-06T09:59:07.000Z</time>
      </trkpt>
      <trkpt lat="47.23781" lon="-2.27747">
        <ele>11.60000038147</ele>
        <time>2020-02-06T09:59:08.000Z</time>
      </trkpt>
      <trkpt lat="47.2378" lon="-2.27744">
        <ele>12</ele>
        <time>2020-02-06T09:59:09.000Z</time>
      </trkpt>
      <trkpt lat="47.23779" lon="-2.27741">
        <ele>12</ele>
        <time>2020-02-06T09:59:10.000Z</time>
      </trkpt>
      <trkpt lat="47.23778" lon="-2.27722">
        <ele>12</ele>
        <time>2020-02-06T09:59:15.000Z</time>
      </trkpt>
      <trkpt lat="47.23782" lon="-2.27707">
        <ele>12</ele>
        <time>2020-02-06T09:59:20.000Z</time>
      </trkpt>
      <trkpt lat="47.23788" lon="-2.2769">
        <ele>12</ele>
        <time>2020-02-06T09:59:25.000Z</time>
      </trkpt>
      <trkpt lat="47.2379" lon="-2.27684">
        <ele>12</ele>
        <time>2020-02-06T09:59:26.000Z</time>
      </trkpt>
      <trkpt lat="47.238" lon="-2.27663">
        <ele>12</ele>
        <time>2020-02-06T09:59:30.000Z</time>
      </trkpt>
      <trkpt lat="47.23804" lon="-2.27658">
        <ele>12</ele>
        <time>2020-02-06T09:59:32.000Z</time>
      </trkpt>
      <trkpt lat="47.23808" lon="-2.27656">
        <ele>12</ele>
        <time>2020-02-06T09:59:34.000Z</time>
      </trkpt>
      <trkpt lat="47.23819" lon="-2.27652">
        <ele>12</ele>
        <time>2020-02-06T09:59:39.000Z</time>
      </trkpt>
      <trkpt lat="47.23836" lon="-2.27649">
        <ele>12</ele>
        <time>2020-02-06T09:59:44.000Z</time>
      </trkpt>
      <trkpt lat="47.23849" lon="-2.27646">
        <ele>12</ele>
        <time>2020-02-06T09:59:48.000Z</time>
      </trkpt>
      <trkpt lat="47.2387" lon="-2.27635">
        <ele>12</ele>
        <time>2020-02-06T09:59:55.000Z</time>
      </trkpt>
      <trkpt lat="47.23887" lon="-2.27631">
        <ele>12</ele>
        <time>2020-02-06T09:59:59.000Z</time>
      </trkpt>
      <trkpt lat="47.23909" lon="-2.27632">
        <ele>12</ele>
        <time>2020-02-06T10:00:06.000Z</time>
      </trkpt>
      <trkpt lat="47.23919" lon="-2.2764">
        <ele>12.800000190735</ele>
        <time>2020-02-06T10:00:09.000Z</time>
      </trkpt>
      <trkpt lat="47.23922" lon="-2.27643">
        <ele>13.199999809265</ele>
        <time>2020-02-06T10:00:10.000Z</time>
      </trkpt>
      <trkpt lat="47.23925" lon="-2.27646">
        <ele>13.60000038147</ele>
        <time>2020-02-06T10:00:11.000Z</time>
      </trkpt>
      <trkpt lat="47.23928" lon="-2.2765">
        <ele>14</ele>
        <time>2020-02-06T10:00:12.000Z</time>
      </trkpt>
      <trkpt lat="47.23942" lon="-2.27663">
        <ele>14</ele>
        <time>2020-02-06T10:00:16.000Z</time>
      </trkpt>
      <trkpt lat="47.23958" lon="-2.27667">
        <ele>14</ele>
        <time>2020-02-06T10:00:20.000Z</time>
      </trkpt>
      <trkpt lat="47.23966" lon="-2.27672">
        <ele>14</ele>
        <time>2020-02-06T10:00:22.000Z</time>
      </trkpt>
      <trkpt lat="47.23978" lon="-2.27677">
        <ele>14</ele>
        <time>2020-02-06T10:00:25.000Z</time>
      </trkpt>
      <trkpt lat="47.23986" lon="-2.27676">
        <ele>14</ele>
        <time>2020-02-06T10:00:27.000Z</time>
      </trkpt>
      <trkpt lat="47.23989" lon="-2.27671">
        <ele>14</ele>
        <time>2020-02-06T10:00:28.000Z</time>
      </trkpt>
      <trkpt lat="47.23993" lon="-2.27665">
        <ele>13.60000038147</ele>
        <time>2020-02-06T10:00:29.000Z</time>
      </trkpt>
      <trkpt lat="47.23998" lon="-2.27661">
        <ele>13.199999809265</ele>
        <time>2020-02-06T10:00:30.000Z</time>
      </trkpt>
      <trkpt lat="47.24002" lon="-2.27658">
        <ele>12.800000190735</ele>
        <time>2020-02-06T10:00:31.000Z</time>
      </trkpt>
      <trkpt lat="47.24006" lon="-2.27654">
        <ele>12.39999961853</ele>
        <time>2020-02-06T10:00:32.000Z</time>
      </trkpt>
      <trkpt lat="47.24011" lon="-2.27652">
        <ele>12</ele>
        <time>2020-02-06T10:00:33.000Z</time>
      </trkpt>
      <trkpt lat="47.24021" lon="-2.27651">
        <ele>12</ele>
        <time>2020-02-06T10:00:35.000Z</time>
      </trkpt>
      <trkpt lat="47.24032" lon="-2.2765">
        <ele>12</ele>
        <time>2020-02-06T10:00:37.000Z</time>
      </trkpt>
      <trkpt lat="47.24042" lon="-2.27643">
        <ele>12</ele>
        <time>2020-02-06T10:00:39.000Z</time>
      </trkpt>
      <trkpt lat="47.24043" lon="-2.27631">
        <ele>12</ele>
        <time>2020-02-06T10:00:41.000Z</time>
      </trkpt>
      <trkpt lat="47.24039" lon="-2.27619">
        <ele>12</ele>
        <time>2020-02-06T10:00:43.000Z</time>
      </trkpt>
      <trkpt lat="47.24037" lon="-2.27611">
        <ele>12</ele>
        <time>2020-02-06T10:00:44.000Z</time>
      </trkpt>
      <trkpt lat="47.24036" lon="-2.27604">
        <ele>12</ele>
        <time>2020-02-06T10:00:45.000Z</time>
      </trkpt>
      <trkpt lat="47.24035" lon="-2.27578">
        <ele>12</ele>
        <time>2020-02-06T10:00:48.000Z</time>
      </trkpt>
      <trkpt lat="47.24035" lon="-2.2757">
        <ele>12</ele>
        <time>2020-02-06T10:00:49.000Z</time>
      </trkpt>
      <trkpt lat="47.24037" lon="-2.27536">
        <ele>12</ele>
        <time>2020-02-06T10:00:54.000Z</time>
      </trkpt>
      <trkpt lat="47.24039" lon="-2.27524">
        <ele>12.39999961853</ele>
        <time>2020-02-06T10:00:56.000Z</time>
      </trkpt>
      <trkpt lat="47.24039" lon="-2.27518">
        <ele>12.800000190735</ele>
        <time>2020-02-06T10:00:57.000Z</time>
      </trkpt>
      <trkpt lat="47.2404" lon="-2.27511">
        <ele>13.60000038147</ele>
        <time>2020-02-06T10:00:58.000Z</time>
      </trkpt>
      <trkpt lat="47.24041" lon="-2.27505">
        <ele>14</ele>
        <time>2020-02-06T10:00:59.000Z</time>
      </trkpt>
      <trkpt lat="47.24042" lon="-2.27498">
        <ele>14</ele>
        <time>2020-02-06T10:01:00.000Z</time>
      </trkpt>
      <trkpt lat="47.24045" lon="-2.27484">
        <ele>14</ele>
        <time>2020-02-06T10:01:02.000Z</time>
      </trkpt>
      <trkpt lat="47.24051" lon="-2.27461">
        <ele>13.60000038147</ele>
        <time>2020-02-06T10:01:05.000Z</time>
      </trkpt>
      <trkpt lat="47.24054" lon="-2.27454">
        <ele>13.199999809265</ele>
        <time>2020-02-06T10:01:06.000Z</time>
      </trkpt>
      <trkpt lat="47.24058" lon="-2.27447">
        <ele>12.800000190735</ele>
        <time>2020-02-06T10:01:07.000Z</time>
      </trkpt>
      <trkpt lat="47.24062" lon="-2.2744">
        <ele>12.199999809265</ele>
        <time>2020-02-06T10:01:08.000Z</time>
      </trkpt>
      <trkpt lat="47.24066" lon="-2.27433">
        <ele>11.800000190735</ele>
        <time>2020-02-06T10:01:09.000Z</time>
      </trkpt>
      <trkpt lat="47.2407" lon="-2.27426">
        <ele>11.199999809265</ele>
        <time>2020-02-06T10:01:10.000Z</time>
      </trkpt>
      <trkpt lat="47.24075" lon="-2.27418">
        <ele>10.60000038147</ele>
        <time>2020-02-06T10:01:11.000Z</time>
      </trkpt>
      <trkpt lat="47.24079" lon="-2.27411">
        <ele>10.199999809265</ele>
        <time>2020-02-06T10:01:12.000Z</time>
      </trkpt>
      <trkpt lat="47.24084" lon="-2.27403">
        <ele>9.6000003814697</ele>
        <time>2020-02-06T10:01:13.000Z</time>
      </trkpt>
      <trkpt lat="47.24087" lon="-2.27394">
        <ele>9.6000003814697</ele>
        <time>2020-02-06T10:01:14.000Z</time>
      </trkpt>
      <trkpt lat="47.24092" lon="-2.27373">
        <ele>9.6000003814697</ele>
        <time>2020-02-06T10:01:16.000Z</time>
      </trkpt>
      <trkpt lat="47.24096" lon="-2.27311">
        <ele>9.1999998092651</ele>
        <time>2020-02-06T10:01:22.000Z</time>
      </trkpt>
      <trkpt lat="47.24096" lon="-2.27302">
        <ele>8.3999996185303</ele>
        <time>2020-02-06T10:01:23.000Z</time>
      </trkpt>
      <trkpt lat="47.24097" lon="-2.27292">
        <ele>8</ele>
        <time>2020-02-06T10:01:24.000Z</time>
      </trkpt>
      <trkpt lat="47.24097" lon="-2.27284">
        <ele>7.5999999046326</ele>
        <time>2020-02-06T10:01:25.000Z</time>
      </trkpt>
      <trkpt lat="47.24098" lon="-2.27267">
        <ele>7.5999999046326</ele>
        <time>2020-02-06T10:01:27.000Z</time>
      </trkpt>
      <trkpt lat="47.24098" lon="-2.27258">
        <ele>8</ele>
        <time>2020-02-06T10:01:28.000Z</time>
      </trkpt>
      <trkpt lat="47.24098" lon="-2.2725">
        <ele>8.3999996185303</ele>
        <time>2020-02-06T10:01:29.000Z</time>
      </trkpt>
      <trkpt lat="47.24098" lon="-2.27243">
        <ele>8.8000001907349</ele>
        <time>2020-02-06T10:01:30.000Z</time>
      </trkpt>
      <trkpt lat="47.24098" lon="-2.27235">
        <ele>9.1999998092651</ele>
        <time>2020-02-06T10:01:31.000Z</time>
      </trkpt>
      <trkpt lat="47.24098" lon="-2.27228">
        <ele>9.6000003814697</ele>
        <time>2020-02-06T10:01:32.000Z</time>
      </trkpt>
      <trkpt lat="47.24098" lon="-2.27213">
        <ele>9.6000003814697</ele>
        <time>2020-02-06T10:01:34.000Z</time>
      </trkpt>
      <trkpt lat="47.24099" lon="-2.27188">
        <ele>10</ele>
        <time>2020-02-06T10:01:38.000Z</time>
      </trkpt>
      <trkpt lat="47.24099" lon="-2.27182">
        <ele>10.39999961853</ele>
        <time>2020-02-06T10:01:39.000Z</time>
      </trkpt>
      <trkpt lat="47.24099" lon="-2.27176">
        <ele>10.800000190735</ele>
        <time>2020-02-06T10:01:40.000Z</time>
      </trkpt>
      <trkpt lat="47.24099" lon="-2.2717">
        <ele>11.199999809265</ele>
        <time>2020-02-06T10:01:41.000Z</time>
      </trkpt>
      <trkpt lat="47.24098" lon="-2.27164">
        <ele>11.60000038147</ele>
        <time>2020-02-06T10:01:42.000Z</time>
      </trkpt>
      <trkpt lat="47.24099" lon="-2.27158">
        <ele>11.60000038147</ele>
        <time>2020-02-06T10:01:43.000Z</time>
      </trkpt>
      <trkpt lat="47.24099" lon="-2.27131">
        <ele>11.60000038147</ele>
        <time>2020-02-06T10:01:47.000Z</time>
      </trkpt>
      <trkpt lat="47.241" lon="-2.2709">
        <ele>11.60000038147</ele>
        <time>2020-02-06T10:01:53.000Z</time>
      </trkpt>
      <trkpt lat="47.241" lon="-2.27038">
        <ele>11.60000038147</ele>
        <time>2020-02-06T10:01:59.000Z</time>
      </trkpt>
      <trkpt lat="47.24101" lon="-2.27011">
        <ele>11.60000038147</ele>
        <time>2020-02-06T10:02:02.000Z</time>
      </trkpt>
      <trkpt lat="47.241" lon="-2.26985">
        <ele>11.60000038147</ele>
        <time>2020-02-06T10:02:05.000Z</time>
      </trkpt>
      <trkpt lat="47.241" lon="-2.2694">
        <ele>11.60000038147</ele>
        <time>2020-02-06T10:02:11.000Z</time>
      </trkpt>
      <trkpt lat="47.241" lon="-2.26913">
        <ele>12</ele>
        <time>2020-02-06T10:02:15.000Z</time>
      </trkpt>
      <trkpt lat="47.24101" lon="-2.26907">
        <ele>12.39999961853</ele>
        <time>2020-02-06T10:02:16.000Z</time>
      </trkpt>
      <trkpt lat="47.24101" lon="-2.26901">
        <ele>13</ele>
        <time>2020-02-06T10:02:17.000Z</time>
      </trkpt>
      <trkpt lat="47.24101" lon="-2.26895">
        <ele>13.39999961853</ele>
        <time>2020-02-06T10:02:18.000Z</time>
      </trkpt>
      <trkpt lat="47.24101" lon="-2.26889">
        <ele>13.800000190735</ele>
        <time>2020-02-06T10:02:19.000Z</time>
      </trkpt>
      <trkpt lat="47.24103" lon="-2.26851">
        <ele>13.800000190735</ele>
        <time>2020-02-06T10:02:26.000Z</time>
      </trkpt>
      <trkpt lat="47.24103" lon="-2.26844">
        <ele>14.39999961853</ele>
        <time>2020-02-06T10:02:28.000Z</time>
      </trkpt>
      <trkpt lat="47.24102" lon="-2.26841">
        <ele>14.800000190735</ele>
        <time>2020-02-06T10:02:29.000Z</time>
      </trkpt>
      <trkpt lat="47.24101" lon="-2.2684">
        <ele>15.199999809265</ele>
        <time>2020-02-06T10:02:30.000Z</time>
      </trkpt>
      <trkpt lat="47.241" lon="-2.26838">
        <ele>15.800000190735</ele>
        <time>2020-02-06T10:02:31.000Z</time>
      </trkpt>
      <trkpt lat="47.24099" lon="-2.26836">
        <ele>16.200000762939</ele>
        <time>2020-02-06T10:02:32.000Z</time>
      </trkpt>
      <trkpt lat="47.24098" lon="-2.26835">
        <ele>16.200000762939</ele>
        <time>2020-02-06T10:02:33.000Z</time>
      </trkpt>
      <trkpt lat="47.24095" lon="-2.26835">
        <ele>16.200000762939</ele>
        <time>2020-02-06T10:02:35.000Z</time>
      </trkpt>
      <trkpt lat="47.24088" lon="-2.26838">
        <ele>16.200000762939</ele>
        <time>2020-02-06T10:02:38.000Z</time>
      </trkpt>
      <trkpt lat="47.24082" lon="-2.26839">
        <ele>16.200000762939</ele>
        <time>2020-02-06T10:02:40.000Z</time>
      </trkpt>
      <trkpt lat="47.24064" lon="-2.26842">
        <ele>16.200000762939</ele>
        <time>2020-02-06T10:02:45.000Z</time>
      </trkpt>
      <trkpt lat="47.24061" lon="-2.26845">
        <ele>16.200000762939</ele>
        <time>2020-02-06T10:02:46.000Z</time>
      </trkpt>
      <trkpt lat="47.24059" lon="-2.26855">
        <ele>16.200000762939</ele>
        <time>2020-02-06T10:02:48.000Z</time>
      </trkpt>
      <trkpt lat="47.24056" lon="-2.26884">
        <ele>16.200000762939</ele>
        <time>2020-02-06T10:02:54.000Z</time>
      </trkpt>
      <trkpt lat="47.24055" lon="-2.2689">
        <ele>16.200000762939</ele>
        <time>2020-02-06T10:02:55.000Z</time>
      </trkpt>
      <trkpt lat="47.24052" lon="-2.26904">
        <ele>16.200000762939</ele>
        <time>2020-02-06T10:02:57.000Z</time>
      </trkpt>
      <trkpt lat="47.24048" lon="-2.26925">
        <ele>15.800000190735</ele>
        <time>2020-02-06T10:03:00.000Z</time>
      </trkpt>
      <trkpt lat="47.24047" lon="-2.26932">
        <ele>15.199999809265</ele>
        <time>2020-02-06T10:03:01.000Z</time>
      </trkpt>
      <trkpt lat="47.24047" lon="-2.2694">
        <ele>14.199999809265</ele>
        <time>2020-02-06T10:03:02.000Z</time>
      </trkpt>
      <trkpt lat="47.24048" lon="-2.26948">
        <ele>13.800000190735</ele>
        <time>2020-02-06T10:03:03.000Z</time>
      </trkpt>
      <trkpt lat="47.24048" lon="-2.26955">
        <ele>13.199999809265</ele>
        <time>2020-02-06T10:03:04.000Z</time>
      </trkpt>
      <trkpt lat="47.24048" lon="-2.26964">
        <ele>12.800000190735</ele>
        <time>2020-02-06T10:03:05.000Z</time>
      </trkpt>
      <trkpt lat="47.24048" lon="-2.26971">
        <ele>12.199999809265</ele>
        <time>2020-02-06T10:03:06.000Z</time>
      </trkpt>
      <trkpt lat="47.24048" lon="-2.26979">
        <ele>11.60000038147</ele>
        <time>2020-02-06T10:03:07.000Z</time>
      </trkpt>
      <trkpt lat="47.24048" lon="-2.26985">
        <ele>11</ele>
        <time>2020-02-06T10:03:08.000Z</time>
      </trkpt>
      <trkpt lat="47.24046" lon="-2.2699">
        <ele>10.39999961853</ele>
        <time>2020-02-06T10:03:09.000Z</time>
      </trkpt>
      <trkpt lat="47.24044" lon="-2.26995">
        <ele>9.8000001907349</ele>
        <time>2020-02-06T10:03:10.000Z</time>
      </trkpt>
      <trkpt lat="47.24042" lon="-2.26998">
        <ele>9.1999998092651</ele>
        <time>2020-02-06T10:03:11.000Z</time>
      </trkpt>
      <trkpt lat="47.24038" lon="-2.27">
        <ele>8.3999996185303</ele>
        <time>2020-02-06T10:03:12.000Z</time>
      </trkpt>
      <trkpt lat="47.24033" lon="-2.27002">
        <ele>7.8000001907349</ele>
        <time>2020-02-06T10:03:13.000Z</time>
      </trkpt>
      <trkpt lat="47.24029" lon="-2.27004">
        <ele>7.1999998092651</ele>
        <time>2020-02-06T10:03:14.000Z</time>
      </trkpt>
      <trkpt lat="47.24025" lon="-2.27006">
        <ele>6.8000001907349</ele>
        <time>2020-02-06T10:03:15.000Z</time>
      </trkpt>
      <trkpt lat="47.24021" lon="-2.27005">
        <ele>6.4000000953674</ele>
        <time>2020-02-06T10:03:16.000Z</time>
      </trkpt>
      <trkpt lat="47.24018" lon="-2.27003">
        <ele>6</ele>
        <time>2020-02-06T10:03:17.000Z</time>
      </trkpt>
      <trkpt lat="47.24016" lon="-2.27">
        <ele>5.5999999046326</ele>
        <time>2020-02-06T10:03:18.000Z</time>
      </trkpt>
      <trkpt lat="47.24014" lon="-2.26996">
        <ele>5</ele>
        <time>2020-02-06T10:03:19.000Z</time>
      </trkpt>
      <trkpt lat="47.24011" lon="-2.26986">
        <ele>5</ele>
        <time>2020-02-06T10:03:21.000Z</time>
      </trkpt>
      <trkpt lat="47.23992" lon="-2.26966">
        <ele>5</ele>
        <time>2020-02-06T10:03:26.000Z</time>
      </trkpt>
      <trkpt lat="47.23987" lon="-2.26963">
        <ele>5.5999999046326</ele>
        <time>2020-02-06T10:03:27.000Z</time>
      </trkpt>
      <trkpt lat="47.23982" lon="-2.2696">
        <ele>6</ele>
        <time>2020-02-06T10:03:28.000Z</time>
      </trkpt>
      <trkpt lat="47.23978" lon="-2.26958">
        <ele>6.4000000953674</ele>
        <time>2020-02-06T10:03:29.000Z</time>
      </trkpt>
      <trkpt lat="47.23973" lon="-2.26956">
        <ele>6.8000001907349</ele>
        <time>2020-02-06T10:03:30.000Z</time>
      </trkpt>
      <trkpt lat="47.23968" lon="-2.26954">
        <ele>7.1999998092651</ele>
        <time>2020-02-06T10:03:31.000Z</time>
      </trkpt>
      <trkpt lat="47.23964" lon="-2.26953">
        <ele>7.1999998092651</ele>
        <time>2020-02-06T10:03:32.000Z</time>
      </trkpt>
      <trkpt lat="47.23959" lon="-2.26951">
        <ele>7.1999998092651</ele>
        <time>2020-02-06T10:03:33.000Z</time>
      </trkpt>
      <trkpt lat="47.23949" lon="-2.26938">
        <ele>7.1999998092651</ele>
        <time>2020-02-06T10:03:36.000Z</time>
      </trkpt>
      <trkpt lat="47.23949" lon="-2.26924">
        <ele>7.5999999046326</ele>
        <time>2020-02-06T10:03:39.000Z</time>
      </trkpt>
      <trkpt lat="47.23951" lon="-2.26924">
        <ele>8</ele>
        <time>2020-02-06T10:03:40.000Z</time>
      </trkpt>
      <trkpt lat="47.23953" lon="-2.26925">
        <ele>8.6000003814697</ele>
        <time>2020-02-06T10:03:41.000Z</time>
      </trkpt>
      <trkpt lat="47.23957" lon="-2.26929">
        <ele>9</ele>
        <time>2020-02-06T10:03:42.000Z</time>
      </trkpt>
      <trkpt lat="47.23961" lon="-2.26934">
        <ele>9.3999996185303</ele>
        <time>2020-02-06T10:03:43.000Z</time>
      </trkpt>
      <trkpt lat="47.2397" lon="-2.26943">
        <ele>9.3999996185303</ele>
        <time>2020-02-06T10:03:45.000Z</time>
      </trkpt>
      <trkpt lat="47.2398" lon="-2.26948">
        <ele>9.3999996185303</ele>
        <time>2020-02-06T10:03:47.000Z</time>
      </trkpt>
      <trkpt lat="47.2399" lon="-2.26954">
        <ele>9.3999996185303</ele>
        <time>2020-02-06T10:03:49.000Z</time>
      </trkpt>
      <trkpt lat="47.24005" lon="-2.26965">
        <ele>9.3999996185303</ele>
        <time>2020-02-06T10:03:52.000Z</time>
      </trkpt>
      <trkpt lat="47.2401" lon="-2.26967">
        <ele>9.3999996185303</ele>
        <time>2020-02-06T10:03:53.000Z</time>
      </trkpt>
      <trkpt lat="47.24014" lon="-2.26969">
        <ele>9</ele>
        <time>2020-02-06T10:03:54.000Z</time>
      </trkpt>
      <trkpt lat="47.24017" lon="-2.2697">
        <ele>8.3999996185303</ele>
        <time>2020-02-06T10:03:55.000Z</time>
      </trkpt>
      <trkpt lat="47.2402" lon="-2.2697">
        <ele>8</ele>
        <time>2020-02-06T10:03:56.000Z</time>
      </trkpt>
      <trkpt lat="47.24023" lon="-2.26969">
        <ele>7.5999999046326</ele>
        <time>2020-02-06T10:03:57.000Z</time>
      </trkpt>
      <trkpt lat="47.24025" lon="-2.26967">
        <ele>7</ele>
        <time>2020-02-06T10:03:58.000Z</time>
      </trkpt>
      <trkpt lat="47.24032" lon="-2.26964">
        <ele>7</ele>
        <time>2020-02-06T10:04:01.000Z</time>
      </trkpt>
      <trkpt lat="47.24038" lon="-2.26956">
        <ele>7.4000000953674</ele>
        <time>2020-02-06T10:04:04.000Z</time>
      </trkpt>
      <trkpt lat="47.24039" lon="-2.26952">
        <ele>8</ele>
        <time>2020-02-06T10:04:05.000Z</time>
      </trkpt>
      <trkpt lat="47.2404" lon="-2.26949">
        <ele>8.3999996185303</ele>
        <time>2020-02-06T10:04:06.000Z</time>
      </trkpt>
      <trkpt lat="47.24042" lon="-2.26947">
        <ele>8.8000001907349</ele>
        <time>2020-02-06T10:04:07.000Z</time>
      </trkpt>
      <trkpt lat="47.24044" lon="-2.26945">
        <ele>9.1999998092651</ele>
        <time>2020-02-06T10:04:08.000Z</time>
      </trkpt>
      <trkpt lat="47.24046" lon="-2.26944">
        <ele>9.1999998092651</ele>
        <time>2020-02-06T10:04:09.000Z</time>
      </trkpt>
      <trkpt lat="47.24047" lon="-2.26937">
        <ele>9.8000001907349</ele>
        <time>2020-02-06T10:04:12.000Z</time>
      </trkpt>
      <trkpt lat="47.24046" lon="-2.26934">
        <ele>10.199999809265</ele>
        <time>2020-02-06T10:04:13.000Z</time>
      </trkpt>
      <trkpt lat="47.24046" lon="-2.2693">
        <ele>10.800000190735</ele>
        <time>2020-02-06T10:04:14.000Z</time>
      </trkpt>
      <trkpt lat="47.24045" lon="-2.26926">
        <ele>11.199999809265</ele>
        <time>2020-02-06T10:04:15.000Z</time>
      </trkpt>
      <trkpt lat="47.24043" lon="-2.26923">
        <ele>11.800000190735</ele>
        <time>2020-02-06T10:04:16.000Z</time>
      </trkpt>
      <trkpt lat="47.2404" lon="-2.26919">
        <ele>11.800000190735</ele>
        <time>2020-02-06T10:04:17.000Z</time>
      </trkpt>
      <trkpt lat="47.24038" lon="-2.26916">
        <ele>12.199999809265</ele>
        <time>2020-02-06T10:04:18.000Z</time>
      </trkpt>
      <trkpt lat="47.24036" lon="-2.26912">
        <ele>12.60000038147</ele>
        <time>2020-02-06T10:04:19.000Z</time>
      </trkpt>
      <trkpt lat="47.24034" lon="-2.26907">
        <ele>13</ele>
        <time>2020-02-06T10:04:20.000Z</time>
      </trkpt>
      <trkpt lat="47.24032" lon="-2.26903">
        <ele>13.39999961853</ele>
        <time>2020-02-06T10:04:21.000Z</time>
      </trkpt>
      <trkpt lat="47.2403" lon="-2.269">
        <ele>13.800000190735</ele>
        <time>2020-02-06T10:04:22.000Z</time>
      </trkpt>
      <trkpt lat="47.24019" lon="-2.26882">
        <ele>13.800000190735</ele>
        <time>2020-02-06T10:04:27.000Z</time>
      </trkpt>
      <trkpt lat="47.24016" lon="-2.26873">
        <ele>14.39999961853</ele>
        <time>2020-02-06T10:04:29.000Z</time>
      </trkpt>
      <trkpt lat="47.24015" lon="-2.26869">
        <ele>14.800000190735</ele>
        <time>2020-02-06T10:04:30.000Z</time>
      </trkpt>
      <trkpt lat="47.24014" lon="-2.26865">
        <ele>15.39999961853</ele>
        <time>2020-02-06T10:04:31.000Z</time>
      </trkpt>
      <trkpt lat="47.24013" lon="-2.26862">
        <ele>15.800000190735</ele>
        <time>2020-02-06T10:04:32.000Z</time>
      </trkpt>
      <trkpt lat="47.24011" lon="-2.2686">
        <ele>16.39999961853</ele>
        <time>2020-02-06T10:04:33.000Z</time>
      </trkpt>
      <trkpt lat="47.24003" lon="-2.26866">
        <ele>16.39999961853</ele>
        <time>2020-02-06T10:04:37.000Z</time>
      </trkpt>
      <trkpt lat="47.23999" lon="-2.26886">
        <ele>15.800000190735</ele>
        <time>2020-02-06T10:04:41.000Z</time>
      </trkpt>
      <trkpt lat="47.23999" lon="-2.26892">
        <ele>15.39999961853</ele>
        <time>2020-02-06T10:04:42.000Z</time>
      </trkpt>
      <trkpt lat="47.24" lon="-2.26899">
        <ele>15</ele>
        <time>2020-02-06T10:04:43.000Z</time>
      </trkpt>
      <trkpt lat="47.24" lon="-2.26907">
        <ele>14.60000038147</ele>
        <time>2020-02-06T10:04:44.000Z</time>
      </trkpt>
      <trkpt lat="47.24001" lon="-2.26914">
        <ele>14</ele>
        <time>2020-02-06T10:04:45.000Z</time>
      </trkpt>
      <trkpt lat="47.24001" lon="-2.26923">
        <ele>13.60000038147</ele>
        <time>2020-02-06T10:04:46.000Z</time>
      </trkpt>
      <trkpt lat="47.24002" lon="-2.26932">
        <ele>13</ele>
        <time>2020-02-06T10:04:47.000Z</time>
      </trkpt>
      <trkpt lat="47.24004" lon="-2.26941">
        <ele>12.39999961853</ele>
        <time>2020-02-06T10:04:48.000Z</time>
      </trkpt>
      <trkpt lat="47.24005" lon="-2.26949">
        <ele>11.800000190735</ele>
        <time>2020-02-06T10:04:49.000Z</time>
      </trkpt>
      <trkpt lat="47.24006" lon="-2.26955">
        <ele>11.199999809265</ele>
        <time>2020-02-06T10:04:50.000Z</time>
      </trkpt>
      <trkpt lat="47.24007" lon="-2.2696">
        <ele>10.39999961853</ele>
        <time>2020-02-06T10:04:51.000Z</time>
      </trkpt>
      <trkpt lat="47.24006" lon="-2.26962">
        <ele>9.8000001907349</ele>
        <time>2020-02-06T10:04:52.000Z</time>
      </trkpt>
      <trkpt lat="47.24004" lon="-2.26963">
        <ele>9.1999998092651</ele>
        <time>2020-02-06T10:04:53.000Z</time>
      </trkpt>
      <trkpt lat="47.24001" lon="-2.26962">
        <ele>8.3999996185303</ele>
        <time>2020-02-06T10:04:54.000Z</time>
      </trkpt>
      <trkpt lat="47.23998" lon="-2.26959">
        <ele>7.8000001907349</ele>
        <time>2020-02-06T10:04:55.000Z</time>
      </trkpt>
      <trkpt lat="47.23994" lon="-2.26956">
        <ele>7.8000001907349</ele>
        <time>2020-02-06T10:04:56.000Z</time>
      </trkpt>
      <trkpt lat="47.2399" lon="-2.26952">
        <ele>7.8000001907349</ele>
        <time>2020-02-06T10:04:57.000Z</time>
      </trkpt>
      <trkpt lat="47.23986" lon="-2.26949">
        <ele>7.8000001907349</ele>
        <time>2020-02-06T10:04:58.000Z</time>
      </trkpt>
      <trkpt lat="47.23972" lon="-2.26942">
        <ele>7.8000001907349</ele>
        <time>2020-02-06T10:05:01.000Z</time>
      </trkpt>
      <trkpt lat="47.23967" lon="-2.26939">
        <ele>7.8000001907349</ele>
        <time>2020-02-06T10:05:02.000Z</time>
      </trkpt>
      <trkpt lat="47.23958" lon="-2.26929">
        <ele>7.8000001907349</ele>
        <time>2020-02-06T10:05:04.000Z</time>
      </trkpt>
      <trkpt lat="47.23951" lon="-2.26921">
        <ele>7.8000001907349</ele>
        <time>2020-02-06T10:05:06.000Z</time>
      </trkpt>
      <trkpt lat="47.23948" lon="-2.26917">
        <ele>7.8000001907349</ele>
        <time>2020-02-06T10:05:07.000Z</time>
      </trkpt>
      <trkpt lat="47.23946" lon="-2.26912">
        <ele>7.8000001907349</ele>
        <time>2020-02-06T10:05:08.000Z</time>
      </trkpt>
      <trkpt lat="47.23945" lon="-2.26906">
        <ele>8.1999998092651</ele>
        <time>2020-02-06T10:05:09.000Z</time>
      </trkpt>
      <trkpt lat="47.23944" lon="-2.26901">
        <ele>8.6000003814697</ele>
        <time>2020-02-06T10:05:10.000Z</time>
      </trkpt>
      <trkpt lat="47.23942" lon="-2.26897">
        <ele>9.1999998092651</ele>
        <time>2020-02-06T10:05:11.000Z</time>
      </trkpt>
      <trkpt lat="47.23939" lon="-2.26893">
        <ele>9.6000003814697</ele>
        <time>2020-02-06T10:05:12.000Z</time>
      </trkpt>
      <trkpt lat="47.23935" lon="-2.26891">
        <ele>10</ele>
        <time>2020-02-06T10:05:13.000Z</time>
      </trkpt>
      <trkpt lat="47.23931" lon="-2.26889">
        <ele>10</ele>
        <time>2020-02-06T10:05:14.000Z</time>
      </trkpt>
      <trkpt lat="47.23917" lon="-2.26883">
        <ele>10</ele>
        <time>2020-02-06T10:05:17.000Z</time>
      </trkpt>
      <trkpt lat="47.23882" lon="-2.26872">
        <ele>10</ele>
        <time>2020-02-06T10:05:24.000Z</time>
      </trkpt>
      <trkpt lat="47.23872" lon="-2.26869">
        <ele>10</ele>
        <time>2020-02-06T10:05:26.000Z</time>
      </trkpt>
      <trkpt lat="47.23866" lon="-2.2686">
        <ele>10</ele>
        <time>2020-02-06T10:05:28.000Z</time>
      </trkpt>
      <trkpt lat="47.2387" lon="-2.26843">
        <ele>10</ele>
        <time>2020-02-06T10:05:31.000Z</time>
      </trkpt>
      <trkpt lat="47.23883" lon="-2.26836">
        <ele>10</ele>
        <time>2020-02-06T10:05:34.000Z</time>
      </trkpt>
      <trkpt lat="47.23889" lon="-2.26834">
        <ele>10</ele>
        <time>2020-02-06T10:05:35.000Z</time>
      </trkpt>
      <trkpt lat="47.23893" lon="-2.26832">
        <ele>10</ele>
        <time>2020-02-06T10:05:36.000Z</time>
      </trkpt>
      <trkpt lat="47.23899" lon="-2.26822">
        <ele>10</ele>
        <time>2020-02-06T10:05:38.000Z</time>
      </trkpt>
      <trkpt lat="47.23897" lon="-2.26801">
        <ele>10</ele>
        <time>2020-02-06T10:05:41.000Z</time>
      </trkpt>
      <trkpt lat="47.23895" lon="-2.26776">
        <ele>10</ele>
        <time>2020-02-06T10:05:45.000Z</time>
      </trkpt>
      <trkpt lat="47.23903" lon="-2.26753">
        <ele>10</ele>
        <time>2020-02-06T10:05:50.000Z</time>
      </trkpt>
      <trkpt lat="47.23904" lon="-2.2675">
        <ele>10</ele>
        <time>2020-02-06T10:05:51.000Z</time>
      </trkpt>
      <trkpt lat="47.23904" lon="-2.26747">
        <ele>10.39999961853</ele>
        <time>2020-02-06T10:05:52.000Z</time>
      </trkpt>
      <trkpt lat="47.23902" lon="-2.26744">
        <ele>10.800000190735</ele>
        <time>2020-02-06T10:05:53.000Z</time>
      </trkpt>
      <trkpt lat="47.23901" lon="-2.26743">
        <ele>11.199999809265</ele>
        <time>2020-02-06T10:05:54.000Z</time>
      </trkpt>
      <trkpt lat="47.239" lon="-2.26743">
        <ele>12</ele>
        <time>2020-02-06T10:05:55.000Z</time>
      </trkpt>
      <trkpt lat="47.23898" lon="-2.26745">
        <ele>12</ele>
        <time>2020-02-06T10:05:57.000Z</time>
      </trkpt>
      <trkpt lat="47.23897" lon="-2.26746">
        <ele>12</ele>
        <time>2020-02-06T10:06:00.000Z</time>
      </trkpt>
      <trkpt lat="47.23899" lon="-2.26746">
        <ele>12</ele>
        <time>2020-02-06T10:06:37.000Z</time>
      </trkpt>
      <trkpt lat="47.239" lon="-2.26746">
        <ele>12</ele>
        <time>2020-02-06T10:06:38.000Z</time>
      </trkpt>
      <trkpt lat="47.2391" lon="-2.26748">
        <ele>12</ele>
        <time>2020-02-06T10:06:44.000Z</time>
      </trkpt>
      <trkpt lat="47.23913" lon="-2.2675">
        <ele>12</ele>
        <time>2020-02-06T10:06:46.000Z</time>
      </trkpt>
      <trkpt lat="47.2392" lon="-2.2675">
        <ele>12</ele>
        <time>2020-02-06T10:06:50.000Z</time>
      </trkpt>
      <trkpt lat="47.23928" lon="-2.26751">
        <ele>12</ele>
        <time>2020-02-06T10:06:55.000Z</time>
      </trkpt>
      <trkpt lat="47.23929" lon="-2.2675">
        <ele>12</ele>
        <time>2020-02-06T10:06:56.000Z</time>
      </trkpt>
      <trkpt lat="47.23939" lon="-2.26743">
        <ele>12</ele>
        <time>2020-02-06T10:07:02.000Z</time>
      </trkpt>
      <trkpt lat="47.23952" lon="-2.26734">
        <ele>12</ele>
        <time>2020-02-06T10:07:07.000Z</time>
      </trkpt>
      <trkpt lat="47.23969" lon="-2.26735">
        <ele>12</ele>
        <time>2020-02-06T10:07:14.000Z</time>
      </trkpt>
      <trkpt lat="47.23978" lon="-2.26737">
        <ele>12.60000038147</ele>
        <time>2020-02-06T10:07:18.000Z</time>
      </trkpt>
      <trkpt lat="47.23981" lon="-2.26737">
        <ele>13</ele>
        <time>2020-02-06T10:07:19.000Z</time>
      </trkpt>
      <trkpt lat="47.23984" lon="-2.26737">
        <ele>13.39999961853</ele>
        <time>2020-02-06T10:07:20.000Z</time>
      </trkpt>
      <trkpt lat="47.23987" lon="-2.26737">
        <ele>14</ele>
        <time>2020-02-06T10:07:21.000Z</time>
      </trkpt>
      <trkpt lat="47.23989" lon="-2.26736">
        <ele>14.39999961853</ele>
        <time>2020-02-06T10:07:22.000Z</time>
      </trkpt>
      <trkpt lat="47.24004" lon="-2.26738">
        <ele>14.39999961853</ele>
        <time>2020-02-06T10:07:28.000Z</time>
      </trkpt>
      <trkpt lat="47.24019" lon="-2.26736">
        <ele>15</ele>
        <time>2020-02-06T10:07:35.000Z</time>
      </trkpt>
      <trkpt lat="47.24021" lon="-2.26735">
        <ele>15.60000038147</ele>
        <time>2020-02-06T10:07:36.000Z</time>
      </trkpt>
      <trkpt lat="47.24023" lon="-2.26735">
        <ele>16.39999961853</ele>
        <time>2020-02-06T10:07:37.000Z</time>
      </trkpt>
      <trkpt lat="47.24026" lon="-2.26734">
        <ele>17.200000762939</ele>
        <time>2020-02-06T10:07:38.000Z</time>
      </trkpt>
      <trkpt lat="47.24028" lon="-2.26733">
        <ele>18</ele>
        <time>2020-02-06T10:07:39.000Z</time>
      </trkpt>
      <trkpt lat="47.24031" lon="-2.26732">
        <ele>18.799999237061</ele>
        <time>2020-02-06T10:07:40.000Z</time>
      </trkpt>
      <trkpt lat="47.24033" lon="-2.2673">
        <ele>19.60000038147</ele>
        <time>2020-02-06T10:07:41.000Z</time>
      </trkpt>
      <trkpt lat="47.24039" lon="-2.26727">
        <ele>19</ele>
        <time>2020-02-06T10:07:43.000Z</time>
      </trkpt>
      <trkpt lat="47.24041" lon="-2.26726">
        <ele>18.60000038147</ele>
        <time>2020-02-06T10:07:44.000Z</time>
      </trkpt>
      <trkpt lat="47.24044" lon="-2.26724">
        <ele>18</ele>
        <time>2020-02-06T10:07:45.000Z</time>
      </trkpt>
      <trkpt lat="47.24047" lon="-2.26723">
        <ele>17.60000038147</ele>
        <time>2020-02-06T10:07:46.000Z</time>
      </trkpt>
      <trkpt lat="47.24049" lon="-2.2672">
        <ele>17</ele>
        <time>2020-02-06T10:07:47.000Z</time>
      </trkpt>
      <trkpt lat="47.24054" lon="-2.26715">
        <ele>17</ele>
        <time>2020-02-06T10:07:49.000Z</time>
      </trkpt>
      <trkpt lat="47.24063" lon="-2.26706">
        <ele>17</ele>
        <time>2020-02-06T10:07:54.000Z</time>
      </trkpt>
      <trkpt lat="47.24071" lon="-2.26694">
        <ele>17</ele>
        <time>2020-02-06T10:07:59.000Z</time>
      </trkpt>
      <trkpt lat="47.24081" lon="-2.26675">
        <ele>17.39999961853</ele>
        <time>2020-02-06T10:08:04.000Z</time>
      </trkpt>
      <trkpt lat="47.24082" lon="-2.26672">
        <ele>17.799999237061</ele>
        <time>2020-02-06T10:08:05.000Z</time>
      </trkpt>
      <trkpt lat="47.24083" lon="-2.26669">
        <ele>18.200000762939</ele>
        <time>2020-02-06T10:08:06.000Z</time>
      </trkpt>
      <trkpt lat="47.24085" lon="-2.26665">
        <ele>18.799999237061</ele>
        <time>2020-02-06T10:08:07.000Z</time>
      </trkpt>
      <trkpt lat="47.24087" lon="-2.26662">
        <ele>19.200000762939</ele>
        <time>2020-02-06T10:08:08.000Z</time>
      </trkpt>
      <trkpt lat="47.24093" lon="-2.26654">
        <ele>19.200000762939</ele>
        <time>2020-02-06T10:08:11.000Z</time>
      </trkpt>
      <trkpt lat="47.24096" lon="-2.26652">
        <ele>19.200000762939</ele>
        <time>2020-02-06T10:08:13.000Z</time>
      </trkpt>
      <trkpt lat="47.24099" lon="-2.26653">
        <ele>19.200000762939</ele>
        <time>2020-02-06T10:08:15.000Z</time>
      </trkpt>
      <trkpt lat="47.24109" lon="-2.26645">
        <ele>19.200000762939</ele>
        <time>2020-02-06T10:08:21.000Z</time>
      </trkpt>
      <trkpt lat="47.24112" lon="-2.2664">
        <ele>19.200000762939</ele>
        <time>2020-02-06T10:08:23.000Z</time>
      </trkpt>
      <trkpt lat="47.24114" lon="-2.26639">
        <ele>19.200000762939</ele>
        <time>2020-02-06T10:08:25.000Z</time>
      </trkpt>
      <trkpt lat="47.24116" lon="-2.2664">
        <ele>19.200000762939</ele>
        <time>2020-02-06T10:08:26.000Z</time>
      </trkpt>
      <trkpt lat="47.24118" lon="-2.26639">
        <ele>18.799999237061</ele>
        <time>2020-02-06T10:08:27.000Z</time>
      </trkpt>
      <trkpt lat="47.2412" lon="-2.26637">
        <ele>18.39999961853</ele>
        <time>2020-02-06T10:08:28.000Z</time>
      </trkpt>
      <trkpt lat="47.24121" lon="-2.26633">
        <ele>18</ele>
        <time>2020-02-06T10:08:29.000Z</time>
      </trkpt>
      <trkpt lat="47.24123" lon="-2.26628">
        <ele>17.60000038147</ele>
        <time>2020-02-06T10:08:30.000Z</time>
      </trkpt>
      <trkpt lat="47.24125" lon="-2.26623">
        <ele>17.200000762939</ele>
        <time>2020-02-06T10:08:31.000Z</time>
      </trkpt>
      <trkpt lat="47.24127" lon="-2.26618">
        <ele>17.200000762939</ele>
        <time>2020-02-06T10:08:32.000Z</time>
      </trkpt>
      <trkpt lat="47.24129" lon="-2.26613">
        <ele>17.200000762939</ele>
        <time>2020-02-06T10:08:33.000Z</time>
      </trkpt>
      <trkpt lat="47.24136" lon="-2.26595">
        <ele>17.200000762939</ele>
        <time>2020-02-06T10:08:37.000Z</time>
      </trkpt>
      <trkpt lat="47.24138" lon="-2.2659">
        <ele>16.60000038147</ele>
        <time>2020-02-06T10:08:39.000Z</time>
      </trkpt>
      <trkpt lat="47.24138" lon="-2.26587">
        <ele>16</ele>
        <time>2020-02-06T10:08:40.000Z</time>
      </trkpt>
      <trkpt lat="47.24138" lon="-2.26583">
        <ele>15.60000038147</ele>
        <time>2020-02-06T10:08:41.000Z</time>
      </trkpt>
      <trkpt lat="47.24139" lon="-2.2658">
        <ele>15</ele>
        <time>2020-02-06T10:08:42.000Z</time>
      </trkpt>
      <trkpt lat="47.24141" lon="-2.26577">
        <ele>14.39999961853</ele>
        <time>2020-02-06T10:08:43.000Z</time>
      </trkpt>
      <trkpt lat="47.24145" lon="-2.26577">
        <ele>14.39999961853</ele>
        <time>2020-02-06T10:08:45.000Z</time>
      </trkpt>
      <trkpt lat="47.24148" lon="-2.26578">
        <ele>14.39999961853</ele>
        <time>2020-02-06T10:08:47.000Z</time>
      </trkpt>
      <trkpt lat="47.24153" lon="-2.26579">
        <ele>14.39999961853</ele>
        <time>2020-02-06T10:08:50.000Z</time>
      </trkpt>
      <trkpt lat="47.24157" lon="-2.26582">
        <ele>14.39999961853</ele>
        <time>2020-02-06T10:08:53.000Z</time>
      </trkpt>
      <trkpt lat="47.24157" lon="-2.26588">
        <ele>14.39999961853</ele>
        <time>2020-02-06T10:08:55.000Z</time>
      </trkpt>
      <trkpt lat="47.24156" lon="-2.26594">
        <ele>14.39999961853</ele>
        <time>2020-02-06T10:08:57.000Z</time>
      </trkpt>
      <trkpt lat="47.24156" lon="-2.26597">
        <ele>15</ele>
        <time>2020-02-06T10:08:58.000Z</time>
      </trkpt>
      <trkpt lat="47.24156" lon="-2.266">
        <ele>15.39999961853</ele>
        <time>2020-02-06T10:08:59.000Z</time>
      </trkpt>
      <trkpt lat="47.24156" lon="-2.26603">
        <ele>16</ele>
        <time>2020-02-06T10:09:00.000Z</time>
      </trkpt>
      <trkpt lat="47.24155" lon="-2.26605">
        <ele>16.39999961853</ele>
        <time>2020-02-06T10:09:01.000Z</time>
      </trkpt>
      <trkpt lat="47.24155" lon="-2.26608">
        <ele>16.799999237061</ele>
        <time>2020-02-06T10:09:02.000Z</time>
      </trkpt>
      <trkpt lat="47.24154" lon="-2.2661">
        <ele>17.39999961853</ele>
        <time>2020-02-06T10:09:03.000Z</time>
      </trkpt>
      <trkpt lat="47.24154" lon="-2.26612">
        <ele>17.799999237061</ele>
        <time>2020-02-06T10:09:04.000Z</time>
      </trkpt>
      <trkpt lat="47.24153" lon="-2.26613">
        <ele>18.200000762939</ele>
        <time>2020-02-06T10:09:05.000Z</time>
      </trkpt>
      <trkpt lat="47.24153" lon="-2.26615">
        <ele>18.60000038147</ele>
        <time>2020-02-06T10:09:06.000Z</time>
      </trkpt>
      <trkpt lat="47.24152" lon="-2.26616">
        <ele>19</ele>
        <time>2020-02-06T10:09:07.000Z</time>
      </trkpt>
      <trkpt lat="47.24143" lon="-2.26625">
        <ele>19</ele>
        <time>2020-02-06T10:09:11.000Z</time>
      </trkpt>
      <trkpt lat="47.24128" lon="-2.26653">
        <ele>19</ele>
        <time>2020-02-06T10:09:18.000Z</time>
      </trkpt>
      <trkpt lat="47.24126" lon="-2.26668">
        <ele>19</ele>
        <time>2020-02-06T10:09:22.000Z</time>
      </trkpt>
      <trkpt lat="47.24131" lon="-2.26677">
        <ele>19.39999961853</ele>
        <time>2020-02-06T10:09:26.000Z</time>
      </trkpt>
      <trkpt lat="47.24133" lon="-2.26679">
        <ele>20</ele>
        <time>2020-02-06T10:09:27.000Z</time>
      </trkpt>
      <trkpt lat="47.24135" lon="-2.2668">
        <ele>20.39999961853</ele>
        <time>2020-02-06T10:09:28.000Z</time>
      </trkpt>
      <trkpt lat="47.24137" lon="-2.26681">
        <ele>20.799999237061</ele>
        <time>2020-02-06T10:09:29.000Z</time>
      </trkpt>
      <trkpt lat="47.24138" lon="-2.26682">
        <ele>21.200000762939</ele>
        <time>2020-02-06T10:09:30.000Z</time>
      </trkpt>
      <trkpt lat="47.24139" lon="-2.26685">
        <ele>21.200000762939</ele>
        <time>2020-02-06T10:09:32.000Z</time>
      </trkpt>
      <trkpt lat="47.2414" lon="-2.26687">
        <ele>21.200000762939</ele>
        <time>2020-02-06T10:09:33.000Z</time>
      </trkpt>
      <trkpt lat="47.24137" lon="-2.2669">
        <ele>21.200000762939</ele>
        <time>2020-02-06T10:09:37.000Z</time>
      </trkpt>
      <trkpt lat="47.24137" lon="-2.26689">
        <ele>21.200000762939</ele>
        <time>2020-02-06T10:09:38.000Z</time>
      </trkpt>
      <trkpt lat="47.24137" lon="-2.26687">
        <ele>21.799999237061</ele>
        <time>2020-02-06T10:09:40.000Z</time>
      </trkpt>
      <trkpt lat="47.24137" lon="-2.26685">
        <ele>22.200000762939</ele>
        <time>2020-02-06T10:09:41.000Z</time>
      </trkpt>
      <trkpt lat="47.24138" lon="-2.26684">
        <ele>22.60000038147</ele>
        <time>2020-02-06T10:09:42.000Z</time>
      </trkpt>
      <trkpt lat="47.24139" lon="-2.26683">
        <ele>23</ele>
        <time>2020-02-06T10:09:43.000Z</time>
      </trkpt>
      <trkpt lat="47.2414" lon="-2.26683">
        <ele>23.39999961853</ele>
        <time>2020-02-06T10:09:44.000Z</time>
      </trkpt>
      <trkpt lat="47.24142" lon="-2.26686">
        <ele>23.39999961853</ele>
        <time>2020-02-06T10:09:47.000Z</time>
      </trkpt>
      <trkpt lat="47.24143" lon="-2.26687">
        <ele>23.39999961853</ele>
        <time>2020-02-06T10:09:49.000Z</time>
      </trkpt>
      <trkpt lat="47.24139" lon="-2.26688">
        <ele>23.39999961853</ele>
        <time>2020-02-06T10:09:54.000Z</time>
      </trkpt>
      <trkpt lat="47.24137" lon="-2.2669">
        <ele>23.39999961853</ele>
        <time>2020-02-06T10:09:56.000Z</time>
      </trkpt>
      <trkpt lat="47.24136" lon="-2.26693">
        <ele>23.39999961853</ele>
        <time>2020-02-06T10:09:57.000Z</time>
      </trkpt>
      <trkpt lat="47.24134" lon="-2.267">
        <ele>23</ele>
        <time>2020-02-06T10:09:59.000Z</time>
      </trkpt>
      <trkpt lat="47.2413" lon="-2.26703">
        <ele>22.60000038147</ele>
        <time>2020-02-06T10:10:00.000Z</time>
      </trkpt>
      <trkpt lat="47.24126" lon="-2.26705">
        <ele>22</ele>
        <time>2020-02-06T10:10:01.000Z</time>
      </trkpt>
      <trkpt lat="47.24122" lon="-2.26708">
        <ele>21.60000038147</ele>
        <time>2020-02-06T10:10:02.000Z</time>
      </trkpt>
      <trkpt lat="47.2412" lon="-2.26712">
        <ele>21.200000762939</ele>
        <time>2020-02-06T10:10:03.000Z</time>
      </trkpt>
      <trkpt lat="47.24116" lon="-2.26722">
        <ele>21.200000762939</ele>
        <time>2020-02-06T10:10:05.000Z</time>
      </trkpt>
      <trkpt lat="47.24111" lon="-2.26758">
        <ele>20.60000038147</ele>
        <time>2020-02-06T10:10:10.000Z</time>
      </trkpt>
      <trkpt lat="47.2411" lon="-2.26766">
        <ele>20.200000762939</ele>
        <time>2020-02-06T10:10:11.000Z</time>
      </trkpt>
      <trkpt lat="47.24109" lon="-2.26774">
        <ele>19.799999237061</ele>
        <time>2020-02-06T10:10:12.000Z</time>
      </trkpt>
      <trkpt lat="47.24108" lon="-2.26782">
        <ele>19.39999961853</ele>
        <time>2020-02-06T10:10:13.000Z</time>
      </trkpt>
      <trkpt lat="47.24108" lon="-2.26791">
        <ele>19</ele>
        <time>2020-02-06T10:10:14.000Z</time>
      </trkpt>
      <trkpt lat="47.24107" lon="-2.268">
        <ele>19</ele>
        <time>2020-02-06T10:10:15.000Z</time>
      </trkpt>
      <trkpt lat="47.24106" lon="-2.26833">
        <ele>18.60000038147</ele>
        <time>2020-02-06T10:10:18.000Z</time>
      </trkpt>
      <trkpt lat="47.24106" lon="-2.26844">
        <ele>18</ele>
        <time>2020-02-06T10:10:19.000Z</time>
      </trkpt>
      <trkpt lat="47.24106" lon="-2.26856">
        <ele>17.60000038147</ele>
        <time>2020-02-06T10:10:20.000Z</time>
      </trkpt>
      <trkpt lat="47.24106" lon="-2.26869">
        <ele>17.200000762939</ele>
        <time>2020-02-06T10:10:21.000Z</time>
      </trkpt>
      <trkpt lat="47.24105" lon="-2.26882">
        <ele>16.60000038147</ele>
        <time>2020-02-06T10:10:22.000Z</time>
      </trkpt>
      <trkpt lat="47.24105" lon="-2.2691">
        <ele>16.60000038147</ele>
        <time>2020-02-06T10:10:24.000Z</time>
      </trkpt>
      <trkpt lat="47.24105" lon="-2.26926">
        <ele>16.200000762939</ele>
        <time>2020-02-06T10:10:25.000Z</time>
      </trkpt>
      <trkpt lat="47.24105" lon="-2.2694">
        <ele>15.800000190735</ele>
        <time>2020-02-06T10:10:26.000Z</time>
      </trkpt>
      <trkpt lat="47.24105" lon="-2.26956">
        <ele>15</ele>
        <time>2020-02-06T10:10:27.000Z</time>
      </trkpt>
      <trkpt lat="47.24105" lon="-2.26971">
        <ele>14.60000038147</ele>
        <time>2020-02-06T10:10:28.000Z</time>
      </trkpt>
      <trkpt lat="47.24105" lon="-2.26987">
        <ele>14.199999809265</ele>
        <time>2020-02-06T10:10:29.000Z</time>
      </trkpt>
      <trkpt lat="47.24105" lon="-2.27003">
        <ele>13.800000190735</ele>
        <time>2020-02-06T10:10:30.000Z</time>
      </trkpt>
      <trkpt lat="47.24104" lon="-2.27019">
        <ele>13.39999961853</ele>
        <time>2020-02-06T10:10:31.000Z</time>
      </trkpt>
      <trkpt lat="47.24104" lon="-2.27035">
        <ele>13</ele>
        <time>2020-02-06T10:10:32.000Z</time>
      </trkpt>
      <trkpt lat="47.24104" lon="-2.27051">
        <ele>12.60000038147</ele>
        <time>2020-02-06T10:10:33.000Z</time>
      </trkpt>
      <trkpt lat="47.24104" lon="-2.27065">
        <ele>12</ele>
        <time>2020-02-06T10:10:34.000Z</time>
      </trkpt>
      <trkpt lat="47.24104" lon="-2.27079">
        <ele>11.39999961853</ele>
        <time>2020-02-06T10:10:35.000Z</time>
      </trkpt>
      <trkpt lat="47.24104" lon="-2.27092">
        <ele>11</ele>
        <time>2020-02-06T10:10:36.000Z</time>
      </trkpt>
      <trkpt lat="47.24103" lon="-2.27105">
        <ele>10.39999961853</ele>
        <time>2020-02-06T10:10:37.000Z</time>
      </trkpt>
      <trkpt lat="47.24103" lon="-2.27141">
        <ele>10.39999961853</ele>
        <time>2020-02-06T10:10:40.000Z</time>
      </trkpt>
      <trkpt lat="47.24102" lon="-2.27158">
        <ele>10.39999961853</ele>
        <time>2020-02-06T10:10:42.000Z</time>
      </trkpt>
      <trkpt lat="47.24102" lon="-2.27166">
        <ele>10.39999961853</ele>
        <time>2020-02-06T10:10:43.000Z</time>
      </trkpt>
      <trkpt lat="47.24103" lon="-2.27182">
        <ele>10.39999961853</ele>
        <time>2020-02-06T10:10:45.000Z</time>
      </trkpt>
      <trkpt lat="47.24108" lon="-2.27192">
        <ele>10.39999961853</ele>
        <time>2020-02-06T10:10:47.000Z</time>
      </trkpt>
      <trkpt lat="47.24122" lon="-2.2719">
        <ele>10.39999961853</ele>
        <time>2020-02-06T10:10:50.000Z</time>
      </trkpt>
      <trkpt lat="47.24145" lon="-2.2718">
        <ele>10.39999961853</ele>
        <time>2020-02-06T10:10:54.000Z</time>
      </trkpt>
      <trkpt lat="47.24151" lon="-2.27178">
        <ele>10.39999961853</ele>
        <time>2020-02-06T10:10:55.000Z</time>
      </trkpt>
      <trkpt lat="47.24184" lon="-2.27164">
        <ele>10.39999961853</ele>
        <time>2020-02-06T10:11:00.000Z</time>
      </trkpt>
      <trkpt lat="47.24203" lon="-2.27154">
        <ele>10.800000190735</ele>
        <time>2020-02-06T10:11:03.000Z</time>
      </trkpt>
      <trkpt lat="47.2421" lon="-2.27149">
        <ele>11.199999809265</ele>
        <time>2020-02-06T10:11:04.000Z</time>
      </trkpt>
      <trkpt lat="47.24216" lon="-2.27145">
        <ele>11.800000190735</ele>
        <time>2020-02-06T10:11:05.000Z</time>
      </trkpt>
      <trkpt lat="47.24222" lon="-2.27141">
        <ele>12.199999809265</ele>
        <time>2020-02-06T10:11:06.000Z</time>
      </trkpt>
      <trkpt lat="47.24228" lon="-2.27137">
        <ele>12.60000038147</ele>
        <time>2020-02-06T10:11:07.000Z</time>
      </trkpt>
      <trkpt lat="47.24239" lon="-2.27128">
        <ele>12.60000038147</ele>
        <time>2020-02-06T10:11:09.000Z</time>
      </trkpt>
      <trkpt lat="47.2425" lon="-2.27122">
        <ele>12.60000038147</ele>
        <time>2020-02-06T10:11:11.000Z</time>
      </trkpt>
      <trkpt lat="47.2426" lon="-2.27117">
        <ele>12.60000038147</ele>
        <time>2020-02-06T10:11:13.000Z</time>
      </trkpt>
      <trkpt lat="47.24279" lon="-2.27113">
        <ele>12.60000038147</ele>
        <time>2020-02-06T10:11:17.000Z</time>
      </trkpt>
      <trkpt lat="47.24289" lon="-2.27115">
        <ele>12.60000038147</ele>
        <time>2020-02-06T10:11:20.000Z</time>
      </trkpt>
      <trkpt lat="47.243" lon="-2.27119">
        <ele>12.60000038147</ele>
        <time>2020-02-06T10:11:24.000Z</time>
      </trkpt>
      <trkpt lat="47.24305" lon="-2.27136">
        <ele>12.60000038147</ele>
        <time>2020-02-06T10:11:27.000Z</time>
      </trkpt>
      <trkpt lat="47.24307" lon="-2.2715">
        <ele>12.60000038147</ele>
        <time>2020-02-06T10:11:29.000Z</time>
      </trkpt>
      <trkpt lat="47.24311" lon="-2.27161">
        <ele>12.60000038147</ele>
        <time>2020-02-06T10:11:31.000Z</time>
      </trkpt>
      <trkpt lat="47.24313" lon="-2.27164">
        <ele>12.199999809265</ele>
        <time>2020-02-06T10:11:32.000Z</time>
      </trkpt>
      <trkpt lat="47.24315" lon="-2.27163">
        <ele>11.800000190735</ele>
        <time>2020-02-06T10:11:33.000Z</time>
      </trkpt>
      <trkpt lat="47.24317" lon="-2.27161">
        <ele>11.39999961853</ele>
        <time>2020-02-06T10:11:34.000Z</time>
      </trkpt>
      <trkpt lat="47.24319" lon="-2.27158">
        <ele>11</ele>
        <time>2020-02-06T10:11:35.000Z</time>
      </trkpt>
      <trkpt lat="47.24321" lon="-2.27155">
        <ele>10.60000038147</ele>
        <time>2020-02-06T10:11:36.000Z</time>
      </trkpt>
      <trkpt lat="47.24324" lon="-2.27155">
        <ele>10.60000038147</ele>
        <time>2020-02-06T10:11:37.000Z</time>
      </trkpt>
      <trkpt lat="47.24328" lon="-2.27155">
        <ele>10.60000038147</ele>
        <time>2020-02-06T10:11:38.000Z</time>
      </trkpt>
      <trkpt lat="47.24333" lon="-2.27154">
        <ele>10.60000038147</ele>
        <time>2020-02-06T10:11:39.000Z</time>
      </trkpt>
      <trkpt lat="47.24344" lon="-2.27148">
        <ele>10.60000038147</ele>
        <time>2020-02-06T10:11:41.000Z</time>
      </trkpt>
      <trkpt lat="47.24362" lon="-2.27132">
        <ele>10.60000038147</ele>
        <time>2020-02-06T10:11:45.000Z</time>
      </trkpt>
      <trkpt lat="47.24367" lon="-2.27129">
        <ele>10.60000038147</ele>
        <time>2020-02-06T10:11:46.000Z</time>
      </trkpt>
      <trkpt lat="47.24373" lon="-2.27115">
        <ele>10.60000038147</ele>
        <time>2020-02-06T10:11:49.000Z</time>
      </trkpt>
      <trkpt lat="47.24375" lon="-2.2711">
        <ele>10.60000038147</ele>
        <time>2020-02-06T10:11:50.000Z</time>
      </trkpt>
      <trkpt lat="47.2438" lon="-2.27095">
        <ele>10.60000038147</ele>
        <time>2020-02-06T10:11:54.000Z</time>
      </trkpt>
      <trkpt lat="47.24389" lon="-2.27081">
        <ele>10.60000038147</ele>
        <time>2020-02-06T10:12:00.000Z</time>
      </trkpt>
      <trkpt lat="47.24394" lon="-2.27072">
        <ele>10.60000038147</ele>
        <time>2020-02-06T10:12:03.000Z</time>
      </trkpt>
      <trkpt lat="47.24395" lon="-2.27064">
        <ele>10.60000038147</ele>
        <time>2020-02-06T10:12:05.000Z</time>
      </trkpt>
      <trkpt lat="47.24395" lon="-2.27053">
        <ele>11</ele>
        <time>2020-02-06T10:12:07.000Z</time>
      </trkpt>
      <trkpt lat="47.24396" lon="-2.27047">
        <ele>11.39999961853</ele>
        <time>2020-02-06T10:12:08.000Z</time>
      </trkpt>
      <trkpt lat="47.24397" lon="-2.27041">
        <ele>11.800000190735</ele>
        <time>2020-02-06T10:12:09.000Z</time>
      </trkpt>
      <trkpt lat="47.24398" lon="-2.27035">
        <ele>12.199999809265</ele>
        <time>2020-02-06T10:12:10.000Z</time>
      </trkpt>
      <trkpt lat="47.24397" lon="-2.27029">
        <ele>12.60000038147</ele>
        <time>2020-02-06T10:12:11.000Z</time>
      </trkpt>
      <trkpt lat="47.24395" lon="-2.27018">
        <ele>12.60000038147</ele>
        <time>2020-02-06T10:12:13.000Z</time>
      </trkpt>
      <trkpt lat="47.24393" lon="-2.27013">
        <ele>12.60000038147</ele>
        <time>2020-02-06T10:12:14.000Z</time>
      </trkpt>
      <trkpt lat="47.24387" lon="-2.27002">
        <ele>12.60000038147</ele>
        <time>2020-02-06T10:12:17.000Z</time>
      </trkpt>
      <trkpt lat="47.24388" lon="-2.26991">
        <ele>12.60000038147</ele>
        <time>2020-02-06T10:12:20.000Z</time>
      </trkpt>
      <trkpt lat="47.2439" lon="-2.26985">
        <ele>12.60000038147</ele>
        <time>2020-02-06T10:12:22.000Z</time>
      </trkpt>
      <trkpt lat="47.24392" lon="-2.2698">
        <ele>13</ele>
        <time>2020-02-06T10:12:23.000Z</time>
      </trkpt>
      <trkpt lat="47.24394" lon="-2.26975">
        <ele>13.39999961853</ele>
        <time>2020-02-06T10:12:24.000Z</time>
      </trkpt>
      <trkpt lat="47.24396" lon="-2.26971">
        <ele>14</ele>
        <time>2020-02-06T10:12:25.000Z</time>
      </trkpt>
      <trkpt lat="47.24399" lon="-2.26967">
        <ele>14.39999961853</ele>
        <time>2020-02-06T10:12:26.000Z</time>
      </trkpt>
      <trkpt lat="47.24402" lon="-2.26962">
        <ele>14.800000190735</ele>
        <time>2020-02-06T10:12:27.000Z</time>
      </trkpt>
      <trkpt lat="47.24408" lon="-2.26954">
        <ele>14.800000190735</ele>
        <time>2020-02-06T10:12:29.000Z</time>
      </trkpt>
      <trkpt lat="47.24414" lon="-2.26946">
        <ele>14.800000190735</ele>
        <time>2020-02-06T10:12:31.000Z</time>
      </trkpt>
      <trkpt lat="47.24426" lon="-2.26937">
        <ele>14.800000190735</ele>
        <time>2020-02-06T10:12:34.000Z</time>
      </trkpt>
      <trkpt lat="47.24434" lon="-2.26936">
        <ele>14.800000190735</ele>
        <time>2020-02-06T10:12:36.000Z</time>
      </trkpt>
      <trkpt lat="47.24444" lon="-2.26935">
        <ele>14.800000190735</ele>
        <time>2020-02-06T10:12:38.000Z</time>
      </trkpt>
      <trkpt lat="47.24463" lon="-2.26941">
        <ele>14.800000190735</ele>
        <time>2020-02-06T10:12:42.000Z</time>
      </trkpt>
      <trkpt lat="47.24468" lon="-2.26942">
        <ele>14.800000190735</ele>
        <time>2020-02-06T10:12:43.000Z</time>
      </trkpt>
      <trkpt lat="47.24473" lon="-2.26945">
        <ele>14.800000190735</ele>
        <time>2020-02-06T10:12:44.000Z</time>
      </trkpt>
      <trkpt lat="47.24477" lon="-2.26954">
        <ele>14.800000190735</ele>
        <time>2020-02-06T10:12:46.000Z</time>
      </trkpt>
      <trkpt lat="47.24467" lon="-2.26966">
        <ele>14.800000190735</ele>
        <time>2020-02-06T10:12:49.000Z</time>
      </trkpt>
      <trkpt lat="47.24462" lon="-2.26969">
        <ele>14.800000190735</ele>
        <time>2020-02-06T10:12:50.000Z</time>
      </trkpt>
      <trkpt lat="47.24441" lon="-2.26981">
        <ele>14.800000190735</ele>
        <time>2020-02-06T10:12:54.000Z</time>
      </trkpt>
      <trkpt lat="47.24431" lon="-2.26989">
        <ele>14.800000190735</ele>
        <time>2020-02-06T10:12:56.000Z</time>
      </trkpt>
      <trkpt lat="47.24425" lon="-2.26999">
        <ele>14.800000190735</ele>
        <time>2020-02-06T10:12:58.000Z</time>
      </trkpt>
      <trkpt lat="47.24422" lon="-2.2702">
        <ele>14.800000190735</ele>
        <time>2020-02-06T10:13:01.000Z</time>
      </trkpt>
      <trkpt lat="47.24421" lon="-2.27028">
        <ele>14.800000190735</ele>
        <time>2020-02-06T10:13:02.000Z</time>
      </trkpt>
      <trkpt lat="47.24421" lon="-2.27047">
        <ele>14.800000190735</ele>
        <time>2020-02-06T10:13:04.000Z</time>
      </trkpt>
      <trkpt lat="47.24421" lon="-2.27056">
        <ele>14.800000190735</ele>
        <time>2020-02-06T10:13:05.000Z</time>
      </trkpt>
      <trkpt lat="47.24418" lon="-2.27069">
        <ele>14.39999961853</ele>
        <time>2020-02-06T10:13:07.000Z</time>
      </trkpt>
      <trkpt lat="47.24416" lon="-2.27076">
        <ele>14</ele>
        <time>2020-02-06T10:13:08.000Z</time>
      </trkpt>
      <trkpt lat="47.24413" lon="-2.27082">
        <ele>13.39999961853</ele>
        <time>2020-02-06T10:13:09.000Z</time>
      </trkpt>
      <trkpt lat="47.24411" lon="-2.2709">
        <ele>13</ele>
        <time>2020-02-06T10:13:10.000Z</time>
      </trkpt>
      <trkpt lat="47.24407" lon="-2.27097">
        <ele>12.60000038147</ele>
        <time>2020-02-06T10:13:11.000Z</time>
      </trkpt>
      <trkpt lat="47.24397" lon="-2.27107">
        <ele>12.60000038147</ele>
        <time>2020-02-06T10:13:13.000Z</time>
      </trkpt>
      <trkpt lat="47.24385" lon="-2.27114">
        <ele>12.60000038147</ele>
        <time>2020-02-06T10:13:15.000Z</time>
      </trkpt>
      <trkpt lat="47.24375" lon="-2.27121">
        <ele>12.60000038147</ele>
        <time>2020-02-06T10:13:17.000Z</time>
      </trkpt>
      <trkpt lat="47.24354" lon="-2.27138">
        <ele>12.60000038147</ele>
        <time>2020-02-06T10:13:21.000Z</time>
      </trkpt>
      <trkpt lat="47.24332" lon="-2.27151">
        <ele>12.60000038147</ele>
        <time>2020-02-06T10:13:25.000Z</time>
      </trkpt>
      <trkpt lat="47.24327" lon="-2.27151">
        <ele>12.60000038147</ele>
        <time>2020-02-06T10:13:26.000Z</time>
      </trkpt>
      <trkpt lat="47.24318" lon="-2.27155">
        <ele>12.60000038147</ele>
        <time>2020-02-06T10:13:28.000Z</time>
      </trkpt>
      <trkpt lat="47.24314" lon="-2.27159">
        <ele>12.60000038147</ele>
        <time>2020-02-06T10:13:29.000Z</time>
      </trkpt>
      <trkpt lat="47.24306" lon="-2.27168">
        <ele>12.60000038147</ele>
        <time>2020-02-06T10:13:31.000Z</time>
      </trkpt>
      <trkpt lat="47.24296" lon="-2.27177">
        <ele>12.60000038147</ele>
        <time>2020-02-06T10:13:33.000Z</time>
      </trkpt>
      <trkpt lat="47.24289" lon="-2.27202">
        <ele>12.60000038147</ele>
        <time>2020-02-06T10:13:36.000Z</time>
      </trkpt>
      <trkpt lat="47.24295" lon="-2.27222">
        <ele>12.199999809265</ele>
        <time>2020-02-06T10:13:39.000Z</time>
      </trkpt>
      <trkpt lat="47.24298" lon="-2.27228">
        <ele>11.800000190735</ele>
        <time>2020-02-06T10:13:40.000Z</time>
      </trkpt>
      <trkpt lat="47.243" lon="-2.27235">
        <ele>11.39999961853</ele>
        <time>2020-02-06T10:13:41.000Z</time>
      </trkpt>
      <trkpt lat="47.24301" lon="-2.27241">
        <ele>11</ele>
        <time>2020-02-06T10:13:42.000Z</time>
      </trkpt>
      <trkpt lat="47.24303" lon="-2.27246">
        <ele>10.60000038147</ele>
        <time>2020-02-06T10:13:43.000Z</time>
      </trkpt>
      <trkpt lat="47.24305" lon="-2.27249">
        <ele>10.60000038147</ele>
        <time>2020-02-06T10:13:44.000Z</time>
      </trkpt>
      <trkpt lat="47.24316" lon="-2.27257">
        <ele>10.60000038147</ele>
        <time>2020-02-06T10:13:47.000Z</time>
      </trkpt>
      <trkpt lat="47.24321" lon="-2.27256">
        <ele>10.60000038147</ele>
        <time>2020-02-06T10:13:48.000Z</time>
      </trkpt>
      <trkpt lat="47.24329" lon="-2.27251">
        <ele>10.60000038147</ele>
        <time>2020-02-06T10:13:50.000Z</time>
      </trkpt>
      <trkpt lat="47.24338" lon="-2.27239">
        <ele>10.60000038147</ele>
        <time>2020-02-06T10:13:53.000Z</time>
      </trkpt>
      <trkpt lat="47.2434" lon="-2.27233">
        <ele>10.60000038147</ele>
        <time>2020-02-06T10:13:54.000Z</time>
      </trkpt>
      <trkpt lat="47.24343" lon="-2.27228">
        <ele>10.60000038147</ele>
        <time>2020-02-06T10:13:55.000Z</time>
      </trkpt>
      <trkpt lat="47.24346" lon="-2.27222">
        <ele>10.60000038147</ele>
        <time>2020-02-06T10:13:57.000Z</time>
      </trkpt>
      <trkpt lat="47.24356" lon="-2.27212">
        <ele>10.60000038147</ele>
        <time>2020-02-06T10:14:01.000Z</time>
      </trkpt>
      <trkpt lat="47.24361" lon="-2.27201">
        <ele>10.60000038147</ele>
        <time>2020-02-06T10:14:03.000Z</time>
      </trkpt>
      <trkpt lat="47.24366" lon="-2.27195">
        <ele>10.60000038147</ele>
        <time>2020-02-06T10:14:05.000Z</time>
      </trkpt>
      <trkpt lat="47.2438" lon="-2.27173">
        <ele>10.60000038147</ele>
        <time>2020-02-06T10:14:10.000Z</time>
      </trkpt>
      <trkpt lat="47.24393" lon="-2.27157">
        <ele>10.60000038147</ele>
        <time>2020-02-06T10:14:14.000Z</time>
      </trkpt>
      <trkpt lat="47.24401" lon="-2.27149">
        <ele>10.60000038147</ele>
        <time>2020-02-06T10:14:16.000Z</time>
      </trkpt>
      <trkpt lat="47.24406" lon="-2.2715">
        <ele>10.60000038147</ele>
        <time>2020-02-06T10:14:17.000Z</time>
      </trkpt>
      <trkpt lat="47.24411" lon="-2.2716">
        <ele>10.60000038147</ele>
        <time>2020-02-06T10:14:20.000Z</time>
      </trkpt>
      <trkpt lat="47.24403" lon="-2.27173">
        <ele>10.60000038147</ele>
        <time>2020-02-06T10:14:23.000Z</time>
      </trkpt>
      <trkpt lat="47.24386" lon="-2.27199">
        <ele>10.60000038147</ele>
        <time>2020-02-06T10:14:27.000Z</time>
      </trkpt>
      <trkpt lat="47.24382" lon="-2.27207">
        <ele>10.60000038147</ele>
        <time>2020-02-06T10:14:28.000Z</time>
      </trkpt>
      <trkpt lat="47.24363" lon="-2.2725">
        <ele>10.60000038147</ele>
        <time>2020-02-06T10:14:34.000Z</time>
      </trkpt>
      <trkpt lat="47.24353" lon="-2.27259">
        <ele>10.60000038147</ele>
        <time>2020-02-06T10:14:38.000Z</time>
      </trkpt>
      <trkpt lat="47.24338" lon="-2.27257">
        <ele>10.60000038147</ele>
        <time>2020-02-06T10:14:42.000Z</time>
      </trkpt>
      <trkpt lat="47.24317" lon="-2.27261">
        <ele>10.60000038147</ele>
        <time>2020-02-06T10:14:46.000Z</time>
      </trkpt>
      <trkpt lat="47.24308" lon="-2.27253">
        <ele>10.60000038147</ele>
        <time>2020-02-06T10:14:48.000Z</time>
      </trkpt>
      <trkpt lat="47.24304" lon="-2.27248">
        <ele>10.60000038147</ele>
        <time>2020-02-06T10:14:49.000Z</time>
      </trkpt>
      <trkpt lat="47.24296" lon="-2.27229">
        <ele>10.60000038147</ele>
        <time>2020-02-06T10:14:52.000Z</time>
      </trkpt>
      <trkpt lat="47.24293" lon="-2.27222">
        <ele>10.60000038147</ele>
        <time>2020-02-06T10:14:53.000Z</time>
      </trkpt>
      <trkpt lat="47.24292" lon="-2.27215">
        <ele>10.60000038147</ele>
        <time>2020-02-06T10:14:54.000Z</time>
      </trkpt>
      <trkpt lat="47.24294" lon="-2.272">
        <ele>10.60000038147</ele>
        <time>2020-02-06T10:14:56.000Z</time>
      </trkpt>
      <trkpt lat="47.24302" lon="-2.27186">
        <ele>10.60000038147</ele>
        <time>2020-02-06T10:14:59.000Z</time>
      </trkpt>
      <trkpt lat="47.24308" lon="-2.27173">
        <ele>10.60000038147</ele>
        <time>2020-02-06T10:15:03.000Z</time>
      </trkpt>
      <trkpt lat="47.24305" lon="-2.27158">
        <ele>10.60000038147</ele>
        <time>2020-02-06T10:15:06.000Z</time>
      </trkpt>
      <trkpt lat="47.24304" lon="-2.27153">
        <ele>10.60000038147</ele>
        <time>2020-02-06T10:15:07.000Z</time>
      </trkpt>
      <trkpt lat="47.24304" lon="-2.27146">
        <ele>11</ele>
        <time>2020-02-06T10:15:08.000Z</time>
      </trkpt>
      <trkpt lat="47.24304" lon="-2.27139">
        <ele>11.39999961853</ele>
        <time>2020-02-06T10:15:09.000Z</time>
      </trkpt>
      <trkpt lat="47.24303" lon="-2.27131">
        <ele>11.800000190735</ele>
        <time>2020-02-06T10:15:10.000Z</time>
      </trkpt>
      <trkpt lat="47.24303" lon="-2.27124">
        <ele>12.199999809265</ele>
        <time>2020-02-06T10:15:11.000Z</time>
      </trkpt>
      <trkpt lat="47.24304" lon="-2.27117">
        <ele>12.800000190735</ele>
        <time>2020-02-06T10:15:12.000Z</time>
      </trkpt>
      <trkpt lat="47.24306" lon="-2.27109">
        <ele>13.199999809265</ele>
        <time>2020-02-06T10:15:13.000Z</time>
      </trkpt>
      <trkpt lat="47.24309" lon="-2.27103">
        <ele>13.800000190735</ele>
        <time>2020-02-06T10:15:14.000Z</time>
      </trkpt>
      <trkpt lat="47.24312" lon="-2.27096">
        <ele>14.199999809265</ele>
        <time>2020-02-06T10:15:15.000Z</time>
      </trkpt>
      <trkpt lat="47.24316" lon="-2.2709">
        <ele>14.800000190735</ele>
        <time>2020-02-06T10:15:16.000Z</time>
      </trkpt>
      <trkpt lat="47.24325" lon="-2.27081">
        <ele>14.800000190735</ele>
        <time>2020-02-06T10:15:18.000Z</time>
      </trkpt>
      <trkpt lat="47.2433" lon="-2.27076">
        <ele>14.800000190735</ele>
        <time>2020-02-06T10:15:19.000Z</time>
      </trkpt>
      <trkpt lat="47.24336" lon="-2.27071">
        <ele>14.800000190735</ele>
        <time>2020-02-06T10:15:20.000Z</time>
      </trkpt>
      <trkpt lat="47.24348" lon="-2.27052">
        <ele>14.800000190735</ele>
        <time>2020-02-06T10:15:23.000Z</time>
      </trkpt>
      <trkpt lat="47.24358" lon="-2.27037">
        <ele>14.800000190735</ele>
        <time>2020-02-06T10:15:26.000Z</time>
      </trkpt>
      <trkpt lat="47.24361" lon="-2.27033">
        <ele>14.800000190735</ele>
        <time>2020-02-06T10:15:27.000Z</time>
      </trkpt>
      <trkpt lat="47.24376" lon="-2.27013">
        <ele>14.800000190735</ele>
        <time>2020-02-06T10:15:32.000Z</time>
      </trkpt>
      <trkpt lat="47.24387" lon="-2.27025">
        <ele>14.800000190735</ele>
        <time>2020-02-06T10:15:35.000Z</time>
      </trkpt>
      <trkpt lat="47.24393" lon="-2.27054">
        <ele>14.800000190735</ele>
        <time>2020-02-06T10:15:39.000Z</time>
      </trkpt>
      <trkpt lat="47.24392" lon="-2.27078">
        <ele>14.800000190735</ele>
        <time>2020-02-06T10:15:42.000Z</time>
      </trkpt>
      <trkpt lat="47.24395" lon="-2.27093">
        <ele>14.800000190735</ele>
        <time>2020-02-06T10:15:44.000Z</time>
      </trkpt>
      <trkpt lat="47.24401" lon="-2.27103">
        <ele>14.800000190735</ele>
        <time>2020-02-06T10:15:46.000Z</time>
      </trkpt>
      <trkpt lat="47.24402" lon="-2.27108">
        <ele>13.800000190735</ele>
        <time>2020-02-06T10:15:47.000Z</time>
      </trkpt>
      <trkpt lat="47.24401" lon="-2.27112">
        <ele>13.39999961853</ele>
        <time>2020-02-06T10:15:48.000Z</time>
      </trkpt>
      <trkpt lat="47.24399" lon="-2.27117">
        <ele>13</ele>
        <time>2020-02-06T10:15:49.000Z</time>
      </trkpt>
      <trkpt lat="47.24397" lon="-2.2712">
        <ele>12.60000038147</ele>
        <time>2020-02-06T10:15:50.000Z</time>
      </trkpt>
      <trkpt lat="47.24385" lon="-2.27127">
        <ele>12.60000038147</ele>
        <time>2020-02-06T10:15:53.000Z</time>
      </trkpt>
      <trkpt lat="47.24375" lon="-2.27131">
        <ele>12.60000038147</ele>
        <time>2020-02-06T10:15:58.000Z</time>
      </trkpt>
      <trkpt lat="47.24362" lon="-2.27138">
        <ele>12.60000038147</ele>
        <time>2020-02-06T10:16:04.000Z</time>
      </trkpt>
      <trkpt lat="47.24344" lon="-2.27154">
        <ele>12.60000038147</ele>
        <time>2020-02-06T10:16:10.000Z</time>
      </trkpt>
      <trkpt lat="47.24331" lon="-2.27156">
        <ele>12.60000038147</ele>
        <time>2020-02-06T10:16:13.000Z</time>
      </trkpt>
      <trkpt lat="47.24317" lon="-2.27163">
        <ele>12.60000038147</ele>
        <time>2020-02-06T10:16:17.000Z</time>
      </trkpt>
      <trkpt lat="47.24307" lon="-2.27173">
        <ele>12.60000038147</ele>
        <time>2020-02-06T10:16:20.000Z</time>
      </trkpt>
      <trkpt lat="47.24299" lon="-2.27181">
        <ele>12.60000038147</ele>
        <time>2020-02-06T10:16:22.000Z</time>
      </trkpt>
      <trkpt lat="47.24295" lon="-2.27186">
        <ele>12.60000038147</ele>
        <time>2020-02-06T10:16:23.000Z</time>
      </trkpt>
      <trkpt lat="47.24292" lon="-2.27198">
        <ele>12.60000038147</ele>
        <time>2020-02-06T10:16:25.000Z</time>
      </trkpt>
      <trkpt lat="47.24287" lon="-2.272">
        <ele>12.60000038147</ele>
        <time>2020-02-06T10:16:28.000Z</time>
      </trkpt>
      <trkpt lat="47.24286" lon="-2.272">
        <ele>12.60000038147</ele>
        <time>2020-02-06T10:16:29.000Z</time>
      </trkpt>
      <trkpt lat="47.24285" lon="-2.27199">
        <ele>12.60000038147</ele>
        <time>2020-02-06T10:16:30.000Z</time>
      </trkpt>
      <trkpt lat="47.24286" lon="-2.27196">
        <ele>12.60000038147</ele>
        <time>2020-02-06T10:16:32.000Z</time>
      </trkpt>
      <trkpt lat="47.24289" lon="-2.27195">
        <ele>12.60000038147</ele>
        <time>2020-02-06T10:16:35.000Z</time>
      </trkpt>
      <trkpt lat="47.24291" lon="-2.27193">
        <ele>12.60000038147</ele>
        <time>2020-02-06T10:16:36.000Z</time>
      </trkpt>
      <trkpt lat="47.24298" lon="-2.27186">
        <ele>12.60000038147</ele>
        <time>2020-02-06T10:16:40.000Z</time>
      </trkpt>
      <trkpt lat="47.24301" lon="-2.27183">
        <ele>12.60000038147</ele>
        <time>2020-02-06T10:16:41.000Z</time>
      </trkpt>
      <trkpt lat="47.24316" lon="-2.27166">
        <ele>12.60000038147</ele>
        <time>2020-02-06T10:16:46.000Z</time>
      </trkpt>
      <trkpt lat="47.24318" lon="-2.27164">
        <ele>12.60000038147</ele>
        <time>2020-02-06T10:16:47.000Z</time>
      </trkpt>
      <trkpt lat="47.24327" lon="-2.27162">
        <ele>12.60000038147</ele>
        <time>2020-02-06T10:16:50.000Z</time>
      </trkpt>
      <trkpt lat="47.2434" lon="-2.27156">
        <ele>12.60000038147</ele>
        <time>2020-02-06T10:16:53.000Z</time>
      </trkpt>
      <trkpt lat="47.24344" lon="-2.27153">
        <ele>12.60000038147</ele>
        <time>2020-02-06T10:16:54.000Z</time>
      </trkpt>
      <trkpt lat="47.24358" lon="-2.27137">
        <ele>12.60000038147</ele>
        <time>2020-02-06T10:16:58.000Z</time>
      </trkpt>
      <trkpt lat="47.24362" lon="-2.27133">
        <ele>12.60000038147</ele>
        <time>2020-02-06T10:16:59.000Z</time>
      </trkpt>
      <trkpt lat="47.24386" lon="-2.27119">
        <ele>12.60000038147</ele>
        <time>2020-02-06T10:17:05.000Z</time>
      </trkpt>
      <trkpt lat="47.24395" lon="-2.27113">
        <ele>12.60000038147</ele>
        <time>2020-02-06T10:17:07.000Z</time>
      </trkpt>
      <trkpt lat="47.24401" lon="-2.27102">
        <ele>12.60000038147</ele>
        <time>2020-02-06T10:17:09.000Z</time>
      </trkpt>
      <trkpt lat="47.24418" lon="-2.27064">
        <ele>12.60000038147</ele>
        <time>2020-02-06T10:17:15.000Z</time>
      </trkpt>
      <trkpt lat="47.24421" lon="-2.27052">
        <ele>12.60000038147</ele>
        <time>2020-02-06T10:17:17.000Z</time>
      </trkpt>
      <trkpt lat="47.24421" lon="-2.27039">
        <ele>12.60000038147</ele>
        <time>2020-02-06T10:17:19.000Z</time>
      </trkpt>
      <trkpt lat="47.24423" lon="-2.27021">
        <ele>13</ele>
        <time>2020-02-06T10:17:22.000Z</time>
      </trkpt>
      <trkpt lat="47.24425" lon="-2.27015">
        <ele>13.39999961853</ele>
        <time>2020-02-06T10:17:23.000Z</time>
      </trkpt>
      <trkpt lat="47.24427" lon="-2.27009">
        <ele>13.800000190735</ele>
        <time>2020-02-06T10:17:24.000Z</time>
      </trkpt>
      <trkpt lat="47.24429" lon="-2.27003">
        <ele>14.39999961853</ele>
        <time>2020-02-06T10:17:25.000Z</time>
      </trkpt>
      <trkpt lat="47.24432" lon="-2.26999">
        <ele>14.800000190735</ele>
        <time>2020-02-06T10:17:26.000Z</time>
      </trkpt>
      <trkpt lat="47.24438" lon="-2.26994">
        <ele>14.800000190735</ele>
        <time>2020-02-06T10:17:28.000Z</time>
      </trkpt>
      <trkpt lat="47.24453" lon="-2.26983">
        <ele>14.800000190735</ele>
        <time>2020-02-06T10:17:32.000Z</time>
      </trkpt>
      <trkpt lat="47.24457" lon="-2.2698">
        <ele>14.800000190735</ele>
        <time>2020-02-06T10:17:33.000Z</time>
      </trkpt>
      <trkpt lat="47.24466" lon="-2.26975">
        <ele>14.800000190735</ele>
        <time>2020-02-06T10:17:35.000Z</time>
      </trkpt>
      <trkpt lat="47.24478" lon="-2.2696">
        <ele>14.800000190735</ele>
        <time>2020-02-06T10:17:38.000Z</time>
      </trkpt>
      <trkpt lat="47.24484" lon="-2.26951">
        <ele>15.199999809265</ele>
        <time>2020-02-06T10:17:40.000Z</time>
      </trkpt>
      <trkpt lat="47.24486" lon="-2.26946">
        <ele>15.60000038147</ele>
        <time>2020-02-06T10:17:41.000Z</time>
      </trkpt>
      <trkpt lat="47.24488" lon="-2.26943">
        <ele>16.200000762939</ele>
        <time>2020-02-06T10:17:42.000Z</time>
      </trkpt>
      <trkpt lat="47.24491" lon="-2.2694">
        <ele>16.60000038147</ele>
        <time>2020-02-06T10:17:43.000Z</time>
      </trkpt>
      <trkpt lat="47.24494" lon="-2.26937">
        <ele>17</ele>
        <time>2020-02-06T10:17:44.000Z</time>
      </trkpt>
      <trkpt lat="47.24502" lon="-2.2693">
        <ele>17</ele>
        <time>2020-02-06T10:17:47.000Z</time>
      </trkpt>
      <trkpt lat="47.24511" lon="-2.2692">
        <ele>17</ele>
        <time>2020-02-06T10:17:50.000Z</time>
      </trkpt>
      <trkpt lat="47.24514" lon="-2.26915">
        <ele>17</ele>
        <time>2020-02-06T10:17:51.000Z</time>
      </trkpt>
      <trkpt lat="47.24525" lon="-2.26899">
        <ele>17.39999961853</ele>
        <time>2020-02-06T10:17:55.000Z</time>
      </trkpt>
      <trkpt lat="47.24528" lon="-2.26897">
        <ele>18</ele>
        <time>2020-02-06T10:17:56.000Z</time>
      </trkpt>
      <trkpt lat="47.2453" lon="-2.26894">
        <ele>18.39999961853</ele>
        <time>2020-02-06T10:17:57.000Z</time>
      </trkpt>
      <trkpt lat="47.24534" lon="-2.26889">
        <ele>18.799999237061</ele>
        <time>2020-02-06T10:17:58.000Z</time>
      </trkpt>
      <trkpt lat="47.24538" lon="-2.26885">
        <ele>19.200000762939</ele>
        <time>2020-02-06T10:17:59.000Z</time>
      </trkpt>
      <trkpt lat="47.24543" lon="-2.26883">
        <ele>19.200000762939</ele>
        <time>2020-02-06T10:18:01.000Z</time>
      </trkpt>
      <trkpt lat="47.24549" lon="-2.26892">
        <ele>19.200000762939</ele>
        <time>2020-02-06T10:18:04.000Z</time>
      </trkpt>
      <trkpt lat="47.24558" lon="-2.26915">
        <ele>19.200000762939</ele>
        <time>2020-02-06T10:18:10.000Z</time>
      </trkpt>
      <trkpt lat="47.24558" lon="-2.26941">
        <ele>19.200000762939</ele>
        <time>2020-02-06T10:18:15.000Z</time>
      </trkpt>
      <trkpt lat="47.24563" lon="-2.26962">
        <ele>19.200000762939</ele>
        <time>2020-02-06T10:18:19.000Z</time>
      </trkpt>
      <trkpt lat="47.24572" lon="-2.26987">
        <ele>19.200000762939</ele>
        <time>2020-02-06T10:18:24.000Z</time>
      </trkpt>
      <trkpt lat="47.24581" lon="-2.27016">
        <ele>19.200000762939</ele>
        <time>2020-02-06T10:18:30.000Z</time>
      </trkpt>
      <trkpt lat="47.24579" lon="-2.27017">
        <ele>19.60000038147</ele>
        <time>2020-02-06T10:18:31.000Z</time>
      </trkpt>
      <trkpt lat="47.24578" lon="-2.27014">
        <ele>20</ele>
        <time>2020-02-06T10:18:32.000Z</time>
      </trkpt>
      <trkpt lat="47.24577" lon="-2.27011">
        <ele>20.39999961853</ele>
        <time>2020-02-06T10:18:33.000Z</time>
      </trkpt>
      <trkpt lat="47.24575" lon="-2.27006">
        <ele>20.799999237061</ele>
        <time>2020-02-06T10:18:34.000Z</time>
      </trkpt>
      <trkpt lat="47.24574" lon="-2.27001">
        <ele>21.200000762939</ele>
        <time>2020-02-06T10:18:35.000Z</time>
      </trkpt>
      <trkpt lat="47.24562" lon="-2.26959">
        <ele>21.200000762939</ele>
        <time>2020-02-06T10:18:41.000Z</time>
      </trkpt>
      <trkpt lat="47.24559" lon="-2.26942">
        <ele>21.200000762939</ele>
        <time>2020-02-06T10:18:43.000Z</time>
      </trkpt>
      <trkpt lat="47.24559" lon="-2.26922">
        <ele>21.200000762939</ele>
        <time>2020-02-06T10:18:45.000Z</time>
      </trkpt>
      <trkpt lat="47.24552" lon="-2.26887">
        <ele>21.200000762939</ele>
        <time>2020-02-06T10:18:49.000Z</time>
      </trkpt>
      <trkpt lat="47.24553" lon="-2.26869">
        <ele>21.200000762939</ele>
        <time>2020-02-06T10:18:52.000Z</time>
      </trkpt>
      <trkpt lat="47.24561" lon="-2.2686">
        <ele>21.200000762939</ele>
        <time>2020-02-06T10:18:55.000Z</time>
      </trkpt>
      <trkpt lat="47.24564" lon="-2.26857">
        <ele>21.200000762939</ele>
        <time>2020-02-06T10:18:56.000Z</time>
      </trkpt>
      <trkpt lat="47.24578" lon="-2.26846">
        <ele>21.200000762939</ele>
        <time>2020-02-06T10:19:00.000Z</time>
      </trkpt>
      <trkpt lat="47.24591" lon="-2.26843">
        <ele>21.200000762939</ele>
        <time>2020-02-06T10:19:04.000Z</time>
      </trkpt>
      <trkpt lat="47.24598" lon="-2.26841">
        <ele>21.200000762939</ele>
        <time>2020-02-06T10:19:06.000Z</time>
      </trkpt>
      <trkpt lat="47.24606" lon="-2.26832">
        <ele>21.200000762939</ele>
        <time>2020-02-06T10:19:08.000Z</time>
      </trkpt>
      <trkpt lat="47.24622" lon="-2.2682">
        <ele>21.200000762939</ele>
        <time>2020-02-06T10:19:12.000Z</time>
      </trkpt>
      <trkpt lat="47.24642" lon="-2.26817">
        <ele>21.200000762939</ele>
        <time>2020-02-06T10:19:16.000Z</time>
      </trkpt>
      <trkpt lat="47.24647" lon="-2.26818">
        <ele>21.60000038147</ele>
        <time>2020-02-06T10:19:17.000Z</time>
      </trkpt>
      <trkpt lat="47.24651" lon="-2.26819">
        <ele>22</ele>
        <time>2020-02-06T10:19:18.000Z</time>
      </trkpt>
      <trkpt lat="47.24655" lon="-2.2682">
        <ele>22.39999961853</ele>
        <time>2020-02-06T10:19:19.000Z</time>
      </trkpt>
      <trkpt lat="47.24659" lon="-2.2682">
        <ele>22.799999237061</ele>
        <time>2020-02-06T10:19:20.000Z</time>
      </trkpt>
      <trkpt lat="47.24662" lon="-2.26819">
        <ele>23.200000762939</ele>
        <time>2020-02-06T10:19:21.000Z</time>
      </trkpt>
      <trkpt lat="47.24674" lon="-2.26802">
        <ele>23.200000762939</ele>
        <time>2020-02-06T10:19:26.000Z</time>
      </trkpt>
      <trkpt lat="47.24674" lon="-2.26794">
        <ele>23.200000762939</ele>
        <time>2020-02-06T10:19:29.000Z</time>
      </trkpt>
      <trkpt lat="47.24674" lon="-2.26793">
        <ele>23.200000762939</ele>
        <time>2020-02-06T10:19:30.000Z</time>
      </trkpt>
      <trkpt lat="47.24674" lon="-2.26792">
        <ele>23.200000762939</ele>
        <time>2020-02-06T10:19:32.000Z</time>
      </trkpt>
      <trkpt lat="47.24676" lon="-2.26789">
        <ele>23.200000762939</ele>
        <time>2020-02-06T10:19:45.000Z</time>
      </trkpt>
      <trkpt lat="47.24677" lon="-2.26786">
        <ele>23.200000762939</ele>
        <time>2020-02-06T10:19:47.000Z</time>
      </trkpt>
      <trkpt lat="47.24685" lon="-2.26781">
        <ele>23.200000762939</ele>
        <time>2020-02-06T10:19:50.000Z</time>
      </trkpt>
      <trkpt lat="47.24689" lon="-2.2678">
        <ele>23.200000762939</ele>
        <time>2020-02-06T10:19:51.000Z</time>
      </trkpt>
      <trkpt lat="47.24707" lon="-2.26779">
        <ele>23.200000762939</ele>
        <time>2020-02-06T10:19:56.000Z</time>
      </trkpt>
      <trkpt lat="47.24723" lon="-2.26777">
        <ele>23.200000762939</ele>
        <time>2020-02-06T10:20:00.000Z</time>
      </trkpt>
      <trkpt lat="47.24731" lon="-2.26775">
        <ele>23.200000762939</ele>
        <time>2020-02-06T10:20:02.000Z</time>
      </trkpt>
      <trkpt lat="47.24751" lon="-2.26776">
        <ele>23.799999237061</ele>
        <time>2020-02-06T10:20:07.000Z</time>
      </trkpt>
      <trkpt lat="47.24754" lon="-2.26777">
        <ele>24.200000762939</ele>
        <time>2020-02-06T10:20:08.000Z</time>
      </trkpt>
      <trkpt lat="47.24758" lon="-2.26777">
        <ele>24.60000038147</ele>
        <time>2020-02-06T10:20:09.000Z</time>
      </trkpt>
      <trkpt lat="47.24762" lon="-2.26778">
        <ele>25</ele>
        <time>2020-02-06T10:20:10.000Z</time>
      </trkpt>
      <trkpt lat="47.24765" lon="-2.26778">
        <ele>25.39999961853</ele>
        <time>2020-02-06T10:20:11.000Z</time>
      </trkpt>
      <trkpt lat="47.24773" lon="-2.26778">
        <ele>25.39999961853</ele>
        <time>2020-02-06T10:20:14.000Z</time>
      </trkpt>
      <trkpt lat="47.24786" lon="-2.26784">
        <ele>25.39999961853</ele>
        <time>2020-02-06T10:20:19.000Z</time>
      </trkpt>
      <trkpt lat="47.24798" lon="-2.26791">
        <ele>25.799999237061</ele>
        <time>2020-02-06T10:20:23.000Z</time>
      </trkpt>
      <trkpt lat="47.24802" lon="-2.26793">
        <ele>26.200000762939</ele>
        <time>2020-02-06T10:20:24.000Z</time>
      </trkpt>
      <trkpt lat="47.24805" lon="-2.26794">
        <ele>26.799999237061</ele>
        <time>2020-02-06T10:20:25.000Z</time>
      </trkpt>
      <trkpt lat="47.24809" lon="-2.26796">
        <ele>27.200000762939</ele>
        <time>2020-02-06T10:20:26.000Z</time>
      </trkpt>
      <trkpt lat="47.24812" lon="-2.26796">
        <ele>27.60000038147</ele>
        <time>2020-02-06T10:20:27.000Z</time>
      </trkpt>
      <trkpt lat="47.24821" lon="-2.268">
        <ele>27.60000038147</ele>
        <time>2020-02-06T10:20:30.000Z</time>
      </trkpt>
      <trkpt lat="47.24837" lon="-2.26804">
        <ele>27.60000038147</ele>
        <time>2020-02-06T10:20:35.000Z</time>
      </trkpt>
      <trkpt lat="47.2484" lon="-2.26802">
        <ele>27.60000038147</ele>
        <time>2020-02-06T10:20:36.000Z</time>
      </trkpt>
      <trkpt lat="47.24849" lon="-2.26799">
        <ele>27.60000038147</ele>
        <time>2020-02-06T10:20:39.000Z</time>
      </trkpt>
      <trkpt lat="47.24861" lon="-2.26805">
        <ele>27.60000038147</ele>
        <time>2020-02-06T10:20:43.000Z</time>
      </trkpt>
      <trkpt lat="47.24864" lon="-2.26808">
        <ele>27.60000038147</ele>
        <time>2020-02-06T10:20:44.000Z</time>
      </trkpt>
      <trkpt lat="47.24877" lon="-2.26811">
        <ele>27.60000038147</ele>
        <time>2020-02-06T10:20:48.000Z</time>
      </trkpt>
      <trkpt lat="47.24881" lon="-2.26812">
        <ele>28</ele>
        <time>2020-02-06T10:20:49.000Z</time>
      </trkpt>
      <trkpt lat="47.24885" lon="-2.26815">
        <ele>28.39999961853</ele>
        <time>2020-02-06T10:20:50.000Z</time>
      </trkpt>
      <trkpt lat="47.24888" lon="-2.26817">
        <ele>29</ele>
        <time>2020-02-06T10:20:51.000Z</time>
      </trkpt>
      <trkpt lat="47.24891" lon="-2.2682">
        <ele>29.39999961853</ele>
        <time>2020-02-06T10:20:52.000Z</time>
      </trkpt>
      <trkpt lat="47.24894" lon="-2.26822">
        <ele>29.799999237061</ele>
        <time>2020-02-06T10:20:53.000Z</time>
      </trkpt>
      <trkpt lat="47.24907" lon="-2.26825">
        <ele>29.799999237061</ele>
        <time>2020-02-06T10:20:57.000Z</time>
      </trkpt>
      <trkpt lat="47.24926" lon="-2.26834">
        <ele>29.799999237061</ele>
        <time>2020-02-06T10:21:03.000Z</time>
      </trkpt>
      <trkpt lat="47.24938" lon="-2.26846">
        <ele>29.799999237061</ele>
        <time>2020-02-06T10:21:08.000Z</time>
      </trkpt>
      <trkpt lat="47.24945" lon="-2.26849">
        <ele>30.200000762939</ele>
        <time>2020-02-06T10:21:10.000Z</time>
      </trkpt>
      <trkpt lat="47.24949" lon="-2.26851">
        <ele>30.60000038147</ele>
        <time>2020-02-06T10:21:11.000Z</time>
      </trkpt>
      <trkpt lat="47.24953" lon="-2.26853">
        <ele>31</ele>
        <time>2020-02-06T10:21:12.000Z</time>
      </trkpt>
      <trkpt lat="47.24957" lon="-2.26855">
        <ele>31.39999961853</ele>
        <time>2020-02-06T10:21:13.000Z</time>
      </trkpt>
      <trkpt lat="47.2496" lon="-2.26857">
        <ele>31.799999237061</ele>
        <time>2020-02-06T10:21:14.000Z</time>
      </trkpt>
      <trkpt lat="47.24971" lon="-2.2687">
        <ele>31.799999237061</ele>
        <time>2020-02-06T10:21:18.000Z</time>
      </trkpt>
      <trkpt lat="47.2499" lon="-2.26875">
        <ele>31.799999237061</ele>
        <time>2020-02-06T10:21:23.000Z</time>
      </trkpt>
      <trkpt lat="47.25015" lon="-2.26869">
        <ele>31.799999237061</ele>
        <time>2020-02-06T10:21:30.000Z</time>
      </trkpt>
      <trkpt lat="47.2504" lon="-2.26862">
        <ele>31.799999237061</ele>
        <time>2020-02-06T10:21:37.000Z</time>
      </trkpt>
      <trkpt lat="47.25045" lon="-2.26861">
        <ele>31.799999237061</ele>
        <time>2020-02-06T10:21:40.000Z</time>
      </trkpt>
      <trkpt lat="47.25048" lon="-2.26861">
        <ele>31.799999237061</ele>
        <time>2020-02-06T10:21:41.000Z</time>
      </trkpt>
      <trkpt lat="47.25061" lon="-2.26861">
        <ele>31.799999237061</ele>
        <time>2020-02-06T10:21:45.000Z</time>
      </trkpt>
      <trkpt lat="47.25068" lon="-2.26862">
        <ele>31.799999237061</ele>
        <time>2020-02-06T10:21:47.000Z</time>
      </trkpt>
      <trkpt lat="47.25076" lon="-2.26864">
        <ele>31.799999237061</ele>
        <time>2020-02-06T10:21:50.000Z</time>
      </trkpt>
      <trkpt lat="47.25087" lon="-2.26873">
        <ele>31.799999237061</ele>
        <time>2020-02-06T10:21:55.000Z</time>
      </trkpt>
      <trkpt lat="47.25091" lon="-2.26878">
        <ele>31.799999237061</ele>
        <time>2020-02-06T10:22:00.000Z</time>
      </trkpt>
      <trkpt lat="47.251" lon="-2.26889">
        <ele>31.799999237061</ele>
        <time>2020-02-06T10:22:05.000Z</time>
      </trkpt>
      <trkpt lat="47.25116" lon="-2.269">
        <ele>31.799999237061</ele>
        <time>2020-02-06T10:22:10.000Z</time>
      </trkpt>
      <trkpt lat="47.25129" lon="-2.26908">
        <ele>31.799999237061</ele>
        <time>2020-02-06T10:22:14.000Z</time>
      </trkpt>
      <trkpt lat="47.25135" lon="-2.26928">
        <ele>31.799999237061</ele>
        <time>2020-02-06T10:22:18.000Z</time>
      </trkpt>
      <trkpt lat="47.25147" lon="-2.26947">
        <ele>31.799999237061</ele>
        <time>2020-02-06T10:22:23.000Z</time>
      </trkpt>
      <trkpt lat="47.2516" lon="-2.26959">
        <ele>31.799999237061</ele>
        <time>2020-02-06T10:22:27.000Z</time>
      </trkpt>
      <trkpt lat="47.25162" lon="-2.26965">
        <ele>31.799999237061</ele>
        <time>2020-02-06T10:22:28.000Z</time>
      </trkpt>
      <trkpt lat="47.25175" lon="-2.26975">
        <ele>31.799999237061</ele>
        <time>2020-02-06T10:22:32.000Z</time>
      </trkpt>
      <trkpt lat="47.25177" lon="-2.26975">
        <ele>31.799999237061</ele>
        <time>2020-02-06T10:22:33.000Z</time>
      </trkpt>
      <trkpt lat="47.25178" lon="-2.26978">
        <ele>31.799999237061</ele>
        <time>2020-02-06T10:22:34.000Z</time>
      </trkpt>
      <trkpt lat="47.25178" lon="-2.26983">
        <ele>31.799999237061</ele>
        <time>2020-02-06T10:22:35.000Z</time>
      </trkpt>
      <trkpt lat="47.25179" lon="-2.27001">
        <ele>31.799999237061</ele>
        <time>2020-02-06T10:22:38.000Z</time>
      </trkpt>
      <trkpt lat="47.25179" lon="-2.27008">
        <ele>31.799999237061</ele>
        <time>2020-02-06T10:22:39.000Z</time>
      </trkpt>
      <trkpt lat="47.25185" lon="-2.27022">
        <ele>31.799999237061</ele>
        <time>2020-02-06T10:22:42.000Z</time>
      </trkpt>
      <trkpt lat="47.25191" lon="-2.27031">
        <ele>31.799999237061</ele>
        <time>2020-02-06T10:22:44.000Z</time>
      </trkpt>
      <trkpt lat="47.25198" lon="-2.27046">
        <ele>31.799999237061</ele>
        <time>2020-02-06T10:22:47.000Z</time>
      </trkpt>
      <trkpt lat="47.25208" lon="-2.27068">
        <ele>31.799999237061</ele>
        <time>2020-02-06T10:22:51.000Z</time>
      </trkpt>
      <trkpt lat="47.25217" lon="-2.27085">
        <ele>31.799999237061</ele>
        <time>2020-02-06T10:22:54.000Z</time>
      </trkpt>
      <trkpt lat="47.25229" lon="-2.27108">
        <ele>31.799999237061</ele>
        <time>2020-02-06T10:22:58.000Z</time>
      </trkpt>
      <trkpt lat="47.25251" lon="-2.27145">
        <ele>31.799999237061</ele>
        <time>2020-02-06T10:23:05.000Z</time>
      </trkpt>
      <trkpt lat="47.25264" lon="-2.27158">
        <ele>31.799999237061</ele>
        <time>2020-02-06T10:23:09.000Z</time>
      </trkpt>
      <trkpt lat="47.2527" lon="-2.27169">
        <ele>31.799999237061</ele>
        <time>2020-02-06T10:23:11.000Z</time>
      </trkpt>
      <trkpt lat="47.25273" lon="-2.27173">
        <ele>31.799999237061</ele>
        <time>2020-02-06T10:23:12.000Z</time>
      </trkpt>
      <trkpt lat="47.25281" lon="-2.27187">
        <ele>31.799999237061</ele>
        <time>2020-02-06T10:23:15.000Z</time>
      </trkpt>
      <trkpt lat="47.25298" lon="-2.27222">
        <ele>31.799999237061</ele>
        <time>2020-02-06T10:23:22.000Z</time>
      </trkpt>
      <trkpt lat="47.25313" lon="-2.27253">
        <ele>31.799999237061</ele>
        <time>2020-02-06T10:23:27.000Z</time>
      </trkpt>
      <trkpt lat="47.25317" lon="-2.27258">
        <ele>31.799999237061</ele>
        <time>2020-02-06T10:23:28.000Z</time>
      </trkpt>
      <trkpt lat="47.25329" lon="-2.27268">
        <ele>31.799999237061</ele>
        <time>2020-02-06T10:23:31.000Z</time>
      </trkpt>
      <trkpt lat="47.25334" lon="-2.27277">
        <ele>31.799999237061</ele>
        <time>2020-02-06T10:23:33.000Z</time>
      </trkpt>
      <trkpt lat="47.25336" lon="-2.27282">
        <ele>31.799999237061</ele>
        <time>2020-02-06T10:23:34.000Z</time>
      </trkpt>
      <trkpt lat="47.25342" lon="-2.27301">
        <ele>31.799999237061</ele>
        <time>2020-02-06T10:23:37.000Z</time>
      </trkpt>
      <trkpt lat="47.25343" lon="-2.27308">
        <ele>31.799999237061</ele>
        <time>2020-02-06T10:23:38.000Z</time>
      </trkpt>
      <trkpt lat="47.25341" lon="-2.27321">
        <ele>31.799999237061</ele>
        <time>2020-02-06T10:23:40.000Z</time>
      </trkpt>
      <trkpt lat="47.25346" lon="-2.27332">
        <ele>31.799999237061</ele>
        <time>2020-02-06T10:23:43.000Z</time>
      </trkpt>
      <trkpt lat="47.2535" lon="-2.27336">
        <ele>31.799999237061</ele>
        <time>2020-02-06T10:23:45.000Z</time>
      </trkpt>
      <trkpt lat="47.25354" lon="-2.2734">
        <ele>31.799999237061</ele>
        <time>2020-02-06T10:23:48.000Z</time>
      </trkpt>
      <trkpt lat="47.25366" lon="-2.27347">
        <ele>31.799999237061</ele>
        <time>2020-02-06T10:23:53.000Z</time>
      </trkpt>
      <trkpt lat="47.25366" lon="-2.27353">
        <ele>31.799999237061</ele>
        <time>2020-02-06T10:23:54.000Z</time>
      </trkpt>
      <trkpt lat="47.25365" lon="-2.27357">
        <ele>31.799999237061</ele>
        <time>2020-02-06T10:23:55.000Z</time>
      </trkpt>
      <trkpt lat="47.25367" lon="-2.27368">
        <ele>31.799999237061</ele>
        <time>2020-02-06T10:23:57.000Z</time>
      </trkpt>
      <trkpt lat="47.25375" lon="-2.27371">
        <ele>31.799999237061</ele>
        <time>2020-02-06T10:23:59.000Z</time>
      </trkpt>
      <trkpt lat="47.25391" lon="-2.27385">
        <ele>31.799999237061</ele>
        <time>2020-02-06T10:24:04.000Z</time>
      </trkpt>
      <trkpt lat="47.25401" lon="-2.27421">
        <ele>31.799999237061</ele>
        <time>2020-02-06T10:24:09.000Z</time>
      </trkpt>
      <trkpt lat="47.25414" lon="-2.27456">
        <ele>31.799999237061</ele>
        <time>2020-02-06T10:24:13.000Z</time>
      </trkpt>
      <trkpt lat="47.2542" lon="-2.27474">
        <ele>31.799999237061</ele>
        <time>2020-02-06T10:24:15.000Z</time>
      </trkpt>
      <trkpt lat="47.25429" lon="-2.27491">
        <ele>31.799999237061</ele>
        <time>2020-02-06T10:24:17.000Z</time>
      </trkpt>
      <trkpt lat="47.25439" lon="-2.275">
        <ele>31.799999237061</ele>
        <time>2020-02-06T10:24:19.000Z</time>
      </trkpt>
      <trkpt lat="47.25442" lon="-2.27508">
        <ele>31.799999237061</ele>
        <time>2020-02-06T10:24:22.000Z</time>
      </trkpt>
      <trkpt lat="47.25445" lon="-2.27523">
        <ele>31.799999237061</ele>
        <time>2020-02-06T10:24:27.000Z</time>
      </trkpt>
      <trkpt lat="47.25447" lon="-2.27527">
        <ele>31.799999237061</ele>
        <time>2020-02-06T10:24:28.000Z</time>
      </trkpt>
      <trkpt lat="47.25452" lon="-2.27546">
        <ele>31.799999237061</ele>
        <time>2020-02-06T10:24:33.000Z</time>
      </trkpt>
      <trkpt lat="47.25456" lon="-2.2756">
        <ele>31.799999237061</ele>
        <time>2020-02-06T10:24:38.000Z</time>
      </trkpt>
      <trkpt lat="47.25465" lon="-2.2759">
        <ele>31.799999237061</ele>
        <time>2020-02-06T10:24:44.000Z</time>
      </trkpt>
      <trkpt lat="47.2547" lon="-2.27601">
        <ele>31.799999237061</ele>
        <time>2020-02-06T10:24:48.000Z</time>
      </trkpt>
      <trkpt lat="47.25478" lon="-2.27615">
        <ele>31.799999237061</ele>
        <time>2020-02-06T10:24:53.000Z</time>
      </trkpt>
      <trkpt lat="47.25485" lon="-2.27628">
        <ele>31.799999237061</ele>
        <time>2020-02-06T10:24:57.000Z</time>
      </trkpt>
      <trkpt lat="47.25486" lon="-2.27632">
        <ele>31.799999237061</ele>
        <time>2020-02-06T10:24:58.000Z</time>
      </trkpt>
      <trkpt lat="47.25491" lon="-2.2766">
        <ele>31.799999237061</ele>
        <time>2020-02-06T10:25:04.000Z</time>
      </trkpt>
      <trkpt lat="47.25493" lon="-2.2767">
        <ele>31.799999237061</ele>
        <time>2020-02-06T10:25:08.000Z</time>
      </trkpt>
      <trkpt lat="47.25499" lon="-2.27694">
        <ele>31.799999237061</ele>
        <time>2020-02-06T10:25:14.000Z</time>
      </trkpt>
      <trkpt lat="47.25505" lon="-2.27727">
        <ele>31.799999237061</ele>
        <time>2020-02-06T10:25:22.000Z</time>
      </trkpt>
      <trkpt lat="47.25508" lon="-2.2774">
        <ele>31.799999237061</ele>
        <time>2020-02-06T10:25:28.000Z</time>
      </trkpt>
      <trkpt lat="47.2551" lon="-2.2775">
        <ele>31.799999237061</ele>
        <time>2020-02-06T10:25:34.000Z</time>
      </trkpt>
      <trkpt lat="47.2551" lon="-2.27757">
        <ele>31.799999237061</ele>
        <time>2020-02-06T10:27:40.000Z</time>
      </trkpt>
      <trkpt lat="47.25514" lon="-2.27763">
        <ele>31.799999237061</ele>
        <time>2020-02-06T10:27:43.000Z</time>
      </trkpt>
      <trkpt lat="47.25528" lon="-2.27785">
        <ele>31.799999237061</ele>
        <time>2020-02-06T10:27:49.000Z</time>
      </trkpt>
      <trkpt lat="47.25551" lon="-2.27819">
        <ele>31.799999237061</ele>
        <time>2020-02-06T10:27:57.000Z</time>
      </trkpt>
      <trkpt lat="47.25565" lon="-2.27839">
        <ele>32.599998474121</ele>
        <time>2020-02-06T10:28:02.000Z</time>
      </trkpt>
      <trkpt lat="47.25568" lon="-2.27843">
        <ele>33</ele>
        <time>2020-02-06T10:28:03.000Z</time>
      </trkpt>
      <trkpt lat="47.25571" lon="-2.27846">
        <ele>33.400001525879</ele>
        <time>2020-02-06T10:28:04.000Z</time>
      </trkpt>
      <trkpt lat="47.25574" lon="-2.2785">
        <ele>33.799999237061</ele>
        <time>2020-02-06T10:28:05.000Z</time>
      </trkpt>
      <trkpt lat="47.25596" lon="-2.27875">
        <ele>33.799999237061</ele>
        <time>2020-02-06T10:28:12.000Z</time>
      </trkpt>
      <trkpt lat="47.25616" lon="-2.27894">
        <ele>33.799999237061</ele>
        <time>2020-02-06T10:28:18.000Z</time>
      </trkpt>
      <trkpt lat="47.25639" lon="-2.27914">
        <ele>33.799999237061</ele>
        <time>2020-02-06T10:28:25.000Z</time>
      </trkpt>
      <trkpt lat="47.25654" lon="-2.27935">
        <ele>33.799999237061</ele>
        <time>2020-02-06T10:28:30.000Z</time>
      </trkpt>
      <trkpt lat="47.25656" lon="-2.2794">
        <ele>33.799999237061</ele>
        <time>2020-02-06T10:28:31.000Z</time>
      </trkpt>
      <trkpt lat="47.25666" lon="-2.27963">
        <ele>33.799999237061</ele>
        <time>2020-02-06T10:28:35.000Z</time>
      </trkpt>
      <trkpt lat="47.2567" lon="-2.27973">
        <ele>34.200000762939</ele>
        <time>2020-02-06T10:28:37.000Z</time>
      </trkpt>
      <trkpt lat="47.25673" lon="-2.27978">
        <ele>34.599998474121</ele>
        <time>2020-02-06T10:28:38.000Z</time>
      </trkpt>
      <trkpt lat="47.25676" lon="-2.27983">
        <ele>35</ele>
        <time>2020-02-06T10:28:39.000Z</time>
      </trkpt>
      <trkpt lat="47.25679" lon="-2.27987">
        <ele>35.599998474121</ele>
        <time>2020-02-06T10:28:40.000Z</time>
      </trkpt>
      <trkpt lat="47.25682" lon="-2.27991">
        <ele>36</ele>
        <time>2020-02-06T10:28:41.000Z</time>
      </trkpt>
      <trkpt lat="47.25685" lon="-2.27995">
        <ele>36</ele>
        <time>2020-02-06T10:28:42.000Z</time>
      </trkpt>
      <trkpt lat="47.25697" lon="-2.28007">
        <ele>36</ele>
        <time>2020-02-06T10:28:46.000Z</time>
      </trkpt>
      <trkpt lat="47.25717" lon="-2.28028">
        <ele>36</ele>
        <time>2020-02-06T10:28:52.000Z</time>
      </trkpt>
      <trkpt lat="47.25737" lon="-2.28048">
        <ele>36</ele>
        <time>2020-02-06T10:28:57.000Z</time>
      </trkpt>
      <trkpt lat="47.25741" lon="-2.28051">
        <ele>36</ele>
        <time>2020-02-06T10:28:58.000Z</time>
      </trkpt>
      <trkpt lat="47.25762" lon="-2.28071">
        <ele>36</ele>
        <time>2020-02-06T10:29:03.000Z</time>
      </trkpt>
      <trkpt lat="47.2577" lon="-2.28078">
        <ele>36</ele>
        <time>2020-02-06T10:29:05.000Z</time>
      </trkpt>
      <trkpt lat="47.25786" lon="-2.28093">
        <ele>36</ele>
        <time>2020-02-06T10:29:09.000Z</time>
      </trkpt>
      <trkpt lat="47.25807" lon="-2.28112">
        <ele>36</ele>
        <time>2020-02-06T10:29:14.000Z</time>
      </trkpt>
      <trkpt lat="47.25815" lon="-2.28119">
        <ele>36</ele>
        <time>2020-02-06T10:29:16.000Z</time>
      </trkpt>
      <trkpt lat="47.25823" lon="-2.28126">
        <ele>36</ele>
        <time>2020-02-06T10:29:18.000Z</time>
      </trkpt>
      <trkpt lat="47.25834" lon="-2.28136">
        <ele>36</ele>
        <time>2020-02-06T10:29:21.000Z</time>
      </trkpt>
      <trkpt lat="47.25853" lon="-2.28154">
        <ele>36.400001525879</ele>
        <time>2020-02-06T10:29:26.000Z</time>
      </trkpt>
      <trkpt lat="47.25856" lon="-2.28159">
        <ele>36.799999237061</ele>
        <time>2020-02-06T10:29:27.000Z</time>
      </trkpt>
      <trkpt lat="47.2586" lon="-2.28163">
        <ele>37.200000762939</ele>
        <time>2020-02-06T10:29:28.000Z</time>
      </trkpt>
      <trkpt lat="47.25863" lon="-2.28167">
        <ele>37.599998474121</ele>
        <time>2020-02-06T10:29:29.000Z</time>
      </trkpt>
      <trkpt lat="47.25867" lon="-2.28171">
        <ele>38</ele>
        <time>2020-02-06T10:29:30.000Z</time>
      </trkpt>
      <trkpt lat="47.25875" lon="-2.28178">
        <ele>38</ele>
        <time>2020-02-06T10:29:32.000Z</time>
      </trkpt>
      <trkpt lat="47.25879" lon="-2.2818">
        <ele>38</ele>
        <time>2020-02-06T10:29:33.000Z</time>
      </trkpt>
      <trkpt lat="47.25897" lon="-2.28184">
        <ele>38</ele>
        <time>2020-02-06T10:29:38.000Z</time>
      </trkpt>
      <trkpt lat="47.25908" lon="-2.28191">
        <ele>38</ele>
        <time>2020-02-06T10:29:42.000Z</time>
      </trkpt>
      <trkpt lat="47.25909" lon="-2.28195">
        <ele>38</ele>
        <time>2020-02-06T10:29:43.000Z</time>
      </trkpt>
      <trkpt lat="47.25906" lon="-2.28214">
        <ele>38</ele>
        <time>2020-02-06T10:29:48.000Z</time>
      </trkpt>
      <trkpt lat="47.25905" lon="-2.28218">
        <ele>38</ele>
        <time>2020-02-06T10:29:50.000Z</time>
      </trkpt>
      <trkpt lat="47.25907" lon="-2.28221">
        <ele>36.400001525879</ele>
        <time>2020-02-06T10:34:04.000Z</time>
      </trkpt>
      <trkpt lat="47.25909" lon="-2.28221">
        <ele>36.400001525879</ele>
        <time>2020-02-06T10:34:05.000Z</time>
      </trkpt>
      <trkpt lat="47.25913" lon="-2.2821">
        <ele>36.400001525879</ele>
        <time>2020-02-06T10:34:08.000Z</time>
      </trkpt>
      <trkpt lat="47.25914" lon="-2.28205">
        <ele>36.400001525879</ele>
        <time>2020-02-06T10:34:09.000Z</time>
      </trkpt>
      <trkpt lat="47.25916" lon="-2.28199">
        <ele>36.400001525879</ele>
        <time>2020-02-06T10:34:10.000Z</time>
      </trkpt>
      <trkpt lat="47.25922" lon="-2.28189">
        <ele>36.400001525879</ele>
        <time>2020-02-06T10:34:12.000Z</time>
      </trkpt>
      <trkpt lat="47.25928" lon="-2.28181">
        <ele>37.400001525879</ele>
        <time>2020-02-06T10:34:14.000Z</time>
      </trkpt>
      <trkpt lat="47.25932" lon="-2.28178">
        <ele>37.799999237061</ele>
        <time>2020-02-06T10:34:15.000Z</time>
      </trkpt>
      <trkpt lat="47.25935" lon="-2.28176">
        <ele>38.400001525879</ele>
        <time>2020-02-06T10:34:16.000Z</time>
      </trkpt>
      <trkpt lat="47.25938" lon="-2.28174">
        <ele>38.799999237061</ele>
        <time>2020-02-06T10:34:17.000Z</time>
      </trkpt>
      <trkpt lat="47.25947" lon="-2.28173">
        <ele>38.799999237061</ele>
        <time>2020-02-06T10:34:19.000Z</time>
      </trkpt>
      <trkpt lat="47.25955" lon="-2.28175">
        <ele>38.799999237061</ele>
        <time>2020-02-06T10:34:21.000Z</time>
      </trkpt>
      <trkpt lat="47.25968" lon="-2.28182">
        <ele>38.799999237061</ele>
        <time>2020-02-06T10:34:24.000Z</time>
      </trkpt>
      <trkpt lat="47.25978" lon="-2.2818">
        <ele>38.799999237061</ele>
        <time>2020-02-06T10:34:26.000Z</time>
      </trkpt>
      <trkpt lat="47.25982" lon="-2.28178">
        <ele>38.400001525879</ele>
        <time>2020-02-06T10:34:27.000Z</time>
      </trkpt>
      <trkpt lat="47.25987" lon="-2.28175">
        <ele>38</ele>
        <time>2020-02-06T10:34:28.000Z</time>
      </trkpt>
      <trkpt lat="47.25991" lon="-2.28172">
        <ele>37.599998474121</ele>
        <time>2020-02-06T10:34:29.000Z</time>
      </trkpt>
      <trkpt lat="47.25995" lon="-2.28168">
        <ele>37.200000762939</ele>
        <time>2020-02-06T10:34:30.000Z</time>
      </trkpt>
      <trkpt lat="47.26" lon="-2.28164">
        <ele>36.799999237061</ele>
        <time>2020-02-06T10:34:31.000Z</time>
      </trkpt>
      <trkpt lat="47.2603" lon="-2.28137">
        <ele>36.799999237061</ele>
        <time>2020-02-06T10:34:38.000Z</time>
      </trkpt>
      <trkpt lat="47.26049" lon="-2.28123">
        <ele>36.799999237061</ele>
        <time>2020-02-06T10:34:42.000Z</time>
      </trkpt>
      <trkpt lat="47.26055" lon="-2.28121">
        <ele>36.799999237061</ele>
        <time>2020-02-06T10:34:43.000Z</time>
      </trkpt>
      <trkpt lat="47.26096" lon="-2.28108">
        <ele>36.799999237061</ele>
        <time>2020-02-06T10:34:50.000Z</time>
      </trkpt>
      <trkpt lat="47.26129" lon="-2.28091">
        <ele>36.799999237061</ele>
        <time>2020-02-06T10:34:56.000Z</time>
      </trkpt>
      <trkpt lat="47.26151" lon="-2.28079">
        <ele>36.799999237061</ele>
        <time>2020-02-06T10:35:00.000Z</time>
      </trkpt>
      <trkpt lat="47.26157" lon="-2.28076">
        <ele>36.799999237061</ele>
        <time>2020-02-06T10:35:01.000Z</time>
      </trkpt>
      <trkpt lat="47.26169" lon="-2.28067">
        <ele>36.400001525879</ele>
        <time>2020-02-06T10:35:03.000Z</time>
      </trkpt>
      <trkpt lat="47.26175" lon="-2.28062">
        <ele>35.599998474121</ele>
        <time>2020-02-06T10:35:04.000Z</time>
      </trkpt>
      <trkpt lat="47.2618" lon="-2.28057">
        <ele>35.200000762939</ele>
        <time>2020-02-06T10:35:05.000Z</time>
      </trkpt>
      <trkpt lat="47.26186" lon="-2.28052">
        <ele>34.799999237061</ele>
        <time>2020-02-06T10:35:06.000Z</time>
      </trkpt>
      <trkpt lat="47.26191" lon="-2.28047">
        <ele>34.799999237061</ele>
        <time>2020-02-06T10:35:07.000Z</time>
      </trkpt>
      <trkpt lat="47.26229" lon="-2.28011">
        <ele>34.799999237061</ele>
        <time>2020-02-06T10:35:14.000Z</time>
      </trkpt>
      <trkpt lat="47.26255" lon="-2.27988">
        <ele>34.799999237061</ele>
        <time>2020-02-06T10:35:19.000Z</time>
      </trkpt>
      <trkpt lat="47.2626" lon="-2.27985">
        <ele>34.799999237061</ele>
        <time>2020-02-06T10:35:20.000Z</time>
      </trkpt>
      <trkpt lat="47.26269" lon="-2.27979">
        <ele>34.400001525879</ele>
        <time>2020-02-06T10:35:22.000Z</time>
      </trkpt>
      <trkpt lat="47.26274" lon="-2.27976">
        <ele>34</ele>
        <time>2020-02-06T10:35:23.000Z</time>
      </trkpt>
      <trkpt lat="47.26277" lon="-2.27972">
        <ele>33.599998474121</ele>
        <time>2020-02-06T10:35:24.000Z</time>
      </trkpt>
      <trkpt lat="47.2628" lon="-2.27966">
        <ele>33.200000762939</ele>
        <time>2020-02-06T10:35:25.000Z</time>
      </trkpt>
      <trkpt lat="47.2628" lon="-2.2796">
        <ele>32.799999237061</ele>
        <time>2020-02-06T10:35:26.000Z</time>
      </trkpt>
      <trkpt lat="47.26277" lon="-2.27955">
        <ele>32.799999237061</ele>
        <time>2020-02-06T10:35:27.000Z</time>
      </trkpt>
      <trkpt lat="47.26275" lon="-2.2795">
        <ele>32.799999237061</ele>
        <time>2020-02-06T10:35:28.000Z</time>
      </trkpt>
      <trkpt lat="47.26269" lon="-2.2794">
        <ele>32.799999237061</ele>
        <time>2020-02-06T10:35:30.000Z</time>
      </trkpt>
      <trkpt lat="47.26264" lon="-2.2793">
        <ele>32.799999237061</ele>
        <time>2020-02-06T10:35:32.000Z</time>
      </trkpt>
      <trkpt lat="47.26261" lon="-2.27925">
        <ele>32.799999237061</ele>
        <time>2020-02-06T10:35:33.000Z</time>
      </trkpt>
      <trkpt lat="47.2624" lon="-2.27885">
        <ele>32.799999237061</ele>
        <time>2020-02-06T10:35:40.000Z</time>
      </trkpt>
      <trkpt lat="47.26222" lon="-2.2785">
        <ele>32.799999237061</ele>
        <time>2020-02-06T10:35:46.000Z</time>
      </trkpt>
      <trkpt lat="47.26197" lon="-2.278">
        <ele>33.200000762939</ele>
        <time>2020-02-06T10:35:54.000Z</time>
      </trkpt>
      <trkpt lat="47.26194" lon="-2.27794">
        <ele>33.599998474121</ele>
        <time>2020-02-06T10:35:55.000Z</time>
      </trkpt>
      <trkpt lat="47.26191" lon="-2.27788">
        <ele>34</ele>
        <time>2020-02-06T10:35:56.000Z</time>
      </trkpt>
      <trkpt lat="47.26189" lon="-2.27781">
        <ele>34.400001525879</ele>
        <time>2020-02-06T10:35:57.000Z</time>
      </trkpt>
      <trkpt lat="47.26186" lon="-2.27774">
        <ele>35</ele>
        <time>2020-02-06T10:35:58.000Z</time>
      </trkpt>
      <trkpt lat="47.2618" lon="-2.27755">
        <ele>35</ele>
        <time>2020-02-06T10:36:01.000Z</time>
      </trkpt>
      <trkpt lat="47.26163" lon="-2.27699">
        <ele>35</ele>
        <time>2020-02-06T10:36:09.000Z</time>
      </trkpt>
      <trkpt lat="47.26148" lon="-2.27639">
        <ele>35</ele>
        <time>2020-02-06T10:36:17.000Z</time>
      </trkpt>
      <trkpt lat="47.26142" lon="-2.27605">
        <ele>35</ele>
        <time>2020-02-06T10:36:22.000Z</time>
      </trkpt>
      <trkpt lat="47.2614" lon="-2.27598">
        <ele>35</ele>
        <time>2020-02-06T10:36:23.000Z</time>
      </trkpt>
      <trkpt lat="47.26137" lon="-2.27592">
        <ele>34.400001525879</ele>
        <time>2020-02-06T10:36:24.000Z</time>
      </trkpt>
      <trkpt lat="47.26132" lon="-2.27587">
        <ele>34</ele>
        <time>2020-02-06T10:36:25.000Z</time>
      </trkpt>
      <trkpt lat="47.26127" lon="-2.27586">
        <ele>33.599998474121</ele>
        <time>2020-02-06T10:36:26.000Z</time>
      </trkpt>
      <trkpt lat="47.26122" lon="-2.27586">
        <ele>33.200000762939</ele>
        <time>2020-02-06T10:36:27.000Z</time>
      </trkpt>
      <trkpt lat="47.26116" lon="-2.27588">
        <ele>32.799999237061</ele>
        <time>2020-02-06T10:36:28.000Z</time>
      </trkpt>
      <trkpt lat="47.26111" lon="-2.27591">
        <ele>32.799999237061</ele>
        <time>2020-02-06T10:36:29.000Z</time>
      </trkpt>
      <trkpt lat="47.26106" lon="-2.27594">
        <ele>32.799999237061</ele>
        <time>2020-02-06T10:36:30.000Z</time>
      </trkpt>
      <trkpt lat="47.26079" lon="-2.27609">
        <ele>32.799999237061</ele>
        <time>2020-02-06T10:36:35.000Z</time>
      </trkpt>
      <trkpt lat="47.26053" lon="-2.27621">
        <ele>32.799999237061</ele>
        <time>2020-02-06T10:36:40.000Z</time>
      </trkpt>
      <trkpt lat="47.26047" lon="-2.2762">
        <ele>32.799999237061</ele>
        <time>2020-02-06T10:36:41.000Z</time>
      </trkpt>
      <trkpt lat="47.26036" lon="-2.27602">
        <ele>32.799999237061</ele>
        <time>2020-02-06T10:36:44.000Z</time>
      </trkpt>
      <trkpt lat="47.26029" lon="-2.2758">
        <ele>32.799999237061</ele>
        <time>2020-02-06T10:36:47.000Z</time>
      </trkpt>
      <trkpt lat="47.26023" lon="-2.27557">
        <ele>32.799999237061</ele>
        <time>2020-02-06T10:36:50.000Z</time>
      </trkpt>
      <trkpt lat="47.26018" lon="-2.27537">
        <ele>32.799999237061</ele>
        <time>2020-02-06T10:36:53.000Z</time>
      </trkpt>
      <trkpt lat="47.26019" lon="-2.27526">
        <ele>32.799999237061</ele>
        <time>2020-02-06T10:36:55.000Z</time>
      </trkpt>
      <trkpt lat="47.26023" lon="-2.27511">
        <ele>32.799999237061</ele>
        <time>2020-02-06T10:36:59.000Z</time>
      </trkpt>
      <trkpt lat="47.26024" lon="-2.27507">
        <ele>32.799999237061</ele>
        <time>2020-02-06T10:37:00.000Z</time>
      </trkpt>
      <trkpt lat="47.26031" lon="-2.27485">
        <ele>32.799999237061</ele>
        <time>2020-02-06T10:37:04.000Z</time>
      </trkpt>
      <trkpt lat="47.26042" lon="-2.2745">
        <ele>32.799999237061</ele>
        <time>2020-02-06T10:37:10.000Z</time>
      </trkpt>
      <trkpt lat="47.26053" lon="-2.27424">
        <ele>32.799999237061</ele>
        <time>2020-02-06T10:37:14.000Z</time>
      </trkpt>
      <trkpt lat="47.2606" lon="-2.27412">
        <ele>32.799999237061</ele>
        <time>2020-02-06T10:37:16.000Z</time>
      </trkpt>
      <trkpt lat="47.26085" lon="-2.27382">
        <ele>32.799999237061</ele>
        <time>2020-02-06T10:37:21.000Z</time>
      </trkpt>
      <trkpt lat="47.26091" lon="-2.27375">
        <ele>32.799999237061</ele>
        <time>2020-02-06T10:37:22.000Z</time>
      </trkpt>
      <trkpt lat="47.26116" lon="-2.27346">
        <ele>32.799999237061</ele>
        <time>2020-02-06T10:37:26.000Z</time>
      </trkpt>
      <trkpt lat="47.26138" lon="-2.27323">
        <ele>32.799999237061</ele>
        <time>2020-02-06T10:37:30.000Z</time>
      </trkpt>
      <trkpt lat="47.26144" lon="-2.2732">
        <ele>32.799999237061</ele>
        <time>2020-02-06T10:37:31.000Z</time>
      </trkpt>
      <trkpt lat="47.2616" lon="-2.27322">
        <ele>32.799999237061</ele>
        <time>2020-02-06T10:37:34.000Z</time>
      </trkpt>
      <trkpt lat="47.26178" lon="-2.27318">
        <ele>32.799999237061</ele>
        <time>2020-02-06T10:37:37.000Z</time>
      </trkpt>
      <trkpt lat="47.26184" lon="-2.27317">
        <ele>32.799999237061</ele>
        <time>2020-02-06T10:37:38.000Z</time>
      </trkpt>
      <trkpt lat="47.26206" lon="-2.27313">
        <ele>32.799999237061</ele>
        <time>2020-02-06T10:37:42.000Z</time>
      </trkpt>
      <trkpt lat="47.26212" lon="-2.27314">
        <ele>32.799999237061</ele>
        <time>2020-02-06T10:37:43.000Z</time>
      </trkpt>
      <trkpt lat="47.26239" lon="-2.27319">
        <ele>32.799999237061</ele>
        <time>2020-02-06T10:37:48.000Z</time>
      </trkpt>
      <trkpt lat="47.26244" lon="-2.27321">
        <ele>32.799999237061</ele>
        <time>2020-02-06T10:37:49.000Z</time>
      </trkpt>
      <trkpt lat="47.2625" lon="-2.27322">
        <ele>32.799999237061</ele>
        <time>2020-02-06T10:37:50.000Z</time>
      </trkpt>
      <trkpt lat="47.26269" lon="-2.27323">
        <ele>32.799999237061</ele>
        <time>2020-02-06T10:37:53.000Z</time>
      </trkpt>
      <trkpt lat="47.26278" lon="-2.27323">
        <ele>32.799999237061</ele>
        <time>2020-02-06T10:37:55.000Z</time>
      </trkpt>
      <trkpt lat="47.26289" lon="-2.27323">
        <ele>32.400001525879</ele>
        <time>2020-02-06T10:37:57.000Z</time>
      </trkpt>
      <trkpt lat="47.26295" lon="-2.27323">
        <ele>32</ele>
        <time>2020-02-06T10:37:58.000Z</time>
      </trkpt>
      <trkpt lat="47.26301" lon="-2.27324">
        <ele>31.60000038147</ele>
        <time>2020-02-06T10:37:59.000Z</time>
      </trkpt>
      <trkpt lat="47.26306" lon="-2.27324">
        <ele>31.200000762939</ele>
        <time>2020-02-06T10:38:00.000Z</time>
      </trkpt>
      <trkpt lat="47.26312" lon="-2.27326">
        <ele>30.799999237061</ele>
        <time>2020-02-06T10:38:01.000Z</time>
      </trkpt>
      <trkpt lat="47.26322" lon="-2.27326">
        <ele>30.799999237061</ele>
        <time>2020-02-06T10:38:03.000Z</time>
      </trkpt>
      <trkpt lat="47.26362" lon="-2.2733">
        <ele>30.799999237061</ele>
        <time>2020-02-06T10:38:10.000Z</time>
      </trkpt>
      <trkpt lat="47.26392" lon="-2.27329">
        <ele>30.799999237061</ele>
        <time>2020-02-06T10:38:15.000Z</time>
      </trkpt>
      <trkpt lat="47.26403" lon="-2.27329">
        <ele>30.799999237061</ele>
        <time>2020-02-06T10:38:17.000Z</time>
      </trkpt>
      <trkpt lat="47.26408" lon="-2.2733">
        <ele>30.799999237061</ele>
        <time>2020-02-06T10:38:18.000Z</time>
      </trkpt>
      <trkpt lat="47.26418" lon="-2.27334">
        <ele>30.799999237061</ele>
        <time>2020-02-06T10:38:20.000Z</time>
      </trkpt>
      <trkpt lat="47.26426" lon="-2.2734">
        <ele>30.200000762939</ele>
        <time>2020-02-06T10:38:22.000Z</time>
      </trkpt>
      <trkpt lat="47.26428" lon="-2.27343">
        <ele>29.799999237061</ele>
        <time>2020-02-06T10:38:23.000Z</time>
      </trkpt>
      <trkpt lat="47.2643" lon="-2.27348">
        <ele>29.39999961853</ele>
        <time>2020-02-06T10:38:24.000Z</time>
      </trkpt>
      <trkpt lat="47.26432" lon="-2.27353">
        <ele>29</ele>
        <time>2020-02-06T10:38:25.000Z</time>
      </trkpt>
      <trkpt lat="47.26434" lon="-2.27358">
        <ele>28.60000038147</ele>
        <time>2020-02-06T10:38:26.000Z</time>
      </trkpt>
      <trkpt lat="47.26435" lon="-2.27363">
        <ele>28.60000038147</ele>
        <time>2020-02-06T10:38:27.000Z</time>
      </trkpt>
      <trkpt lat="47.26445" lon="-2.27391">
        <ele>28.60000038147</ele>
        <time>2020-02-06T10:38:32.000Z</time>
      </trkpt>
      <trkpt lat="47.26455" lon="-2.27419">
        <ele>28.60000038147</ele>
        <time>2020-02-06T10:38:37.000Z</time>
      </trkpt>
      <trkpt lat="47.26457" lon="-2.27425">
        <ele>28.60000038147</ele>
        <time>2020-02-06T10:38:38.000Z</time>
      </trkpt>
      <trkpt lat="47.26458" lon="-2.27431">
        <ele>28</ele>
        <time>2020-02-06T10:38:39.000Z</time>
      </trkpt>
      <trkpt lat="47.26461" lon="-2.27438">
        <ele>27.60000038147</ele>
        <time>2020-02-06T10:38:40.000Z</time>
      </trkpt>
      <trkpt lat="47.26463" lon="-2.27444">
        <ele>27.200000762939</ele>
        <time>2020-02-06T10:38:41.000Z</time>
      </trkpt>
      <trkpt lat="47.26465" lon="-2.27451">
        <ele>26.799999237061</ele>
        <time>2020-02-06T10:38:42.000Z</time>
      </trkpt>
      <trkpt lat="47.26467" lon="-2.27457">
        <ele>26.39999961853</ele>
        <time>2020-02-06T10:38:43.000Z</time>
      </trkpt>
      <trkpt lat="47.2647" lon="-2.27464">
        <ele>26.39999961853</ele>
        <time>2020-02-06T10:38:44.000Z</time>
      </trkpt>
      <trkpt lat="47.2648" lon="-2.275">
        <ele>26.39999961853</ele>
        <time>2020-02-06T10:38:49.000Z</time>
      </trkpt>
      <trkpt lat="47.26482" lon="-2.27508">
        <ele>26.39999961853</ele>
        <time>2020-02-06T10:38:50.000Z</time>
      </trkpt>
      <trkpt lat="47.26486" lon="-2.27532">
        <ele>26.39999961853</ele>
        <time>2020-02-06T10:38:53.000Z</time>
      </trkpt>
      <trkpt lat="47.26487" lon="-2.2754">
        <ele>26</ele>
        <time>2020-02-06T10:38:54.000Z</time>
      </trkpt>
      <trkpt lat="47.26488" lon="-2.27548">
        <ele>25.60000038147</ele>
        <time>2020-02-06T10:38:55.000Z</time>
      </trkpt>
      <trkpt lat="47.2649" lon="-2.27555">
        <ele>25</ele>
        <time>2020-02-06T10:38:56.000Z</time>
      </trkpt>
      <trkpt lat="47.26491" lon="-2.27561">
        <ele>24.60000038147</ele>
        <time>2020-02-06T10:38:57.000Z</time>
      </trkpt>
      <trkpt lat="47.26493" lon="-2.27566">
        <ele>24.200000762939</ele>
        <time>2020-02-06T10:38:58.000Z</time>
      </trkpt>
      <trkpt lat="47.26495" lon="-2.2757">
        <ele>24.200000762939</ele>
        <time>2020-02-06T10:38:59.000Z</time>
      </trkpt>
      <trkpt lat="47.26503" lon="-2.27573">
        <ele>23.799999237061</ele>
        <time>2020-02-06T10:39:01.000Z</time>
      </trkpt>
      <trkpt lat="47.26508" lon="-2.27572">
        <ele>23.39999961853</ele>
        <time>2020-02-06T10:39:02.000Z</time>
      </trkpt>
      <trkpt lat="47.26512" lon="-2.27571">
        <ele>23</ele>
        <time>2020-02-06T10:39:03.000Z</time>
      </trkpt>
      <trkpt lat="47.26517" lon="-2.27571">
        <ele>22.60000038147</ele>
        <time>2020-02-06T10:39:04.000Z</time>
      </trkpt>
      <trkpt lat="47.26522" lon="-2.27572">
        <ele>22.200000762939</ele>
        <time>2020-02-06T10:39:05.000Z</time>
      </trkpt>
      <trkpt lat="47.26527" lon="-2.27574">
        <ele>22.200000762939</ele>
        <time>2020-02-06T10:39:06.000Z</time>
      </trkpt>
      <trkpt lat="47.26533" lon="-2.27576">
        <ele>22.200000762939</ele>
        <time>2020-02-06T10:39:07.000Z</time>
      </trkpt>
      <trkpt lat="47.26543" lon="-2.27578">
        <ele>22.200000762939</ele>
        <time>2020-02-06T10:39:09.000Z</time>
      </trkpt>
      <trkpt lat="47.26558" lon="-2.27579">
        <ele>22.200000762939</ele>
        <time>2020-02-06T10:39:12.000Z</time>
      </trkpt>
      <trkpt lat="47.26582" lon="-2.27583">
        <ele>22.200000762939</ele>
        <time>2020-02-06T10:39:16.000Z</time>
      </trkpt>
      <trkpt lat="47.26588" lon="-2.27585">
        <ele>22.200000762939</ele>
        <time>2020-02-06T10:39:17.000Z</time>
      </trkpt>
      <trkpt lat="47.26594" lon="-2.27588">
        <ele>22.200000762939</ele>
        <time>2020-02-06T10:39:18.000Z</time>
      </trkpt>
      <trkpt lat="47.26612" lon="-2.27596">
        <ele>22.200000762939</ele>
        <time>2020-02-06T10:39:21.000Z</time>
      </trkpt>
      <trkpt lat="47.26629" lon="-2.27607">
        <ele>22.200000762939</ele>
        <time>2020-02-06T10:39:24.000Z</time>
      </trkpt>
      <trkpt lat="47.26642" lon="-2.27613">
        <ele>22.200000762939</ele>
        <time>2020-02-06T10:39:26.000Z</time>
      </trkpt>
      <trkpt lat="47.26648" lon="-2.27615">
        <ele>22.60000038147</ele>
        <time>2020-02-06T10:39:27.000Z</time>
      </trkpt>
      <trkpt lat="47.26654" lon="-2.27617">
        <ele>23</ele>
        <time>2020-02-06T10:39:28.000Z</time>
      </trkpt>
      <trkpt lat="47.2666" lon="-2.2762">
        <ele>23.39999961853</ele>
        <time>2020-02-06T10:39:29.000Z</time>
      </trkpt>
      <trkpt lat="47.26666" lon="-2.27622">
        <ele>23.799999237061</ele>
        <time>2020-02-06T10:39:30.000Z</time>
      </trkpt>
      <trkpt lat="47.26673" lon="-2.27625">
        <ele>24.200000762939</ele>
        <time>2020-02-06T10:39:31.000Z</time>
      </trkpt>
      <trkpt lat="47.2668" lon="-2.27626">
        <ele>24.200000762939</ele>
        <time>2020-02-06T10:39:32.000Z</time>
      </trkpt>
      <trkpt lat="47.26699" lon="-2.27633">
        <ele>24.200000762939</ele>
        <time>2020-02-06T10:39:35.000Z</time>
      </trkpt>
      <trkpt lat="47.26711" lon="-2.27639">
        <ele>24.200000762939</ele>
        <time>2020-02-06T10:39:37.000Z</time>
      </trkpt>
      <trkpt lat="47.26717" lon="-2.2764">
        <ele>24.200000762939</ele>
        <time>2020-02-06T10:39:38.000Z</time>
      </trkpt>
      <trkpt lat="47.26741" lon="-2.27651">
        <ele>24.200000762939</ele>
        <time>2020-02-06T10:39:42.000Z</time>
      </trkpt>
      <trkpt lat="47.26747" lon="-2.27653">
        <ele>24.200000762939</ele>
        <time>2020-02-06T10:39:43.000Z</time>
      </trkpt>
      <trkpt lat="47.2676" lon="-2.27647">
        <ele>24.200000762939</ele>
        <time>2020-02-06T10:39:46.000Z</time>
      </trkpt>
      <trkpt lat="47.26762" lon="-2.27627">
        <ele>24.200000762939</ele>
        <time>2020-02-06T10:39:49.000Z</time>
      </trkpt>
      <trkpt lat="47.2676" lon="-2.27613">
        <ele>24.200000762939</ele>
        <time>2020-02-06T10:39:51.000Z</time>
      </trkpt>
      <trkpt lat="47.26756" lon="-2.27588">
        <ele>24.200000762939</ele>
        <time>2020-02-06T10:39:54.000Z</time>
      </trkpt>
      <trkpt lat="47.26754" lon="-2.27572">
        <ele>24.200000762939</ele>
        <time>2020-02-06T10:39:56.000Z</time>
      </trkpt>
      <trkpt lat="47.26753" lon="-2.27547">
        <ele>24.200000762939</ele>
        <time>2020-02-06T10:39:59.000Z</time>
      </trkpt>
      <trkpt lat="47.26752" lon="-2.27488">
        <ele>24.200000762939</ele>
        <time>2020-02-06T10:40:06.000Z</time>
      </trkpt>
      <trkpt lat="47.26753" lon="-2.2748">
        <ele>24.60000038147</ele>
        <time>2020-02-06T10:40:07.000Z</time>
      </trkpt>
      <trkpt lat="47.26753" lon="-2.27472">
        <ele>25</ele>
        <time>2020-02-06T10:40:08.000Z</time>
      </trkpt>
      <trkpt lat="47.26753" lon="-2.27463">
        <ele>25.39999961853</ele>
        <time>2020-02-06T10:40:09.000Z</time>
      </trkpt>
      <trkpt lat="47.26753" lon="-2.27455">
        <ele>25.799999237061</ele>
        <time>2020-02-06T10:40:10.000Z</time>
      </trkpt>
      <trkpt lat="47.26753" lon="-2.27447">
        <ele>26.200000762939</ele>
        <time>2020-02-06T10:40:11.000Z</time>
      </trkpt>
      <trkpt lat="47.26751" lon="-2.27434">
        <ele>26.200000762939</ele>
        <time>2020-02-06T10:40:13.000Z</time>
      </trkpt>
      <trkpt lat="47.26751" lon="-2.27421">
        <ele>26.200000762939</ele>
        <time>2020-02-06T10:40:17.000Z</time>
      </trkpt>
      <trkpt lat="47.26752" lon="-2.27418">
        <ele>26.200000762939</ele>
        <time>2020-02-06T10:40:18.000Z</time>
      </trkpt>
      <trkpt lat="47.26758" lon="-2.27415">
        <ele>25.799999237061</ele>
        <time>2020-02-06T10:40:21.000Z</time>
      </trkpt>
      <trkpt lat="47.2676" lon="-2.27414">
        <ele>25.39999961853</ele>
        <time>2020-02-06T10:40:22.000Z</time>
      </trkpt>
      <trkpt lat="47.26762" lon="-2.27415">
        <ele>25</ele>
        <time>2020-02-06T10:40:23.000Z</time>
      </trkpt>
      <trkpt lat="47.26764" lon="-2.27415">
        <ele>24</ele>
        <time>2020-02-06T10:40:24.000Z</time>
      </trkpt>
      <trkpt lat="47.26771" lon="-2.27415">
        <ele>24</ele>
        <time>2020-02-06T10:40:27.000Z</time>
      </trkpt>
      <trkpt lat="47.26776" lon="-2.27415">
        <ele>24</ele>
        <time>2020-02-06T10:40:29.000Z</time>
      </trkpt>
      <trkpt lat="47.26787" lon="-2.27415">
        <ele>24</ele>
        <time>2020-02-06T10:40:34.000Z</time>
      </trkpt>
      <trkpt lat="47.26804" lon="-2.27412">
        <ele>24</ele>
        <time>2020-02-06T10:40:41.000Z</time>
      </trkpt>
      <trkpt lat="47.26824" lon="-2.27408">
        <ele>24</ele>
        <time>2020-02-06T10:40:46.000Z</time>
      </trkpt>
      <trkpt lat="47.26836" lon="-2.27404">
        <ele>24</ele>
        <time>2020-02-06T10:40:49.000Z</time>
      </trkpt>
      <trkpt lat="47.26841" lon="-2.27402">
        <ele>23.60000038147</ele>
        <time>2020-02-06T10:40:50.000Z</time>
      </trkpt>
      <trkpt lat="47.26846" lon="-2.27401">
        <ele>23.200000762939</ele>
        <time>2020-02-06T10:40:51.000Z</time>
      </trkpt>
      <trkpt lat="47.2685" lon="-2.274">
        <ele>22.799999237061</ele>
        <time>2020-02-06T10:40:52.000Z</time>
      </trkpt>
      <trkpt lat="47.26855" lon="-2.27398">
        <ele>22.39999961853</ele>
        <time>2020-02-06T10:40:53.000Z</time>
      </trkpt>
      <trkpt lat="47.2686" lon="-2.27396">
        <ele>22</ele>
        <time>2020-02-06T10:40:54.000Z</time>
      </trkpt>
      <trkpt lat="47.2687" lon="-2.27395">
        <ele>22</ele>
        <time>2020-02-06T10:40:56.000Z</time>
      </trkpt>
      <trkpt lat="47.26887" lon="-2.27387">
        <ele>22</ele>
        <time>2020-02-06T10:41:00.000Z</time>
      </trkpt>
      <trkpt lat="47.2689" lon="-2.27386">
        <ele>21.39999961853</ele>
        <time>2020-02-06T10:41:01.000Z</time>
      </trkpt>
      <trkpt lat="47.26894" lon="-2.27383">
        <ele>21</ele>
        <time>2020-02-06T10:41:02.000Z</time>
      </trkpt>
      <trkpt lat="47.26897" lon="-2.27382">
        <ele>20.60000038147</ele>
        <time>2020-02-06T10:41:03.000Z</time>
      </trkpt>
      <trkpt lat="47.269" lon="-2.2738">
        <ele>20</ele>
        <time>2020-02-06T10:41:04.000Z</time>
      </trkpt>
      <trkpt lat="47.26903" lon="-2.27378">
        <ele>19.60000038147</ele>
        <time>2020-02-06T10:41:05.000Z</time>
      </trkpt>
      <trkpt lat="47.26904" lon="-2.27376">
        <ele>19.60000038147</ele>
        <time>2020-02-06T10:41:06.000Z</time>
      </trkpt>
      <trkpt lat="47.2691" lon="-2.27363">
        <ele>19.60000038147</ele>
        <time>2020-02-06T10:41:11.000Z</time>
      </trkpt>
      <trkpt lat="47.26914" lon="-2.27349">
        <ele>19.60000038147</ele>
        <time>2020-02-06T10:41:15.000Z</time>
      </trkpt>
      <trkpt lat="47.26915" lon="-2.27346">
        <ele>19.60000038147</ele>
        <time>2020-02-06T10:41:16.000Z</time>
      </trkpt>
      <trkpt lat="47.26918" lon="-2.27329">
        <ele>19.60000038147</ele>
        <time>2020-02-06T10:41:23.000Z</time>
      </trkpt>
      <trkpt lat="47.26919" lon="-2.27327">
        <ele>19.200000762939</ele>
        <time>2020-02-06T10:41:24.000Z</time>
      </trkpt>
      <trkpt lat="47.26919" lon="-2.27325">
        <ele>18.799999237061</ele>
        <time>2020-02-06T10:41:25.000Z</time>
      </trkpt>
      <trkpt lat="47.26919" lon="-2.27322">
        <ele>18.39999961853</ele>
        <time>2020-02-06T10:41:26.000Z</time>
      </trkpt>
      <trkpt lat="47.2692" lon="-2.2732">
        <ele>18</ele>
        <time>2020-02-06T10:41:27.000Z</time>
      </trkpt>
      <trkpt lat="47.2692" lon="-2.27317">
        <ele>17.60000038147</ele>
        <time>2020-02-06T10:41:28.000Z</time>
      </trkpt>
      <trkpt lat="47.2692" lon="-2.27315">
        <ele>17.60000038147</ele>
        <time>2020-02-06T10:41:29.000Z</time>
      </trkpt>
      <trkpt lat="47.26921" lon="-2.27305">
        <ele>18</ele>
        <time>2020-02-06T10:41:33.000Z</time>
      </trkpt>
      <trkpt lat="47.26921" lon="-2.27301">
        <ele>18.39999961853</ele>
        <time>2020-02-06T10:41:34.000Z</time>
      </trkpt>
      <trkpt lat="47.26921" lon="-2.27297">
        <ele>19</ele>
        <time>2020-02-06T10:41:35.000Z</time>
      </trkpt>
      <trkpt lat="47.2692" lon="-2.27293">
        <ele>19.39999961853</ele>
        <time>2020-02-06T10:41:36.000Z</time>
      </trkpt>
      <trkpt lat="47.26922" lon="-2.27288">
        <ele>20</ele>
        <time>2020-02-06T10:41:37.000Z</time>
      </trkpt>
      <trkpt lat="47.26926" lon="-2.2728">
        <ele>20</ele>
        <time>2020-02-06T10:41:39.000Z</time>
      </trkpt>
      <trkpt lat="47.26941" lon="-2.27271">
        <ele>20</ele>
        <time>2020-02-06T10:41:43.000Z</time>
      </trkpt>
      <trkpt lat="47.26951" lon="-2.27262">
        <ele>19.60000038147</ele>
        <time>2020-02-06T10:41:46.000Z</time>
      </trkpt>
      <trkpt lat="47.26954" lon="-2.27257">
        <ele>19.200000762939</ele>
        <time>2020-02-06T10:41:47.000Z</time>
      </trkpt>
      <trkpt lat="47.26958" lon="-2.27252">
        <ele>18.799999237061</ele>
        <time>2020-02-06T10:41:48.000Z</time>
      </trkpt>
      <trkpt lat="47.2696" lon="-2.27249">
        <ele>18.39999961853</ele>
        <time>2020-02-06T10:41:49.000Z</time>
      </trkpt>
      <trkpt lat="47.26963" lon="-2.27243">
        <ele>18</ele>
        <time>2020-02-06T10:41:50.000Z</time>
      </trkpt>
      <trkpt lat="47.26964" lon="-2.27239">
        <ele>18</ele>
        <time>2020-02-06T10:41:51.000Z</time>
      </trkpt>
      <trkpt lat="47.26968" lon="-2.27225">
        <ele>18</ele>
        <time>2020-02-06T10:41:54.000Z</time>
      </trkpt>
      <trkpt lat="47.26968" lon="-2.27222">
        <ele>18</ele>
        <time>2020-02-06T10:41:55.000Z</time>
      </trkpt>
      <trkpt lat="47.26967" lon="-2.27218">
        <ele>18</ele>
        <time>2020-02-06T10:41:56.000Z</time>
      </trkpt>
      <trkpt lat="47.26966" lon="-2.27212">
        <ele>18</ele>
        <time>2020-02-06T10:41:59.000Z</time>
      </trkpt>
      <trkpt lat="47.26971" lon="-2.27202">
        <ele>18</ele>
        <time>2020-02-06T10:42:03.000Z</time>
      </trkpt>
      <trkpt lat="47.26976" lon="-2.27187">
        <ele>18</ele>
        <time>2020-02-06T10:42:08.000Z</time>
      </trkpt>
      <trkpt lat="47.26979" lon="-2.27187">
        <ele>18</ele>
        <time>2020-02-06T10:42:10.000Z</time>
      </trkpt>
      <trkpt lat="47.26984" lon="-2.27187">
        <ele>18</ele>
        <time>2020-02-06T10:42:13.000Z</time>
      </trkpt>
      <trkpt lat="47.2699" lon="-2.27179">
        <ele>18</ele>
        <time>2020-02-06T10:42:17.000Z</time>
      </trkpt>
      <trkpt lat="47.26992" lon="-2.27176">
        <ele>18</ele>
        <time>2020-02-06T10:42:18.000Z</time>
      </trkpt>
      <trkpt lat="47.26997" lon="-2.27169">
        <ele>18</ele>
        <time>2020-02-06T10:42:21.000Z</time>
      </trkpt>
      <trkpt lat="47.26998" lon="-2.27168">
        <ele>18</ele>
        <time>2020-02-06T10:42:22.000Z</time>
      </trkpt>
      <trkpt lat="47.27011" lon="-2.27163">
        <ele>18</ele>
        <time>2020-02-06T10:42:35.000Z</time>
      </trkpt>
      <trkpt lat="47.27016" lon="-2.27159">
        <ele>17.39999961853</ele>
        <time>2020-02-06T10:42:38.000Z</time>
      </trkpt>
      <trkpt lat="47.27017" lon="-2.27158">
        <ele>17</ele>
        <time>2020-02-06T10:42:39.000Z</time>
      </trkpt>
      <trkpt lat="47.27018" lon="-2.27156">
        <ele>16.60000038147</ele>
        <time>2020-02-06T10:42:40.000Z</time>
      </trkpt>
      <trkpt lat="47.27019" lon="-2.27153">
        <ele>16</ele>
        <time>2020-02-06T10:42:41.000Z</time>
      </trkpt>
      <trkpt lat="47.27021" lon="-2.27151">
        <ele>15.60000038147</ele>
        <time>2020-02-06T10:42:42.000Z</time>
      </trkpt>
      <trkpt lat="47.27023" lon="-2.2715">
        <ele>15.60000038147</ele>
        <time>2020-02-06T10:42:43.000Z</time>
      </trkpt>
      <trkpt lat="47.27029" lon="-2.27155">
        <ele>15.60000038147</ele>
        <time>2020-02-06T10:42:47.000Z</time>
      </trkpt>
      <trkpt lat="47.27038" lon="-2.27183">
        <ele>15.60000038147</ele>
        <time>2020-02-06T10:42:53.000Z</time>
      </trkpt>
      <trkpt lat="47.27047" lon="-2.27199">
        <ele>16</ele>
        <time>2020-02-06T10:42:56.000Z</time>
      </trkpt>
      <trkpt lat="47.27051" lon="-2.27204">
        <ele>16.60000038147</ele>
        <time>2020-02-06T10:42:57.000Z</time>
      </trkpt>
      <trkpt lat="47.27055" lon="-2.27209">
        <ele>17</ele>
        <time>2020-02-06T10:42:58.000Z</time>
      </trkpt>
      <trkpt lat="47.27057" lon="-2.27215">
        <ele>17.39999961853</ele>
        <time>2020-02-06T10:42:59.000Z</time>
      </trkpt>
      <trkpt lat="47.27064" lon="-2.27222">
        <ele>17.799999237061</ele>
        <time>2020-02-06T10:43:00.000Z</time>
      </trkpt>
      <trkpt lat="47.27081" lon="-2.27246">
        <ele>18.39999961853</ele>
        <time>2020-02-06T10:43:06.000Z</time>
      </trkpt>
      <trkpt lat="47.27085" lon="-2.27251">
        <ele>18.799999237061</ele>
        <time>2020-02-06T10:43:07.000Z</time>
      </trkpt>
      <trkpt lat="47.27089" lon="-2.27257">
        <ele>19.200000762939</ele>
        <time>2020-02-06T10:43:08.000Z</time>
      </trkpt>
      <trkpt lat="47.271" lon="-2.27263">
        <ele>19.60000038147</ele>
        <time>2020-02-06T10:43:09.000Z</time>
      </trkpt>
      <trkpt lat="47.27105" lon="-2.27269">
        <ele>20</ele>
        <time>2020-02-06T10:43:10.000Z</time>
      </trkpt>
      <trkpt lat="47.27108" lon="-2.27275">
        <ele>20</ele>
        <time>2020-02-06T10:43:11.000Z</time>
      </trkpt>
      <trkpt lat="47.27115" lon="-2.27293">
        <ele>20.39999961853</ele>
        <time>2020-02-06T10:43:14.000Z</time>
      </trkpt>
      <trkpt lat="47.27116" lon="-2.27299">
        <ele>20.799999237061</ele>
        <time>2020-02-06T10:43:15.000Z</time>
      </trkpt>
      <trkpt lat="47.27118" lon="-2.27306">
        <ele>21.39999961853</ele>
        <time>2020-02-06T10:43:16.000Z</time>
      </trkpt>
      <trkpt lat="47.2712" lon="-2.27312">
        <ele>21.799999237061</ele>
        <time>2020-02-06T10:43:17.000Z</time>
      </trkpt>
      <trkpt lat="47.27121" lon="-2.27319">
        <ele>22.200000762939</ele>
        <time>2020-02-06T10:43:18.000Z</time>
      </trkpt>
      <trkpt lat="47.27126" lon="-2.27342">
        <ele>22.200000762939</ele>
        <time>2020-02-06T10:43:21.000Z</time>
      </trkpt>
      <trkpt lat="47.27129" lon="-2.27356">
        <ele>22.60000038147</ele>
        <time>2020-02-06T10:43:23.000Z</time>
      </trkpt>
      <trkpt lat="47.2713" lon="-2.27363">
        <ele>23</ele>
        <time>2020-02-06T10:43:24.000Z</time>
      </trkpt>
      <trkpt lat="47.27131" lon="-2.2737">
        <ele>23.39999961853</ele>
        <time>2020-02-06T10:43:25.000Z</time>
      </trkpt>
      <trkpt lat="47.27132" lon="-2.27378">
        <ele>23.799999237061</ele>
        <time>2020-02-06T10:43:26.000Z</time>
      </trkpt>
      <trkpt lat="47.27133" lon="-2.27386">
        <ele>24.200000762939</ele>
        <time>2020-02-06T10:43:27.000Z</time>
      </trkpt>
      <trkpt lat="47.27137" lon="-2.27412">
        <ele>24.200000762939</ele>
        <time>2020-02-06T10:43:30.000Z</time>
      </trkpt>
      <trkpt lat="47.27139" lon="-2.27429">
        <ele>24.200000762939</ele>
        <time>2020-02-06T10:43:32.000Z</time>
      </trkpt>
      <trkpt lat="47.27144" lon="-2.27484">
        <ele>24.200000762939</ele>
        <time>2020-02-06T10:43:38.000Z</time>
      </trkpt>
      <trkpt lat="47.27146" lon="-2.27544">
        <ele>24.200000762939</ele>
        <time>2020-02-06T10:43:44.000Z</time>
      </trkpt>
      <trkpt lat="47.27146" lon="-2.27563">
        <ele>24.200000762939</ele>
        <time>2020-02-06T10:43:46.000Z</time>
      </trkpt>
      <trkpt lat="47.27141" lon="-2.27582">
        <ele>24.200000762939</ele>
        <time>2020-02-06T10:43:48.000Z</time>
      </trkpt>
      <trkpt lat="47.27125" lon="-2.27608">
        <ele>24.200000762939</ele>
        <time>2020-02-06T10:43:52.000Z</time>
      </trkpt>
      <trkpt lat="47.27114" lon="-2.27615">
        <ele>24.200000762939</ele>
        <time>2020-02-06T10:43:54.000Z</time>
      </trkpt>
      <trkpt lat="47.27102" lon="-2.27622">
        <ele>24.200000762939</ele>
        <time>2020-02-06T10:43:56.000Z</time>
      </trkpt>
      <trkpt lat="47.27097" lon="-2.27626">
        <ele>24.200000762939</ele>
        <time>2020-02-06T10:43:57.000Z</time>
      </trkpt>
      <trkpt lat="47.27081" lon="-2.27639">
        <ele>24.200000762939</ele>
        <time>2020-02-06T10:44:00.000Z</time>
      </trkpt>
      <trkpt lat="47.2706" lon="-2.27658">
        <ele>24.60000038147</ele>
        <time>2020-02-06T10:44:04.000Z</time>
      </trkpt>
      <trkpt lat="47.27056" lon="-2.27662">
        <ele>25</ele>
        <time>2020-02-06T10:44:05.000Z</time>
      </trkpt>
      <trkpt lat="47.27051" lon="-2.27666">
        <ele>25.39999961853</ele>
        <time>2020-02-06T10:44:06.000Z</time>
      </trkpt>
      <trkpt lat="47.27047" lon="-2.27672">
        <ele>26</ele>
        <time>2020-02-06T10:44:07.000Z</time>
      </trkpt>
      <trkpt lat="47.27043" lon="-2.27678">
        <ele>26.39999961853</ele>
        <time>2020-02-06T10:44:08.000Z</time>
      </trkpt>
      <trkpt lat="47.27028" lon="-2.27699">
        <ele>26.39999961853</ele>
        <time>2020-02-06T10:44:12.000Z</time>
      </trkpt>
      <trkpt lat="47.27025" lon="-2.27705">
        <ele>26.39999961853</ele>
        <time>2020-02-06T10:44:13.000Z</time>
      </trkpt>
      <trkpt lat="47.27027" lon="-2.27723">
        <ele>26.39999961853</ele>
        <time>2020-02-06T10:44:16.000Z</time>
      </trkpt>
      <trkpt lat="47.27039" lon="-2.27727">
        <ele>26.39999961853</ele>
        <time>2020-02-06T10:44:19.000Z</time>
      </trkpt>
      <trkpt lat="47.27048" lon="-2.27731">
        <ele>26.39999961853</ele>
        <time>2020-02-06T10:44:21.000Z</time>
      </trkpt>
      <trkpt lat="47.27068" lon="-2.27739">
        <ele>26.39999961853</ele>
        <time>2020-02-06T10:44:25.000Z</time>
      </trkpt>
      <trkpt lat="47.2709" lon="-2.2775">
        <ele>26.39999961853</ele>
        <time>2020-02-06T10:44:30.000Z</time>
      </trkpt>
      <trkpt lat="47.27094" lon="-2.27754">
        <ele>26.39999961853</ele>
        <time>2020-02-06T10:44:31.000Z</time>
      </trkpt>
      <trkpt lat="47.271" lon="-2.27762">
        <ele>26.39999961853</ele>
        <time>2020-02-06T10:44:33.000Z</time>
      </trkpt>
      <trkpt lat="47.27102" lon="-2.27773">
        <ele>26.39999961853</ele>
        <time>2020-02-06T10:44:35.000Z</time>
      </trkpt>
      <trkpt lat="47.27103" lon="-2.27782">
        <ele>26.39999961853</ele>
        <time>2020-02-06T10:44:38.000Z</time>
      </trkpt>
      <trkpt lat="47.27104" lon="-2.27784">
        <ele>26.39999961853</ele>
        <time>2020-02-06T10:44:39.000Z</time>
      </trkpt>
      <trkpt lat="47.27113" lon="-2.27798">
        <ele>26.39999961853</ele>
        <time>2020-02-06T10:44:44.000Z</time>
      </trkpt>
      <trkpt lat="47.27115" lon="-2.27805">
        <ele>26.39999961853</ele>
        <time>2020-02-06T10:44:46.000Z</time>
      </trkpt>
      <trkpt lat="47.27112" lon="-2.27813">
        <ele>26.39999961853</ele>
        <time>2020-02-06T10:44:48.000Z</time>
      </trkpt>
      <trkpt lat="47.27111" lon="-2.27819">
        <ele>26.799999237061</ele>
        <time>2020-02-06T10:44:50.000Z</time>
      </trkpt>
      <trkpt lat="47.2711" lon="-2.27823">
        <ele>27.200000762939</ele>
        <time>2020-02-06T10:44:51.000Z</time>
      </trkpt>
      <trkpt lat="47.27109" lon="-2.27827">
        <ele>27.60000038147</ele>
        <time>2020-02-06T10:44:52.000Z</time>
      </trkpt>
      <trkpt lat="47.27108" lon="-2.27831">
        <ele>28</ele>
        <time>2020-02-06T10:44:53.000Z</time>
      </trkpt>
      <trkpt lat="47.27107" lon="-2.27835">
        <ele>28.60000038147</ele>
        <time>2020-02-06T10:44:54.000Z</time>
      </trkpt>
      <trkpt lat="47.27102" lon="-2.27855">
        <ele>28.60000038147</ele>
        <time>2020-02-06T10:44:58.000Z</time>
      </trkpt>
      <trkpt lat="47.27093" lon="-2.27882">
        <ele>29</ele>
        <time>2020-02-06T10:45:03.000Z</time>
      </trkpt>
      <trkpt lat="47.27089" lon="-2.27886">
        <ele>29.39999961853</ele>
        <time>2020-02-06T10:45:04.000Z</time>
      </trkpt>
      <trkpt lat="47.27086" lon="-2.27892">
        <ele>29.799999237061</ele>
        <time>2020-02-06T10:45:05.000Z</time>
      </trkpt>
      <trkpt lat="47.27082" lon="-2.27897">
        <ele>30.200000762939</ele>
        <time>2020-02-06T10:45:06.000Z</time>
      </trkpt>
      <trkpt lat="47.27078" lon="-2.27902">
        <ele>30.60000038147</ele>
        <time>2020-02-06T10:45:07.000Z</time>
      </trkpt>
      <trkpt lat="47.27074" lon="-2.27909">
        <ele>30.60000038147</ele>
        <time>2020-02-06T10:45:08.000Z</time>
      </trkpt>
      <trkpt lat="47.27068" lon="-2.27932">
        <ele>31</ele>
        <time>2020-02-06T10:45:11.000Z</time>
      </trkpt>
      <trkpt lat="47.27067" lon="-2.2794">
        <ele>31.39999961853</ele>
        <time>2020-02-06T10:45:12.000Z</time>
      </trkpt>
      <trkpt lat="47.27068" lon="-2.27948">
        <ele>31.799999237061</ele>
        <time>2020-02-06T10:45:13.000Z</time>
      </trkpt>
      <trkpt lat="47.27069" lon="-2.27955">
        <ele>32.200000762939</ele>
        <time>2020-02-06T10:45:14.000Z</time>
      </trkpt>
      <trkpt lat="47.27071" lon="-2.27963">
        <ele>32.599998474121</ele>
        <time>2020-02-06T10:45:15.000Z</time>
      </trkpt>
      <trkpt lat="47.27082" lon="-2.27981">
        <ele>32.599998474121</ele>
        <time>2020-02-06T10:45:18.000Z</time>
      </trkpt>
      <trkpt lat="47.27101" lon="-2.27989">
        <ele>32.599998474121</ele>
        <time>2020-02-06T10:45:21.000Z</time>
      </trkpt>
      <trkpt lat="47.27107" lon="-2.27994">
        <ele>32.599998474121</ele>
        <time>2020-02-06T10:45:22.000Z</time>
      </trkpt>
      <trkpt lat="47.27115" lon="-2.28011">
        <ele>32.599998474121</ele>
        <time>2020-02-06T10:45:24.000Z</time>
      </trkpt>
      <trkpt lat="47.2712" lon="-2.28041">
        <ele>32.599998474121</ele>
        <time>2020-02-06T10:45:27.000Z</time>
      </trkpt>
      <trkpt lat="47.27133" lon="-2.28054">
        <ele>32.599998474121</ele>
        <time>2020-02-06T10:45:30.000Z</time>
      </trkpt>
      <trkpt lat="47.27147" lon="-2.2806">
        <ele>32.599998474121</ele>
        <time>2020-02-06T10:45:33.000Z</time>
      </trkpt>
      <trkpt lat="47.27151" lon="-2.28087">
        <ele>32.200000762939</ele>
        <time>2020-02-06T10:45:36.000Z</time>
      </trkpt>
      <trkpt lat="47.27152" lon="-2.28096">
        <ele>31.799999237061</ele>
        <time>2020-02-06T10:45:37.000Z</time>
      </trkpt>
      <trkpt lat="47.27153" lon="-2.28107">
        <ele>31.39999961853</ele>
        <time>2020-02-06T10:45:38.000Z</time>
      </trkpt>
      <trkpt lat="47.27155" lon="-2.28117">
        <ele>31</ele>
        <time>2020-02-06T10:45:39.000Z</time>
      </trkpt>
      <trkpt lat="47.27157" lon="-2.28127">
        <ele>30.39999961853</ele>
        <time>2020-02-06T10:45:40.000Z</time>
      </trkpt>
      <trkpt lat="47.27159" lon="-2.28141">
        <ele>30.39999961853</ele>
        <time>2020-02-06T10:45:42.000Z</time>
      </trkpt>
      <trkpt lat="47.27152" lon="-2.2815">
        <ele>30.39999961853</ele>
        <time>2020-02-06T10:45:45.000Z</time>
      </trkpt>
      <trkpt lat="47.27143" lon="-2.28148">
        <ele>30.39999961853</ele>
        <time>2020-02-06T10:45:47.000Z</time>
      </trkpt>
      <trkpt lat="47.27138" lon="-2.28148">
        <ele>30.39999961853</ele>
        <time>2020-02-06T10:45:48.000Z</time>
      </trkpt>
      <trkpt lat="47.27126" lon="-2.28162">
        <ele>30.39999961853</ele>
        <time>2020-02-06T10:45:51.000Z</time>
      </trkpt>
      <trkpt lat="47.27124" lon="-2.28178">
        <ele>30.39999961853</ele>
        <time>2020-02-06T10:45:53.000Z</time>
      </trkpt>
      <trkpt lat="47.27123" lon="-2.28187">
        <ele>30.39999961853</ele>
        <time>2020-02-06T10:45:54.000Z</time>
      </trkpt>
      <trkpt lat="47.27117" lon="-2.28236">
        <ele>30.39999961853</ele>
        <time>2020-02-06T10:45:59.000Z</time>
      </trkpt>
      <trkpt lat="47.27121" lon="-2.28262">
        <ele>30.39999961853</ele>
        <time>2020-02-06T10:46:02.000Z</time>
      </trkpt>
      <trkpt lat="47.27126" lon="-2.28277">
        <ele>30.39999961853</ele>
        <time>2020-02-06T10:46:04.000Z</time>
      </trkpt>
      <trkpt lat="47.27134" lon="-2.28303">
        <ele>30.39999961853</ele>
        <time>2020-02-06T10:46:07.000Z</time>
      </trkpt>
      <trkpt lat="47.27141" lon="-2.28332">
        <ele>30.39999961853</ele>
        <time>2020-02-06T10:46:10.000Z</time>
      </trkpt>
      <trkpt lat="47.27143" lon="-2.28353">
        <ele>30.39999961853</ele>
        <time>2020-02-06T10:46:12.000Z</time>
      </trkpt>
      <trkpt lat="47.27149" lon="-2.28418">
        <ele>30.39999961853</ele>
        <time>2020-02-06T10:46:18.000Z</time>
      </trkpt>
      <trkpt lat="47.27159" lon="-2.28496">
        <ele>30.39999961853</ele>
        <time>2020-02-06T10:46:24.000Z</time>
      </trkpt>
      <trkpt lat="47.27171" lon="-2.28562">
        <ele>30.39999961853</ele>
        <time>2020-02-06T10:46:29.000Z</time>
      </trkpt>
      <trkpt lat="47.27173" lon="-2.28572">
        <ele>30</ele>
        <time>2020-02-06T10:46:30.000Z</time>
      </trkpt>
      <trkpt lat="47.27177" lon="-2.2858">
        <ele>29.39999961853</ele>
        <time>2020-02-06T10:46:31.000Z</time>
      </trkpt>
      <trkpt lat="47.27181" lon="-2.28586">
        <ele>29</ele>
        <time>2020-02-06T10:46:32.000Z</time>
      </trkpt>
      <trkpt lat="47.27187" lon="-2.28589">
        <ele>28.39999961853</ele>
        <time>2020-02-06T10:46:33.000Z</time>
      </trkpt>
      <trkpt lat="47.27193" lon="-2.28591">
        <ele>28</ele>
        <time>2020-02-06T10:46:34.000Z</time>
      </trkpt>
      <trkpt lat="47.27199" lon="-2.28588">
        <ele>27.39999961853</ele>
        <time>2020-02-06T10:46:35.000Z</time>
      </trkpt>
      <trkpt lat="47.27206" lon="-2.28586">
        <ele>26.799999237061</ele>
        <time>2020-02-06T10:46:36.000Z</time>
      </trkpt>
      <trkpt lat="47.27213" lon="-2.28586">
        <ele>25.799999237061</ele>
        <time>2020-02-06T10:46:37.000Z</time>
      </trkpt>
      <trkpt lat="47.27266" lon="-2.28582">
        <ele>25.799999237061</ele>
        <time>2020-02-06T10:46:44.000Z</time>
      </trkpt>
      <trkpt lat="47.27273" lon="-2.28584">
        <ele>25.799999237061</ele>
        <time>2020-02-06T10:46:45.000Z</time>
      </trkpt>
      <trkpt lat="47.27296" lon="-2.28589">
        <ele>25.799999237061</ele>
        <time>2020-02-06T10:46:48.000Z</time>
      </trkpt>
      <trkpt lat="47.27326" lon="-2.286">
        <ele>25.39999961853</ele>
        <time>2020-02-06T10:46:52.000Z</time>
      </trkpt>
      <trkpt lat="47.27333" lon="-2.28602">
        <ele>25</ele>
        <time>2020-02-06T10:46:53.000Z</time>
      </trkpt>
      <trkpt lat="47.2734" lon="-2.28605">
        <ele>24.60000038147</ele>
        <time>2020-02-06T10:46:54.000Z</time>
      </trkpt>
      <trkpt lat="47.27344" lon="-2.28608">
        <ele>24.200000762939</ele>
        <time>2020-02-06T10:46:55.000Z</time>
      </trkpt>
      <trkpt lat="47.27348" lon="-2.2861">
        <ele>23.799999237061</ele>
        <time>2020-02-06T10:46:56.000Z</time>
      </trkpt>
      <trkpt lat="47.27352" lon="-2.28615">
        <ele>23.799999237061</ele>
        <time>2020-02-06T10:46:57.000Z</time>
      </trkpt>
      <trkpt lat="47.27353" lon="-2.28625">
        <ele>23.799999237061</ele>
        <time>2020-02-06T10:46:59.000Z</time>
      </trkpt>
      <trkpt lat="47.27351" lon="-2.28632">
        <ele>23.39999961853</ele>
        <time>2020-02-06T10:47:00.000Z</time>
      </trkpt>
      <trkpt lat="47.27349" lon="-2.28638">
        <ele>23</ele>
        <time>2020-02-06T10:47:01.000Z</time>
      </trkpt>
      <trkpt lat="47.27346" lon="-2.28646">
        <ele>22.200000762939</ele>
        <time>2020-02-06T10:47:02.000Z</time>
      </trkpt>
      <trkpt lat="47.27344" lon="-2.28652">
        <ele>21.799999237061</ele>
        <time>2020-02-06T10:47:03.000Z</time>
      </trkpt>
      <trkpt lat="47.27342" lon="-2.28659">
        <ele>21.799999237061</ele>
        <time>2020-02-06T10:47:04.000Z</time>
      </trkpt>
      <trkpt lat="47.27339" lon="-2.28684">
        <ele>21.799999237061</ele>
        <time>2020-02-06T10:47:07.000Z</time>
      </trkpt>
      <trkpt lat="47.27327" lon="-2.28732">
        <ele>21.799999237061</ele>
        <time>2020-02-06T10:47:12.000Z</time>
      </trkpt>
      <trkpt lat="47.27326" lon="-2.28742">
        <ele>21.799999237061</ele>
        <time>2020-02-06T10:47:13.000Z</time>
      </trkpt>
      <trkpt lat="47.27324" lon="-2.2877">
        <ele>21.799999237061</ele>
        <time>2020-02-06T10:47:16.000Z</time>
      </trkpt>
      <trkpt lat="47.27335" lon="-2.28786">
        <ele>21.799999237061</ele>
        <time>2020-02-06T10:47:19.000Z</time>
      </trkpt>
      <trkpt lat="47.27356" lon="-2.28809">
        <ele>21.799999237061</ele>
        <time>2020-02-06T10:47:23.000Z</time>
      </trkpt>
      <trkpt lat="47.27362" lon="-2.28837">
        <ele>21.799999237061</ele>
        <time>2020-02-06T10:47:26.000Z</time>
      </trkpt>
      <trkpt lat="47.27362" lon="-2.28846">
        <ele>21.799999237061</ele>
        <time>2020-02-06T10:47:27.000Z</time>
      </trkpt>
      <trkpt lat="47.27362" lon="-2.28882">
        <ele>21.799999237061</ele>
        <time>2020-02-06T10:47:31.000Z</time>
      </trkpt>
      <trkpt lat="47.27361" lon="-2.28892">
        <ele>21.799999237061</ele>
        <time>2020-02-06T10:47:32.000Z</time>
      </trkpt>
      <trkpt lat="47.27353" lon="-2.2892">
        <ele>21.799999237061</ele>
        <time>2020-02-06T10:47:35.000Z</time>
      </trkpt>
      <trkpt lat="47.27352" lon="-2.28925">
        <ele>21.799999237061</ele>
        <time>2020-02-06T10:47:36.000Z</time>
      </trkpt>
      <trkpt lat="47.27349" lon="-2.28934">
        <ele>21.200000762939</ele>
        <time>2020-02-06T10:47:38.000Z</time>
      </trkpt>
      <trkpt lat="47.27345" lon="-2.28937">
        <ele>20.799999237061</ele>
        <time>2020-02-06T10:47:39.000Z</time>
      </trkpt>
      <trkpt lat="47.27341" lon="-2.2894">
        <ele>20.39999961853</ele>
        <time>2020-02-06T10:47:40.000Z</time>
      </trkpt>
      <trkpt lat="47.27337" lon="-2.28939">
        <ele>20</ele>
        <time>2020-02-06T10:47:41.000Z</time>
      </trkpt>
      <trkpt lat="47.27333" lon="-2.28938">
        <ele>19.60000038147</ele>
        <time>2020-02-06T10:47:42.000Z</time>
      </trkpt>
      <trkpt lat="47.27326" lon="-2.28937">
        <ele>19.60000038147</ele>
        <time>2020-02-06T10:47:44.000Z</time>
      </trkpt>
      <trkpt lat="47.27322" lon="-2.28937">
        <ele>19.60000038147</ele>
        <time>2020-02-06T10:47:45.000Z</time>
      </trkpt>
      <trkpt lat="47.27319" lon="-2.28941">
        <ele>19.60000038147</ele>
        <time>2020-02-06T10:47:47.000Z</time>
      </trkpt>
      <trkpt lat="47.27317" lon="-2.28952">
        <ele>19.60000038147</ele>
        <time>2020-02-06T10:47:52.000Z</time>
      </trkpt>
      <trkpt lat="47.27316" lon="-2.28955">
        <ele>19.60000038147</ele>
        <time>2020-02-06T10:47:53.000Z</time>
      </trkpt>
      <trkpt lat="47.27315" lon="-2.28962">
        <ele>19.60000038147</ele>
        <time>2020-02-06T10:47:56.000Z</time>
      </trkpt>
      <trkpt lat="47.27311" lon="-2.28964">
        <ele>19.60000038147</ele>
        <time>2020-02-06T10:47:57.000Z</time>
      </trkpt>
      <trkpt lat="47.27294" lon="-2.28982">
        <ele>19.60000038147</ele>
        <time>2020-02-06T10:48:02.000Z</time>
      </trkpt>
      <trkpt lat="47.2729" lon="-2.28987">
        <ele>19.60000038147</ele>
        <time>2020-02-06T10:48:03.000Z</time>
      </trkpt>
      <trkpt lat="47.27287" lon="-2.28993">
        <ele>19.60000038147</ele>
        <time>2020-02-06T10:48:04.000Z</time>
      </trkpt>
      <trkpt lat="47.27281" lon="-2.29007">
        <ele>19.60000038147</ele>
        <time>2020-02-06T10:48:06.000Z</time>
      </trkpt>
      <trkpt lat="47.27274" lon="-2.29019">
        <ele>19.60000038147</ele>
        <time>2020-02-06T10:48:08.000Z</time>
      </trkpt>
      <trkpt lat="47.27266" lon="-2.29037">
        <ele>19.60000038147</ele>
        <time>2020-02-06T10:48:11.000Z</time>
      </trkpt>
      <trkpt lat="47.27262" lon="-2.29045">
        <ele>20</ele>
        <time>2020-02-06T10:48:13.000Z</time>
      </trkpt>
      <trkpt lat="47.27259" lon="-2.29048">
        <ele>20.799999237061</ele>
        <time>2020-02-06T10:48:14.000Z</time>
      </trkpt>
      <trkpt lat="47.27255" lon="-2.29052">
        <ele>21.200000762939</ele>
        <time>2020-02-06T10:48:15.000Z</time>
      </trkpt>
      <trkpt lat="47.27251" lon="-2.29057">
        <ele>21.60000038147</ele>
        <time>2020-02-06T10:48:16.000Z</time>
      </trkpt>
      <trkpt lat="47.27239" lon="-2.29069">
        <ele>21.60000038147</ele>
        <time>2020-02-06T10:48:18.000Z</time>
      </trkpt>
      <trkpt lat="47.27233" lon="-2.29076">
        <ele>21.60000038147</ele>
        <time>2020-02-06T10:48:19.000Z</time>
      </trkpt>
      <trkpt lat="47.2722" lon="-2.29087">
        <ele>21.60000038147</ele>
        <time>2020-02-06T10:48:21.000Z</time>
      </trkpt>
      <trkpt lat="47.27207" lon="-2.29099">
        <ele>21.60000038147</ele>
        <time>2020-02-06T10:48:23.000Z</time>
      </trkpt>
      <trkpt lat="47.272" lon="-2.29107">
        <ele>21.60000038147</ele>
        <time>2020-02-06T10:48:24.000Z</time>
      </trkpt>
      <trkpt lat="47.27177" lon="-2.29136">
        <ele>21.60000038147</ele>
        <time>2020-02-06T10:48:28.000Z</time>
      </trkpt>
      <trkpt lat="47.27168" lon="-2.29147">
        <ele>21.60000038147</ele>
        <time>2020-02-06T10:48:30.000Z</time>
      </trkpt>
      <trkpt lat="47.2716" lon="-2.29159">
        <ele>21.60000038147</ele>
        <time>2020-02-06T10:48:32.000Z</time>
      </trkpt>
      <trkpt lat="47.27157" lon="-2.29175">
        <ele>21.60000038147</ele>
        <time>2020-02-06T10:48:34.000Z</time>
      </trkpt>
      <trkpt lat="47.27162" lon="-2.29206">
        <ele>21.60000038147</ele>
        <time>2020-02-06T10:48:38.000Z</time>
      </trkpt>
      <trkpt lat="47.27169" lon="-2.29221">
        <ele>21.60000038147</ele>
        <time>2020-02-06T10:48:40.000Z</time>
      </trkpt>
      <trkpt lat="47.27171" lon="-2.29229">
        <ele>21.60000038147</ele>
        <time>2020-02-06T10:48:41.000Z</time>
      </trkpt>
      <trkpt lat="47.27174" lon="-2.29244">
        <ele>21.60000038147</ele>
        <time>2020-02-06T10:48:43.000Z</time>
      </trkpt>
      <trkpt lat="47.27165" lon="-2.29268">
        <ele>21.60000038147</ele>
        <time>2020-02-06T10:48:46.000Z</time>
      </trkpt>
      <trkpt lat="47.27156" lon="-2.29291">
        <ele>21.60000038147</ele>
        <time>2020-02-06T10:48:49.000Z</time>
      </trkpt>
      <trkpt lat="47.27149" lon="-2.29304">
        <ele>21.60000038147</ele>
        <time>2020-02-06T10:48:51.000Z</time>
      </trkpt>
      <trkpt lat="47.27147" lon="-2.2931">
        <ele>21.60000038147</ele>
        <time>2020-02-06T10:48:52.000Z</time>
      </trkpt>
      <trkpt lat="47.27146" lon="-2.29319">
        <ele>21.60000038147</ele>
        <time>2020-02-06T10:48:54.000Z</time>
      </trkpt>
      <trkpt lat="47.27145" lon="-2.29324">
        <ele>22</ele>
        <time>2020-02-06T10:48:55.000Z</time>
      </trkpt>
      <trkpt lat="47.27145" lon="-2.29329">
        <ele>22.39999961853</ele>
        <time>2020-02-06T10:48:56.000Z</time>
      </trkpt>
      <trkpt lat="47.27146" lon="-2.29335">
        <ele>22.799999237061</ele>
        <time>2020-02-06T10:48:57.000Z</time>
      </trkpt>
      <trkpt lat="47.27148" lon="-2.29341">
        <ele>23.200000762939</ele>
        <time>2020-02-06T10:48:58.000Z</time>
      </trkpt>
      <trkpt lat="47.2715" lon="-2.29346">
        <ele>23.60000038147</ele>
        <time>2020-02-06T10:48:59.000Z</time>
      </trkpt>
      <trkpt lat="47.27163" lon="-2.29368">
        <ele>23.60000038147</ele>
        <time>2020-02-06T10:49:02.000Z</time>
      </trkpt>
      <trkpt lat="47.27168" lon="-2.29377">
        <ele>23.60000038147</ele>
        <time>2020-02-06T10:49:03.000Z</time>
      </trkpt>
      <trkpt lat="47.27192" lon="-2.2941">
        <ele>23.60000038147</ele>
        <time>2020-02-06T10:49:07.000Z</time>
      </trkpt>
      <trkpt lat="47.27196" lon="-2.29419">
        <ele>23.60000038147</ele>
        <time>2020-02-06T10:49:08.000Z</time>
      </trkpt>
      <trkpt lat="47.27207" lon="-2.29446">
        <ele>23.60000038147</ele>
        <time>2020-02-06T10:49:11.000Z</time>
      </trkpt>
      <trkpt lat="47.27213" lon="-2.29463">
        <ele>23.60000038147</ele>
        <time>2020-02-06T10:49:13.000Z</time>
      </trkpt>
      <trkpt lat="47.27234" lon="-2.29513">
        <ele>23.60000038147</ele>
        <time>2020-02-06T10:49:19.000Z</time>
      </trkpt>
      <trkpt lat="47.27236" lon="-2.29521">
        <ele>23.60000038147</ele>
        <time>2020-02-06T10:49:20.000Z</time>
      </trkpt>
      <trkpt lat="47.27241" lon="-2.29538">
        <ele>23.60000038147</ele>
        <time>2020-02-06T10:49:22.000Z</time>
      </trkpt>
      <trkpt lat="47.27243" lon="-2.29548">
        <ele>23.60000038147</ele>
        <time>2020-02-06T10:49:23.000Z</time>
      </trkpt>
      <trkpt lat="47.27247" lon="-2.29576">
        <ele>23.60000038147</ele>
        <time>2020-02-06T10:49:26.000Z</time>
      </trkpt>
      <trkpt lat="47.27252" lon="-2.29592">
        <ele>23.60000038147</ele>
        <time>2020-02-06T10:49:28.000Z</time>
      </trkpt>
      <trkpt lat="47.27259" lon="-2.29621">
        <ele>23.60000038147</ele>
        <time>2020-02-06T10:49:32.000Z</time>
      </trkpt>
      <trkpt lat="47.27265" lon="-2.29648">
        <ele>23.60000038147</ele>
        <time>2020-02-06T10:49:37.000Z</time>
      </trkpt>
      <trkpt lat="47.2727" lon="-2.29668">
        <ele>23.60000038147</ele>
        <time>2020-02-06T10:49:42.000Z</time>
      </trkpt>
      <trkpt lat="47.27271" lon="-2.29673">
        <ele>23.60000038147</ele>
        <time>2020-02-06T10:49:44.000Z</time>
      </trkpt>
      <trkpt lat="47.27273" lon="-2.29684">
        <ele>23.60000038147</ele>
        <time>2020-02-06T10:49:49.000Z</time>
      </trkpt>
      <trkpt lat="47.27278" lon="-2.29707">
        <ele>23.60000038147</ele>
        <time>2020-02-06T10:49:55.000Z</time>
      </trkpt>
      <trkpt lat="47.27284" lon="-2.29731">
        <ele>23.60000038147</ele>
        <time>2020-02-06T10:50:01.000Z</time>
      </trkpt>
      <trkpt lat="47.27293" lon="-2.29757">
        <ele>23.60000038147</ele>
        <time>2020-02-06T10:50:07.000Z</time>
      </trkpt>
      <trkpt lat="47.27299" lon="-2.29777">
        <ele>23.60000038147</ele>
        <time>2020-02-06T10:50:13.000Z</time>
      </trkpt>
      <trkpt lat="47.27304" lon="-2.29788">
        <ele>23.60000038147</ele>
        <time>2020-02-06T10:50:18.000Z</time>
      </trkpt>
      <trkpt lat="47.27308" lon="-2.29799">
        <ele>23.60000038147</ele>
        <time>2020-02-06T10:50:24.000Z</time>
      </trkpt>
      <trkpt lat="47.27309" lon="-2.29801">
        <ele>23.60000038147</ele>
        <time>2020-02-06T10:50:26.000Z</time>
      </trkpt>
      <trkpt lat="47.27313" lon="-2.29808">
        <ele>23.60000038147</ele>
        <time>2020-02-06T10:50:29.000Z</time>
      </trkpt>
      <trkpt lat="47.2732" lon="-2.29824">
        <ele>23.60000038147</ele>
        <time>2020-02-06T10:50:35.000Z</time>
      </trkpt>
      <trkpt lat="47.27328" lon="-2.29843">
        <ele>23.60000038147</ele>
        <time>2020-02-06T10:50:40.000Z</time>
      </trkpt>
      <trkpt lat="47.27338" lon="-2.29862">
        <ele>23.60000038147</ele>
        <time>2020-02-06T10:50:46.000Z</time>
      </trkpt>
      <trkpt lat="47.27349" lon="-2.29881">
        <ele>23.60000038147</ele>
        <time>2020-02-06T10:50:52.000Z</time>
      </trkpt>
      <trkpt lat="47.27357" lon="-2.29894">
        <ele>23.60000038147</ele>
        <time>2020-02-06T10:50:57.000Z</time>
      </trkpt>
      <trkpt lat="47.27367" lon="-2.29911">
        <ele>23.60000038147</ele>
        <time>2020-02-06T10:51:02.000Z</time>
      </trkpt>
      <trkpt lat="47.27378" lon="-2.29937">
        <ele>23.60000038147</ele>
        <time>2020-02-06T10:51:08.000Z</time>
      </trkpt>
      <trkpt lat="47.27387" lon="-2.29958">
        <ele>23.60000038147</ele>
        <time>2020-02-06T10:51:13.000Z</time>
      </trkpt>
      <trkpt lat="47.27398" lon="-2.2998">
        <ele>23.60000038147</ele>
        <time>2020-02-06T10:51:19.000Z</time>
      </trkpt>
      <trkpt lat="47.27407" lon="-2.30005">
        <ele>23.60000038147</ele>
        <time>2020-02-06T10:51:24.000Z</time>
      </trkpt>
      <trkpt lat="47.27421" lon="-2.30041">
        <ele>23.60000038147</ele>
        <time>2020-02-06T10:51:31.000Z</time>
      </trkpt>
      <trkpt lat="47.27429" lon="-2.30065">
        <ele>23.60000038147</ele>
        <time>2020-02-06T10:51:36.000Z</time>
      </trkpt>
      <trkpt lat="47.2744" lon="-2.30103">
        <ele>23.60000038147</ele>
        <time>2020-02-06T10:51:43.000Z</time>
      </trkpt>
      <trkpt lat="47.27442" lon="-2.30109">
        <ele>23.200000762939</ele>
        <time>2020-02-06T10:51:44.000Z</time>
      </trkpt>
      <trkpt lat="47.27444" lon="-2.30114">
        <ele>22.799999237061</ele>
        <time>2020-02-06T10:51:45.000Z</time>
      </trkpt>
      <trkpt lat="47.27445" lon="-2.3012">
        <ele>22.39999961853</ele>
        <time>2020-02-06T10:51:46.000Z</time>
      </trkpt>
      <trkpt lat="47.27446" lon="-2.30125">
        <ele>22</ele>
        <time>2020-02-06T10:51:47.000Z</time>
      </trkpt>
      <trkpt lat="47.27447" lon="-2.3013">
        <ele>21.60000038147</ele>
        <time>2020-02-06T10:51:48.000Z</time>
      </trkpt>
      <trkpt lat="47.27452" lon="-2.3014">
        <ele>21.60000038147</ele>
        <time>2020-02-06T10:51:50.000Z</time>
      </trkpt>
      <trkpt lat="47.27456" lon="-2.30156">
        <ele>21.60000038147</ele>
        <time>2020-02-06T10:51:54.000Z</time>
      </trkpt>
      <trkpt lat="47.2746" lon="-2.30175">
        <ele>21.60000038147</ele>
        <time>2020-02-06T10:51:59.000Z</time>
      </trkpt>
      <trkpt lat="47.27461" lon="-2.30182">
        <ele>21.200000762939</ele>
        <time>2020-02-06T10:52:01.000Z</time>
      </trkpt>
      <trkpt lat="47.2746" lon="-2.30184">
        <ele>20.799999237061</ele>
        <time>2020-02-06T10:52:02.000Z</time>
      </trkpt>
      <trkpt lat="47.2746" lon="-2.30185">
        <ele>20.39999961853</ele>
        <time>2020-02-06T10:52:03.000Z</time>
      </trkpt>
      <trkpt lat="47.2746" lon="-2.30186">
        <ele>20</ele>
        <time>2020-02-06T10:52:04.000Z</time>
      </trkpt>
      <trkpt lat="47.2746" lon="-2.30209">
        <ele>19.60000038147</ele>
        <time>2020-02-06T10:54:04.000Z</time>
      </trkpt>
      <trkpt lat="47.27463" lon="-2.30215">
        <ele>19.60000038147</ele>
        <time>2020-02-06T10:54:06.000Z</time>
      </trkpt>
      <trkpt lat="47.2747" lon="-2.30243">
        <ele>19.60000038147</ele>
        <time>2020-02-06T10:54:11.000Z</time>
      </trkpt>
      <trkpt lat="47.27472" lon="-2.30249">
        <ele>19.60000038147</ele>
        <time>2020-02-06T10:54:12.000Z</time>
      </trkpt>
      <trkpt lat="47.27479" lon="-2.30279">
        <ele>19.60000038147</ele>
        <time>2020-02-06T10:54:16.000Z</time>
      </trkpt>
      <trkpt lat="47.27486" lon="-2.30321">
        <ele>19.200000762939</ele>
        <time>2020-02-06T10:54:20.000Z</time>
      </trkpt>
      <trkpt lat="47.27488" lon="-2.30331">
        <ele>18.799999237061</ele>
        <time>2020-02-06T10:54:21.000Z</time>
      </trkpt>
      <trkpt lat="47.2749" lon="-2.30341">
        <ele>18.39999961853</ele>
        <time>2020-02-06T10:54:22.000Z</time>
      </trkpt>
      <trkpt lat="47.27492" lon="-2.30351">
        <ele>18</ele>
        <time>2020-02-06T10:54:23.000Z</time>
      </trkpt>
      <trkpt lat="47.27494" lon="-2.30362">
        <ele>17.200000762939</ele>
        <time>2020-02-06T10:54:24.000Z</time>
      </trkpt>
      <trkpt lat="47.27496" lon="-2.30373">
        <ele>16.60000038147</ele>
        <time>2020-02-06T10:54:25.000Z</time>
      </trkpt>
      <trkpt lat="47.27498" lon="-2.30384">
        <ele>16.200000762939</ele>
        <time>2020-02-06T10:54:26.000Z</time>
      </trkpt>
      <trkpt lat="47.275" lon="-2.30395">
        <ele>15.800000190735</ele>
        <time>2020-02-06T10:54:27.000Z</time>
      </trkpt>
      <trkpt lat="47.27502" lon="-2.30406">
        <ele>15.39999961853</ele>
        <time>2020-02-06T10:54:28.000Z</time>
      </trkpt>
      <trkpt lat="47.27507" lon="-2.30441">
        <ele>15.39999961853</ele>
        <time>2020-02-06T10:54:31.000Z</time>
      </trkpt>
      <trkpt lat="47.2751" lon="-2.30452">
        <ele>15</ele>
        <time>2020-02-06T10:54:32.000Z</time>
      </trkpt>
      <trkpt lat="47.27512" lon="-2.30463">
        <ele>14.60000038147</ele>
        <time>2020-02-06T10:54:33.000Z</time>
      </trkpt>
      <trkpt lat="47.27515" lon="-2.30475">
        <ele>14.199999809265</ele>
        <time>2020-02-06T10:54:34.000Z</time>
      </trkpt>
      <trkpt lat="47.27517" lon="-2.30487">
        <ele>13.800000190735</ele>
        <time>2020-02-06T10:54:35.000Z</time>
      </trkpt>
      <trkpt lat="47.2752" lon="-2.30499">
        <ele>13.39999961853</ele>
        <time>2020-02-06T10:54:36.000Z</time>
      </trkpt>
      <trkpt lat="47.27523" lon="-2.30511">
        <ele>13.39999961853</ele>
        <time>2020-02-06T10:54:37.000Z</time>
      </trkpt>
      <trkpt lat="47.27539" lon="-2.3057">
        <ele>13.39999961853</ele>
        <time>2020-02-06T10:54:43.000Z</time>
      </trkpt>
      <trkpt lat="47.27544" lon="-2.30582">
        <ele>13</ele>
        <time>2020-02-06T10:54:45.000Z</time>
      </trkpt>
      <trkpt lat="47.27545" lon="-2.30585">
        <ele>12.60000038147</ele>
        <time>2020-02-06T10:54:46.000Z</time>
      </trkpt>
      <trkpt lat="47.27544" lon="-2.30586">
        <ele>12.199999809265</ele>
        <time>2020-02-06T10:54:47.000Z</time>
      </trkpt>
      <trkpt lat="47.27543" lon="-2.30587">
        <ele>11.39999961853</ele>
        <time>2020-02-06T10:54:48.000Z</time>
      </trkpt>
      <trkpt lat="47.27543" lon="-2.3059">
        <ele>11.39999961853</ele>
        <time>2020-02-06T10:54:49.000Z</time>
      </trkpt>
      <trkpt lat="47.27547" lon="-2.30607">
        <ele>11.39999961853</ele>
        <time>2020-02-06T10:54:54.000Z</time>
      </trkpt>
      <trkpt lat="47.27548" lon="-2.30615">
        <ele>11.39999961853</ele>
        <time>2020-02-06T10:54:56.000Z</time>
      </trkpt>
      <trkpt lat="47.27552" lon="-2.30626">
        <ele>11.39999961853</ele>
        <time>2020-02-06T10:54:59.000Z</time>
      </trkpt>
      <trkpt lat="47.27559" lon="-2.30652">
        <ele>11.39999961853</ele>
        <time>2020-02-06T10:55:04.000Z</time>
      </trkpt>
      <trkpt lat="47.27566" lon="-2.3068">
        <ele>11.39999961853</ele>
        <time>2020-02-06T10:55:08.000Z</time>
      </trkpt>
      <trkpt lat="47.27569" lon="-2.30694">
        <ele>11.39999961853</ele>
        <time>2020-02-06T10:55:10.000Z</time>
      </trkpt>
      <trkpt lat="47.27573" lon="-2.30717">
        <ele>11.39999961853</ele>
        <time>2020-02-06T10:55:13.000Z</time>
      </trkpt>
      <trkpt lat="47.27574" lon="-2.30725">
        <ele>11.800000190735</ele>
        <time>2020-02-06T10:55:14.000Z</time>
      </trkpt>
      <trkpt lat="47.27577" lon="-2.30732">
        <ele>12.199999809265</ele>
        <time>2020-02-06T10:55:15.000Z</time>
      </trkpt>
      <trkpt lat="47.27579" lon="-2.3074">
        <ele>12.60000038147</ele>
        <time>2020-02-06T10:55:16.000Z</time>
      </trkpt>
      <trkpt lat="47.27582" lon="-2.30747">
        <ele>13.199999809265</ele>
        <time>2020-02-06T10:55:17.000Z</time>
      </trkpt>
      <trkpt lat="47.27585" lon="-2.30755">
        <ele>13.60000038147</ele>
        <time>2020-02-06T10:55:18.000Z</time>
      </trkpt>
      <trkpt lat="47.27593" lon="-2.30778">
        <ele>13.60000038147</ele>
        <time>2020-02-06T10:55:21.000Z</time>
      </trkpt>
      <trkpt lat="47.27604" lon="-2.308">
        <ele>13.60000038147</ele>
        <time>2020-02-06T10:55:24.000Z</time>
      </trkpt>
      <trkpt lat="47.27613" lon="-2.30821">
        <ele>13.60000038147</ele>
        <time>2020-02-06T10:55:27.000Z</time>
      </trkpt>
      <trkpt lat="47.27632" lon="-2.30869">
        <ele>13.60000038147</ele>
        <time>2020-02-06T10:55:33.000Z</time>
      </trkpt>
      <trkpt lat="47.27648" lon="-2.30905">
        <ele>13.60000038147</ele>
        <time>2020-02-06T10:55:38.000Z</time>
      </trkpt>
      <trkpt lat="47.27655" lon="-2.3092">
        <ele>13.60000038147</ele>
        <time>2020-02-06T10:55:40.000Z</time>
      </trkpt>
      <trkpt lat="47.27662" lon="-2.30936">
        <ele>13.60000038147</ele>
        <time>2020-02-06T10:55:42.000Z</time>
      </trkpt>
      <trkpt lat="47.27673" lon="-2.30964">
        <ele>13.60000038147</ele>
        <time>2020-02-06T10:55:46.000Z</time>
      </trkpt>
      <trkpt lat="47.27681" lon="-2.30987">
        <ele>13.60000038147</ele>
        <time>2020-02-06T10:55:49.000Z</time>
      </trkpt>
      <trkpt lat="47.27688" lon="-2.31003">
        <ele>13.60000038147</ele>
        <time>2020-02-06T10:55:51.000Z</time>
      </trkpt>
      <trkpt lat="47.27694" lon="-2.31018">
        <ele>13.60000038147</ele>
        <time>2020-02-06T10:55:53.000Z</time>
      </trkpt>
      <trkpt lat="47.27697" lon="-2.3103">
        <ele>13.60000038147</ele>
        <time>2020-02-06T10:55:55.000Z</time>
      </trkpt>
      <trkpt lat="47.27705" lon="-2.31053">
        <ele>13.60000038147</ele>
        <time>2020-02-06T10:56:00.000Z</time>
      </trkpt>
      <trkpt lat="47.27712" lon="-2.31067">
        <ele>13.60000038147</ele>
        <time>2020-02-06T10:56:04.000Z</time>
      </trkpt>
      <trkpt lat="47.27715" lon="-2.31076">
        <ele>13.60000038147</ele>
        <time>2020-02-06T10:56:06.000Z</time>
      </trkpt>
      <trkpt lat="47.27714" lon="-2.31085">
        <ele>13.60000038147</ele>
        <time>2020-02-06T10:56:08.000Z</time>
      </trkpt>
      <trkpt lat="47.27711" lon="-2.31106">
        <ele>13.60000038147</ele>
        <time>2020-02-06T10:56:12.000Z</time>
      </trkpt>
      <trkpt lat="47.27707" lon="-2.31127">
        <ele>13.60000038147</ele>
        <time>2020-02-06T10:56:16.000Z</time>
      </trkpt>
      <trkpt lat="47.27703" lon="-2.31144">
        <ele>13.60000038147</ele>
        <time>2020-02-06T10:56:20.000Z</time>
      </trkpt>
      <trkpt lat="47.27698" lon="-2.31172">
        <ele>13.60000038147</ele>
        <time>2020-02-06T10:56:25.000Z</time>
      </trkpt>
      <trkpt lat="47.27696" lon="-2.31186">
        <ele>13.199999809265</ele>
        <time>2020-02-06T10:56:27.000Z</time>
      </trkpt>
      <trkpt lat="47.27695" lon="-2.31194">
        <ele>12.39999961853</ele>
        <time>2020-02-06T10:56:28.000Z</time>
      </trkpt>
      <trkpt lat="47.27694" lon="-2.31201">
        <ele>12</ele>
        <time>2020-02-06T10:56:29.000Z</time>
      </trkpt>
      <trkpt lat="47.27692" lon="-2.31207">
        <ele>11.60000038147</ele>
        <time>2020-02-06T10:56:30.000Z</time>
      </trkpt>
      <trkpt lat="47.27677" lon="-2.31258">
        <ele>11.60000038147</ele>
        <time>2020-02-06T10:56:37.000Z</time>
      </trkpt>
      <trkpt lat="47.27674" lon="-2.31274">
        <ele>11.199999809265</ele>
        <time>2020-02-06T10:56:39.000Z</time>
      </trkpt>
      <trkpt lat="47.27672" lon="-2.31282">
        <ele>10.60000038147</ele>
        <time>2020-02-06T10:56:40.000Z</time>
      </trkpt>
      <trkpt lat="47.27671" lon="-2.31291">
        <ele>10.199999809265</ele>
        <time>2020-02-06T10:56:41.000Z</time>
      </trkpt>
      <trkpt lat="47.27667" lon="-2.31301">
        <ele>9.8000001907349</ele>
        <time>2020-02-06T10:56:42.000Z</time>
      </trkpt>
      <trkpt lat="47.27664" lon="-2.31311">
        <ele>9.3999996185303</ele>
        <time>2020-02-06T10:56:43.000Z</time>
      </trkpt>
      <trkpt lat="47.27658" lon="-2.31321">
        <ele>9.3999996185303</ele>
        <time>2020-02-06T10:56:44.000Z</time>
      </trkpt>
      <trkpt lat="47.27644" lon="-2.31362">
        <ele>9.3999996185303</ele>
        <time>2020-02-06T10:56:48.000Z</time>
      </trkpt>
      <trkpt lat="47.27631" lon="-2.31409">
        <ele>9.3999996185303</ele>
        <time>2020-02-06T10:56:52.000Z</time>
      </trkpt>
      <trkpt lat="47.27628" lon="-2.31422">
        <ele>9.3999996185303</ele>
        <time>2020-02-06T10:56:53.000Z</time>
      </trkpt>
      <trkpt lat="47.27621" lon="-2.31447">
        <ele>9</ele>
        <time>2020-02-06T10:56:55.000Z</time>
      </trkpt>
      <trkpt lat="47.27618" lon="-2.31459">
        <ele>8.6000003814697</ele>
        <time>2020-02-06T10:56:56.000Z</time>
      </trkpt>
      <trkpt lat="47.27614" lon="-2.31471">
        <ele>8.1999998092651</ele>
        <time>2020-02-06T10:56:57.000Z</time>
      </trkpt>
      <trkpt lat="47.2761" lon="-2.31484">
        <ele>7.8000001907349</ele>
        <time>2020-02-06T10:56:58.000Z</time>
      </trkpt>
      <trkpt lat="47.27607" lon="-2.31497">
        <ele>7.1999998092651</ele>
        <time>2020-02-06T10:56:59.000Z</time>
      </trkpt>
      <trkpt lat="47.27587" lon="-2.31565">
        <ele>7.1999998092651</ele>
        <time>2020-02-06T10:57:05.000Z</time>
      </trkpt>
      <trkpt lat="47.27567" lon="-2.3162">
        <ele>7.1999998092651</ele>
        <time>2020-02-06T10:57:10.000Z</time>
      </trkpt>
      <trkpt lat="47.27553" lon="-2.31673">
        <ele>7.1999998092651</ele>
        <time>2020-02-06T10:57:15.000Z</time>
      </trkpt>
      <trkpt lat="47.27538" lon="-2.31736">
        <ele>7.1999998092651</ele>
        <time>2020-02-06T10:57:20.000Z</time>
      </trkpt>
      <trkpt lat="47.27529" lon="-2.31778">
        <ele>6.8000001907349</ele>
        <time>2020-02-06T10:57:23.000Z</time>
      </trkpt>
      <trkpt lat="47.27525" lon="-2.31791">
        <ele>6.4000000953674</ele>
        <time>2020-02-06T10:57:24.000Z</time>
      </trkpt>
      <trkpt lat="47.27522" lon="-2.31804">
        <ele>6</ele>
        <time>2020-02-06T10:57:25.000Z</time>
      </trkpt>
      <trkpt lat="47.27518" lon="-2.31818">
        <ele>5.4000000953674</ele>
        <time>2020-02-06T10:57:26.000Z</time>
      </trkpt>
      <trkpt lat="47.27514" lon="-2.31831">
        <ele>4.5999999046326</ele>
        <time>2020-02-06T10:57:27.000Z</time>
      </trkpt>
      <trkpt lat="47.2751" lon="-2.31843">
        <ele>4</ele>
        <time>2020-02-06T10:57:28.000Z</time>
      </trkpt>
      <trkpt lat="47.27505" lon="-2.31856">
        <ele>3.4000000953674</ele>
        <time>2020-02-06T10:57:29.000Z</time>
      </trkpt>
      <trkpt lat="47.27501" lon="-2.31868">
        <ele>2.5999999046326</ele>
        <time>2020-02-06T10:57:30.000Z</time>
      </trkpt>
      <trkpt lat="47.27496" lon="-2.31881">
        <ele>2.5999999046326</ele>
        <time>2020-02-06T10:57:31.000Z</time>
      </trkpt>
      <trkpt lat="47.27468" lon="-2.3195">
        <ele>2.5999999046326</ele>
        <time>2020-02-06T10:57:37.000Z</time>
      </trkpt>
      <trkpt lat="47.27459" lon="-2.31971">
        <ele>2.2000000476837</ele>
        <time>2020-02-06T10:57:39.000Z</time>
      </trkpt>
      <trkpt lat="47.27454" lon="-2.3198">
        <ele>1.7999999523163</ele>
        <time>2020-02-06T10:57:40.000Z</time>
      </trkpt>
      <trkpt lat="47.2745" lon="-2.31991">
        <ele>1.3999999761581</ele>
        <time>2020-02-06T10:57:41.000Z</time>
      </trkpt>
      <trkpt lat="47.27446" lon="-2.32001">
        <ele>0.60000002384186</ele>
        <time>2020-02-06T10:57:42.000Z</time>
      </trkpt>
      <trkpt lat="47.27441" lon="-2.3201">
        <ele>0.60000002384186</ele>
        <time>2020-02-06T10:57:43.000Z</time>
      </trkpt>
      <trkpt lat="47.27429" lon="-2.32036">
        <ele>0.60000002384186</ele>
        <time>2020-02-06T10:57:46.000Z</time>
      </trkpt>
      <trkpt lat="47.27418" lon="-2.32044">
        <ele>0.60000002384186</ele>
        <time>2020-02-06T10:57:48.000Z</time>
      </trkpt>
      <trkpt lat="47.27402" lon="-2.32037">
        <ele>0.60000002384186</ele>
        <time>2020-02-06T10:57:51.000Z</time>
      </trkpt>
      <trkpt lat="47.27392" lon="-2.32026">
        <ele>0.60000002384186</ele>
        <time>2020-02-06T10:57:53.000Z</time>
      </trkpt>
      <trkpt lat="47.27381" lon="-2.32016">
        <ele>0.60000002384186</ele>
        <time>2020-02-06T10:57:55.000Z</time>
      </trkpt>
      <trkpt lat="47.27365" lon="-2.32003">
        <ele>0.60000002384186</ele>
        <time>2020-02-06T10:57:58.000Z</time>
      </trkpt>
      <trkpt lat="47.27351" lon="-2.31988">
        <ele>0.60000002384186</ele>
        <time>2020-02-06T10:58:01.000Z</time>
      </trkpt>
      <trkpt lat="47.27345" lon="-2.31985">
        <ele>0.60000002384186</ele>
        <time>2020-02-06T10:58:03.000Z</time>
      </trkpt>
      <trkpt lat="47.27343" lon="-2.31988">
        <ele>0.60000002384186</ele>
        <time>2020-02-06T10:58:04.000Z</time>
      </trkpt>
      <trkpt lat="47.27346" lon="-2.32">
        <ele>0.60000002384186</ele>
        <time>2020-02-06T10:58:07.000Z</time>
      </trkpt>
      <trkpt lat="47.27357" lon="-2.32015">
        <ele>0.60000002384186</ele>
        <time>2020-02-06T10:58:12.000Z</time>
      </trkpt>
      <trkpt lat="47.27368" lon="-2.32032">
        <ele>0.60000002384186</ele>
        <time>2020-02-06T10:58:16.000Z</time>
      </trkpt>
      <trkpt lat="47.27392" lon="-2.32063">
        <ele>0.60000002384186</ele>
        <time>2020-02-06T10:58:22.000Z</time>
      </trkpt>
      <trkpt lat="47.274" lon="-2.32075">
        <ele>0.60000002384186</ele>
        <time>2020-02-06T10:58:24.000Z</time>
      </trkpt>
      <trkpt lat="47.27407" lon="-2.32088">
        <ele>0.60000002384186</ele>
        <time>2020-02-06T10:58:26.000Z</time>
      </trkpt>
      <trkpt lat="47.27409" lon="-2.32095">
        <ele>0.60000002384186</ele>
        <time>2020-02-06T10:58:27.000Z</time>
      </trkpt>
      <trkpt lat="47.27408" lon="-2.32123">
        <ele>0.60000002384186</ele>
        <time>2020-02-06T10:58:31.000Z</time>
      </trkpt>
      <trkpt lat="47.27406" lon="-2.32141">
        <ele>0.60000002384186</ele>
        <time>2020-02-06T10:58:33.000Z</time>
      </trkpt>
      <trkpt lat="47.27402" lon="-2.32168">
        <ele>0.60000002384186</ele>
        <time>2020-02-06T10:58:36.000Z</time>
      </trkpt>
      <trkpt lat="47.27395" lon="-2.32226">
        <ele>0.60000002384186</ele>
        <time>2020-02-06T10:58:42.000Z</time>
      </trkpt>
      <trkpt lat="47.27391" lon="-2.32245">
        <ele>0.60000002384186</ele>
        <time>2020-02-06T10:58:44.000Z</time>
      </trkpt>
      <trkpt lat="47.27383" lon="-2.32274">
        <ele>0.60000002384186</ele>
        <time>2020-02-06T10:58:47.000Z</time>
      </trkpt>
      <trkpt lat="47.27375" lon="-2.32306">
        <ele>1</ele>
        <time>2020-02-06T10:58:51.000Z</time>
      </trkpt>
      <trkpt lat="47.27374" lon="-2.32314">
        <ele>1.3999999761581</ele>
        <time>2020-02-06T10:58:52.000Z</time>
      </trkpt>
      <trkpt lat="47.27373" lon="-2.32323">
        <ele>1.7999999523163</ele>
        <time>2020-02-06T10:58:53.000Z</time>
      </trkpt>
      <trkpt lat="47.27371" lon="-2.32331">
        <ele>2.2000000476837</ele>
        <time>2020-02-06T10:58:54.000Z</time>
      </trkpt>
      <trkpt lat="47.27369" lon="-2.32339">
        <ele>2.7999999523163</ele>
        <time>2020-02-06T10:58:55.000Z</time>
      </trkpt>
      <trkpt lat="47.27365" lon="-2.32376">
        <ele>2.7999999523163</ele>
        <time>2020-02-06T10:58:59.000Z</time>
      </trkpt>
      <trkpt lat="47.27356" lon="-2.32429">
        <ele>2.7999999523163</ele>
        <time>2020-02-06T10:59:04.000Z</time>
      </trkpt>
      <trkpt lat="47.27346" lon="-2.32448">
        <ele>2.2000000476837</ele>
        <time>2020-02-06T10:59:06.000Z</time>
      </trkpt>
      <trkpt lat="47.2734" lon="-2.32458">
        <ele>1.7999999523163</ele>
        <time>2020-02-06T10:59:07.000Z</time>
      </trkpt>
      <trkpt lat="47.27335" lon="-2.32467">
        <ele>1.3999999761581</ele>
        <time>2020-02-06T10:59:08.000Z</time>
      </trkpt>
      <trkpt lat="47.27329" lon="-2.32475">
        <ele>1</ele>
        <time>2020-02-06T10:59:09.000Z</time>
      </trkpt>
      <trkpt lat="47.27324" lon="-2.32483">
        <ele>0.60000002384186</ele>
        <time>2020-02-06T10:59:10.000Z</time>
      </trkpt>
      <trkpt lat="47.27302" lon="-2.32518">
        <ele>0.60000002384186</ele>
        <time>2020-02-06T10:59:15.000Z</time>
      </trkpt>
      <trkpt lat="47.27283" lon="-2.32545">
        <ele>1</ele>
        <time>2020-02-06T10:59:19.000Z</time>
      </trkpt>
      <trkpt lat="47.27278" lon="-2.32552">
        <ele>1.3999999761581</ele>
        <time>2020-02-06T10:59:20.000Z</time>
      </trkpt>
      <trkpt lat="47.27272" lon="-2.32558">
        <ele>1.7999999523163</ele>
        <time>2020-02-06T10:59:21.000Z</time>
      </trkpt>
      <trkpt lat="47.27267" lon="-2.32565">
        <ele>2.2000000476837</ele>
        <time>2020-02-06T10:59:22.000Z</time>
      </trkpt>
      <trkpt lat="47.27262" lon="-2.32571">
        <ele>2.5999999046326</ele>
        <time>2020-02-06T10:59:23.000Z</time>
      </trkpt>
      <trkpt lat="47.27234" lon="-2.32599">
        <ele>2.5999999046326</ele>
        <time>2020-02-06T10:59:28.000Z</time>
      </trkpt>
      <trkpt lat="47.27196" lon="-2.32636">
        <ele>2.5999999046326</ele>
        <time>2020-02-06T10:59:35.000Z</time>
      </trkpt>
      <trkpt lat="47.2716" lon="-2.32669">
        <ele>2.5999999046326</ele>
        <time>2020-02-06T10:59:42.000Z</time>
      </trkpt>
      <trkpt lat="47.27155" lon="-2.32674">
        <ele>2.5999999046326</ele>
        <time>2020-02-06T10:59:43.000Z</time>
      </trkpt>
      <trkpt lat="47.27141" lon="-2.32689">
        <ele>2.5999999046326</ele>
        <time>2020-02-06T10:59:46.000Z</time>
      </trkpt>
      <trkpt lat="47.27132" lon="-2.32701">
        <ele>2.5999999046326</ele>
        <time>2020-02-06T10:59:49.000Z</time>
      </trkpt>
      <trkpt lat="47.27123" lon="-2.32714">
        <ele>2.5999999046326</ele>
        <time>2020-02-06T10:59:53.000Z</time>
      </trkpt>
      <trkpt lat="47.27097" lon="-2.32738">
        <ele>2.5999999046326</ele>
        <time>2020-02-06T10:59:59.000Z</time>
      </trkpt>
      <trkpt lat="47.27065" lon="-2.32767">
        <ele>2.5999999046326</ele>
        <time>2020-02-06T11:00:05.000Z</time>
      </trkpt>
      <trkpt lat="47.27021" lon="-2.32807">
        <ele>2.5999999046326</ele>
        <time>2020-02-06T11:00:13.000Z</time>
      </trkpt>
      <trkpt lat="47.26981" lon="-2.32843">
        <ele>2.5999999046326</ele>
        <time>2020-02-06T11:00:20.000Z</time>
      </trkpt>
      <trkpt lat="47.2695" lon="-2.32873">
        <ele>2.2000000476837</ele>
        <time>2020-02-06T11:00:26.000Z</time>
      </trkpt>
      <trkpt lat="47.26944" lon="-2.32878">
        <ele>1.7999999523163</ele>
        <time>2020-02-06T11:00:27.000Z</time>
      </trkpt>
      <trkpt lat="47.26939" lon="-2.32883">
        <ele>1.3999999761581</ele>
        <time>2020-02-06T11:00:28.000Z</time>
      </trkpt>
      <trkpt lat="47.26933" lon="-2.32887">
        <ele>0.60000002384186</ele>
        <time>2020-02-06T11:00:29.000Z</time>
      </trkpt>
      <trkpt lat="47.26912" lon="-2.32907">
        <ele>0.60000002384186</ele>
        <time>2020-02-06T11:00:33.000Z</time>
      </trkpt>
      <trkpt lat="47.26886" lon="-2.3293">
        <ele>0.60000002384186</ele>
        <time>2020-02-06T11:00:38.000Z</time>
      </trkpt>
      <trkpt lat="47.26856" lon="-2.32958">
        <ele>0.60000002384186</ele>
        <time>2020-02-06T11:00:44.000Z</time>
      </trkpt>
      <trkpt lat="47.26817" lon="-2.32996">
        <ele>0.60000002384186</ele>
        <time>2020-02-06T11:00:52.000Z</time>
      </trkpt>
      <trkpt lat="47.26812" lon="-2.33">
        <ele>0.60000002384186</ele>
        <time>2020-02-06T11:00:53.000Z</time>
      </trkpt>
      <trkpt lat="47.26803" lon="-2.33009">
        <ele>0.60000002384186</ele>
        <time>2020-02-06T11:00:55.000Z</time>
      </trkpt>
      <trkpt lat="47.26794" lon="-2.33018">
        <ele>0.60000002384186</ele>
        <time>2020-02-06T11:00:57.000Z</time>
      </trkpt>
      <trkpt lat="47.26767" lon="-2.33044">
        <ele>0.60000002384186</ele>
        <time>2020-02-06T11:01:03.000Z</time>
      </trkpt>
      <trkpt lat="47.2675" lon="-2.33062">
        <ele>0.20000000298023</ele>
        <time>2020-02-06T11:01:08.000Z</time>
      </trkpt>
      <trkpt lat="47.26747" lon="-2.33065">
        <ele>-0.20000000298023</ele>
        <time>2020-02-06T11:01:09.000Z</time>
      </trkpt>
      <trkpt lat="47.26744" lon="-2.33065">
        <ele>-0.80000001192093</ele>
        <time>2020-02-06T11:01:10.000Z</time>
      </trkpt>
      <trkpt lat="47.26741" lon="-2.33064">
        <ele>-1.2000000476837</ele>
        <time>2020-02-06T11:01:11.000Z</time>
      </trkpt>
      <trkpt lat="47.26738" lon="-2.33062">
        <ele>-1.6000000238419</ele>
        <time>2020-02-06T11:01:12.000Z</time>
      </trkpt>
      <trkpt lat="47.2673" lon="-2.33062">
        <ele>-1.6000000238419</ele>
        <time>2020-02-06T11:01:14.000Z</time>
      </trkpt>
      <trkpt lat="47.26727" lon="-2.33065">
        <ele>-1.6000000238419</ele>
        <time>2020-02-06T11:01:15.000Z</time>
      </trkpt>
      <trkpt lat="47.26712" lon="-2.33084">
        <ele>-1.6000000238419</ele>
        <time>2020-02-06T11:01:21.000Z</time>
      </trkpt>
      <trkpt lat="47.267" lon="-2.33095">
        <ele>-2</ele>
        <time>2020-02-06T11:01:25.000Z</time>
      </trkpt>
      <trkpt lat="47.26697" lon="-2.33097">
        <ele>-2.4000000953674</ele>
        <time>2020-02-06T11:01:26.000Z</time>
      </trkpt>
      <trkpt lat="47.26694" lon="-2.331">
        <ele>-2.7999999523163</ele>
        <time>2020-02-06T11:01:27.000Z</time>
      </trkpt>
      <trkpt lat="47.26691" lon="-2.33103">
        <ele>-3.2000000476837</ele>
        <time>2020-02-06T11:01:28.000Z</time>
      </trkpt>
      <trkpt lat="47.26689" lon="-2.33106">
        <ele>-3.5999999046326</ele>
        <time>2020-02-06T11:01:29.000Z</time>
      </trkpt>
      <trkpt lat="47.26686" lon="-2.33108">
        <ele>-3.5999999046326</ele>
        <time>2020-02-06T11:01:30.000Z</time>
      </trkpt>
      <trkpt lat="47.26672" lon="-2.33121">
        <ele>-3.5999999046326</ele>
        <time>2020-02-06T11:01:35.000Z</time>
      </trkpt>
      <trkpt lat="47.26654" lon="-2.33135">
        <ele>-3.5999999046326</ele>
        <time>2020-02-06T11:01:41.000Z</time>
      </trkpt>
      <trkpt lat="47.26631" lon="-2.33149">
        <ele>-3.5999999046326</ele>
        <time>2020-02-06T11:01:47.000Z</time>
      </trkpt>
      <trkpt lat="47.2661" lon="-2.33148">
        <ele>-3.5999999046326</ele>
        <time>2020-02-06T11:01:52.000Z</time>
      </trkpt>
      <trkpt lat="47.26595" lon="-2.3315">
        <ele>-3.5999999046326</ele>
        <time>2020-02-06T11:01:56.000Z</time>
      </trkpt>
      <trkpt lat="47.26587" lon="-2.33167">
        <ele>-3.5999999046326</ele>
        <time>2020-02-06T11:01:59.000Z</time>
      </trkpt>
      <trkpt lat="47.26578" lon="-2.33187">
        <ele>-3.5999999046326</ele>
        <time>2020-02-06T11:02:02.000Z</time>
      </trkpt>
      <trkpt lat="47.2657" lon="-2.33197">
        <ele>-3.5999999046326</ele>
        <time>2020-02-06T11:02:04.000Z</time>
      </trkpt>
      <trkpt lat="47.26559" lon="-2.33203">
        <ele>-3.5999999046326</ele>
        <time>2020-02-06T11:02:06.000Z</time>
      </trkpt>
      <trkpt lat="47.26544" lon="-2.33211">
        <ele>-3.5999999046326</ele>
        <time>2020-02-06T11:02:09.000Z</time>
      </trkpt>
      <trkpt lat="47.26507" lon="-2.33236">
        <ele>-3.5999999046326</ele>
        <time>2020-02-06T11:02:17.000Z</time>
      </trkpt>
      <trkpt lat="47.26493" lon="-2.33265">
        <ele>-3.5999999046326</ele>
        <time>2020-02-06T11:02:22.000Z</time>
      </trkpt>
      <trkpt lat="47.26492" lon="-2.33271">
        <ele>-3.5999999046326</ele>
        <time>2020-02-06T11:02:23.000Z</time>
      </trkpt>
      <trkpt lat="47.26487" lon="-2.3328">
        <ele>-3.5999999046326</ele>
        <time>2020-02-06T11:02:25.000Z</time>
      </trkpt>
      <trkpt lat="47.26483" lon="-2.33281">
        <ele>-3.5999999046326</ele>
        <time>2020-02-06T11:02:26.000Z</time>
      </trkpt>
      <trkpt lat="47.26471" lon="-2.33275">
        <ele>-3.5999999046326</ele>
        <time>2020-02-06T11:02:29.000Z</time>
      </trkpt>
      <trkpt lat="47.26467" lon="-2.33274">
        <ele>-3.5999999046326</ele>
        <time>2020-02-06T11:02:30.000Z</time>
      </trkpt>
      <trkpt lat="47.26453" lon="-2.33271">
        <ele>-3.5999999046326</ele>
        <time>2020-02-06T11:02:33.000Z</time>
      </trkpt>
      <trkpt lat="47.26438" lon="-2.33269">
        <ele>-3.5999999046326</ele>
        <time>2020-02-06T11:02:36.000Z</time>
      </trkpt>
      <trkpt lat="47.264" lon="-2.33265">
        <ele>-3.5999999046326</ele>
        <time>2020-02-06T11:02:43.000Z</time>
      </trkpt>
      <trkpt lat="47.26395" lon="-2.33263">
        <ele>-3.5999999046326</ele>
        <time>2020-02-06T11:02:44.000Z</time>
      </trkpt>
      <trkpt lat="47.26382" lon="-2.33251">
        <ele>-3.5999999046326</ele>
        <time>2020-02-06T11:02:47.000Z</time>
      </trkpt>
      <trkpt lat="47.26377" lon="-2.33228">
        <ele>-3.5999999046326</ele>
        <time>2020-02-06T11:02:50.000Z</time>
      </trkpt>
      <trkpt lat="47.26377" lon="-2.33219">
        <ele>-3.5999999046326</ele>
        <time>2020-02-06T11:02:51.000Z</time>
      </trkpt>
      <trkpt lat="47.26376" lon="-2.33203">
        <ele>-3.2000000476837</ele>
        <time>2020-02-06T11:02:53.000Z</time>
      </trkpt>
      <trkpt lat="47.26376" lon="-2.33195">
        <ele>-2.7999999523163</ele>
        <time>2020-02-06T11:02:54.000Z</time>
      </trkpt>
      <trkpt lat="47.26375" lon="-2.33187">
        <ele>-2.4000000953674</ele>
        <time>2020-02-06T11:02:55.000Z</time>
      </trkpt>
      <trkpt lat="47.26374" lon="-2.33179">
        <ele>-2</ele>
        <time>2020-02-06T11:02:56.000Z</time>
      </trkpt>
      <trkpt lat="47.26374" lon="-2.33171">
        <ele>-1.6000000238419</ele>
        <time>2020-02-06T11:02:57.000Z</time>
      </trkpt>
      <trkpt lat="47.26372" lon="-2.33155">
        <ele>-1.6000000238419</ele>
        <time>2020-02-06T11:02:59.000Z</time>
      </trkpt>
      <trkpt lat="47.26369" lon="-2.33098">
        <ele>-1</ele>
        <time>2020-02-06T11:03:06.000Z</time>
      </trkpt>
      <trkpt lat="47.26369" lon="-2.3309">
        <ele>-0.60000002384186</ele>
        <time>2020-02-06T11:03:07.000Z</time>
      </trkpt>
      <trkpt lat="47.26368" lon="-2.33082">
        <ele>2.3</ele>
        <time>2020-02-06T11:03:08.000Z</time>
      </trkpt>
      <trkpt lat="47.26368" lon="-2.33075">
        <ele>0.60000002384186</ele>
        <time>2020-02-06T11:03:09.000Z</time>
      </trkpt>
      <trkpt lat="47.26367" lon="-2.33067">
        <ele>1</ele>
        <time>2020-02-06T11:03:10.000Z</time>
      </trkpt>
      <trkpt lat="47.26367" lon="-2.33052">
        <ele>0.60000002384186</ele>
        <time>2020-02-06T11:03:12.000Z</time>
      </trkpt>
      <trkpt lat="47.26367" lon="-2.33044">
        <ele>0.20000000298023</ele>
        <time>2020-02-06T11:03:13.000Z</time>
      </trkpt>
      <trkpt lat="47.26366" lon="-2.33035">
        <ele>-0.20000000298023</ele>
        <time>2020-02-06T11:03:14.000Z</time>
      </trkpt>
      <trkpt lat="47.26366" lon="-2.33028">
        <ele>-0.60000002384186</ele>
        <time>2020-02-06T11:03:15.000Z</time>
      </trkpt>
      <trkpt lat="47.26366" lon="-2.3302">
        <ele>-1.2000000476837</ele>
        <time>2020-02-06T11:03:16.000Z</time>
      </trkpt>
      <trkpt lat="47.26364" lon="-2.32989">
        <ele>-1.2000000476837</ele>
        <time>2020-02-06T11:03:20.000Z</time>
      </trkpt>
      <trkpt lat="47.26362" lon="-2.32981">
        <ele>-1.2000000476837</ele>
        <time>2020-02-06T11:03:21.000Z</time>
      </trkpt>
      <trkpt lat="47.26349" lon="-2.32965">
        <ele>-1.2000000476837</ele>
        <time>2020-02-06T11:03:24.000Z</time>
      </trkpt>
      <trkpt lat="47.26338" lon="-2.32937">
        <ele>-1.2000000476837</ele>
        <time>2020-02-06T11:03:28.000Z</time>
      </trkpt>
      <trkpt lat="47.26319" lon="-2.32883">
        <ele>-1.2000000476837</ele>
        <time>2020-02-06T11:03:35.000Z</time>
      </trkpt>
      <trkpt lat="47.26304" lon="-2.32861">
        <ele>-1.2000000476837</ele>
        <time>2020-02-06T11:03:39.000Z</time>
      </trkpt>
      <trkpt lat="47.26299" lon="-2.32859">
        <ele>-1.2000000476837</ele>
        <time>2020-02-06T11:03:40.000Z</time>
      </trkpt>
      <trkpt lat="47.26293" lon="-2.32856">
        <ele>-1.2000000476837</ele>
        <time>2020-02-06T11:03:41.000Z</time>
      </trkpt>
      <trkpt lat="47.26285" lon="-2.32844">
        <ele>-1.2000000476837</ele>
        <time>2020-02-06T11:03:43.000Z</time>
      </trkpt>
      <trkpt lat="47.26278" lon="-2.3282">
        <ele>-1.2000000476837</ele>
        <time>2020-02-06T11:03:46.000Z</time>
      </trkpt>
      <trkpt lat="47.26274" lon="-2.32803">
        <ele>-1.2000000476837</ele>
        <time>2020-02-06T11:03:48.000Z</time>
      </trkpt>
      <trkpt lat="47.26271" lon="-2.32795">
        <ele>-1.2000000476837</ele>
        <time>2020-02-06T11:03:49.000Z</time>
      </trkpt>
      <trkpt lat="47.26257" lon="-2.32765">
        <ele>-1.2000000476837</ele>
        <time>2020-02-06T11:03:53.000Z</time>
      </trkpt>
      <trkpt lat="47.26228" lon="-2.32719">
        <ele>-1.2000000476837</ele>
        <time>2020-02-06T11:04:00.000Z</time>
      </trkpt>
      <trkpt lat="47.2621" lon="-2.32694">
        <ele>-0.80000001192093</ele>
        <time>2020-02-06T11:04:04.000Z</time>
      </trkpt>
      <trkpt lat="47.26206" lon="-2.32689">
        <ele>-0.20000000298023</ele>
        <time>2020-02-06T11:04:05.000Z</time>
      </trkpt>
      <trkpt lat="47.26201" lon="-2.32682">
        <ele>0.20000000298023</ele>
        <time>2020-02-06T11:04:06.000Z</time>
      </trkpt>
      <trkpt lat="47.26197" lon="-2.32677">
        <ele>0.60000002384186</ele>
        <time>2020-02-06T11:04:07.000Z</time>
      </trkpt>
      <trkpt lat="47.26192" lon="-2.32672">
        <ele>1</ele>
        <time>2020-02-06T11:04:08.000Z</time>
      </trkpt>
      <trkpt lat="47.2616" lon="-2.32647">
        <ele>1</ele>
        <time>2020-02-06T11:04:14.000Z</time>
      </trkpt>
      <trkpt lat="47.26127" lon="-2.32637">
        <ele>1</ele>
        <time>2020-02-06T11:04:20.000Z</time>
      </trkpt>
      <trkpt lat="47.261" lon="-2.32637">
        <ele>1</ele>
        <time>2020-02-06T11:04:25.000Z</time>
      </trkpt>
      <trkpt lat="47.26065" lon="-2.32641">
        <ele>1</ele>
        <time>2020-02-06T11:04:31.000Z</time>
      </trkpt>
      <trkpt lat="47.2602" lon="-2.3265">
        <ele>0.60000002384186</ele>
        <time>2020-02-06T11:04:38.000Z</time>
      </trkpt>
      <trkpt lat="47.26014" lon="-2.32652">
        <ele>0.20000000298023</ele>
        <time>2020-02-06T11:04:39.000Z</time>
      </trkpt>
      <trkpt lat="47.26007" lon="-2.32653">
        <ele>-0.20000000298023</ele>
        <time>2020-02-06T11:04:40.000Z</time>
      </trkpt>
      <trkpt lat="47.26001" lon="-2.32654">
        <ele>-0.60000002384186</ele>
        <time>2020-02-06T11:04:41.000Z</time>
      </trkpt>
      <trkpt lat="47.25994" lon="-2.32656">
        <ele>-1</ele>
        <time>2020-02-06T11:04:42.000Z</time>
      </trkpt>
      <trkpt lat="47.25982" lon="-2.32656">
        <ele>-1</ele>
        <time>2020-02-06T11:04:44.000Z</time>
      </trkpt>
      <trkpt lat="47.2597" lon="-2.32654">
        <ele>-1</ele>
        <time>2020-02-06T11:04:46.000Z</time>
      </trkpt>
      <trkpt lat="47.25946" lon="-2.3265">
        <ele>-1</ele>
        <time>2020-02-06T11:04:50.000Z</time>
      </trkpt>
      <trkpt lat="47.25933" lon="-2.32632">
        <ele>-1</ele>
        <time>2020-02-06T11:04:53.000Z</time>
      </trkpt>
      <trkpt lat="47.25906" lon="-2.32595">
        <ele>-1</ele>
        <time>2020-02-06T11:04:59.000Z</time>
      </trkpt>
      <trkpt lat="47.25892" lon="-2.3258">
        <ele>-1</ele>
        <time>2020-02-06T11:05:02.000Z</time>
      </trkpt>
      <trkpt lat="47.25882" lon="-2.32572">
        <ele>-1</ele>
        <time>2020-02-06T11:05:04.000Z</time>
      </trkpt>
      <trkpt lat="47.25864" lon="-2.32554">
        <ele>-1</ele>
        <time>2020-02-06T11:05:08.000Z</time>
      </trkpt>
      <trkpt lat="47.2586" lon="-2.32549">
        <ele>-1</ele>
        <time>2020-02-06T11:05:09.000Z</time>
      </trkpt>
      <trkpt lat="47.25841" lon="-2.32518">
        <ele>-1</ele>
        <time>2020-02-06T11:05:14.000Z</time>
      </trkpt>
      <trkpt lat="47.25829" lon="-2.32499">
        <ele>-1</ele>
        <time>2020-02-06T11:05:18.000Z</time>
      </trkpt>
      <trkpt lat="47.25822" lon="-2.32491">
        <ele>-1</ele>
        <time>2020-02-06T11:05:20.000Z</time>
      </trkpt>
      <trkpt lat="47.25805" lon="-2.32481">
        <ele>-1</ele>
        <time>2020-02-06T11:05:25.000Z</time>
      </trkpt>
      <trkpt lat="47.25788" lon="-2.32481">
        <ele>-1</ele>
        <time>2020-02-06T11:05:29.000Z</time>
      </trkpt>
      <trkpt lat="47.25782" lon="-2.32466">
        <ele>-1</ele>
        <time>2020-02-06T11:05:32.000Z</time>
      </trkpt>
      <trkpt lat="47.2578" lon="-2.32459">
        <ele>-1</ele>
        <time>2020-02-06T11:05:33.000Z</time>
      </trkpt>
      <trkpt lat="47.25778" lon="-2.32452">
        <ele>-1</ele>
        <time>2020-02-06T11:05:34.000Z</time>
      </trkpt>
      <trkpt lat="47.25769" lon="-2.32434">
        <ele>-1</ele>
        <time>2020-02-06T11:05:37.000Z</time>
      </trkpt>
      <trkpt lat="47.25766" lon="-2.32429">
        <ele>-1</ele>
        <time>2020-02-06T11:05:38.000Z</time>
      </trkpt>
      <trkpt lat="47.25756" lon="-2.32425">
        <ele>-1</ele>
        <time>2020-02-06T11:05:40.000Z</time>
      </trkpt>
      <trkpt lat="47.25744" lon="-2.32425">
        <ele>-1</ele>
        <time>2020-02-06T11:05:42.000Z</time>
      </trkpt>
      <trkpt lat="47.2572" lon="-2.32425">
        <ele>-1</ele>
        <time>2020-02-06T11:05:46.000Z</time>
      </trkpt>
      <trkpt lat="47.25686" lon="-2.32423">
        <ele>-1</ele>
        <time>2020-02-06T11:05:52.000Z</time>
      </trkpt>
      <trkpt lat="47.25681" lon="-2.32423">
        <ele>-1</ele>
        <time>2020-02-06T11:05:53.000Z</time>
      </trkpt>
      <trkpt lat="47.25668" lon="-2.3242">
        <ele>-1</ele>
        <time>2020-02-06T11:05:56.000Z</time>
      </trkpt>
      <trkpt lat="47.25656" lon="-2.32418">
        <ele>-1</ele>
        <time>2020-02-06T11:06:01.000Z</time>
      </trkpt>
      <trkpt lat="47.25652" lon="-2.32414">
        <ele>-1</ele>
        <time>2020-02-06T11:06:02.000Z</time>
      </trkpt>
      <trkpt lat="47.25647" lon="-2.32402">
        <ele>-1</ele>
        <time>2020-02-06T11:06:04.000Z</time>
      </trkpt>
      <trkpt lat="47.25646" lon="-2.32385">
        <ele>-1</ele>
        <time>2020-02-06T11:06:06.000Z</time>
      </trkpt>
      <trkpt lat="47.25647" lon="-2.32369">
        <ele>-1</ele>
        <time>2020-02-06T11:06:08.000Z</time>
      </trkpt>
      <trkpt lat="47.25646" lon="-2.32345">
        <ele>-0.60000002384186</ele>
        <time>2020-02-06T11:06:11.000Z</time>
      </trkpt>
      <trkpt lat="47.25645" lon="-2.32337">
        <ele>-0.20000000298023</ele>
        <time>2020-02-06T11:06:12.000Z</time>
      </trkpt>
      <trkpt lat="47.25645" lon="-2.32329">
        <ele>0.20000000298023</ele>
        <time>2020-02-06T11:06:13.000Z</time>
      </trkpt>
      <trkpt lat="47.25644" lon="-2.32321">
        <ele>1.2000000476837</ele>
        <time>2020-02-06T11:06:14.000Z</time>
      </trkpt>
      <trkpt lat="47.25643" lon="-2.32306">
        <ele>1.6000000238419</ele>
        <time>2020-02-06T11:06:16.000Z</time>
      </trkpt>
      <trkpt lat="47.25643" lon="-2.32298">
        <ele>2</ele>
        <time>2020-02-06T11:06:17.000Z</time>
      </trkpt>
      <trkpt lat="47.25642" lon="-2.3229">
        <ele>2.4000000953674</ele>
        <time>2020-02-06T11:06:18.000Z</time>
      </trkpt>
      <trkpt lat="47.25642" lon="-2.32283">
        <ele>3</ele>
        <time>2020-02-06T11:06:19.000Z</time>
      </trkpt>
      <trkpt lat="47.25642" lon="-2.32276">
        <ele>3.4000000953674</ele>
        <time>2020-02-06T11:06:20.000Z</time>
      </trkpt>
      <trkpt lat="47.25642" lon="-2.32247">
        <ele>3.4000000953674</ele>
        <time>2020-02-06T11:06:24.000Z</time>
      </trkpt>
      <trkpt lat="47.25641" lon="-2.3224">
        <ele>3.7999999523163</ele>
        <time>2020-02-06T11:06:25.000Z</time>
      </trkpt>
      <trkpt lat="47.25641" lon="-2.32233">
        <ele>4.1999998092651</ele>
        <time>2020-02-06T11:06:26.000Z</time>
      </trkpt>
      <trkpt lat="47.25642" lon="-2.32226">
        <ele>4.8000001907349</ele>
        <time>2020-02-06T11:06:27.000Z</time>
      </trkpt>
      <trkpt lat="47.25641" lon="-2.32219">
        <ele>5.1999998092651</ele>
        <time>2020-02-06T11:06:28.000Z</time>
      </trkpt>
      <trkpt lat="47.25641" lon="-2.32212">
        <ele>5.5999999046326</ele>
        <time>2020-02-06T11:06:29.000Z</time>
      </trkpt>
      <trkpt lat="47.2564" lon="-2.32205">
        <ele>5.5999999046326</ele>
        <time>2020-02-06T11:06:30.000Z</time>
      </trkpt>
      <trkpt lat="47.25637" lon="-2.32191">
        <ele>5.5999999046326</ele>
        <time>2020-02-06T11:06:32.000Z</time>
      </trkpt>
      <trkpt lat="47.25636" lon="-2.32183">
        <ele>5.5999999046326</ele>
        <time>2020-02-06T11:06:33.000Z</time>
      </trkpt>
      <trkpt lat="47.25634" lon="-2.32176">
        <ele>6</ele>
        <time>2020-02-06T11:06:34.000Z</time>
      </trkpt>
      <trkpt lat="47.25632" lon="-2.32169">
        <ele>6.4000000953674</ele>
        <time>2020-02-06T11:06:35.000Z</time>
      </trkpt>
      <trkpt lat="47.2563" lon="-2.32161">
        <ele>7</ele>
        <time>2020-02-06T11:06:36.000Z</time>
      </trkpt>
      <trkpt lat="47.25628" lon="-2.32153">
        <ele>7.4000000953674</ele>
        <time>2020-02-06T11:06:37.000Z</time>
      </trkpt>
      <trkpt lat="47.25627" lon="-2.32146">
        <ele>7.8000001907349</ele>
        <time>2020-02-06T11:06:38.000Z</time>
      </trkpt>
      <trkpt lat="47.25625" lon="-2.32138">
        <ele>7.8000001907349</ele>
        <time>2020-02-06T11:06:39.000Z</time>
      </trkpt>
      <trkpt lat="47.2561" lon="-2.32096">
        <ele>7.8000001907349</ele>
        <time>2020-02-06T11:06:45.000Z</time>
      </trkpt>
      <trkpt lat="47.25592" lon="-2.32048">
        <ele>7.8000001907349</ele>
        <time>2020-02-06T11:06:52.000Z</time>
      </trkpt>
      <trkpt lat="47.25577" lon="-2.31999">
        <ele>8.1999998092651</ele>
        <time>2020-02-06T11:06:59.000Z</time>
      </trkpt>
      <trkpt lat="47.25575" lon="-2.31992">
        <ele>8.6000003814697</ele>
        <time>2020-02-06T11:07:00.000Z</time>
      </trkpt>
      <trkpt lat="47.25573" lon="-2.31985">
        <ele>9</ele>
        <time>2020-02-06T11:07:01.000Z</time>
      </trkpt>
      <trkpt lat="47.25571" lon="-2.31978">
        <ele>9.3999996185303</ele>
        <time>2020-02-06T11:07:02.000Z</time>
      </trkpt>
      <trkpt lat="47.2557" lon="-2.31971">
        <ele>9.8000001907349</ele>
        <time>2020-02-06T11:07:03.000Z</time>
      </trkpt>
      <trkpt lat="47.25567" lon="-2.31957">
        <ele>9.8000001907349</ele>
        <time>2020-02-06T11:07:05.000Z</time>
      </trkpt>
      <trkpt lat="47.25566" lon="-2.3195">
        <ele>9.8000001907349</ele>
        <time>2020-02-06T11:07:06.000Z</time>
      </trkpt>
      <trkpt lat="47.25563" lon="-2.31925">
        <ele>9.8000001907349</ele>
        <time>2020-02-06T11:07:10.000Z</time>
      </trkpt>
      <trkpt lat="47.25562" lon="-2.31919">
        <ele>9.8000001907349</ele>
        <time>2020-02-06T11:07:11.000Z</time>
      </trkpt>
      <trkpt lat="47.25556" lon="-2.31913">
        <ele>9.8000001907349</ele>
        <time>2020-02-06T11:07:13.000Z</time>
      </trkpt>
      <trkpt lat="47.25546" lon="-2.31918">
        <ele>9.8000001907349</ele>
        <time>2020-02-06T11:07:16.000Z</time>
      </trkpt>
      <trkpt lat="47.25542" lon="-2.3192">
        <ele>9.8000001907349</ele>
        <time>2020-02-06T11:07:17.000Z</time>
      </trkpt>
      <trkpt lat="47.25536" lon="-2.31918">
        <ele>9.8000001907349</ele>
        <time>2020-02-06T11:07:19.000Z</time>
      </trkpt>
      <trkpt lat="47.25534" lon="-2.31914">
        <ele>9.8000001907349</ele>
        <time>2020-02-06T11:07:20.000Z</time>
      </trkpt>
      <trkpt lat="47.25531" lon="-2.31905">
        <ele>10.39999961853</ele>
        <time>2020-02-06T11:07:22.000Z</time>
      </trkpt>
      <trkpt lat="47.25529" lon="-2.319">
        <ele>10.800000190735</ele>
        <time>2020-02-06T11:07:23.000Z</time>
      </trkpt>
      <trkpt lat="47.25528" lon="-2.31896">
        <ele>11.39999961853</ele>
        <time>2020-02-06T11:07:24.000Z</time>
      </trkpt>
      <trkpt lat="47.25527" lon="-2.31891">
        <ele>11.800000190735</ele>
        <time>2020-02-06T11:07:25.000Z</time>
      </trkpt>
      <trkpt lat="47.25525" lon="-2.31886">
        <ele>12.39999961853</ele>
        <time>2020-02-06T11:07:26.000Z</time>
      </trkpt>
      <trkpt lat="47.25524" lon="-2.3188">
        <ele>12.39999961853</ele>
        <time>2020-02-06T11:07:27.000Z</time>
      </trkpt>
      <trkpt lat="47.2552" lon="-2.31848">
        <ele>12.39999961853</ele>
        <time>2020-02-06T11:07:33.000Z</time>
      </trkpt>
      <trkpt lat="47.25515" lon="-2.31828">
        <ele>12.39999961853</ele>
        <time>2020-02-06T11:07:39.000Z</time>
      </trkpt>
      <trkpt lat="47.25512" lon="-2.3183">
        <ele>12.39999961853</ele>
        <time>2020-02-06T11:07:43.000Z</time>
      </trkpt>
      <trkpt lat="47.25511" lon="-2.3183">
        <ele>12.39999961853</ele>
        <time>2020-02-06T11:07:45.000Z</time>
      </trkpt>
      <trkpt lat="47.25508" lon="-2.31829">
        <ele>10.39999961853</ele>
        <time>2020-02-06T11:21:40.000Z</time>
      </trkpt>
      <trkpt lat="47.25508" lon="-2.31826">
        <ele>10.39999961853</ele>
        <time>2020-02-06T11:21:41.000Z</time>
      </trkpt>
      <trkpt lat="47.25509" lon="-2.31822">
        <ele>10.39999961853</ele>
        <time>2020-02-06T11:21:43.000Z</time>
      </trkpt>
      <trkpt lat="47.2551" lon="-2.3182">
        <ele>10.39999961853</ele>
        <time>2020-02-06T11:21:45.000Z</time>
      </trkpt>
      <trkpt lat="47.2551" lon="-2.31817">
        <ele>10.39999961853</ele>
        <time>2020-02-06T11:21:46.000Z</time>
      </trkpt>
      <trkpt lat="47.25516" lon="-2.31812">
        <ele>10.39999961853</ele>
        <time>2020-02-06T11:21:51.000Z</time>
      </trkpt>
      <trkpt lat="47.25524" lon="-2.3181">
        <ele>10.39999961853</ele>
        <time>2020-02-06T11:21:55.000Z</time>
      </trkpt>
      <trkpt lat="47.2553" lon="-2.31809">
        <ele>10.39999961853</ele>
        <time>2020-02-06T11:21:57.000Z</time>
      </trkpt>
      <trkpt lat="47.25544" lon="-2.318">
        <ele>10.39999961853</ele>
        <time>2020-02-06T11:22:02.000Z</time>
      </trkpt>
      <trkpt lat="47.25558" lon="-2.3179">
        <ele>10.39999961853</ele>
        <time>2020-02-06T11:22:06.000Z</time>
      </trkpt>
      <trkpt lat="47.2556" lon="-2.31785">
        <ele>10.39999961853</ele>
        <time>2020-02-06T11:22:07.000Z</time>
      </trkpt>
      <trkpt lat="47.25568" lon="-2.31772">
        <ele>10.39999961853</ele>
        <time>2020-02-06T11:22:10.000Z</time>
      </trkpt>
      <trkpt lat="47.25575" lon="-2.31765">
        <ele>10.39999961853</ele>
        <time>2020-02-06T11:22:12.000Z</time>
      </trkpt>
      <trkpt lat="47.25582" lon="-2.31757">
        <ele>10.39999961853</ele>
        <time>2020-02-06T11:22:14.000Z</time>
      </trkpt>
      <trkpt lat="47.25585" lon="-2.31754">
        <ele>10.39999961853</ele>
        <time>2020-02-06T11:22:15.000Z</time>
      </trkpt>
      <trkpt lat="47.25587" lon="-2.31751">
        <ele>9.8000001907349</ele>
        <time>2020-02-06T11:22:16.000Z</time>
      </trkpt>
      <trkpt lat="47.25587" lon="-2.3175">
        <ele>9.3999996185303</ele>
        <time>2020-02-06T11:22:17.000Z</time>
      </trkpt>
      <trkpt lat="47.25588" lon="-2.31748">
        <ele>9</ele>
        <time>2020-02-06T11:22:18.000Z</time>
      </trkpt>
      <trkpt lat="47.25589" lon="-2.31746">
        <ele>8</ele>
        <time>2020-02-06T11:22:19.000Z</time>
      </trkpt>
      <trkpt lat="47.25593" lon="-2.31726">
        <ele>8</ele>
        <time>2020-02-06T11:22:23.000Z</time>
      </trkpt>
      <trkpt lat="47.25594" lon="-2.3172">
        <ele>8</ele>
        <time>2020-02-06T11:22:24.000Z</time>
      </trkpt>
      <trkpt lat="47.25605" lon="-2.3171">
        <ele>8</ele>
        <time>2020-02-06T11:22:27.000Z</time>
      </trkpt>
      <trkpt lat="47.25625" lon="-2.31706">
        <ele>8</ele>
        <time>2020-02-06T11:22:31.000Z</time>
      </trkpt>
      <trkpt lat="47.2563" lon="-2.31704">
        <ele>8</ele>
        <time>2020-02-06T11:22:32.000Z</time>
      </trkpt>
      <trkpt lat="47.2565" lon="-2.31684">
        <ele>8</ele>
        <time>2020-02-06T11:22:36.000Z</time>
      </trkpt>
      <trkpt lat="47.25656" lon="-2.31667">
        <ele>8</ele>
        <time>2020-02-06T11:22:38.000Z</time>
      </trkpt>
      <trkpt lat="47.25659" lon="-2.31662">
        <ele>8</ele>
        <time>2020-02-06T11:22:39.000Z</time>
      </trkpt>
      <trkpt lat="47.25664" lon="-2.31661">
        <ele>7.5999999046326</ele>
        <time>2020-02-06T11:22:40.000Z</time>
      </trkpt>
      <trkpt lat="47.25669" lon="-2.31664">
        <ele>7.1999998092651</ele>
        <time>2020-02-06T11:22:41.000Z</time>
      </trkpt>
      <trkpt lat="47.25673" lon="-2.31666">
        <ele>6.8000001907349</ele>
        <time>2020-02-06T11:22:42.000Z</time>
      </trkpt>
      <trkpt lat="47.25678" lon="-2.3167">
        <ele>5.8000001907349</ele>
        <time>2020-02-06T11:22:43.000Z</time>
      </trkpt>
      <trkpt lat="47.25683" lon="-2.31673">
        <ele>5.1999998092651</ele>
        <time>2020-02-06T11:22:44.000Z</time>
      </trkpt>
      <trkpt lat="47.25689" lon="-2.31675">
        <ele>4.5999999046326</ele>
        <time>2020-02-06T11:22:45.000Z</time>
      </trkpt>
      <trkpt lat="47.25694" lon="-2.31678">
        <ele>4.1999998092651</ele>
        <time>2020-02-06T11:22:46.000Z</time>
      </trkpt>
      <trkpt lat="47.257" lon="-2.3168">
        <ele>3.5999999046326</ele>
        <time>2020-02-06T11:22:47.000Z</time>
      </trkpt>
      <trkpt lat="47.25716" lon="-2.31692">
        <ele>3.5999999046326</ele>
        <time>2020-02-06T11:22:50.000Z</time>
      </trkpt>
      <trkpt lat="47.25722" lon="-2.31696">
        <ele>3.5999999046326</ele>
        <time>2020-02-06T11:22:51.000Z</time>
      </trkpt>
      <trkpt lat="47.2574" lon="-2.3169">
        <ele>3.5999999046326</ele>
        <time>2020-02-06T11:22:54.000Z</time>
      </trkpt>
      <trkpt lat="47.2575" lon="-2.3168">
        <ele>3.5999999046326</ele>
        <time>2020-02-06T11:22:56.000Z</time>
      </trkpt>
      <trkpt lat="47.2576" lon="-2.31671">
        <ele>3.5999999046326</ele>
        <time>2020-02-06T11:22:58.000Z</time>
      </trkpt>
      <trkpt lat="47.25769" lon="-2.31664">
        <ele>3.5999999046326</ele>
        <time>2020-02-06T11:23:00.000Z</time>
      </trkpt>
      <trkpt lat="47.25782" lon="-2.31654">
        <ele>3.5999999046326</ele>
        <time>2020-02-06T11:23:03.000Z</time>
      </trkpt>
      <trkpt lat="47.25807" lon="-2.31634">
        <ele>3.5999999046326</ele>
        <time>2020-02-06T11:23:09.000Z</time>
      </trkpt>
      <trkpt lat="47.25837" lon="-2.31609">
        <ele>3.5999999046326</ele>
        <time>2020-02-06T11:23:16.000Z</time>
      </trkpt>
      <trkpt lat="47.2585" lon="-2.31597">
        <ele>3.5999999046326</ele>
        <time>2020-02-06T11:23:19.000Z</time>
      </trkpt>
      <trkpt lat="47.25854" lon="-2.31591">
        <ele>4</ele>
        <time>2020-02-06T11:23:20.000Z</time>
      </trkpt>
      <trkpt lat="47.25859" lon="-2.31587">
        <ele>4.4000000953674</ele>
        <time>2020-02-06T11:23:21.000Z</time>
      </trkpt>
      <trkpt lat="47.25865" lon="-2.31583">
        <ele>4.8000001907349</ele>
        <time>2020-02-06T11:23:22.000Z</time>
      </trkpt>
      <trkpt lat="47.2587" lon="-2.31579">
        <ele>5.1999998092651</ele>
        <time>2020-02-06T11:23:23.000Z</time>
      </trkpt>
      <trkpt lat="47.25875" lon="-2.31573">
        <ele>5.5999999046326</ele>
        <time>2020-02-06T11:23:24.000Z</time>
      </trkpt>
      <trkpt lat="47.25883" lon="-2.3156">
        <ele>5.1999998092651</ele>
        <time>2020-02-06T11:23:26.000Z</time>
      </trkpt>
      <trkpt lat="47.25887" lon="-2.31552">
        <ele>4.5999999046326</ele>
        <time>2020-02-06T11:23:27.000Z</time>
      </trkpt>
      <trkpt lat="47.2589" lon="-2.31544">
        <ele>4.1999998092651</ele>
        <time>2020-02-06T11:23:28.000Z</time>
      </trkpt>
      <trkpt lat="47.25893" lon="-2.31536">
        <ele>3.7999999523163</ele>
        <time>2020-02-06T11:23:29.000Z</time>
      </trkpt>
      <trkpt lat="47.25895" lon="-2.31529">
        <ele>3.2000000476837</ele>
        <time>2020-02-06T11:23:30.000Z</time>
      </trkpt>
      <trkpt lat="47.25898" lon="-2.31522">
        <ele>3.2000000476837</ele>
        <time>2020-02-06T11:23:31.000Z</time>
      </trkpt>
      <trkpt lat="47.25901" lon="-2.31517">
        <ele>3.2000000476837</ele>
        <time>2020-02-06T11:23:32.000Z</time>
      </trkpt>
      <trkpt lat="47.25908" lon="-2.31513">
        <ele>2.7999999523163</ele>
        <time>2020-02-06T11:23:34.000Z</time>
      </trkpt>
      <trkpt lat="47.2591" lon="-2.3151">
        <ele>2.2000000476837</ele>
        <time>2020-02-06T11:23:35.000Z</time>
      </trkpt>
      <trkpt lat="47.2591" lon="-2.31507">
        <ele>1.7999999523163</ele>
        <time>2020-02-06T11:23:36.000Z</time>
      </trkpt>
      <trkpt lat="47.2591" lon="-2.31504">
        <ele>1.2000000476837</ele>
        <time>2020-02-06T11:23:37.000Z</time>
      </trkpt>
      <trkpt lat="47.2591" lon="-2.31503">
        <ele>0.80000001192093</ele>
        <time>2020-02-06T11:23:38.000Z</time>
      </trkpt>
      <trkpt lat="47.2591" lon="-2.31498">
        <ele>0.80000001192093</ele>
        <time>2020-02-06T11:23:40.000Z</time>
      </trkpt>
      <trkpt lat="47.25914" lon="-2.31481">
        <ele>0.80000001192093</ele>
        <time>2020-02-06T11:23:44.000Z</time>
      </trkpt>
      <trkpt lat="47.25916" lon="-2.31474">
        <ele>0.80000001192093</ele>
        <time>2020-02-06T11:23:45.000Z</time>
      </trkpt>
      <trkpt lat="47.25922" lon="-2.31457">
        <ele>0.80000001192093</ele>
        <time>2020-02-06T11:23:48.000Z</time>
      </trkpt>
      <trkpt lat="47.25926" lon="-2.31456">
        <ele>0.80000001192093</ele>
        <time>2020-02-06T11:23:49.000Z</time>
      </trkpt>
      <trkpt lat="47.25938" lon="-2.31462">
        <ele>0.80000001192093</ele>
        <time>2020-02-06T11:23:52.000Z</time>
      </trkpt>
      <trkpt lat="47.2595" lon="-2.31456">
        <ele>0.80000001192093</ele>
        <time>2020-02-06T11:23:56.000Z</time>
      </trkpt>
      <trkpt lat="47.25952" lon="-2.31451">
        <ele>0.80000001192093</ele>
        <time>2020-02-06T11:23:57.000Z</time>
      </trkpt>
      <trkpt lat="47.25955" lon="-2.31445">
        <ele>0.80000001192093</ele>
        <time>2020-02-06T11:23:58.000Z</time>
      </trkpt>
      <trkpt lat="47.25961" lon="-2.3143">
        <ele>0.20000000298023</ele>
        <time>2020-02-06T11:24:01.000Z</time>
      </trkpt>
      <trkpt lat="47.25965" lon="-2.31426">
        <ele>-0.20000000298023</ele>
        <time>2020-02-06T11:24:02.000Z</time>
      </trkpt>
      <trkpt lat="47.25971" lon="-2.31424">
        <ele>-0.60000002384186</ele>
        <time>2020-02-06T11:24:03.000Z</time>
      </trkpt>
      <trkpt lat="47.25976" lon="-2.31425">
        <ele>-1</ele>
        <time>2020-02-06T11:24:04.000Z</time>
      </trkpt>
      <trkpt lat="47.25981" lon="-2.31426">
        <ele>-1.3999999761581</ele>
        <time>2020-02-06T11:24:05.000Z</time>
      </trkpt>
      <trkpt lat="47.25996" lon="-2.31435">
        <ele>-1.3999999761581</ele>
        <time>2020-02-06T11:24:08.000Z</time>
      </trkpt>
      <trkpt lat="47.26" lon="-2.31439">
        <ele>-1.3999999761581</ele>
        <time>2020-02-06T11:24:09.000Z</time>
      </trkpt>
      <trkpt lat="47.26022" lon="-2.31454">
        <ele>-1.3999999761581</ele>
        <time>2020-02-06T11:24:14.000Z</time>
      </trkpt>
      <trkpt lat="47.26053" lon="-2.31474">
        <ele>-1.3999999761581</ele>
        <time>2020-02-06T11:24:21.000Z</time>
      </trkpt>
      <trkpt lat="47.26057" lon="-2.31477">
        <ele>-1.3999999761581</ele>
        <time>2020-02-06T11:24:22.000Z</time>
      </trkpt>
      <trkpt lat="47.2606" lon="-2.31491">
        <ele>-1.3999999761581</ele>
        <time>2020-02-06T11:24:25.000Z</time>
      </trkpt>
      <trkpt lat="47.26048" lon="-2.315">
        <ele>-1.3999999761581</ele>
        <time>2020-02-06T11:24:28.000Z</time>
      </trkpt>
      <trkpt lat="47.26043" lon="-2.31513">
        <ele>-1.3999999761581</ele>
        <time>2020-02-06T11:24:32.000Z</time>
      </trkpt>
      <trkpt lat="47.26053" lon="-2.31529">
        <ele>-1.3999999761581</ele>
        <time>2020-02-06T11:24:35.000Z</time>
      </trkpt>
      <trkpt lat="47.26062" lon="-2.31544">
        <ele>-1.3999999761581</ele>
        <time>2020-02-06T11:24:38.000Z</time>
      </trkpt>
      <trkpt lat="47.26068" lon="-2.31562">
        <ele>-1.3999999761581</ele>
        <time>2020-02-06T11:24:41.000Z</time>
      </trkpt>
      <trkpt lat="47.26076" lon="-2.31579">
        <ele>-1.7999999523163</ele>
        <time>2020-02-06T11:24:44.000Z</time>
      </trkpt>
      <trkpt lat="47.2608" lon="-2.3158">
        <ele>-2.2000000476837</ele>
        <time>2020-02-06T11:24:45.000Z</time>
      </trkpt>
      <trkpt lat="47.26083" lon="-2.31582">
        <ele>-2.7999999523163</ele>
        <time>2020-02-06T11:24:46.000Z</time>
      </trkpt>
      <trkpt lat="47.26086" lon="-2.31585">
        <ele>-3.5999999046326</ele>
        <time>2020-02-06T11:24:47.000Z</time>
      </trkpt>
      <trkpt lat="47.26093" lon="-2.31594">
        <ele>-3.5999999046326</ele>
        <time>2020-02-06T11:24:49.000Z</time>
      </trkpt>
      <trkpt lat="47.26096" lon="-2.31601">
        <ele>-3.5999999046326</ele>
        <time>2020-02-06T11:24:50.000Z</time>
      </trkpt>
      <trkpt lat="47.26106" lon="-2.31618">
        <ele>-3.5999999046326</ele>
        <time>2020-02-06T11:24:53.000Z</time>
      </trkpt>
      <trkpt lat="47.26116" lon="-2.3162">
        <ele>-3.5999999046326</ele>
        <time>2020-02-06T11:24:55.000Z</time>
      </trkpt>
      <trkpt lat="47.26132" lon="-2.31616">
        <ele>-3.5999999046326</ele>
        <time>2020-02-06T11:24:58.000Z</time>
      </trkpt>
      <trkpt lat="47.26137" lon="-2.31615">
        <ele>-3.5999999046326</ele>
        <time>2020-02-06T11:24:59.000Z</time>
      </trkpt>
      <trkpt lat="47.26161" lon="-2.31604">
        <ele>-3.5999999046326</ele>
        <time>2020-02-06T11:25:04.000Z</time>
      </trkpt>
      <trkpt lat="47.26166" lon="-2.31602">
        <ele>-3.5999999046326</ele>
        <time>2020-02-06T11:25:05.000Z</time>
      </trkpt>
      <trkpt lat="47.26199" lon="-2.3159">
        <ele>-3.5999999046326</ele>
        <time>2020-02-06T11:25:12.000Z</time>
      </trkpt>
      <trkpt lat="47.26204" lon="-2.31589">
        <ele>-3.5999999046326</ele>
        <time>2020-02-06T11:25:13.000Z</time>
      </trkpt>
      <trkpt lat="47.26219" lon="-2.31592">
        <ele>-3.5999999046326</ele>
        <time>2020-02-06T11:25:16.000Z</time>
      </trkpt>
      <trkpt lat="47.26231" lon="-2.31602">
        <ele>-3.5999999046326</ele>
        <time>2020-02-06T11:25:19.000Z</time>
      </trkpt>
      <trkpt lat="47.26238" lon="-2.31609">
        <ele>-3.5999999046326</ele>
        <time>2020-02-06T11:25:21.000Z</time>
      </trkpt>
      <trkpt lat="47.26246" lon="-2.3162">
        <ele>-3.5999999046326</ele>
        <time>2020-02-06T11:25:23.000Z</time>
      </trkpt>
      <trkpt lat="47.26255" lon="-2.31637">
        <ele>-3.5999999046326</ele>
        <time>2020-02-06T11:25:26.000Z</time>
      </trkpt>
      <trkpt lat="47.26272" lon="-2.31664">
        <ele>-3.5999999046326</ele>
        <time>2020-02-06T11:25:31.000Z</time>
      </trkpt>
      <trkpt lat="47.26283" lon="-2.31685">
        <ele>-3.5999999046326</ele>
        <time>2020-02-06T11:25:35.000Z</time>
      </trkpt>
      <trkpt lat="47.26286" lon="-2.31691">
        <ele>-3.5999999046326</ele>
        <time>2020-02-06T11:25:36.000Z</time>
      </trkpt>
      <trkpt lat="47.26293" lon="-2.31703">
        <ele>-3.5999999046326</ele>
        <time>2020-02-06T11:25:38.000Z</time>
      </trkpt>
      <trkpt lat="47.26301" lon="-2.3171">
        <ele>-3.5999999046326</ele>
        <time>2020-02-06T11:25:40.000Z</time>
      </trkpt>
      <trkpt lat="47.26305" lon="-2.3171">
        <ele>-3.5999999046326</ele>
        <time>2020-02-06T11:25:41.000Z</time>
      </trkpt>
      <trkpt lat="47.26319" lon="-2.31704">
        <ele>-3.5999999046326</ele>
        <time>2020-02-06T11:25:45.000Z</time>
      </trkpt>
      <trkpt lat="47.26323" lon="-2.31702">
        <ele>-3.5999999046326</ele>
        <time>2020-02-06T11:25:46.000Z</time>
      </trkpt>
      <trkpt lat="47.2633" lon="-2.31692">
        <ele>-3.5999999046326</ele>
        <time>2020-02-06T11:25:49.000Z</time>
      </trkpt>
      <trkpt lat="47.26332" lon="-2.31688">
        <ele>-3.5999999046326</ele>
        <time>2020-02-06T11:25:50.000Z</time>
      </trkpt>
      <trkpt lat="47.26336" lon="-2.31687">
        <ele>-3.5999999046326</ele>
        <time>2020-02-06T11:25:51.000Z</time>
      </trkpt>
      <trkpt lat="47.2634" lon="-2.31684">
        <ele>-3.5999999046326</ele>
        <time>2020-02-06T11:25:53.000Z</time>
      </trkpt>
      <trkpt lat="47.26347" lon="-2.3168">
        <ele>-3.2000000476837</ele>
        <time>2020-02-06T11:25:55.000Z</time>
      </trkpt>
      <trkpt lat="47.26351" lon="-2.31678">
        <ele>-2.7999999523163</ele>
        <time>2020-02-06T11:25:56.000Z</time>
      </trkpt>
      <trkpt lat="47.26353" lon="-2.31676">
        <ele>-2.4000000953674</ele>
        <time>2020-02-06T11:25:57.000Z</time>
      </trkpt>
      <trkpt lat="47.26357" lon="-2.31675">
        <ele>-2</ele>
        <time>2020-02-06T11:25:58.000Z</time>
      </trkpt>
      <trkpt lat="47.26361" lon="-2.31673">
        <ele>-1.3999999761581</ele>
        <time>2020-02-06T11:25:59.000Z</time>
      </trkpt>
      <trkpt lat="47.26382" lon="-2.31662">
        <ele>-1.3999999761581</ele>
        <time>2020-02-06T11:26:05.000Z</time>
      </trkpt>
      <trkpt lat="47.264" lon="-2.31654">
        <ele>-1.3999999761581</ele>
        <time>2020-02-06T11:26:11.000Z</time>
      </trkpt>
      <trkpt lat="47.26406" lon="-2.31641">
        <ele>-1</ele>
        <time>2020-02-06T11:26:15.000Z</time>
      </trkpt>
      <trkpt lat="47.26407" lon="-2.31637">
        <ele>-0.60000002384186</ele>
        <time>2020-02-06T11:26:16.000Z</time>
      </trkpt>
      <trkpt lat="47.26407" lon="-2.31632">
        <ele>-0.20000000298023</ele>
        <time>2020-02-06T11:26:17.000Z</time>
      </trkpt>
      <trkpt lat="47.26407" lon="-2.31627">
        <ele>0.20000000298023</ele>
        <time>2020-02-06T11:26:18.000Z</time>
      </trkpt>
      <trkpt lat="47.26408" lon="-2.31622">
        <ele>0.60000002384186</ele>
        <time>2020-02-06T11:26:19.000Z</time>
      </trkpt>
      <trkpt lat="47.26408" lon="-2.31612">
        <ele>0.60000002384186</ele>
        <time>2020-02-06T11:26:21.000Z</time>
      </trkpt>
      <trkpt lat="47.26409" lon="-2.31584">
        <ele>0.60000002384186</ele>
        <time>2020-02-06T11:26:27.000Z</time>
      </trkpt>
      <trkpt lat="47.26409" lon="-2.31562">
        <ele>0.60000002384186</ele>
        <time>2020-02-06T11:26:32.000Z</time>
      </trkpt>
      <trkpt lat="47.26411" lon="-2.31551">
        <ele>0.60000002384186</ele>
        <time>2020-02-06T11:26:35.000Z</time>
      </trkpt>
      <trkpt lat="47.26415" lon="-2.31552">
        <ele>0.60000002384186</ele>
        <time>2020-02-06T11:26:37.000Z</time>
      </trkpt>
      <trkpt lat="47.26416" lon="-2.31554">
        <ele>0.60000002384186</ele>
        <time>2020-02-06T11:26:40.000Z</time>
      </trkpt>
    </trkseg>
  </trk>
</gpx>